# Wetter Temperatur Luftdruck Luftfeuchtigkeit Sichtweite Windgeschwindigkeit Windrichtung Zeit
1 Clouds 29 1017 58 10000 4.63 250 08:28 02.10.2022
2 Clouds 28 1018 65 10000 3.09 160 05:19 02.10.2022
3 Clear 21 1018 88 10000 2.06 140 00:58 02.10.2022
4 Clear 21 1018 88 10000 2.06 140 00:38 02.10.2022
5 Clouds 20 1018 94 10000 2.06 130 23:28 01.10.2022
6 Clear 23 1018 83 10000 1.69 106 21:48 01.10.2022
7 Clear 23 1017 83 10000 1.06 118 18:54 01.10.2022
8 Clear 23 1017 83 10000 1.36 104 17:46 01.10.2022
9 Clear 23 1017 83 10000 1.25 30 15:28 01.10.2022
10 Clear 23 1017 83 10000 4.12 340 13:52 01.10.2022
11 Clear 24 1016 78 10000 4.63 310 12:34 01.10.2022
12 Clouds 25 1016 73 10000 3.6 340 11:22 01.10.2022
13 Clouds 27 1015 57 10000 2.57 330 10:51 01.10.2022
14 Clouds 27 1015 57 10000 2.57 330 10:29 01.10.2022
15 Clouds 28 1016 54 10000 1.54 260 09:21 01.10.2022
16 Clouds 28 1016 54 10000 1.03 280 08:26 01.10.2022
17 Clouds 24 1018 83 10000 1.54 290 03:42 01.10.2022
18 Clouds 23 1017 88 10000 1.03 0 02:37 01.10.2022
19 Clouds 20 1016 94 10000 1.03 100 23:21 30.09.2022
20 Clear 22 1016 88 10000 1.4 45 21:58 30.09.2022
21 Clear 22 1016 88 10000 1.91 42 20:53 30.09.2022
22 Clouds 22 1016 88 10000 2.07 44 20:20 30.09.2022
23 Clouds 22 1015 88 10000 2.14 41 18:27 30.09.2022
24 Clouds 22 1015 88 10000 2.01 32 16:32 30.09.2022
25 Clouds 22 1015 88 10000 2.57 350 14:23 30.09.2022
26 Clouds 24 1014 83 10000 4.63 340 12:29 30.09.2022
27 Clouds 25 1013 73 10000 5.14 310 11:55 30.09.2022
28 Clouds 28 1013 51 10000 1.03 0 08:57 30.09.2022
29 Clouds 27 1014 65 10000 1.03 270 06:38 30.09.2022
30 Clouds 23 1015 78 10000 1.03 0 02:51 30.09.2022
31 Clouds 22 1015 88 10000 1.54 80 01:23 30.09.2022
32 Clear 22 1015 78 10000 2.46 23 21:39 29.09.2022
33 Clear 22 1014 78 10000 2.55 20 21:19 29.09.2022
34 Clear 22 1014 78 10000 2.69 28 18:56 29.09.2022
35 Clear 22 1014 78 10000 2.66 25 17:49 29.09.2022
36 Clear 22 1014 78 10000 2.89 25 16:29 29.09.2022
37 Clear 22 1014 78 10000 2.89 25 15:37 29.09.2022
38 Clouds 22 1013 78 10000 3.6 340 14:59 29.09.2022
39 Clouds 23 1012 78 10000 5.14 360 12:22 29.09.2022
40 Clouds 26 1011 69 10000 6.17 340 08:44 29.09.2022
41 Clouds 25 1013 73 10000 4.63 340 04:22 29.09.2022
42 Clouds 23 1013 78 10000 3.09 40 01:47 29.09.2022
43 Clouds 23 1012 73 10000 2.37 12 23:20 28.09.2022
44 Clouds 23 1012 73 10000 2.57 13 21:31 28.09.2022
45 Clouds 23 1012 73 10000 2.7 26 20:49 28.09.2022
46 Clouds 23 1012 73 10000 2.15 22 19:48 28.09.2022
47 Clouds 23 1012 73 10000 2.53 39 16:27 28.09.2022
48 Clouds 23 1011 73 10000 5.66 360 13:28 28.09.2022
49 Clouds 24 1010 69 10000 6.69 10 11:43 28.09.2022
50 Clouds 27 1009 65 10000 7.2 340 09:34 28.09.2022
51 Clouds 27 1010 65 10000 5.66 340 07:41 28.09.2022
52 Clouds 26 1010 69 10000 5.14 330 05:32 28.09.2022
53 Clouds 22 1011 78 10000 2.57 20 01:41 28.09.2022
54 Clouds 20 1011 94 10000 3.09 50 23:31 27.09.2022
55 Clouds 22 1011 83 10000 2.43 34 22:33 27.09.2022
56 Clouds 22 1011 83 10000 2.87 28 21:20 27.09.2022
57 Clouds 22 1011 83 10000 3.04 36 20:26 27.09.2022
58 Clouds 22 1011 83 10000 3.21 35 19:37 27.09.2022
59 Clouds 22 1012 83 10000 3.33 33 17:46 27.09.2022
60 Clouds 22 1012 83 10000 3.17 31 16:25 27.09.2022
61 Clouds 22 1012 83 10000 3.43 31 15:18 27.09.2022
62 Clouds 22 1012 83 10000 6.69 360 13:36 27.09.2022
63 Clouds 22 1011 78 10000 7.2 10 12:36 27.09.2022
64 Clouds 25 1011 78 10000 3.09 320 09:54 27.09.2022
65 Clouds 25 1012 83 10000 2.06 270 07:41 27.09.2022
66 Clouds 23 1014 88 10000 1.03 0 04:28 27.09.2022
67 Rain 22 1013 88 6000 6.69 360 01:37 27.09.2022
68 Mist 22 1013 100 2500 4.63 330 23:45 26.09.2022
69 Rain 22 1014 94 9118 2.7 26 23:21 26.09.2022
70 Clouds 22 1013 94 10000 3.55 38 20:58 26.09.2022
71 Clouds 22 1013 94 8681 3.02 34 19:42 26.09.2022
72 Clouds 22 1014 93 10000 2.36 35 18:39 26.09.2022
73 Clear 25 1014 94 5610 1.65 340 17:24 26.09.2022
74 Clouds 25 1014 94 9000 2.06 190 14:57 26.09.2022
75 Clouds 25 1013 88 10000 4.63 340 12:30 26.09.2022
76 Clouds 26 1013 83 10000 2.57 350 10:42 26.09.2022
77 Clouds 26 1013 83 10000 2.57 350 10:22 26.09.2022
78 Clouds 27 1013 78 10000 2.06 310 09:56 26.09.2022
79 Clouds 27 1013 78 10000 2.06 310 09:26 26.09.2022
80 Clouds 27 1013 78 10000 2.57 310 08:58 26.09.2022
81 Clouds 24 1015 94 7000 2.06 160 03:48 26.09.2022
82 Clouds 23 1014 94 9000 0.51 0 01:52 26.09.2022
83 Clouds 24 1014 83 10000 2.04 31 23:20 25.09.2022
84 Rain 24 1014 83 10000 1.62 28 21:44 25.09.2022
85 Clouds 24 1014 83 10000 1.25 1 20:57 25.09.2022
86 Clouds 24 1014 83 10000 1.25 1 20:33 25.09.2022
87 Clouds 24 1014 83 10000 2.11 52 18:44 25.09.2022
88 Clouds 24 1014 83 10000 1.86 40 18:24 25.09.2022
89 Clouds 24 1015 83 10000 1.35 49 16:59 25.09.2022
90 Clouds 24 1015 83 10000 0.93 28 15:48 25.09.2022
91 Clouds 24 1014 83 10000 3.6 350 14:31 25.09.2022
92 Clouds 24 1014 83 10000 3.6 350 14:31 25.09.2022
93 Clouds 24 1013 83 10000 4.63 330 13:45 25.09.2022
94 Clouds 27 1012 69 10000 4.63 250 10:37 25.09.2022
95 Clouds 28 1012 65 10000 2.57 260 09:21 25.09.2022
96 Clouds 27 1013 61 10000 1.03 0 06:28 25.09.2022
97 Clouds 24 1014 69 10000 1.54 270 03:40 25.09.2022
98 Clouds 19 1013 82 10000 1.03 120 23:36 24.09.2022
99 Clouds 22 1013 68 10000 3.46 52 21:19 24.09.2022
100 Clouds 19 1013 71 10000 3.45 36 19:24 24.09.2022
101 Clouds 20 1013 72 10000 3.82 36 18:25 24.09.2022
102 Clouds 20 1013 72 10000 3.91 32 16:36 24.09.2022
103 Clouds 22 1013 68 10000 3.82 39 15:23 24.09.2022
104 Clear 22 1012 68 10000 7.72 360 13:50 24.09.2022
105 Clouds 22 1012 68 10000 7.72 360 12:58 24.09.2022
106 Clouds 22 1012 68 10000 7.72 360 12:20 24.09.2022
107 Clouds 25 1012 61 10000 8.23 350 09:57 24.09.2022
108 Clouds 26 1012 50 10000 8.75 340 08:50 24.09.2022
109 Clouds 27 1012 54 10000 7.72 340 07:39 24.09.2022
110 Clouds 25 1014 61 10000 6.69 350 04:48 24.09.2022
111 Clouds 24 1014 69 10000 6.69 350 03:42 24.09.2022
112 Clouds 22 1013 83 10000 2.94 3 22:36 23.09.2022
113 Clouds 22 1012 83 10000 3.24 344 21:28 23.09.2022
114 Clouds 22 1012 83 10000 3.24 344 20:56 23.09.2022
115 Clouds 22 1012 83 10000 2.94 350 20:20 23.09.2022
116 Clouds 22 1012 83 10000 2.75 0 18:51 23.09.2022
117 Clouds 22 1011 83 10000 4.63 360 14:55 23.09.2022
118 Clouds 24 1010 83 10000 4.12 350 10:55 23.09.2022
119 Rain 23 1010 83 10000 1.54 330 09:33 23.09.2022
120 Rain 26 1010 69 10000 4.63 310 05:58 23.09.2022
121 Clear 24 1010 78 10000 3.6 10 00:32 23.09.2022
122 Clouds 22 1010 83 10000 2.06 20 23:21 22.09.2022
123 Clouds 22 1010 82 10000 2.45 1 22:26 22.09.2022
124 Clouds 22 1010 81 10000 3.03 1 20:51 22.09.2022
125 Clouds 22 1011 79 10000 2.17 35 19:37 22.09.2022
126 Clouds 22 1011 77 10000 2.92 31 16:57 22.09.2022
127 Clear 25 1011 65 10000 5.66 320 12:46 22.09.2022
128 Clouds 27 1010 57 10000 2.57 330 10:32 22.09.2022
129 Clouds 28 1010 54 10000 2.57 300 08:52 22.09.2022
130 Clouds 27 1012 54 10000 2.06 360 06:45 22.09.2022
131 Clear 23 1014 64 10000 2.06 190 02:52 22.09.2022
132 Clear 19 1014 77 10000 1.54 120 23:25 21.09.2022
133 Clouds 22 1014 56 10000 2.35 52 21:41 21.09.2022
134 Clouds 22 1014 56 10000 2.34 55 20:18 21.09.2022
135 Clouds 22 1014 56 10000 2.07 40 17:48 21.09.2022
136 Clouds 22 1014 56 10000 2.29 53 16:31 21.09.2022
137 Clouds 22 1013 56 10000 3.09 60 14:31 21.09.2022
138 Clouds 23 1012 49 10000 6.69 10 12:42 21.09.2022
139 Clouds 23 1012 49 10000 6.17 20 11:29 21.09.2022
140 Clouds 26 1011 38 10000 6.69 40 09:55 21.09.2022
141 Clouds 25 1012 39 10000 5.33 42 09:00 21.09.2022
142 Clouds 26 1011 36 10000 8.23 20 07:18 21.09.2022
143 Clouds 21 1013 52 10000 8.23 30 02:47 21.09.2022
144 Clouds 21 1013 52 10000 8.23 30 02:25 21.09.2022
145 Clouds 20 1013 52 10000 4.12 70 00:34 21.09.2022
146 Clouds 19 1013 59 10000 7.7 35 22:43 20.09.2022
147 Clouds 19 1012 59 10000 7.27 31 20:51 20.09.2022
148 Clouds 19 1012 59 10000 7.38 31 19:32 20.09.2022
149 Clouds 19 1011 59 10000 7.84 30 16:28 20.09.2022
150 Clouds 19 1011 59 10000 9.77 20 14:46 20.09.2022
151 Clear 20 1010 60 10000 9.26 20 13:22 20.09.2022
152 Clouds 25 1007 47 10000 9.77 20 09:34 20.09.2022
153 Clouds 26 1007 47 10000 9.26 20 08:26 20.09.2022
154 Clouds 24 1008 50 10000 9.26 30 04:50 20.09.2022
155 Clouds 24 1008 50 10000 9.77 40 03:48 20.09.2022
156 Clear 20 1007 68 10000 8.81 41 22:55 19.09.2022
157 Clear 20 1007 68 10000 8.8 37 21:46 19.09.2022
158 Clear 23 1006 78 10000 8.62 38 20:51 19.09.2022
159 Clear 23 1006 78 10000 8.62 38 20:30 19.09.2022
160 Clouds 23 1005 78 10000 8.68 31 17:44 19.09.2022
161 Clouds 23 1002 78 10000 11.32 360 14:54 19.09.2022
162 Clouds 23 1000 78 10000 13.38 360 13:32 19.09.2022
163 Clouds 24 998 78 10000 9.77 360 11:25 19.09.2022
164 Clouds 26 993 89 8000 13.38 320 08:51 19.09.2022
165 Clouds 25 991 88 10000 15.43 310 06:42 19.09.2022
166 Mist 25 981 100 3500 14.4 280 01:54 19.09.2022
167 Clouds 27 975 83 10000 15.95 310 23:22 18.09.2022
168 Clouds 25 964 88 10000 11.04 275 21:43 18.09.2022
169 Rain 25 960 88 10000 7.53 256 20:24 18.09.2022
170 Clouds 25 958 88 8229 9.82 5 17:54 18.09.2022
171 Rain 25 958 88 8229 9.82 5 17:35 18.09.2022
172 Rain 26 969 89 6000 16.46 20 15:36 18.09.2022
173 Rain 26 974 89 8000 16.46 10 13:47 18.09.2022
174 Rain 25 975 88 6000 15.95 20 12:34 18.09.2022
175 Rain 25 979 88 9000 18.01 20 10:55 18.09.2022
176 Rain 29 992 65 10000 12.35 30 03:42 18.09.2022
177 Rain 28 994 74 10000 11.83 20 01:24 18.09.2022
178 Rain 27 995 78 10000 11.32 20 00:23 18.09.2022
179 Rain 28 997 74 10000 9.29 44 21:39 17.09.2022
180 Rain 28 998 74 10000 8.49 35 19:43 17.09.2022
181 Clouds 28 999 74 10000 8.31 42 18:57 17.09.2022
182 Clouds 28 1001 74 10000 7.67 45 16:18 17.09.2022
183 Rain 28 1002 74 10000 5.14 40 13:56 17.09.2022
184 Rain 30 1002 66 10000 7.2 20 10:57 17.09.2022
185 Clouds 29 1002 70 10000 7.72 30 08:55 17.09.2022
186 Clouds 29 1003 74 10000 6.17 360 06:24 17.09.2022
187 Clouds 27 1005 69 10000 5.14 10 23:59 16.09.2022
188 Clouds 25 1006 76 10000 4.33 40 22:52 16.09.2022
189 Clouds 25 1005 72 10000 3.65 40 21:22 16.09.2022
190 Clouds 25 1006 70 10000 3.46 40 19:50 16.09.2022
191 Clouds 25 1007 74 10000 2.69 62 16:38 16.09.2022
192 Clouds 28 1007 61 10000 3.09 70 14:58 16.09.2022
193 Clouds 29 1007 58 10000 5.66 100 13:43 16.09.2022
194 Clouds 32 1005 48 10000 6.69 120 10:50 16.09.2022
195 Clouds 33 1005 52 10000 6.69 130 08:19 16.09.2022
196 Clouds 33 1006 52 10000 3.6 310 07:18 16.09.2022
197 Clouds 33 1006 52 10000 7.72 110 06:34 16.09.2022
198 Clouds 30 1008 66 10000 2.06 250 02:38 16.09.2022
199 Clear 28 1008 83 10000 2.52 38 22:43 15.09.2022
200 Clear 26 1008 80 10000 1.64 61 20:48 15.09.2022
201 Clear 28 1008 83 10000 1.84 69 19:48 15.09.2022
202 Clear 28 1009 83 10000 1.94 71 18:29 15.09.2022
203 Clear 28 1009 83 10000 1.94 71 17:31 15.09.2022
204 Clear 28 1009 83 10000 1.74 86 16:37 15.09.2022
205 Clouds 28 1008 83 10000 3.6 150 14:20 15.09.2022
206 Clouds 30 1007 74 10000 2.06 130 11:48 15.09.2022
207 Clouds 34 1007 49 10000 2.06 310 09:52 15.09.2022
208 Clouds 35 1007 49 10000 2.57 290 07:45 15.09.2022
209 Clouds 32 1009 55 10000 6.17 100 03:52 15.09.2022
210 Clouds 28 1009 74 10000 3.6 180 23:43 14.09.2022
211 Clear 26 1010 81 10000 2.34 65 21:26 14.09.2022
212 Clouds 26 1010 80 10000 2.32 59 19:33 14.09.2022
213 Clouds 26 1011 81 10000 2.09 59 18:30 14.09.2022
214 Clouds 26 1011 79 10000 2.01 68 16:40 14.09.2022
215 Clouds 30 1011 66 10000 1.99 78 15:29 14.09.2022
216 Clouds 31 1010 58 10000 6.17 110 13:36 14.09.2022
217 Clouds 34 1008 49 10000 6.69 100 10:47 14.09.2022
218 Clouds 35 1008 49 10000 7.2 100 09:27 14.09.2022
219 Clouds 35 1009 46 10000 6.69 100 06:51 14.09.2022
220 Clouds 35 1009 46 10000 6.69 100 06:33 14.09.2022
221 Clouds 32 1011 55 10000 3.09 0 03:54 14.09.2022
222 Clouds 30 1011 66 10000 1.54 60 01:41 14.09.2022
223 Clouds 30 1011 66 10000 1.54 60 01:20 14.09.2022
224 Clouds 27 1010 78 10000 2.57 30 23:55 13.09.2022
225 Clouds 27 1010 78 10000 2.57 30 23:37 13.09.2022
226 Clouds 27 1010 78 10000 2.57 30 23:19 13.09.2022
227 Clouds 26 1011 83 10000 2.94 59 22:43 13.09.2022
228 Clouds 26 1011 83 10000 2.94 59 22:43 13.09.2022
229 Clouds 26 1011 83 10000 2.74 55 21:42 13.09.2022
230 Clouds 26 1011 81 10000 3 59 19:32 13.09.2022
231 Clouds 29 1011 70 10000 2.91 68 16:45 13.09.2022
232 Clouds 29 1011 70 10000 2.73 70 15:53 13.09.2022
233 Clouds 30 1011 66 10000 2.57 50 13:50 13.09.2022
234 Clouds 30 1010 66 10000 3.6 70 12:28 13.09.2022
235 Clouds 33 1009 55 10000 6.69 50 08:32 13.09.2022
236 Clouds 33 1009 55 10000 2.06 0 04:24 13.09.2022
237 Clouds 26 1009 78 10000 3.89 55 23:23 12.09.2022
238 Clouds 26 1009 78 10000 3.89 55 23:23 12.09.2022
239 Clouds 26 1009 78 10000 3.89 55 22:46 12.09.2022
240 Clouds 26 1009 77 10000 3.25 54 21:35 12.09.2022
241 Clouds 26 1009 79 10000 3.38 64 20:24 12.09.2022
242 Clouds 29 1010 66 10000 3.17 66 18:41 12.09.2022
243 Clouds 29 1010 66 10000 2.59 58 15:53 12.09.2022
244 Clouds 31 1009 66 10000 5.66 20 12:57 12.09.2022
245 Clouds 32 1008 62 10000 5.66 310 10:56 12.09.2022
246 Clouds 33 1008 52 10000 3.09 300 09:33 12.09.2022
247 Clouds 31 1010 62 10000 2.57 280 04:42 12.09.2022
248 Clouds 29 1011 79 10000 2.06 300 02:57 12.09.2022
249 Clouds 28 1011 78 10000 2.09 58 22:51 11.09.2022
250 Clouds 28 1011 78 10000 2.09 60 21:40 11.09.2022
251 Clouds 28 1011 78 10000 2.2 61 20:44 11.09.2022
252 Clouds 28 1011 78 10000 1.93 61 19:45 11.09.2022
253 Clouds 28 1012 78 10000 1.39 62 19:21 11.09.2022
254 Clouds 28 1012 78 10000 1.35 72 17:57 11.09.2022
255 Clouds 28 1012 78 10000 1.53 74 16:23 11.09.2022
256 Clouds 28 1011 78 10000 5.66 10 14:18 11.09.2022
257 Clouds 29 1010 79 10000 5.14 360 12:31 11.09.2022
258 Clouds 32 1010 58 10000 2.57 290 08:25 11.09.2022
259 Clouds 30 1012 66 10000 2.06 280 05:56 11.09.2022
260 Clouds 25 1013 88 10000 2.06 90 00:34 11.09.2022
261 Clear 27 1013 74 10000 2.57 29 22:23 10.09.2022
262 Clear 27 1013 74 10000 2.16 34 20:51 10.09.2022
263 Clouds 27 1012 74 10000 2.24 55 19:45 10.09.2022
264 Clouds 27 1013 74 10000 2.53 62 19:27 10.09.2022
265 Clouds 27 1013 74 10000 2.39 63 17:53 10.09.2022
266 Clouds 27 1014 74 10000 2.29 48 15:44 10.09.2022
267 Clear 27 1013 74 10000 5.66 360 14:34 10.09.2022
268 Clouds 28 1012 78 10000 7.2 350 12:52 10.09.2022
269 Clouds 30 1012 70 10000 4.12 320 10:34 10.09.2022
270 Clouds 31 1011 55 10000 2.06 300 08:42 10.09.2022
271 Clouds 31 1011 55 10000 2.06 300 08:22 10.09.2022
272 Clouds 29 1013 65 10000 1.54 250 04:55 10.09.2022
273 Clouds 23 1013 94 10000 1.54 100 23:38 09.09.2022
274 Clouds 25 1014 83 10000 2.52 59 22:36 09.09.2022
275 Clouds 25 1013 83 10000 2.8 36 20:59 09.09.2022
276 Clouds 25 1013 83 10000 2.91 40 20:20 09.09.2022
277 Clouds 25 1013 83 10000 2.94 39 19:23 09.09.2022
278 Clouds 25 1014 83 10000 3.18 50 17:50 09.09.2022
279 Clouds 25 1014 83 10000 3.36 37 15:23 09.09.2022
280 Clouds 25 1012 83 10000 7.2 360 13:33 09.09.2022
281 Clouds 27 1012 74 10000 7.72 360 11:27 09.09.2022
282 Clouds 31 1012 55 10000 2.57 290 07:57 09.09.2022
283 Clouds 28 1014 65 10000 1.54 230 03:39 09.09.2022
284 Clouds 24 1013 88 10000 1.54 110 00:21 09.09.2022
285 Clouds 22 1013 85 10000 3.43 40 21:52 08.09.2022
286 Clouds 23 1013 85 10000 3.42 39 20:49 08.09.2022
287 Clouds 23 1013 85 10000 3.42 39 20:49 08.09.2022
288 Clouds 23 1014 84 10000 3.44 31 20:27 08.09.2022
289 Clouds 23 1014 83 10000 3.44 36 19:25 08.09.2022
290 Clouds 23 1014 82 10000 3.51 40 17:29 08.09.2022
291 Clouds 23 1014 82 10000 3.56 38 15:53 08.09.2022
292 Clouds 25 1013 78 10000 8.75 360 13:30 08.09.2022
293 Clouds 26 1012 73 10000 8.23 10 12:41 08.09.2022
294 Clouds 27 1012 69 10000 8.23 10 11:23 08.09.2022
295 Clouds 30 1011 54 10000 6.17 360 09:46 08.09.2022
296 Clouds 30 1012 48 10000 5.66 320 07:25 08.09.2022
297 Clouds 29 1013 54 10000 7.2 360 04:43 08.09.2022
298 Clouds 27 1014 61 10000 7.72 350 02:36 08.09.2022
299 Clouds 27 1014 61 10000 7.72 350 02:18 08.09.2022
300 Clouds 23 1015 73 10000 3.08 32 22:58 07.09.2022
301 Clouds 23 1014 73 10000 3.16 34 21:45 07.09.2022
302 Clouds 23 1014 73 10000 3.25 18 21:21 07.09.2022
303 Clouds 23 1014 73 10000 3.22 22 20:28 07.09.2022
304 Clouds 23 1014 73 10000 3.11 19 18:54 07.09.2022
305 Clouds 23 1015 73 10000 3.34 12 16:18 07.09.2022
306 Clear 28 1013 44 10000 5.14 10 10:52 07.09.2022
307 Clear 28 1013 44 10000 5.14 10 10:32 07.09.2022
308 Clear 28 1013 42 10000 6.69 20 08:26 07.09.2022
309 Clear 29 1014 42 10000 8.23 360 05:33 07.09.2022
310 Clouds 21 1014 94 10000 2.57 60 00:31 07.09.2022
311 Clouds 24 1013 78 10000 3.35 15 21:51 06.09.2022
312 Clouds 24 1013 78 10000 3.35 15 21:51 06.09.2022
313 Clouds 24 1013 78 10000 3.35 15 21:32 06.09.2022
314 Clouds 24 1012 78 10000 3.18 12 19:38 06.09.2022
315 Clouds 24 1012 78 10000 3.13 3 18:34 06.09.2022
316 Clouds 24 1012 78 10000 3.03 11 17:37 06.09.2022
317 Clouds 24 1012 78 10000 2.77 13 16:44 06.09.2022
318 Clouds 24 1012 78 10000 2.38 354 15:55 06.09.2022
319 Clouds 24 1010 78 10000 5.66 320 13:47 06.09.2022
320 Clouds 24 1010 78 10000 5.66 320 13:27 06.09.2022
321 Clouds 23 1010 88 10000 5.66 320 12:56 06.09.2022
322 Clouds 25 1009 78 10000 6.69 290 10:54 06.09.2022
323 Clouds 25 1008 78 10000 4.12 320 09:18 06.09.2022
324 Clouds 25 1007 78 10000 6.17 280 07:52 06.09.2022
325 Clouds 25 1007 78 10000 6.17 280 07:52 06.09.2022
326 Clouds 26 1006 73 10000 6.69 280 06:18 06.09.2022
327 Rain 27 999 78 8000 17.49 210 00:45 06.09.2022
328 Rain 27 998 88 10000 15.74 208 22:43 05.09.2022
329 Rain 27 997 88 10000 17.59 206 21:38 05.09.2022
330 Rain 27 994 88 7362 19.8 184 19:56 05.09.2022
331 Rain 27 994 88 7095 20.06 174 18:51 05.09.2022
332 Rain 27 994 88 3374 19.69 166 18:24 05.09.2022
333 Clouds 27 994 92 3374 19.69 166 17:35 05.09.2022
334 Rain 27 996 88 4249 18.99 157 15:53 05.09.2022
335 Rain 27 998 89 6000 13.89 150 13:54 05.09.2022
336 Clouds 28 999 83 10000 11.32 120 12:29 05.09.2022
337 Rain 27 1000 89 10000 9.77 130 10:35 05.09.2022
338 Rain 31 1002 62 10000 11.32 130 07:44 05.09.2022
339 Rain 29 1005 70 10000 7.2 120 02:58 05.09.2022
340 Rain 29 1005 65 10000 4.63 130 23:48 04.09.2022
341 Clouds 29 1007 74 10000 6.24 112 22:28 04.09.2022
342 Rain 29 1007 74 10000 6.24 112 21:41 04.09.2022
343 Clouds 29 1007 74 10000 5.39 123 19:44 04.09.2022
344 Clouds 29 1008 74 10000 4.41 118 18:21 04.09.2022
345 Rain 29 1008 74 10000 4.12 115 17:24 04.09.2022
346 Clouds 29 1008 74 10000 3.09 150 14:59 04.09.2022
347 Clouds 29 1008 74 10000 3.09 150 14:21 04.09.2022
348 Rain 29 1007 74 10000 2.57 130 12:24 04.09.2022
349 Clouds 31 1007 66 10000 3.6 130 10:51 04.09.2022
350 Rain 32 1007 62 10000 3.09 140 09:23 04.09.2022
351 Clouds 33 1008 58 10000 4.12 120 06:24 04.09.2022
352 Clouds 26 1010 89 10000 1.03 0 01:56 04.09.2022
353 Clouds 25 1010 84 10000 3.27 57 22:26 03.09.2022
354 Clouds 25 1010 94 10000 3.27 62 21:24 03.09.2022
355 Rain 25 1011 94 10000 2.8 63 20:26 03.09.2022
356 Rain 25 1011 94 10000 2.2 71 17:35 03.09.2022
357 Clouds 25 1011 94 10000 2.18 99 16:33 03.09.2022
358 Clouds 26 1011 94 10000 2.57 140 14:47 03.09.2022
359 Rain 26 1011 94 10000 2.57 140 14:26 03.09.2022
360 Rain 27 1011 83 10000 3.09 140 13:39 03.09.2022
361 Rain 27 1010 83 10000 1.03 0 11:18 03.09.2022
362 Rain 27 1010 89 10000 1.03 0 08:41 03.09.2022
363 Rain 26 1011 94 10000 0.51 0 06:59 03.09.2022
364 Rain 25 1012 94 10000 1.03 20 04:40 03.09.2022
365 Rain 25 1010 100 10000 1.54 140 00:41 03.09.2022
366 Clouds 27 1009 83 10000 3.17 50 23:20 02.09.2022
367 Rain 27 1009 83 10000 2.57 54 21:19 02.09.2022
368 Rain 27 1009 83 10000 3.18 78 20:39 02.09.2022
369 Rain 27 1010 83 10000 2.66 84 19:30 02.09.2022
370 Rain 27 1011 83 10000 2.71 73 18:43 02.09.2022
371 Rain 27 1011 83 10000 2.96 53 18:24 02.09.2022
372 Rain 27 1012 83 10000 3.11 42 16:49 02.09.2022
373 Rain 27 1012 83 10000 3.2 43 15:35 02.09.2022
374 Clouds 27 1011 83 10000 6.17 330 12:43 02.09.2022
375 Clouds 29 1010 74 10000 3.09 350 10:25 02.09.2022
376 Clouds 29 1009 70 10000 1.03 0 09:41 02.09.2022
377 Clouds 28 1009 74 10000 2.06 30 07:54 02.09.2022
378 Clouds 27 1010 74 10000 2.57 10 06:41 02.09.2022
379 Rain 26 1011 83 10000 3.09 170 03:52 02.09.2022
380 Rain 25 1010 94 10000 3.74 40 22:45 01.09.2022
381 Rain 25 1010 94 10000 3.53 38 21:44 01.09.2022
382 Rain 25 1010 94 10000 3.58 39 21:25 01.09.2022
383 Clouds 25 1010 94 10000 3.55 37 20:46 01.09.2022
384 Clouds 25 1010 94 10000 3.86 46 19:20 01.09.2022
385 Rain 25 1011 94 10000 3.91 44 17:47 01.09.2022
386 Rain 25 1011 94 10000 3.62 23 16:29 01.09.2022
387 Rain 26 1010 94 8000 4.12 30 14:33 01.09.2022
388 Rain 27 1009 89 10000 6.17 360 12:58 01.09.2022
389 Rain 28 1009 78 10000 4.63 360 11:53 01.09.2022
390 Rain 28 1009 78 10000 4.63 360 11:32 01.09.2022
391 Clouds 28 1009 78 10000 5.66 20 10:38 01.09.2022
392 Clouds 28 1008 83 10000 7.2 350 08:30 01.09.2022
393 Clouds 28 1009 83 10000 6.69 350 06:23 01.09.2022
394 Clouds 28 1008 83 10000 6.69 20 01:33 01.09.2022
395 Clouds 28 1008 83 10000 2.06 360 00:18 01.09.2022
396 Clouds 28 1008 83 10000 2.03 29 21:33 31.08.2022
397 Clouds 28 1007 83 10000 1.83 33 19:50 31.08.2022
398 Clouds 28 1007 83 10000 2.44 52 18:18 31.08.2022
399 Clouds 28 1007 83 10000 2.36 9 15:56 31.08.2022
400 Clouds 28 1006 83 10000 5.66 330 14:27 31.08.2022
401 Clouds 29 1005 74 10000 6.17 320 12:22 31.08.2022
402 Clouds 30 1005 74 10000 4.63 330 11:22 31.08.2022
403 Clouds 33 1005 62 10000 2.57 240 08:36 31.08.2022
404 Clouds 33 1007 66 10000 3.09 230 04:47 31.08.2022
405 Clouds 28 1007 74 10000 0.48 343 23:20 30.08.2022
406 Clouds 28 1007 74 10000 0.11 222 21:38 30.08.2022
407 Clouds 28 1007 74 10000 0.59 225 20:56 30.08.2022
408 Clouds 28 1008 74 10000 0.41 34 17:30 30.08.2022
409 Clear 28 1008 74 10000 2.06 330 14:44 30.08.2022
410 Clear 29 1008 70 10000 3.09 360 13:24 30.08.2022
411 Clouds 30 1008 62 10000 3.6 250 11:21 30.08.2022
412 Clouds 32 1008 58 10000 6.17 240 10:35 30.08.2022
413 Clouds 32 1009 62 10000 3.6 310 06:50 30.08.2022
414 Clear 27 1011 78 10000 2.57 140 01:45 30.08.2022
415 Clouds 27 1012 78 10000 1.86 71 22:54 29.08.2022
416 Clouds 27 1012 78 10000 2.25 74 22:20 29.08.2022
417 Clouds 27 1012 78 10000 2.27 53 21:24 29.08.2022
418 Clouds 27 1013 78 10000 2.08 45 19:48 29.08.2022
419 Clouds 27 1013 78 10000 2.36 29 17:43 29.08.2022
420 Clouds 27 1013 78 10000 2.04 36 17:24 29.08.2022
421 Clouds 27 1013 78 10000 2.21 51 15:42 29.08.2022
422 Clouds 27 1013 78 10000 1.03 0 14:43 29.08.2022
423 Clouds 28 1012 74 10000 4.12 330 12:42 29.08.2022
424 Clouds 31 1012 58 10000 3.09 330 10:51 29.08.2022
425 Clouds 32 1012 55 10000 2.57 350 09:41 29.08.2022
426 Clouds 32 1012 51 10000 3.09 330 08:27 29.08.2022
427 Clear 28 1013 65 10000 2.06 110 02:42 29.08.2022
428 Clear 24 1012 78 10000 1.54 0 23:50 28.08.2022
429 Clouds 25 1012 73 10000 1.92 86 21:57 28.08.2022
430 Clouds 25 1012 73 10000 1.92 86 21:31 28.08.2022
431 Clouds 25 1012 73 10000 2.17 70 20:24 28.08.2022
432 Clouds 25 1013 73 10000 2.4 56 18:38 28.08.2022
433 Clouds 25 1013 73 10000 2.56 54 18:18 28.08.2022
434 Clouds 25 1013 73 10000 2.54 68 16:52 28.08.2022
435 Clouds 25 1013 73 10000 2.61 56 15:41 28.08.2022
436 Clear 26 1011 61 10000 3.6 40 13:34 28.08.2022
437 Clouds 27 1010 61 10000 6.17 10 12:20 28.08.2022
438 Clouds 30 1009 48 10000 7.2 10 10:27 28.08.2022
439 Clouds 31 1009 35 10000 5.66 30 09:38 28.08.2022
440 Clouds 31 1010 42 10000 6.17 10 08:31 28.08.2022
441 Clouds 32 1010 37 10000 6.69 10 07:32 28.08.2022
442 Clouds 24 1011 69 10000 3.98 27 01:00 28.08.2022
443 Clouds 23 1010 83 10000 3.6 50 23:48 27.08.2022
444 Clouds 23 1010 81 10000 3.63 42 22:27 27.08.2022
445 Clouds 23 1010 81 10000 3.63 42 22:27 27.08.2022
446 Clouds 23 1010 80 10000 3.7 25 20:37 27.08.2022
447 Clouds 23 1009 79 10000 3.06 46 19:37 27.08.2022
448 Clouds 25 1009 74 10000 3.16 7 16:34 27.08.2022
449 Clouds 25 1009 74 10000 3.19 6 15:31 27.08.2022
450 Clear 27 1008 69 10000 6.17 350 13:57 27.08.2022
451 Clouds 27 1007 65 10000 4.63 350 12:22 27.08.2022
452 Clouds 29 1006 61 10000 7.72 320 10:30 27.08.2022
453 Clouds 29 1006 61 10000 7.72 310 09:39 27.08.2022
454 Clouds 31 1007 48 10000 2.06 240 06:54 27.08.2022
455 Clouds 28 1008 61 10000 2.57 30 02:24 27.08.2022
456 Clouds 23 1008 88 10000 1.54 90 23:49 26.08.2022
457 Clouds 25 1007 78 10000 1.71 357 21:53 26.08.2022
458 Clouds 25 1007 78 10000 2.54 331 20:22 26.08.2022
459 Clouds 25 1007 78 10000 2.05 316 18:19 26.08.2022
460 Clouds 25 1007 78 10000 2.06 313 16:36 26.08.2022
461 Clouds 25 1008 78 10000 2.36 311 15:25 26.08.2022
462 Clouds 26 1007 73 10000 4.63 310 13:20 26.08.2022
463 Clouds 27 1005 61 10000 5.66 290 11:48 26.08.2022
464 Clouds 27 1005 61 10000 5.66 290 11:22 26.08.2022
465 Clouds 29 1005 51 10000 4.12 310 09:45 26.08.2022
466 Clouds 28 1007 74 10000 3.6 330 04:56 26.08.2022
467 Rain 25 1006 88 10000 3.6 130 00:44 26.08.2022
468 Clouds 25 1007 74 10000 0.93 316 22:44 25.08.2022
469 Clouds 25 1007 74 10000 1.59 320 20:55 25.08.2022
470 Clouds 25 1007 74 10000 1.96 306 19:36 25.08.2022
471 Clouds 25 1007 74 10000 1.71 299 18:35 25.08.2022
472 Clouds 25 1007 74 10000 1.04 278 17:32 25.08.2022
473 Clouds 25 1007 74 10000 1.19 314 16:45 25.08.2022
474 Clouds 25 1008 74 10000 2.17 305 15:30 25.08.2022
475 Clouds 26 1007 73 10000 3.09 270 13:59 25.08.2022
476 Clouds 28 1006 65 10000 4.63 310 11:25 25.08.2022
477 Clouds 30 1006 54 10000 6.17 300 10:44 25.08.2022
478 Clouds 31 1006 55 10000 3.6 310 07:35 25.08.2022
479 Clouds 28 1008 69 10000 3.09 330 03:44 25.08.2022
480 Clouds 25 1007 88 10000 4.12 350 23:37 24.08.2022
481 Clouds 28 1007 94 10000 2.29 355 22:56 24.08.2022
482 Clouds 26 1007 88 10000 2.06 344 21:55 24.08.2022
483 Clouds 28 1007 94 10000 1.54 334 21:28 24.08.2022
484 Clouds 28 1006 94 10000 3.04 249 19:56 24.08.2022
485 Clouds 28 1007 94 10000 2.21 279 16:58 24.08.2022
486 Clouds 27 1007 89 10000 2.23 287 15:54 24.08.2022
487 Clouds 27 1007 91 10000 2.36 291 15:18 24.08.2022
488 Rain 28 1005 94 10000 2.06 180 12:48 24.08.2022
489 Clouds 28 1005 94 10000 3.09 140 11:18 24.08.2022
490 Rain 27 1006 94 10000 1.54 110 08:45 24.08.2022
491 Rain 26 1008 94 10000 3.6 20 05:26 24.08.2022
492 Rain 27 1007 89 10000 3.09 120 00:53 24.08.2022
493 Clouds 28 1007 83 10000 0.7 120 22:38 23.08.2022
494 Clouds 28 1007 83 10000 0.41 160 21:55 23.08.2022
495 Clouds 28 1007 83 10000 0.62 165 20:43 23.08.2022
496 Clouds 28 1007 83 10000 0.19 33 18:58 23.08.2022
497 Clouds 28 1007 83 10000 0.16 16 17:56 23.08.2022
498 Clouds 28 1007 83 10000 0.21 45 17:22 23.08.2022
499 Clouds 28 1007 83 10000 0.44 288 15:54 23.08.2022
500 Clouds 28 1006 83 10000 1.54 330 13:54 23.08.2022
501 Clouds 28 1006 78 10000 3.09 330 12:46 23.08.2022
502 Clouds 30 1006 70 10000 5.14 230 10:57 23.08.2022
503 Clouds 30 1006 70 10000 5.14 230 10:33 23.08.2022
504 Clouds 32 1006 62 10000 5.66 230 08:58 23.08.2022
505 Clouds 32 1006 62 10000 5.66 230 08:38 23.08.2022
506 Clouds 32 1006 62 10000 5.66 230 08:18 23.08.2022
507 Clouds 32 1006 62 10000 6.17 230 07:25 23.08.2022
508 Clouds 31 1006 70 10000 4.63 240 06:22 23.08.2022
509 Clouds 28 1006 83 10000 0.51 0 01:43 23.08.2022
510 Clouds 27 1006 89 10000 2.57 140 00:26 23.08.2022
511 Clouds 29 1007 83 10000 0.44 316 23:32 22.08.2022
512 Clouds 26 1005 86 10000 1.03 266 22:19 22.08.2022
513 Clouds 26 1005 86 10000 0.76 199 19:56 22.08.2022
514 Clouds 26 1005 86 10000 0.76 199 19:36 22.08.2022
515 Clouds 29 1005 83 10000 0.24 196 18:36 22.08.2022
516 Clouds 29 1006 83 10000 0.27 81 15:45 22.08.2022
517 Clouds 29 1005 84 10000 4.12 230 14:48 22.08.2022
518 Clouds 30 1003 74 10000 5.14 240 11:20 22.08.2022
519 Clouds 32 1003 62 10000 4.63 230 09:20 22.08.2022
520 Clouds 31 1004 70 10000 2.57 240 04:45 22.08.2022
521 Clouds 27 1003 89 10000 1.03 0 00:54 22.08.2022
522 Clouds 27 1003 89 10000 1.03 0 00:35 22.08.2022
523 Clouds 28 1004 83 10000 1.47 155 22:57 21.08.2022
524 Clouds 28 1004 83 10000 1.39 155 21:50 21.08.2022
525 Clouds 28 1003 83 10000 2.01 144 21:18 21.08.2022
526 Clouds 28 1004 83 10000 1.62 151 19:40 21.08.2022
527 Clouds 28 1003 83 10000 1.67 132 18:28 21.08.2022
528 Clouds 28 1004 83 10000 1.78 67 16:29 21.08.2022
529 Clouds 28 1004 83 10000 1.78 67 15:46 21.08.2022
530 Clouds 28 1003 83 10000 6.69 360 14:35 21.08.2022
531 Clouds 29 1002 79 10000 6.17 360 13:43 21.08.2022
532 Clouds 29 1002 79 10000 6.69 360 12:47 21.08.2022
533 Clouds 32 1001 70 10000 4.12 290 09:56 21.08.2022
534 Clouds 32 1001 74 10000 5.66 250 08:56 21.08.2022
535 Clouds 32 1001 74 10000 5.66 250 08:38 21.08.2022
536 Clouds 32 1002 70 10000 3.6 230 07:28 21.08.2022
537 Clouds 32 1003 70 10000 2.06 290 04:26 21.08.2022
538 Clouds 28 1003 94 10000 0.51 0 00:53 21.08.2022
539 Clouds 27 1003 89 10000 0.9 37 22:59 20.08.2022
540 Clouds 27 1003 90 10000 0.91 25 21:43 20.08.2022
541 Rain 27 1003 90 10000 1.15 325 20:48 20.08.2022
542 Rain 27 1004 91 10000 1.43 252 19:41 20.08.2022
543 Clouds 30 1004 84 10000 2.16 239 18:35 20.08.2022
544 Clouds 30 1004 84 10000 2.58 241 17:58 20.08.2022
545 Clouds 30 1004 84 10000 2.45 217 17:18 20.08.2022
546 Clouds 30 1004 84 10000 2.19 211 15:50 20.08.2022
547 Rain 30 1004 84 10000 5.14 210 13:39 20.08.2022
548 Rain 30 1003 84 10000 6.69 230 11:53 20.08.2022
549 Clouds 30 1003 84 10000 6.69 230 10:36 20.08.2022
550 Clouds 32 1004 74 10000 7.72 230 08:53 20.08.2022
551 Clouds 32 1005 74 10000 7.2 220 05:58 20.08.2022
552 Clouds 31 1005 79 10000 6.17 230 03:28 20.08.2022
553 Clouds 29 1005 89 10000 7.2 230 00:51 20.08.2022
554 Clouds 30 1006 79 10000 5.07 234 23:19 19.08.2022
555 Clouds 30 1006 79 10000 5.07 234 22:35 19.08.2022
556 Clouds 28 1005 91 10000 5.29 232 20:29 19.08.2022
557 Clouds 30 1006 79 10000 3.89 230 18:46 19.08.2022
558 Clouds 28 1007 90 10000 3.29 210 15:51 19.08.2022
559 Clouds 30 1006 79 10000 6.17 220 13:36 19.08.2022
560 Clouds 30 1006 79 10000 7.2 230 11:33 19.08.2022
561 Clouds 30 1006 79 10000 6.17 230 10:26 19.08.2022
562 Clouds 32 1006 70 10000 6.17 230 06:58 19.08.2022
563 Clouds 26 1007 100 10000 3.09 140 00:58 19.08.2022
564 Clouds 26 1007 100 10000 3.09 140 00:30 19.08.2022
565 Clouds 26 1007 100 10000 2.57 130 23:44 18.08.2022
566 Clouds 27 1008 83 10000 0.75 177 22:50 18.08.2022
567 Clouds 27 1008 83 10000 1.12 153 21:57 18.08.2022
568 Clouds 27 1008 83 10000 1.12 153 21:35 18.08.2022
569 Clouds 27 1007 83 10000 1.42 175 20:25 18.08.2022
570 Clouds 26 1007 88 10000 1.42 175 19:30 18.08.2022
571 Clouds 27 1008 83 10000 1.31 162 17:50 18.08.2022
572 Clouds 27 1008 83 10000 0.71 154 16:59 18.08.2022
573 Clouds 27 1009 83 10000 3.6 220 14:52 18.08.2022
574 Clouds 27 1009 83 10000 3.6 220 14:19 18.08.2022
575 Clouds 27 1008 83 10000 5.14 220 13:29 18.08.2022
576 Clouds 28 1008 78 10000 4.63 220 11:42 18.08.2022
577 Clouds 29 1008 74 10000 7.2 240 09:43 18.08.2022
578 Clouds 29 1008 70 10000 7.72 210 08:40 18.08.2022
579 Clouds 30 1008 62 10000 4.63 220 07:19 18.08.2022
580 Clouds 26 1008 89 10000 3.09 140 03:57 18.08.2022
581 Rain 25 1007 100 4000 1.03 0 23:34 17.08.2022
582 Rain 27 1008 94 10000 4 257 21:40 17.08.2022
583 Rain 27 1008 94 10000 4.83 233 20:19 17.08.2022
584 Clouds 27 1008 94 10000 5.23 224 19:28 17.08.2022
585 Clouds 27 1009 94 10000 5.01 219 17:35 17.08.2022
586 Clouds 27 1009 94 10000 4.86 217 16:22 17.08.2022
587 Rain 27 1009 94 10000 4.95 215 15:26 17.08.2022
588 Rain 26 1007 94 10000 1.54 120 12:57 17.08.2022
589 Rain 25 1008 94 10000 3.6 140 11:37 17.08.2022
590 Thunderstorm 25 1008 94 8000 3.09 110 09:31 17.08.2022
591 Thunderstorm 25 1009 94 3000 5.66 10 08:23 17.08.2022
592 Rain 29 1008 84 10000 7.72 210 03:27 17.08.2022
593 Rain 28 1008 89 10000 7.72 230 23:58 16.08.2022
594 Clouds 29 1009 83 10000 7.11 219 22:30 16.08.2022
595 Clouds 29 1008 83 5212 7.27 213 20:52 16.08.2022
596 Clouds 29 1008 83 8516 6.79 205 19:53 16.08.2022
597 Clouds 29 1008 83 10000 6.13 209 18:40 16.08.2022
598 Clouds 29 1009 83 6030 6.02 210 17:41 16.08.2022
599 Rain 29 1009 83 5760 5.63 214 15:47 16.08.2022
600 Clouds 29 1008 84 10000 4.12 200 14:55 16.08.2022
601 Clouds 29 1008 84 10000 4.12 200 14:37 16.08.2022
602 Rain 30 1007 79 10000 7.72 220 12:44 16.08.2022
603 Clouds 31 1007 79 10000 9.77 220 10:35 16.08.2022
604 Clouds 30 1006 79 10000 10.29 220 09:44 16.08.2022
605 Clouds 31 1006 74 10000 11.32 210 08:45 16.08.2022
606 Clouds 31 1007 74 10000 10.29 220 07:33 16.08.2022
607 Clouds 29 1008 84 10000 7.72 210 01:42 16.08.2022
608 Clouds 29 1008 89 7350 7.68 222 22:29 15.08.2022
609 Clouds 29 1008 89 7350 7.68 222 21:53 15.08.2022
610 Clouds 29 1007 89 8904 7.77 217 20:48 15.08.2022
611 Clouds 29 1008 89 10000 7.57 216 20:19 15.08.2022
612 Clouds 29 1008 89 10000 7.56 217 18:36 15.08.2022
613 Clouds 29 1008 89 10000 7.05 215 16:47 15.08.2022
614 Clouds 29 1008 89 10000 6.95 215 16:21 15.08.2022
615 Rain 28 1007 89 10000 7.2 200 13:55 15.08.2022
616 Clouds 29 1007 84 10000 6.69 200 12:29 15.08.2022
617 Mist 28 1007 94 5000 9.77 210 09:59 15.08.2022
618 Clouds 30 1007 79 10000 9.77 220 08:22 15.08.2022
619 Clouds 31 1008 79 10000 7.72 210 04:55 15.08.2022
620 Clouds 30 1008 84 10000 5.14 190 01:35 15.08.2022
621 Clouds 29 1009 83 10000 4.13 200 22:39 14.08.2022
622 Clouds 29 1009 83 10000 4.42 207 21:39 14.08.2022
623 Clouds 29 1009 83 10000 4.24 197 20:21 14.08.2022
624 Clouds 29 1009 83 10000 4.24 197 19:30 14.08.2022
625 Clouds 29 1010 83 10000 4.13 194 18:19 14.08.2022
626 Clouds 29 1010 83 10000 3.13 196 16:53 14.08.2022
627 Clouds 29 1010 83 10000 2.7 189 15:49 14.08.2022
628 Clouds 29 1010 84 10000 3.09 150 14:33 14.08.2022
629 Clouds 30 1009 79 10000 3.09 200 13:50 14.08.2022
630 Clouds 30 1009 79 10000 3.09 200 13:20 14.08.2022
631 Clouds 30 1009 74 10000 3.6 220 12:28 14.08.2022
632 Clouds 31 1009 74 10000 5.66 230 10:50 14.08.2022
633 Clouds 33 1009 66 10000 6.17 230 08:52 14.08.2022
634 Clouds 31 1009 74 10000 8.75 240 06:22 14.08.2022
635 Clouds 30 1009 79 10000 5.66 220 02:57 14.08.2022
636 Clouds 29 1009 89 10000 6.17 200 00:19 14.08.2022
637 Clouds 29 1010 83 10000 3.69 200 22:56 13.08.2022
638 Clouds 29 1009 83 10000 2.95 218 21:19 13.08.2022
639 Clouds 29 1009 83 10000 2.95 218 20:43 13.08.2022
640 Clouds 29 1009 83 10000 3.04 231 19:44 13.08.2022
641 Clouds 29 1009 83 10000 3.45 210 17:59 13.08.2022
642 Clouds 29 1010 83 10000 2.89 213 15:31 13.08.2022
643 Clouds 29 1009 84 10000 3.09 190 14:28 13.08.2022
644 Clouds 30 1008 79 10000 4.12 220 13:40 13.08.2022
645 Clouds 31 1008 74 10000 4.63 230 11:52 13.08.2022
646 Clouds 31 1008 74 10000 5.66 230 10:31 13.08.2022
647 Clouds 32 1007 74 10000 6.69 230 09:18 13.08.2022
648 Clouds 30 1008 84 10000 3.09 130 05:34 13.08.2022
649 Rain 27 1008 94 10000 3.6 140 00:29 13.08.2022
650 Rain 27 1008 94 10000 2.09 247 22:20 12.08.2022
651 Rain 27 1008 94 10000 2.27 257 20:54 12.08.2022
652 Rain 27 1008 94 10000 2.04 244 19:42 12.08.2022
653 Clouds 27 1008 94 10000 2.18 239 18:48 12.08.2022
654 Clouds 27 1008 94 10000 2.28 229 17:25 12.08.2022
655 Clouds 27 1008 94 10000 2.27 225 15:52 12.08.2022
656 Clouds 27 1008 94 10000 2.06 110 14:41 12.08.2022
657 Rain 27 1006 89 10000 1.54 120 12:55 12.08.2022
658 Clouds 27 1007 89 10000 5.14 110 10:44 12.08.2022
659 Rain 25 1007 88 10000 3.09 90 07:50 12.08.2022
660 Thunderstorm 25 1009 94 2500 9.77 300 06:39 12.08.2022
661 Clouds 29 1008 89 10000 3.09 220 02:39 12.08.2022
662 Clouds 28 1007 94 10000 3.09 130 00:26 12.08.2022
663 Clouds 29 1009 83 10000 2.14 254 23:35 11.08.2022
664 Clouds 29 1008 83 10000 2.49 230 22:26 11.08.2022
665 Clouds 29 1008 83 10000 2.49 230 21:40 11.08.2022
666 Clouds 29 1008 83 10000 2.72 212 20:51 11.08.2022
667 Clouds 29 1008 83 10000 2.09 241 20:19 11.08.2022
668 Clouds 29 1008 83 10000 2.36 251 19:32 11.08.2022
669 Clouds 29 1008 83 10000 2.31 223 17:48 11.08.2022
670 Clouds 29 1008 83 10000 1.95 220 16:35 11.08.2022
671 Clouds 29 1009 83 10000 1.92 220 15:21 11.08.2022
672 Clouds 30 1008 74 10000 5.66 230 12:44 11.08.2022
673 Clouds 31 1008 70 10000 5.66 230 10:18 11.08.2022
674 Clouds 33 1008 66 10000 5.66 220 07:19 11.08.2022
675 Clouds 31 1009 79 10000 2.06 210 03:52 11.08.2022
676 Clouds 28 1009 89 10000 3.09 130 00:37 11.08.2022
677 Clouds 29 1010 79 10000 1.95 225 22:32 10.08.2022
678 Clouds 29 1009 79 10000 1.87 213 21:25 10.08.2022
679 Clouds 29 1009 79 10000 1.87 213 20:54 10.08.2022
680 Clouds 29 1009 79 10000 0.86 207 19:24 10.08.2022
681 Clouds 29 1010 79 10000 0.75 229 17:55 10.08.2022
682 Clouds 29 1010 79 10000 0.87 260 16:35 10.08.2022
683 Clouds 29 1010 79 10000 4.12 220 13:35 10.08.2022
684 Clouds 30 1009 70 10000 3.6 230 12:35 10.08.2022
685 Clouds 32 1009 70 10000 6.69 240 09:24 10.08.2022
686 Clouds 32 1009 70 10000 7.72 250 08:32 10.08.2022
687 Clouds 33 1009 62 10000 5.14 250 06:23 10.08.2022
688 Clouds 31 1010 74 10000 3.6 230 03:24 10.08.2022
689 Clouds 28 1009 89 10000 3.09 140 23:34 09.08.2022
690 Clouds 28 1010 83 10000 2.91 209 22:56 09.08.2022
691 Clouds 28 1010 83 10000 3.06 205 21:35 09.08.2022
692 Clouds 27 1010 87 10000 2.61 197 19:35 09.08.2022
693 Clouds 28 1011 87 10000 2.3 194 18:29 09.08.2022
694 Clouds 28 1011 86 10000 1.67 205 17:27 09.08.2022
695 Clouds 28 1011 83 10000 1.67 205 16:40 09.08.2022
696 Clouds 28 1011 83 10000 1.69 209 15:46 09.08.2022
697 Clouds 29 1009 79 10000 4.63 230 12:48 09.08.2022
698 Rain 31 1009 66 10000 5.66 230 09:30 09.08.2022
699 Rain 31 1010 66 10000 5.14 250 08:33 09.08.2022
700 Clouds 33 1010 62 10000 5.14 250 07:20 09.08.2022
701 Clouds 31 1011 70 10000 2.06 180 03:32 09.08.2022
702 Clouds 27 1011 94 10000 2.57 130 23:27 08.08.2022
703 Clouds 28 1012 83 10000 1.69 220 22:53 08.08.2022
704 Clouds 28 1012 83 10000 1.79 246 21:49 08.08.2022
705 Clouds 28 1012 83 10000 1.96 238 20:55 08.08.2022
706 Clouds 28 1012 83 10000 1.75 223 19:50 08.08.2022
707 Clouds 28 1012 83 10000 1.75 219 18:35 08.08.2022
708 Clouds 28 1012 83 10000 1.83 222 16:34 08.08.2022
709 Clouds 28 1012 83 10000 1.48 211 15:38 08.08.2022
710 Clouds 28 1012 83 10000 1.48 211 15:38 08.08.2022
711 Clouds 30 1011 74 10000 4.63 220 12:51 08.08.2022
712 Clouds 31 1011 70 10000 5.66 230 11:53 08.08.2022
713 Clouds 32 1010 66 10000 6.17 240 09:36 08.08.2022
714 Clouds 32 1011 70 10000 4.63 220 05:37 08.08.2022
715 Clouds 30 1012 79 10000 4.12 130 02:24 08.08.2022
716 Clouds 29 1011 83 10000 2.48 221 22:20 07.08.2022
717 Clouds 29 1011 83 10000 2.48 221 21:38 07.08.2022
718 Clouds 29 1011 83 10000 2.55 195 20:25 07.08.2022
719 Clouds 29 1011 83 10000 2.55 195 19:54 07.08.2022
720 Clouds 29 1011 83 10000 2.07 189 19:29 07.08.2022
721 Clouds 29 1011 83 10000 1.55 190 18:21 07.08.2022
722 Clouds 29 1012 83 10000 1.92 176 16:53 07.08.2022
723 Clouds 29 1012 83 10000 1.61 199 15:49 07.08.2022
724 Clouds 29 1011 84 10000 4.12 190 14:35 07.08.2022
725 Clouds 30 1010 74 10000 6.17 220 12:51 07.08.2022
726 Clouds 31 1009 74 10000 5.66 230 10:57 07.08.2022
727 Clouds 31 1009 74 10000 5.66 230 10:21 07.08.2022
728 Rain 26 1010 89 10000 3.09 120 04:42 07.08.2022
729 Mist 25 1011 100 1000 4.12 250 02:37 07.08.2022
730 Clouds 29 1010 83 10000 1.89 257 22:57 06.08.2022
731 Clouds 29 1009 83 10000 1.67 228 22:19 06.08.2022
732 Clouds 29 1009 83 10000 1.97 223 20:19 06.08.2022
733 Clouds 29 1009 83 10000 2.12 214 19:38 06.08.2022
734 Clouds 29 1009 83 10000 1.8 231 17:52 06.08.2022
735 Clouds 29 1009 83 10000 1.54 228 16:30 06.08.2022
736 Clouds 29 1007 84 10000 4.12 220 13:52 06.08.2022
737 Clouds 30 1007 79 10000 4.12 230 12:46 06.08.2022
738 Clouds 31 1007 74 10000 5.14 240 11:21 06.08.2022
739 Clouds 32 1007 74 10000 6.17 230 09:49 06.08.2022
740 Clouds 32 1007 70 10000 5.66 230 07:35 06.08.2022
741 Rain 29 1008 89 10000 2.06 150 01:59 06.08.2022
742 Rain 29 1008 83 10000 1.17 270 22:37 05.08.2022
743 Rain 29 1008 83 10000 1.2 268 21:34 05.08.2022
744 Clear 29 1008 83 10000 1.37 254 19:20 05.08.2022
745 Clear 29 1008 83 10000 1.37 254 18:44 05.08.2022
746 Clouds 29 1008 83 10000 1.98 252 16:53 05.08.2022
747 Clouds 29 1008 83 10000 2 247 15:55 05.08.2022
748 Clouds 29 1007 84 10000 5.14 230 14:54 05.08.2022
749 Clouds 29 1007 84 10000 5.66 220 13:39 05.08.2022
750 Clouds 29 1007 84 10000 5.66 220 13:19 05.08.2022
751 Clouds 31 1007 74 10000 6.17 230 11:58 05.08.2022
752 Clouds 31 1007 74 10000 5.14 220 10:24 05.08.2022
753 Clouds 32 1008 70 10000 2.57 290 07:57 05.08.2022
754 Clouds 32 1008 74 10000 4.63 340 05:20 05.08.2022
755 Clouds 28 1009 89 10000 2.06 250 23:49 04.08.2022
756 Clouds 29 1009 83 10000 2.48 281 21:37 04.08.2022
757 Clouds 29 1009 83 10000 2.39 285 21:18 04.08.2022
758 Clouds 29 1009 83 10000 2.39 285 20:38 04.08.2022
759 Clouds 29 1009 83 10000 1.66 282 19:00 04.08.2022
760 Clouds 29 1009 83 10000 1.66 282 18:34 04.08.2022
761 Clear 29 1010 83 10000 1.29 277 15:59 04.08.2022
762 Clouds 29 1009 84 10000 5.14 230 13:32 04.08.2022
763 Clouds 31 1009 74 10000 4.63 270 11:40 04.08.2022
764 Clouds 32 1009 70 10000 2.06 260 10:22 04.08.2022
765 Clouds 32 1009 70 10000 2.06 260 10:22 04.08.2022
766 Clouds 32 1010 70 10000 2.06 290 07:49 04.08.2022
767 Clouds 31 1012 70 10000 4.12 230 03:29 04.08.2022
768 Clouds 28 1012 89 10000 1.54 140 00:52 04.08.2022
769 Clouds 27 1012 94 10000 1.54 160 23:41 03.08.2022
770 Clouds 28 1012 88 10000 1.54 244 21:34 03.08.2022
771 Clear 28 1012 88 10000 2.18 233 20:21 03.08.2022
772 Clouds 27 1012 92 10000 1.5 226 19:27 03.08.2022
773 Clear 28 1012 88 10000 1.16 229 16:53 03.08.2022
774 Clear 28 1012 88 10000 1.19 224 16:23 03.08.2022
775 Clouds 28 1011 83 10000 3.6 230 13:53 03.08.2022
776 Clouds 31 1011 70 10000 6.17 250 10:57 03.08.2022
777 Clouds 32 1012 66 10000 6.69 240 07:32 03.08.2022
778 Clouds 32 1013 66 10000 1.03 0 04:22 03.08.2022
779 Clouds 31 1013 70 10000 1.54 270 03:23 03.08.2022
780 Clouds 28 1013 89 10000 3.09 140 00:53 03.08.2022
781 Clouds 28 1014 83 10000 2.03 168 22:43 02.08.2022
782 Clouds 28 1013 83 10000 2.23 171 21:52 02.08.2022
783 Clouds 28 1013 83 10000 2.94 175 20:32 02.08.2022
784 Clouds 28 1013 83 10000 3.03 200 18:34 02.08.2022
785 Clear 28 1014 83 10000 2.32 201 15:20 02.08.2022
786 Clouds 31 1012 70 10000 7.72 240 10:51 02.08.2022
787 Clouds 34 1012 55 10000 5.66 230 08:54 02.08.2022
788 Clouds 34 1012 59 10000 5.66 220 07:52 02.08.2022
789 Clouds 33 1013 58 10000 5.66 220 06:41 02.08.2022
790 Clouds 32 1013 66 10000 5.14 160 03:40 02.08.2022
791 Clouds 27 1013 89 10000 2.57 140 23:35 01.08.2022
792 Clouds 29 1013 79 10000 3.57 159 22:22 01.08.2022
793 Clouds 29 1012 79 10000 3.63 160 20:47 01.08.2022
794 Clouds 29 1012 79 10000 4.35 164 19:22 01.08.2022
795 Clouds 29 1012 79 10000 5.11 160 17:57 01.08.2022
796 Clouds 29 1012 79 10000 5.15 157 16:52 01.08.2022
797 Clouds 29 1012 79 10000 5.24 160 15:51 01.08.2022
798 Clouds 29 1012 79 10000 4.83 164 15:28 01.08.2022
799 Clouds 29 1010 79 10000 7.72 170 13:45 01.08.2022
800 Clouds 30 1009 74 10000 9.77 180 11:49 01.08.2022
801 Clouds 31 1008 66 10000 12.35 180 09:39 01.08.2022
802 Clouds 32 1008 66 10000 12.35 180 08:21 01.08.2022
803 Clouds 28 1010 89 6000 6.69 150 04:45 01.08.2022
804 Clouds 31 1008 70 10000 7.72 150 02:31 01.08.2022
805 Clouds 29 1007 74 10000 5.14 140 23:43 31.07.2022
806 Clear 29 1008 79 10000 8.38 142 22:36 31.07.2022
807 Clear 29 1008 79 10000 8.12 136 20:49 31.07.2022
808 Clouds 29 1008 79 10000 7.28 137 19:25 31.07.2022
809 Clouds 29 1008 79 10000 7.39 138 17:43 31.07.2022
810 Clouds 29 1009 79 10000 7.18 136 15:30 31.07.2022
811 Clouds 29 1007 79 10000 7.2 150 13:31 31.07.2022
812 Clouds 31 1007 70 10000 6.17 150 11:45 31.07.2022
813 Rain 32 1006 66 10000 7.2 150 09:27 31.07.2022
814 Clouds 34 1006 62 10000 8.75 140 06:37 31.07.2022
815 Clouds 32 1007 66 10000 8.23 140 02:57 31.07.2022
816 Clouds 26 1007 89 10000 4.63 120 23:29 30.07.2022
817 Rain 29 1008 74 10000 7.62 141 22:19 30.07.2022
818 Clouds 29 1008 74 10000 7.62 141 21:40 30.07.2022
819 Clouds 29 1008 74 10000 7.62 142 20:51 30.07.2022
820 Clouds 29 1008 74 10000 6.28 136 19:58 30.07.2022
821 Clouds 29 1008 74 10000 7.01 134 18:26 30.07.2022
822 Clouds 29 1009 74 10000 7.09 135 16:54 30.07.2022
823 Clouds 29 1009 74 10000 6.23 137 15:35 30.07.2022
824 Clouds 29 1007 74 10000 3.09 140 14:32 30.07.2022
825 Clouds 30 1006 74 10000 4.63 150 12:47 30.07.2022
826 Clouds 32 1006 70 10000 6.17 160 11:55 30.07.2022
827 Clouds 33 1005 66 10000 6.17 150 10:25 30.07.2022
828 Clouds 33 1005 62 10000 7.2 150 09:45 30.07.2022
829 Clouds 34 1005 55 10000 2.06 290 07:47 30.07.2022
830 Clouds 31 1007 70 10000 2.06 0 02:34 30.07.2022
831 Clouds 31 1007 70 10000 2.06 340 01:43 30.07.2022
832 Rain 27 1007 82 10000 3.53 90 21:39 29.07.2022
833 Clouds 27 1007 79 10000 4.53 102 20:58 29.07.2022
834 Rain 28 1007 78 10000 5.22 105 19:48 29.07.2022
835 Clouds 30 1008 55 10000 3.41 77 17:52 29.07.2022
836 Rain 30 1008 55 10000 5.57 64 15:19 29.07.2022
837 Clouds 32 1007 58 10000 6.69 90 12:59 29.07.2022
838 Clouds 35 1007 52 10000 8.75 100 09:49 29.07.2022
839 Clouds 35 1007 52 10000 8.75 90 08:48 29.07.2022
840 Clouds 35 1008 55 10000 6.69 110 07:39 29.07.2022
841 Clouds 31 1010 66 10000 2.57 310 01:46 29.07.2022
842 Clear 28 1010 88 10000 2.75 58 21:57 28.07.2022
843 Clear 28 1010 88 10000 2.64 58 20:55 28.07.2022
844 Clouds 28 1010 88 10000 2.11 73 20:22 28.07.2022
845 Clouds 28 1010 88 10000 2.11 73 19:41 28.07.2022
846 Clouds 28 1010 88 10000 1.87 86 18:27 28.07.2022
847 Clouds 28 1010 88 10000 1.87 86 17:43 28.07.2022
848 Clouds 28 1011 88 10000 1.94 90 16:41 28.07.2022
849 Clouds 28 1010 89 10000 5.14 270 14:58 28.07.2022
850 Clouds 32 1009 66 10000 5.14 360 12:49 28.07.2022
851 Clouds 34 1009 52 10000 2.06 340 09:45 28.07.2022
852 Clouds 34 1010 59 10000 2.06 340 06:21 28.07.2022
853 Clouds 34 1010 59 10000 5.14 180 05:26 28.07.2022
854 Clouds 28 1010 83 10000 1.54 170 00:44 28.07.2022
855 Clouds 26 1010 87 10000 0.66 107 22:26 27.07.2022
856 Clear 29 1009 79 10000 1.33 189 20:25 27.07.2022
857 Clear 29 1009 79 10000 1.34 188 19:34 27.07.2022
858 Clear 29 1009 79 10000 2.11 152 16:54 27.07.2022
859 Clear 27 1009 78 10000 1.94 132 15:51 27.07.2022
860 Clouds 29 1008 79 10000 1.54 70 14:46 27.07.2022
861 Clouds 29 1008 79 10000 1.54 70 14:27 27.07.2022
862 Clouds 30 1007 70 10000 4.63 320 12:19 27.07.2022
863 Clouds 32 1008 58 10000 3.6 350 07:53 27.07.2022
864 Clouds 32 1008 45 10000 3.09 310 05:33 27.07.2022
865 Clouds 26 1008 89 10000 0.51 0 00:46 27.07.2022
866 Clear 24 1009 81 10000 1.07 3 22:24 26.07.2022
867 Clear 24 1008 80 10000 0.98 59 21:19 26.07.2022
868 Clear 24 1008 80 10000 1.51 79 19:40 26.07.2022
869 Clear 24 1009 81 10000 1.59 69 18:41 26.07.2022
870 Clear 24 1009 81 10000 1.32 51 17:57 26.07.2022
871 Clear 24 1009 81 10000 1.48 9 15:50 26.07.2022
872 Clouds 28 1009 74 10000 5.14 280 14:49 26.07.2022
873 Clouds 29 1007 65 10000 2.06 270 12:50 26.07.2022
874 Clouds 31 1007 62 10000 4.63 330 10:57 26.07.2022
875 Clouds 32 1008 58 10000 2.57 330 08:43 26.07.2022
876 Clouds 31 1009 55 10000 1.54 260 05:30 26.07.2022
877 Clouds 25 1010 88 10000 2.57 350 00:24 26.07.2022
878 Clear 24 1010 85 10000 1.29 16 22:43 25.07.2022
879 Clear 24 1010 85 10000 1.28 358 22:21 25.07.2022
880 Clear 24 1010 85 10000 1.28 358 21:31 25.07.2022
881 Clear 27 1009 78 10000 1.34 338 20:39 25.07.2022
882 Clear 27 1010 78 10000 1.02 341 19:25 25.07.2022
883 Clear 27 1010 78 10000 0.88 349 18:18 25.07.2022
884 Clear 27 1009 78 10000 0.97 356 17:24 25.07.2022
885 Clouds 27 1008 78 10000 4.63 340 14:19 25.07.2022
886 Clouds 30 1008 66 10000 4.63 330 10:56 25.07.2022
887 Clouds 31 1008 70 10000 5.14 320 08:22 25.07.2022
888 Clouds 27 1009 89 10000 1.03 80 01:44 25.07.2022
889 Clouds 26 1008 94 10000 2.57 330 23:46 24.07.2022
890 Clouds 28 1009 88 10000 0.61 296 22:49 24.07.2022
891 Clouds 26 1008 95 10000 0.94 299 21:48 24.07.2022
892 Clouds 28 1008 88 10000 1.08 279 21:18 24.07.2022
893 Clouds 28 1008 88 10000 1.08 279 20:45 24.07.2022
894 Clouds 28 1008 88 10000 0.87 251 19:37 24.07.2022
895 Clouds 26 1008 97 10000 1.36 224 18:27 24.07.2022
896 Clouds 26 1008 96 10000 1.8 216 15:57 24.07.2022
897 Clouds 26 1008 96 10000 1.8 216 15:31 24.07.2022
898 Clouds 28 1005 89 10000 4.12 160 13:50 24.07.2022
899 Clouds 29 1005 84 10000 3.6 160 12:28 24.07.2022
900 Clouds 29 1005 84 10000 2.57 160 11:31 24.07.2022
901 Clouds 29 1005 84 10000 3.09 170 10:26 24.07.2022
902 Clouds 29 1005 84 10000 4.12 140 08:29 24.07.2022
903 Clouds 27 1005 94 10000 4.12 130 07:44 24.07.2022
904 Clouds 29 1006 74 10000 6.69 130 03:35 24.07.2022
905 Clouds 25 1005 88 10000 3.6 120 23:36 23.07.2022
906 Clouds 25 1006 78 10000 2.77 167 20:49 23.07.2022
907 Clouds 25 1006 78 10000 1.89 199 19:30 23.07.2022
908 Clouds 25 1006 78 10000 1.89 199 18:49 23.07.2022
909 Clouds 25 1007 78 10000 1.42 200 17:28 23.07.2022
910 Clouds 25 1007 78 10000 1.42 200 16:30 23.07.2022
911 Clouds 25 1007 78 10000 0.08 174 15:22 23.07.2022
912 Clear 26 1006 78 10000 1.03 0 14:55 23.07.2022
913 Clear 26 1006 78 10000 1.03 0 14:24 23.07.2022
914 Clouds 27 1005 69 10000 2.57 340 12:22 23.07.2022
915 Clouds 30 1006 62 10000 4.63 330 10:44 23.07.2022
916 Clouds 29 1006 65 10000 2.57 310 09:53 23.07.2022
917 Clouds 30 1006 66 10000 2.57 250 08:24 23.07.2022
918 Clouds 28 1007 69 10000 1.03 0 03:38 23.07.2022
919 Clouds 24 1007 88 10000 1.03 130 00:39 23.07.2022
920 Clouds 23 1007 83 10000 1.34 352 21:41 22.07.2022
921 Clouds 25 1007 78 10000 1.41 2 20:33 22.07.2022
922 Clear 25 1007 78 10000 1.48 335 18:57 22.07.2022
923 Clear 25 1007 78 10000 1.68 349 17:52 22.07.2022
924 Clear 25 1007 78 10000 1.8 351 16:31 22.07.2022
925 Clouds 26 1006 69 10000 6.17 290 13:50 22.07.2022
926 Clouds 29 1005 54 10000 8.23 300 10:41 22.07.2022
927 Clouds 29 1005 58 10000 7.72 310 09:25 22.07.2022
928 Clouds 30 1005 58 10000 7.2 300 08:26 22.07.2022
929 Clouds 29 1006 70 10000 5.14 310 04:26 22.07.2022
930 Clouds 25 1006 83 10000 3.6 280 23:45 21.07.2022
931 Clouds 24 1007 82 10000 3.99 293 22:20 21.07.2022
932 Clouds 24 1007 82 10000 4.14 292 20:48 21.07.2022
933 Clouds 27 1006 78 10000 4.16 295 18:54 21.07.2022
934 Clouds 27 1007 78 10000 4.61 292 17:29 21.07.2022
935 Clouds 27 1007 78 10000 4.61 292 16:53 21.07.2022
936 Clouds 27 1006 78 10000 6.17 290 14:52 21.07.2022
937 Clouds 27 1006 78 10000 6.17 290 14:22 21.07.2022
938 Clouds 28 1004 74 10000 7.72 250 12:27 21.07.2022
939 Clouds 29 1004 84 10000 8.75 230 10:39 21.07.2022
940 Clouds 29 1005 89 10000 8.23 220 08:54 21.07.2022
941 Clouds 29 1005 89 10000 8.23 220 08:35 21.07.2022
942 Clouds 30 1005 84 10000 7.2 210 07:23 21.07.2022
943 Clouds 29 1006 84 10000 10.29 220 03:48 21.07.2022
944 Rain 28 1007 88 10000 4.89 218 23:22 20.07.2022
945 Clouds 28 1007 88 10000 4.22 215 22:20 20.07.2022
946 Clouds 28 1007 88 10000 3.71 210 20:49 20.07.2022
947 Clouds 26 1007 95 10000 2.59 216 19:47 20.07.2022
948 Clouds 28 1007 88 10000 2.41 215 19:19 20.07.2022
949 Clouds 28 1007 88 10000 2.41 215 18:33 20.07.2022
950 Clouds 28 1008 88 10000 1.9 196 17:42 20.07.2022
951 Clouds 28 1008 88 10000 0.92 212 15:43 20.07.2022
952 Clouds 28 1007 89 10000 4.63 220 14:54 20.07.2022
953 Clouds 28 1007 83 10000 3.6 210 13:44 20.07.2022
954 Clouds 28 1006 89 10000 6.17 230 11:31 20.07.2022
955 Clouds 31 1006 74 10000 2.57 210 07:36 20.07.2022
956 Clouds 26 1008 89 10000 1.54 180 01:58 20.07.2022
957 Clouds 26 1007 94 10000 2.57 150 00:43 20.07.2022
958 Clouds 27 1008 88 9496 1.16 195 22:39 19.07.2022
959 Clouds 27 1008 88 10000 0.86 177 22:21 19.07.2022
960 Clouds 27 1008 88 10000 1.19 179 20:50 19.07.2022
961 Clouds 27 1007 88 5428 1.94 247 19:38 19.07.2022
962 Clouds 27 1008 88 10000 1.62 239 18:43 19.07.2022
963 Clouds 27 1008 88 10000 2.26 226 17:56 19.07.2022
964 Clouds 27 1008 88 10000 1.45 219 16:25 19.07.2022
965 Clouds 27 1008 88 10000 2.02 226 14:20 19.07.2022
966 Clouds 28 1005 83 10000 4.12 210 11:35 19.07.2022
967 Clouds 29 1004 79 10000 5.14 210 09:58 19.07.2022
968 Clouds 30 1004 79 10000 6.69 230 08:48 19.07.2022
969 Clouds 30 1004 79 10000 6.69 230 08:21 19.07.2022
970 Clouds 29 1004 84 10000 8.23 230 07:18 19.07.2022
971 Clouds 29 1003 84 10000 8.75 230 05:23 19.07.2022
972 Clouds 27 1004 94 10000 8.75 230 04:40 19.07.2022
973 Mist 28 1001 89 3500 12.35 220 00:21 19.07.2022
974 Clouds 27 1003 89 6653 9.75 226 23:21 18.07.2022
975 Clouds 27 1003 89 6653 9.75 226 22:51 18.07.2022
976 Rain 27 1003 91 3686 10.68 223 21:27 18.07.2022
977 Rain 27 1003 91 3686 10.68 223 20:50 18.07.2022
978 Rain 27 1003 92 10000 7.32 209 19:24 18.07.2022
979 Clouds 27 1004 88 6410 9.03 210 16:50 18.07.2022
980 Clouds 27 1004 87 9236 8.11 203 15:41 18.07.2022
981 Rain 30 1001 79 10000 13.89 210 13:41 18.07.2022
982 Clouds 30 1001 74 10000 11.83 210 12:29 18.07.2022
983 Clouds 30 1001 74 10000 11.32 200 10:24 18.07.2022
984 Clouds 30 1002 79 10000 9.26 200 08:20 18.07.2022
985 Clouds 30 1002 79 10000 10.29 200 06:48 18.07.2022
986 Clouds 25 1004 88 8000 6.69 120 23:30 17.07.2022
987 Rain 25 1005 83 10000 3.15 138 22:32 17.07.2022
988 Clouds 25 1004 83 10000 2.93 131 21:43 17.07.2022
989 Clouds 25 1004 83 10000 2.75 152 20:46 17.07.2022
990 Clouds 25 1004 83 10000 2.62 142 20:18 17.07.2022
991 Clouds 25 1005 83 10000 2.42 149 19:26 17.07.2022
992 Clouds 25 1005 83 10000 2.63 169 18:22 17.07.2022
993 Rain 25 1005 83 10000 2.63 169 17:37 17.07.2022
994 Rain 25 1005 83 10000 2.87 179 16:49 17.07.2022
995 Clouds 25 1005 83 10000 2.68 179 16:24 17.07.2022
996 Clouds 27 1003 78 10000 3.6 140 13:58 17.07.2022
997 Clouds 27 1003 78 10000 3.6 140 13:24 17.07.2022
998 Clouds 28 1002 74 10000 1.03 0 10:23 17.07.2022
999 Clouds 28 1003 69 10000 0.51 0 07:55 17.07.2022
1000 Rain 26 1002 78 10000 4.12 280 02:36 17.07.2022
1001 Clouds 26 1002 89 10000 1.54 170 00:41 17.07.2022
1002 Rain 25 1002 83 10000 1.8 265 23:18 16.07.2022
1003 Clouds 25 1001 83 10000 1.31 246 20:53 16.07.2022
1004 Clouds 25 1002 83 10000 1.93 258 18:59 16.07.2022
1005 Rain 25 1002 83 10000 1.87 259 17:48 16.07.2022
1006 Clouds 25 1002 83 10000 1.64 267 16:23 16.07.2022
1007 Clouds 26 1000 83 10000 2.57 320 13:36 16.07.2022
1008 Clouds 30 998 70 10000 5.14 300 10:34 16.07.2022
1009 Clouds 31 998 66 10000 5.14 300 09:28 16.07.2022
1010 Clouds 31 998 66 10000 4.63 300 08:41 16.07.2022
1011 Clouds 31 998 70 10000 2.57 300 07:40 16.07.2022
1012 Clouds 28 998 83 10000 3.09 310 03:39 16.07.2022
1013 Clouds 26 997 94 10000 4.12 330 01:39 16.07.2022
1014 Clouds 25 997 94 10000 2.32 221 23:21 15.07.2022
1015 Clouds 25 997 94 10000 2.32 221 22:37 15.07.2022
1016 Clouds 25 997 94 10000 3.71 197 20:47 15.07.2022
1017 Clouds 25 998 94 10000 3.34 154 19:49 15.07.2022
1018 Rain 25 999 94 10000 4.6 178 18:30 15.07.2022
1019 Rain 25 1000 94 10000 4.45 167 17:19 15.07.2022
1020 Rain 25 1000 94 10000 5.14 130 14:24 15.07.2022
1021 Clouds 26 999 94 10000 4.63 120 12:38 15.07.2022
1022 Rain 26 999 94 10000 2.06 360 10:52 15.07.2022
1023 Thunderstorm 26 1000 94 10000 4.12 50 07:55 15.07.2022
1024 Rain 28 1001 83 10000 3.6 140 04:54 15.07.2022
1025 Rain 28 1001 83 10000 3.6 10 00:43 15.07.2022
1026 Clouds 27 1001 94 10000 2.57 350 23:25 14.07.2022
1027 Clouds 28 1002 88 10000 0.7 88 22:32 14.07.2022
1028 Clouds 28 1002 88 10000 1.71 329 21:40 14.07.2022
1029 Clouds 28 1002 88 10000 1.9 283 21:21 14.07.2022
1030 Clouds 28 1002 88 10000 1.9 283 20:43 14.07.2022
1031 Clouds 28 1002 88 10000 2.16 268 20:18 14.07.2022
1032 Clouds 28 1002 88 4559 2.52 260 18:24 14.07.2022
1033 Clouds 28 1003 88 10000 2.68 249 16:19 14.07.2022
1034 Clouds 28 1001 89 10000 5.14 230 14:56 14.07.2022
1035 Clouds 28 1001 89 10000 6.69 230 13:51 14.07.2022
1036 Clouds 29 1001 84 10000 7.72 230 12:34 14.07.2022
1037 Clouds 29 1001 84 10000 7.2 230 11:26 14.07.2022
1038 Clouds 29 1001 84 10000 8.23 220 10:52 14.07.2022
1039 Clouds 29 1002 84 10000 6.69 230 08:52 14.07.2022
1040 Clouds 29 1003 79 10000 8.75 220 04:45 14.07.2022
1041 Clouds 29 1003 79 10000 8.75 230 01:19 14.07.2022
1042 Clouds 29 1003 79 10000 8.23 220 00:51 14.07.2022
1043 Clouds 28 1004 88 10000 3.55 202 22:31 13.07.2022
1044 Clouds 28 1004 88 10000 3.42 201 21:42 13.07.2022
1045 Clouds 28 1004 88 10000 3.42 202 20:38 13.07.2022
1046 Rain 28 1004 88 10000 3.31 211 18:36 13.07.2022
1047 Clouds 28 1005 88 10000 3.06 216 17:31 13.07.2022
1048 Clouds 28 1005 88 10000 3.06 216 17:31 13.07.2022
1049 Clouds 28 1005 88 10000 3.06 216 17:31 13.07.2022
1050 Clouds 28 1006 88 10000 2.43 242 16:19 13.07.2022
1051 Clouds 28 1005 89 10000 5.14 230 14:46 13.07.2022
1052 Clouds 29 1004 79 10000 6.69 240 11:36 13.07.2022
1053 Clouds 31 1004 70 10000 4.63 230 10:44 13.07.2022
1054 Clouds 31 1004 74 10000 5.66 230 09:49 13.07.2022
1055 Clouds 31 1004 74 10000 5.66 230 09:20 13.07.2022
1056 Clouds 30 1006 70 10000 2.06 360 05:22 13.07.2022
1057 Clouds 28 1007 78 10000 1.03 0 01:21 13.07.2022
1058 Clouds 25 1007 84 10000 2.02 48 23:21 12.07.2022
1059 Clouds 25 1007 85 10000 2.06 52 21:49 12.07.2022
1060 Clouds 25 1006 85 10000 2.16 64 20:54 12.07.2022
1061 Clouds 25 1006 85 10000 2.16 64 20:36 12.07.2022
1062 Clouds 25 1007 85 10000 1.69 48 18:53 12.07.2022
1063 Clouds 28 1007 78 10000 2.17 49 17:29 12.07.2022
1064 Clouds 28 1007 78 10000 2.74 47 15:35 12.07.2022
1065 Clouds 29 1006 74 10000 4.12 350 13:44 12.07.2022
1066 Clouds 30 1006 74 10000 4.63 340 11:59 12.07.2022
1067 Clouds 30 1006 74 10000 4.63 340 10:46 12.07.2022
1068 Clouds 31 1006 70 10000 4.63 330 09:18 12.07.2022
1069 Clouds 31 1007 70 10000 5.14 330 07:55 12.07.2022
1070 Clouds 31 1007 62 10000 2.57 320 05:53 12.07.2022
1071 Clouds 31 1007 62 10000 2.57 320 05:34 12.07.2022
1072 Clouds 28 1007 83 10000 1.54 250 01:36 12.07.2022
1073 Clouds 28 1007 78 10000 1.74 105 22:50 11.07.2022
1074 Clouds 28 1007 78 10000 1.56 107 21:37 11.07.2022
1075 Clouds 28 1007 78 10000 1.81 105 20:33 11.07.2022
1076 Clouds 28 1007 78 10000 1.96 134 19:28 11.07.2022
1077 Clouds 28 1007 78 10000 1.96 134 18:30 11.07.2022
1078 Clouds 28 1007 78 10000 1.67 145 16:34 11.07.2022
1079 Clouds 28 1008 78 10000 1.88 153 15:33 11.07.2022
1080 Clouds 28 1007 78 10000 5.66 240 13:27 11.07.2022
1081 Rain 28 1006 74 10000 4.63 220 11:24 11.07.2022
1082 Rain 29 1006 74 10000 7.72 240 10:18 11.07.2022
1083 Rain 30 1006 74 10000 5.14 260 09:40 11.07.2022
1084 Clouds 31 1005 66 10000 3.09 180 08:32 11.07.2022
1085 Clouds 29 1006 79 10000 3.09 160 01:54 11.07.2022
1086 Clouds 27 1006 89 10000 2.57 140 23:55 10.07.2022
1087 Clouds 28 1007 83 10000 2.47 193 22:48 10.07.2022
1088 Clouds 28 1006 83 10000 2.34 189 21:20 10.07.2022
1089 Clouds 28 1006 83 10000 1.82 169 20:37 10.07.2022
1090 Clouds 28 1006 83 10000 1.78 170 19:40 10.07.2022
1091 Clouds 28 1006 83 10000 1.8 156 18:43 10.07.2022
1092 Clouds 28 1006 83 10000 1.24 143 17:35 10.07.2022
1093 Clouds 28 1007 83 10000 0.33 182 16:24 10.07.2022
1094 Clear 28 1006 83 10000 0.64 209 15:20 10.07.2022
1095 Clouds 29 1004 79 10000 5.14 250 13:40 10.07.2022
1096 Clouds 30 1004 79 10000 3.6 330 12:26 10.07.2022
1097 Clouds 32 1004 66 10000 3.6 280 09:47 10.07.2022
1098 Clouds 32 1004 62 10000 1.54 330 08:44 10.07.2022
1099 Clouds 32 1005 66 10000 2.06 340 07:24 10.07.2022
1100 Clouds 25 1004 88 10000 2.06 70 23:58 09.07.2022
1101 Clear 25 1004 83 10000 1.25 67 22:27 09.07.2022
1102 Clear 25 1004 83 10000 1.25 67 21:49 09.07.2022
1103 Clear 25 1004 83 10000 1.36 38 19:57 09.07.2022
1104 Clear 25 1004 83 10000 1.09 50 18:32 09.07.2022
1105 Clear 25 1004 83 10000 1 54 17:32 09.07.2022
1106 Clear 25 1003 83 10000 0.96 70 16:39 09.07.2022
1107 Clear 25 1003 83 10000 1.11 59 15:39 09.07.2022
1108 Clouds 26 1002 83 10000 2.57 320 14:24 09.07.2022
1109 Clouds 26 1002 83 10000 4.63 320 13:48 09.07.2022
1110 Clouds 28 1001 69 10000 4.63 310 12:29 09.07.2022
1111 Clouds 30 1000 66 10000 4.63 230 10:42 09.07.2022
1112 Clouds 30 1000 66 10000 4.63 230 10:21 09.07.2022
1113 Clouds 31 1000 62 10000 4.12 330 07:44 09.07.2022
1114 Clouds 30 1001 66 10000 3.6 350 04:53 09.07.2022
1115 Clouds 27 1001 89 10000 3.09 330 00:43 09.07.2022
1116 Clear 28 1001 88 10000 1.36 338 22:42 08.07.2022
1117 Clear 28 1001 88 10000 0.63 12 21:31 08.07.2022
1118 Clear 28 1001 88 10000 0.55 94 20:40 08.07.2022
1119 Clouds 28 1001 88 10000 1.8 141 19:48 08.07.2022
1120 Clouds 28 1002 88 10000 1.81 154 17:57 08.07.2022
1121 Clouds 28 1003 88 10000 2.24 161 16:39 08.07.2022
1122 Clouds 28 1003 89 10000 5.14 220 14:51 08.07.2022
1123 Clouds 28 1003 89 10000 4.63 200 13:24 08.07.2022
1124 Clouds 28 1003 89 10000 4.63 200 13:24 08.07.2022
1125 Clouds 28 1003 83 10000 5.14 210 11:25 08.07.2022
1126 Clouds 29 1004 79 10000 7.2 210 10:26 08.07.2022
1127 Clouds 31 1004 70 10000 6.17 230 08:24 08.07.2022
1128 Clouds 31 1005 74 10000 6.69 230 06:47 08.07.2022
1129 Clouds 28 1007 89 10000 2.57 180 01:19 08.07.2022
1130 Clouds 28 1008 83 10000 2.59 187 22:57 07.07.2022
1131 Clouds 28 1008 83 10000 2.59 187 22:57 07.07.2022
1132 Clouds 28 1008 83 10000 2.39 188 21:57 07.07.2022
1133 Clouds 28 1008 83 10000 2.44 197 19:53 07.07.2022
1134 Clouds 28 1009 83 10000 2.29 204 18:18 07.07.2022
1135 Clouds 28 1009 83 10000 2 201 16:43 07.07.2022
1136 Clouds 28 1009 83 10000 3.09 220 14:32 07.07.2022
1137 Clouds 28 1009 83 10000 5.14 240 12:46 07.07.2022
1138 Clouds 28 1009 83 10000 5.14 240 12:23 07.07.2022
1139 Clouds 29 1009 79 10000 6.17 240 11:34 07.07.2022
1140 Clouds 30 1008 74 10000 6.17 230 10:46 07.07.2022
1141 Clouds 30 1008 74 10000 6.17 230 10:28 07.07.2022
1142 Clouds 31 1008 74 10000 6.17 240 09:32 07.07.2022
1143 Clouds 32 1009 70 10000 7.2 240 06:31 07.07.2022
1144 Clouds 27 1011 94 10000 1.41 137 00:28 07.07.2022
1145 Clouds 27 1011 94 10000 1.41 137 23:36 06.07.2022
1146 Clouds 27 1010 94 10000 1.66 137 23:18 06.07.2022
1147 Clouds 27 1010 94 10000 1.66 137 22:51 06.07.2022
1148 Clouds 27 1010 94 10000 1.66 137 22:33 06.07.2022
1149 Clouds 27 1010 94 10000 1.12 165 20:23 06.07.2022
1150 Clouds 27 1010 94 10000 1.21 201 19:22 06.07.2022
1151 Clouds 26 1010 91 10000 1.82 202 17:21 06.07.2022
1152 Clouds 27 1010 94 10000 1.7 193 15:55 06.07.2022
1153 Clouds 28 1009 89 10000 3.09 230 12:44 06.07.2022
1154 Rain 29 1009 79 10000 3.6 240 11:52 06.07.2022
1155 Clouds 29 1009 84 10000 6.17 230 10:49 06.07.2022
1156 Clouds 30 1008 79 10000 5.14 220 09:21 06.07.2022
1157 Clouds 30 1009 79 10000 5.14 240 07:43 06.07.2022
1158 Clouds 30 1009 79 10000 2.06 220 06:43 06.07.2022
1159 Clouds 25 1009 88 10000 1.14 169 22:52 05.07.2022
1160 Clouds 25 1009 88 10000 1.14 169 22:34 05.07.2022
1161 Clouds 25 1008 88 10000 0.92 169 20:45 05.07.2022
1162 Clouds 25 1008 88 10000 1.3 201 19:54 05.07.2022
1163 Clouds 25 1008 88 10000 1.3 201 19:36 05.07.2022
1164 Clouds 25 1009 88 10000 1.61 230 17:49 05.07.2022
1165 Clouds 25 1009 88 10000 1.94 232 17:18 05.07.2022
1166 Clouds 25 1009 88 10000 1.97 236 15:48 05.07.2022
1167 Clouds 26 1007 89 10000 2.57 200 14:44 05.07.2022
1168 Clouds 27 1006 89 10000 2.57 230 12:53 05.07.2022
1169 Clouds 27 1006 89 10000 2.57 230 12:21 05.07.2022
1170 Clouds 28 1005 83 10000 3.09 320 10:45 05.07.2022
1171 Clouds 29 1005 79 10000 2.57 240 09:32 05.07.2022
1172 Clouds 27 1005 89 10000 6.17 240 08:20 05.07.2022
1173 Clouds 28 1004 83 10000 6.17 250 06:47 05.07.2022
1174 Clouds 28 1004 83 10000 6.17 260 04:28 05.07.2022
1175 Clouds 26 1002 94 9000 7.72 280 00:43 05.07.2022
1176 Rain 26 1000 94 8000 10.29 240 23:36 04.07.2022
1177 Clouds 25 1003 88 1717 6.89 186 22:54 04.07.2022
1178 Clouds 25 1002 88 4062 6.21 174 21:53 04.07.2022
1179 Rain 25 1002 88 2956 5.13 155 20:54 04.07.2022
1180 Rain 25 1002 88 2956 5.13 155 20:35 04.07.2022
1181 Rain 25 1003 88 8219 5.44 142 19:55 04.07.2022
1182 Rain 25 1003 88 8219 5.44 142 19:36 04.07.2022
1183 Rain 25 1004 88 4460 7.4 144 18:26 04.07.2022
1184 Clouds 26 1004 90 10000 7 137 16:34 04.07.2022
1185 Clouds 26 1004 89 10000 6.43 128 15:34 04.07.2022
1186 Clouds 26 1003 94 10000 3.6 140 13:35 04.07.2022
1187 Clouds 28 1003 83 10000 4.63 180 12:36 04.07.2022
1188 Clouds 28 1003 83 10000 5.14 140 10:35 04.07.2022
1189 Clouds 29 1003 79 10000 4.12 140 09:53 04.07.2022
1190 Rain 30 1004 74 10000 6.17 160 08:31 04.07.2022
1191 Clouds 28 1005 78 10000 4.63 170 05:18 04.07.2022
1192 Rain 26 1006 83 10000 1.54 140 00:42 04.07.2022
1193 Clouds 24 1007 94 9403 5.27 107 22:59 03.07.2022
1194 Clouds 24 1007 92 10000 4.2 108 20:59 03.07.2022
1195 Clouds 24 1007 92 10000 4.2 108 20:41 03.07.2022
1196 Rain 24 1007 90 10000 4.18 90 19:41 03.07.2022
1197 Rain 24 1007 89 10000 4.27 92 19:23 03.07.2022
1198 Rain 24 1008 90 10000 3.92 87 17:45 03.07.2022
1199 Rain 28 1009 74 10000 5.82 131 15:55 03.07.2022
1200 Clouds 28 1008 74 10000 2.57 150 14:59 03.07.2022
1201 Clouds 28 1008 74 10000 2.57 150 14:20 03.07.2022
1202 Clouds 28 1008 74 10000 4.12 150 13:48 03.07.2022
1203 Clouds 29 1007 70 10000 4.63 150 12:33 03.07.2022
1204 Clouds 29 1007 74 10000 4.63 150 11:29 03.07.2022
1205 Clouds 30 1007 66 10000 4.12 150 10:39 03.07.2022
1206 Clouds 31 1007 66 10000 5.66 150 09:42 03.07.2022
1207 Clouds 31 1008 66 10000 4.63 160 07:35 03.07.2022
1208 Clouds 29 1009 74 10000 1.54 340 03:46 03.07.2022
1209 Rain 27 1010 89 10000 1.54 60 00:21 03.07.2022
1210 Clouds 28 1010 78 10000 1.97 42 22:33 02.07.2022
1211 Clouds 28 1010 78 10000 1.09 114 20:58 02.07.2022
1212 Rain 28 1010 78 10000 1.42 141 19:52 02.07.2022
1213 Rain 28 1011 78 10000 1.51 133 19:20 02.07.2022
1214 Clouds 28 1011 78 10000 1.15 119 17:41 02.07.2022
1215 Clouds 28 1011 78 10000 0.53 137 16:53 02.07.2022
1216 Clouds 28 1010 78 10000 2.57 320 14:40 02.07.2022
1217 Clouds 28 1010 78 10000 4.12 320 12:21 02.07.2022
1218 Clouds 29 1009 74 10000 5.14 330 11:26 02.07.2022
1219 Clouds 30 1010 74 10000 4.12 330 10:39 02.07.2022
1220 Clouds 30 1010 70 10000 4.12 320 09:18 02.07.2022
1221 Clouds 32 1010 45 10000 3.09 280 08:20 02.07.2022
1222 Clouds 33 1011 38 10000 2.57 290 07:27 02.07.2022
1223 Clouds 30 1012 70 10000 3.09 0 02:50 02.07.2022
1224 Clouds 25 1013 94 9000 2.57 130 23:59 01.07.2022
1225 Clouds 25 1014 89 10000 1.49 75 22:41 01.07.2022
1226 Clouds 24 1013 90 10000 1.47 74 21:48 01.07.2022
1227 Clouds 24 1013 89 10000 1.7 77 21:28 01.07.2022
1228 Clouds 24 1013 89 10000 1.7 77 20:40 01.07.2022
1229 Clear 25 1013 89 10000 1.84 67 19:46 01.07.2022
1230 Clear 25 1014 86 10000 0.65 13 17:53 01.07.2022
1231 Clear 25 1014 85 10000 0.46 319 15:54 01.07.2022
1232 Clouds 29 1013 74 10000 2.06 250 13:54 01.07.2022
1233 Clouds 31 1012 70 10000 4.12 330 11:56 01.07.2022
1234 Clouds 31 1012 66 10000 1.03 0 10:20 01.07.2022
1235 Clouds 31 1012 66 10000 1.03 0 10:20 01.07.2022
1236 Clouds 31 1012 66 10000 6.69 230 09:31 01.07.2022
1237 Clouds 31 1015 62 10000 3.09 270 04:49 01.07.2022
1238 Clouds 26 1015 89 10000 1.03 0 00:26 01.07.2022
1239 Clear 27 1015 83 10000 1.19 68 22:59 30.06.2022
1240 Clear 27 1015 83 10000 1.19 68 22:41 30.06.2022
1241 Clear 27 1015 83 10000 0.88 86 22:22 30.06.2022
1242 Clear 27 1015 83 10000 0.88 86 21:41 30.06.2022
1243 Clear 25 1015 94 10000 0.64 110 20:30 30.06.2022
1244 Clear 27 1015 83 10000 1.05 166 19:54 30.06.2022
1245 Clear 27 1015 83 10000 1.16 172 19:24 30.06.2022
1246 Clear 27 1015 83 10000 1.16 172 18:42 30.06.2022
1247 Clear 27 1015 83 10000 1.15 166 17:43 30.06.2022
1248 Clear 27 1015 83 10000 1.08 174 16:48 30.06.2022
1249 Clear 27 1015 83 10000 0.64 154 15:38 30.06.2022
1250 Clouds 27 1013 83 10000 5.66 240 13:34 30.06.2022
1251 Clouds 28 1013 78 10000 5.66 220 12:35 30.06.2022
1252 Clouds 29 1013 74 10000 5.66 240 11:37 30.06.2022
1253 Clouds 31 1013 58 10000 5.66 250 09:54 30.06.2022
1254 Clouds 31 1013 58 10000 5.66 250 09:34 30.06.2022
1255 Clouds 32 1013 58 10000 6.17 240 08:18 30.06.2022
1256 Clouds 31 1013 66 10000 5.66 250 06:21 30.06.2022
1257 Clouds 28 1013 83 10000 2.57 140 01:29 30.06.2022
1258 Clouds 26 1013 89 10000 2.06 100 23:34 29.06.2022
1259 Clear 27 1014 83 10000 2.06 136 22:39 29.06.2022
1260 Clear 27 1013 83 10000 2.4 144 21:37 29.06.2022
1261 Clear 27 1013 83 10000 2.66 153 20:34 29.06.2022
1262 Clear 27 1013 83 10000 3.08 169 19:37 29.06.2022
1263 Clear 27 1013 83 10000 3.08 169 19:37 29.06.2022
1264 Clear 27 1013 83 10000 2.11 175 17:45 29.06.2022
1265 Clear 27 1013 83 10000 2.46 161 16:41 29.06.2022
1266 Clear 27 1013 83 10000 2.87 183 15:19 29.06.2022
1267 Clouds 29 1011 70 10000 6.17 190 12:40 29.06.2022
1268 Clouds 30 1011 62 10000 6.69 200 11:19 29.06.2022
1269 Clouds 31 1011 58 10000 7.2 200 09:33 29.06.2022
1270 Clouds 31 1011 62 10000 8.75 210 07:44 29.06.2022
1271 Clouds 31 1011 58 10000 9.26 200 04:55 29.06.2022
1272 Clouds 29 1011 74 10000 5.66 170 01:41 29.06.2022
1273 Clouds 28 1010 78 10000 6.17 170 00:36 29.06.2022
1274 Clouds 27 1011 83 10000 4.8 176 22:55 28.06.2022
1275 Clouds 27 1011 83 10000 4.8 176 22:34 28.06.2022
1276 Clouds 27 1011 83 10000 5.25 175 21:55 28.06.2022
1277 Clouds 27 1011 83 10000 5.25 175 21:33 28.06.2022
1278 Clouds 27 1010 83 10000 5.73 171 20:44 28.06.2022
1279 Clouds 27 1011 83 10000 5.85 174 19:34 28.06.2022
1280 Clouds 27 1011 83 10000 5.76 167 18:53 28.06.2022
1281 Clouds 27 1011 83 10000 6.03 168 17:40 28.06.2022
1282 Clouds 27 1012 83 10000 6.01 171 15:59 28.06.2022
1283 Clouds 27 1012 83 10000 6.01 171 15:38 28.06.2022
1284 Clouds 27 1011 83 10000 7.2 170 14:21 28.06.2022
1285 Clouds 27 1011 83 10000 7.2 170 14:21 28.06.2022
1286 Clouds 27 1011 83 10000 6.17 170 13:52 28.06.2022
1287 Clouds 28 1011 78 10000 6.17 170 12:57 28.06.2022
1288 Clouds 29 1010 70 10000 5.66 180 11:18 28.06.2022
1289 Clouds 30 1010 66 10000 9.26 190 09:29 28.06.2022
1290 Clouds 31 1010 62 10000 7.2 190 08:43 28.06.2022
1291 Clouds 31 1011 62 10000 7.2 190 07:42 28.06.2022
1292 Clouds 30 1011 70 10000 6.69 190 06:20 28.06.2022
1293 Clouds 27 1011 83 10000 4.12 160 00:58 28.06.2022
1294 Clouds 26 1011 89 10000 4.12 140 23:37 27.06.2022
1295 Clouds 27 1012 88 10000 5.02 168 22:52 27.06.2022
1296 Clouds 27 1012 88 10000 5.19 165 21:37 27.06.2022
1297 Clouds 27 1012 88 10000 4.9 172 20:52 27.06.2022
1298 Clouds 25 1012 93 10000 4.42 173 19:33 27.06.2022
1299 Clouds 25 1013 90 10000 4.74 167 18:25 27.06.2022
1300 Clouds 25 1014 91 10000 4.06 181 16:20 27.06.2022
1301 Clouds 27 1014 88 10000 4.62 189 15:22 27.06.2022
1302 Clouds 27 1013 83 10000 3.09 160 13:36 27.06.2022
1303 Clouds 29 1012 70 10000 5.14 200 12:56 27.06.2022
1304 Clouds 30 1012 66 10000 9.26 200 10:34 27.06.2022
1305 Clouds 31 1012 58 10000 8.75 200 09:18 27.06.2022
1306 Clouds 32 1013 62 10000 9.77 220 08:19 27.06.2022
1307 Clouds 32 1013 62 10000 7.2 210 06:38 27.06.2022
1308 Clouds 28 1015 78 10000 3.6 160 02:28 27.06.2022
1309 Clouds 26 1014 89 10000 3.6 130 23:55 26.06.2022
1310 Clouds 25 1015 94 10000 2.4 157 21:59 26.06.2022
1311 Clouds 25 1015 94 10000 3.14 160 20:44 26.06.2022
1312 Clouds 25 1015 94 10000 2.9 165 19:32 26.06.2022
1313 Clouds 24 1015 93 10000 3.4 168 18:30 26.06.2022
1314 Clouds 25 1015 94 10000 3.25 176 16:33 26.06.2022
1315 Clouds 26 1014 94 10000 4.12 140 14:40 26.06.2022
1316 Clouds 27 1014 89 10000 4.12 150 13:38 26.06.2022
1317 Clouds 27 1014 89 10000 4.12 150 13:18 26.06.2022
1318 Clouds 29 1014 74 10000 7.2 220 11:26 26.06.2022
1319 Clouds 29 1014 74 10000 7.72 220 10:23 26.06.2022
1320 Clouds 30 1014 70 10000 6.17 230 08:46 26.06.2022
1321 Clouds 30 1015 70 10000 5.66 220 07:30 26.06.2022
1322 Rain 24 1014 88 10000 4.63 140 00:49 26.06.2022
1323 Rain 24 1014 88 10000 4.63 140 00:20 26.06.2022
1324 Clouds 24 1013 88 10000 4.63 130 23:33 25.06.2022
1325 Rain 25 1014 78 10000 4.6 166 22:55 25.06.2022
1326 Clouds 25 1014 78 10000 3.57 166 22:27 25.06.2022
1327 Rain 23 1014 91 10000 3.57 166 21:37 25.06.2022
1328 Clouds 23 1013 92 10000 2.26 143 21:18 25.06.2022
1329 Clouds 23 1013 92 10000 2.45 160 20:25 25.06.2022
1330 Clouds 23 1013 91 10000 3.16 161 18:45 25.06.2022
1331 Clouds 23 1013 91 10000 3.51 169 17:28 25.06.2022
1332 Clouds 23 1013 91 10000 3.51 169 16:44 25.06.2022
1333 Rain 25 1012 78 10000 5.14 170 14:50 25.06.2022
1334 Rain 24 1012 88 10000 6.17 130 12:56 25.06.2022
1335 Clouds 24 1012 88 10000 6.17 130 12:37 25.06.2022
1336 Rain 24 1011 88 10000 7.2 130 10:30 25.06.2022
1337 Rain 25 1010 83 10000 11.32 190 08:56 25.06.2022
1338 Clouds 25 1010 83 10000 11.32 190 08:28 25.06.2022
1339 Clouds 27 1009 83 10000 5.14 170 06:53 25.06.2022
1340 Clouds 27 1009 83 10000 6.69 210 03:26 25.06.2022
1341 Rain 26 1008 89 10000 2.57 180 00:21 25.06.2022
1342 Rain 25 1009 94 10000 3.24 182 22:31 24.06.2022
1343 Clouds 25 1008 94 10000 3.08 211 21:29 24.06.2022
1344 Clouds 25 1008 94 9168 3.81 217 20:25 24.06.2022
1345 Rain 25 1007 94 8676 4.06 224 19:43 24.06.2022
1346 Clouds 25 1007 94 9933 4.32 222 19:18 24.06.2022
1347 Rain 25 1007 94 9933 4.32 222 18:46 24.06.2022
1348 Rain 25 1007 94 10000 4.17 210 18:28 24.06.2022
1349 Clouds 25 1008 94 3829 4.59 209 16:48 24.06.2022
1350 Clouds 25 1006 94 10000 5.66 230 14:58 24.06.2022
1351 Clouds 25 1006 94 10000 5.66 230 14:24 24.06.2022
1352 Clouds 25 1006 94 6000 5.66 220 13:46 24.06.2022
1353 Rain 25 1005 94 4500 11.32 230 11:42 24.06.2022
1354 Clouds 26 1004 89 10000 14.4 220 10:39 24.06.2022
1355 Clouds 26 1004 89 8000 12.86 220 09:42 24.06.2022
1356 Clouds 26 1004 89 8000 12.86 220 09:42 24.06.2022
1357 Rain 26 1004 89 5000 11.83 220 08:54 24.06.2022
1358 Mist 26 1004 89 5000 11.83 220 08:19 24.06.2022
1359 Rain 29 1005 74 10000 15.43 210 06:44 24.06.2022
1360 Clouds 29 1005 74 10000 15.43 210 06:25 24.06.2022
1361 Clouds 29 1006 74 10000 13.89 220 04:50 24.06.2022
1362 Clouds 27 1005 83 10000 14.4 220 23:32 23.06.2022
1363 Clouds 28 1007 78 10000 9.21 207 22:43 23.06.2022
1364 Clouds 28 1006 78 10000 9.73 197 20:59 23.06.2022
1365 Clouds 28 1006 78 10000 9.73 197 20:36 23.06.2022
1366 Clouds 28 1006 78 10000 9.3 195 19:48 23.06.2022
1367 Clouds 28 1007 78 10000 9.04 190 18:26 23.06.2022
1368 Clouds 28 1007 78 10000 9.04 190 17:33 23.06.2022
1369 Clouds 28 1008 78 10000 8.39 187 16:26 23.06.2022
1370 Clouds 25 1009 94 10000 7.96 186 15:26 23.06.2022
1371 Clouds 28 1008 78 10000 8.75 200 14:18 23.06.2022
1372 Clouds 28 1007 78 10000 9.26 200 11:33 23.06.2022
1373 Clouds 28 1008 78 10000 11.32 220 10:40 23.06.2022
1374 Clouds 28 1008 78 10000 10.29 220 09:19 23.06.2022
1375 Clouds 29 1010 74 10000 9.77 210 03:51 23.06.2022
1376 Clouds 26 1010 89 10000 3.09 150 00:27 23.06.2022
1377 Clouds 26 1010 89 10000 3.6 150 23:43 22.06.2022
1378 Clouds 25 1010 88 458 4.3 171 22:50 22.06.2022
1379 Clouds 25 1010 88 867 3.41 176 21:28 22.06.2022
1380 Clouds 25 1010 88 867 3.41 176 20:48 22.06.2022
1381 Clouds 25 1010 88 4592 2.83 161 19:58 22.06.2022
1382 Clouds 25 1010 88 10000 3.65 164 18:51 22.06.2022
1383 Clouds 25 1011 88 10000 2.4 171 17:29 22.06.2022
1384 Clouds 25 1011 88 10000 2.4 171 16:37 22.06.2022
1385 Clouds 25 1011 88 10000 3 178 15:27 22.06.2022
1386 Clouds 25 1010 88 10000 5.66 130 14:31 22.06.2022
1387 Clouds 24 1010 94 10000 4.63 130 13:44 22.06.2022
1388 Clouds 24 1010 94 10000 4.63 130 13:23 22.06.2022
1389 Clouds 26 1009 83 10000 3.6 200 11:50 22.06.2022
1390 Clouds 26 1009 78 10000 5.14 230 10:58 22.06.2022
1391 Clouds 26 1009 78 10000 5.14 230 10:20 22.06.2022
1392 Clouds 28 1009 74 10000 5.66 220 08:48 22.06.2022
1393 Clouds 27 1010 78 10000 4.63 210 05:59 22.06.2022
1394 Clouds 24 1009 94 10000 1.54 170 01:49 22.06.2022
1395 Clouds 24 1008 94 10000 1.54 170 00:39 22.06.2022
1396 Clouds 23 1008 100 6559 2.33 216 22:37 21.06.2022
1397 Clouds 23 1007 100 10000 1.51 192 20:39 21.06.2022
1398 Clouds 23 1007 100 10000 2.84 221 18:51 21.06.2022
1399 Clouds 23 1007 100 10000 2.67 232 17:40 21.06.2022
1400 Clouds 23 1004 100 6000 4.12 120 14:42 21.06.2022
1401 Mist 24 1003 94 5000 4.12 130 11:52 21.06.2022
1402 Clouds 25 1002 88 10000 5.14 210 10:19 21.06.2022
1403 Clouds 25 1002 94 10000 4.12 150 08:50 21.06.2022
1404 Clouds 25 1002 94 10000 6.17 200 07:35 21.06.2022
1405 Mist 24 1002 100 4000 6.17 240 02:27 21.06.2022
1406 Rain 23 1002 94 5000 3.09 90 23:26 20.06.2022
1407 Rain 24 1001 88 651 5.9 190 21:58 20.06.2022
1408 Rain 24 1001 88 651 5.9 190 21:31 20.06.2022
1409 Rain 24 1001 88 1531 6.58 133 19:49 20.06.2022
1410 Rain 24 1005 88 6047 4.95 141 18:53 20.06.2022
1411 Rain 24 1005 88 4963 4.64 130 18:24 20.06.2022
1412 Rain 24 1005 88 4963 4.64 130 17:40 20.06.2022
1413 Rain 24 1006 88 2380 3 142 16:20 20.06.2022
1414 Rain 24 1005 88 10000 3.6 140 14:18 20.06.2022
1415 Rain 25 1005 83 10000 6.17 210 11:30 20.06.2022
1416 Clouds 25 1004 88 10000 2.57 180 09:48 20.06.2022
1417 Clouds 25 1004 88 10000 1.54 190 08:45 20.06.2022
1418 Rain 24 1004 94 10000 2.06 140 06:59 20.06.2022
1419 Clouds 25 1005 88 10000 4.63 130 03:29 20.06.2022
1420 Rain 23 1005 94 10000 2.06 130 00:37 20.06.2022
1421 Rain 23 1005 94 10000 2.57 110 23:25 19.06.2022
1422 Rain 22 1006 96 10000 2.79 127 22:19 19.06.2022
1423 Rain 22 1006 96 10000 2.79 127 22:19 19.06.2022
1424 Rain 22 1006 96 10000 2.79 127 21:41 19.06.2022
1425 Rain 22 1006 96 10000 2.64 127 20:46 19.06.2022
1426 Rain 25 1005 78 5223 2.61 187 19:48 19.06.2022
1427 Rain 25 1006 78 4441 2.78 174 19:24 19.06.2022
1428 Rain 23 1006 97 4441 2.78 174 18:31 19.06.2022
1429 Rain 22 1006 97 5509 2.87 163 17:39 19.06.2022
1430 Clouds 22 1006 98 2944 2.3 121 16:38 19.06.2022
1431 Clouds 22 1007 98 2341 3.31 109 15:44 19.06.2022
1432 Rain 22 1007 98 1726 3.4 124 15:26 19.06.2022
1433 Clouds 25 1007 78 10000 2.06 150 14:35 19.06.2022
1434 Rain 25 1007 78 10000 3.09 180 13:43 19.06.2022
1435 Rain 25 1007 83 10000 5.66 220 11:53 19.06.2022
1436 Rain 26 1007 78 10000 5.66 240 10:51 19.06.2022
1437 Rain 27 1007 74 10000 3.6 140 08:55 19.06.2022
1438 Rain 27 1007 74 10000 3.6 140 08:30 19.06.2022
1439 Rain 27 1008 74 10000 4.63 150 06:48 19.06.2022
1440 Clouds 27 1009 74 10000 4.63 130 03:37 19.06.2022
1441 Clouds 25 1010 83 10000 4.12 130 00:28 19.06.2022
1442 Clouds 24 1010 88 10000 3.09 110 23:52 18.06.2022
1443 Clouds 24 1010 88 10000 3.09 110 23:34 18.06.2022
1444 Clouds 24 1010 83 10000 1.7 159 21:54 18.06.2022
1445 Clouds 24 1010 83 10000 2.08 179 20:50 18.06.2022
1446 Clouds 24 1011 83 10000 1.53 182 20:18 18.06.2022
1447 Clouds 24 1011 83 10000 1.28 217 18:55 18.06.2022
1448 Clouds 24 1011 83 10000 1.28 217 18:30 18.06.2022
1449 Clouds 24 1011 83 10000 2.1 215 17:29 18.06.2022
1450 Clouds 24 1011 83 10000 1.21 221 15:39 18.06.2022
1451 Clouds 24 1009 83 10000 3.09 220 14:50 18.06.2022
1452 Clouds 24 1009 83 10000 7.2 230 13:58 18.06.2022
1453 Clouds 26 1008 73 10000 6.17 240 12:28 18.06.2022
1454 Clouds 28 1007 65 10000 6.69 230 10:59 18.06.2022
1455 Clouds 28 1007 69 10000 5.66 230 09:31 18.06.2022
1456 Clouds 29 1007 61 10000 2.57 250 08:40 18.06.2022
1457 Clouds 30 1007 62 10000 2.06 300 07:33 18.06.2022
1458 Clouds 28 1007 69 10000 1.54 290 05:20 18.06.2022
1459 Clouds 25 1007 88 10000 4.63 310 01:47 18.06.2022
1460 Clouds 25 1007 88 10000 4.63 310 01:21 18.06.2022
1461 Clouds 24 1007 88 10000 2.06 340 00:23 18.06.2022
1462 Clouds 25 1008 78 10000 2.14 4 23:33 17.06.2022
1463 Clouds 22 1007 94 10000 2.5 17 21:57 17.06.2022
1464 Clouds 22 1008 94 10000 1.4 356 20:29 17.06.2022
1465 Clouds 25 1008 78 10000 0.85 170 19:20 17.06.2022
1466 Clouds 25 1009 78 10000 1.38 207 17:47 17.06.2022
1467 Clouds 25 1009 78 10000 1.63 177 16:44 17.06.2022
1468 Clouds 25 1010 78 10000 1.28 176 16:21 17.06.2022
1469 Clouds 25 1010 78 10000 1.28 176 15:37 17.06.2022
1470 Clouds 25 1009 78 10000 4.12 220 14:23 17.06.2022
1471 Clouds 25 1009 78 10000 5.14 220 13:58 17.06.2022
1472 Clouds 25 1009 78 10000 5.14 220 13:38 17.06.2022
1473 Clouds 26 1008 73 10000 5.66 220 12:24 17.06.2022
1474 Rain 27 1008 74 10000 3.6 230 11:50 17.06.2022
1475 Clouds 27 1008 74 10000 3.6 230 11:32 17.06.2022
1476 Clouds 28 1009 69 10000 2.57 220 08:56 17.06.2022
1477 Clouds 28 1009 69 10000 2.57 220 08:25 17.06.2022
1478 Clouds 27 1009 74 10000 3.09 250 06:42 17.06.2022
1479 Clouds 26 1010 78 10000 2.57 200 03:42 17.06.2022
1480 Clouds 25 1010 78 10000 2.57 90 01:55 17.06.2022
1481 Clouds 24 1010 83 10000 1.89 150 23:35 16.06.2022
1482 Clouds 24 1010 83 10000 1.73 144 22:41 16.06.2022
1483 Clouds 24 1010 83 10000 0.88 153 21:21 16.06.2022
1484 Clouds 24 1010 83 10000 0.88 153 20:51 16.06.2022
1485 Clouds 24 1010 83 10000 1.58 164 20:27 16.06.2022
1486 Clouds 24 1010 83 10000 1.66 158 19:31 16.06.2022
1487 Clouds 24 1011 83 10000 0.07 59 17:54 16.06.2022
1488 Clouds 24 1011 83 10000 0.61 204 17:27 16.06.2022
1489 Clouds 24 1011 83 10000 1.26 194 16:20 16.06.2022
1490 Clouds 24 1011 83 10000 1.7 193 15:21 16.06.2022
1491 Clear 24 1010 83 10000 5.14 210 14:27 16.06.2022
1492 Clouds 24 1009 78 10000 6.17 240 12:56 16.06.2022
1493 Rain 24 1009 78 10000 6.17 240 12:34 16.06.2022
1494 Clouds 25 1009 78 10000 4.12 230 11:48 16.06.2022
1495 Clouds 26 1009 69 10000 5.66 240 10:41 16.06.2022
1496 Clouds 26 1009 73 10000 6.17 230 09:43 16.06.2022
1497 Clouds 26 1009 73 10000 6.17 230 08:59 16.06.2022
1498 Clouds 26 1009 73 10000 5.66 230 07:42 16.06.2022
1499 Clouds 26 1009 69 10000 4.63 230 06:36 16.06.2022
1500 Clouds 26 1010 73 10000 5.66 220 04:24 16.06.2022
1501 Clouds 24 1010 83 10000 3.09 180 01:52 16.06.2022
1502 Clouds 24 1010 83 10000 3.09 180 01:29 16.06.2022
1503 Clouds 23 1010 88 10000 3.09 150 00:29 16.06.2022
1504 Clouds 23 1011 78 10000 2.74 173 22:54 15.06.2022
1505 Clouds 23 1011 78 10000 3.05 180 21:48 15.06.2022
1506 Rain 23 1010 78 10000 3.04 183 21:19 15.06.2022
1507 Clouds 23 1010 78 10000 3.04 183 20:37 15.06.2022
1508 Clouds 23 1011 78 10000 3.61 194 20:18 15.06.2022
1509 Clouds 23 1011 78 10000 3.63 197 18:41 15.06.2022
1510 Clouds 23 1012 78 10000 3.87 190 17:53 15.06.2022
1511 Clouds 23 1012 78 10000 3.29 186 16:27 15.06.2022
1512 Clouds 23 1011 78 10000 2.94 189 15:19 15.06.2022
1513 Rain 23 1010 78 10000 2.57 150 13:29 15.06.2022
1514 Clouds 23 1010 78 10000 4.63 220 12:47 15.06.2022
1515 Clouds 24 1009 73 10000 5.66 230 11:28 15.06.2022
1516 Clouds 25 1009 69 10000 6.17 240 10:22 15.06.2022
1517 Clouds 26 1009 69 10000 7.2 230 09:34 15.06.2022
1518 Clouds 26 1009 69 10000 2.57 300 07:43 15.06.2022
1519 Clouds 25 1009 69 10000 1.54 240 05:57 15.06.2022
1520 Clouds 24 1008 83 10000 2.57 240 02:55 15.06.2022
1521 Clouds 23 1008 83 10000 2.06 230 01:36 15.06.2022
1522 Rain 22 1008 88 10000 3.09 240 00:36 15.06.2022
1523 Clouds 22 1008 88 10000 3.09 210 23:38 14.06.2022
1524 Clouds 23 1009 83 10000 2.31 251 22:47 14.06.2022
1525 Clouds 23 1008 83 10000 2.88 244 21:43 14.06.2022
1526 Clouds 23 1008 83 8916 3.99 238 21:21 14.06.2022
1527 Rain 23 1008 83 8916 3.99 238 20:40 14.06.2022
1528 Rain 23 1007 83 10000 3.04 215 19:58 14.06.2022
1529 Rain 23 1007 83 10000 3.16 211 18:40 14.06.2022
1530 Clouds 23 1008 83 9545 4.96 216 17:19 14.06.2022
1531 Clouds 23 1008 83 9545 4.96 216 16:42 14.06.2022
1532 Rain 23 1008 83 10000 5.59 205 15:41 14.06.2022
1533 Clouds 23 1006 83 10000 5.66 180 14:53 14.06.2022
1534 Rain 23 1006 83 10000 5.66 200 13:59 14.06.2022
1535 Clouds 23 1005 88 10000 4.12 180 12:59 14.06.2022
1536 Clouds 22 1005 94 10000 3.6 150 11:56 14.06.2022
1537 Rain 22 1005 94 8000 5.66 130 10:52 14.06.2022
1538 Clouds 22 1005 94 8000 5.66 130 10:28 14.06.2022
1539 Rain 22 1005 88 9000 6.17 120 09:18 14.06.2022
1540 Clouds 22 1005 94 10000 6.69 130 08:24 14.06.2022
1541 Clouds 21 1005 94 6000 4.63 150 06:20 14.06.2022
1542 Rain 21 1005 88 10000 3.09 150 03:45 14.06.2022
1543 Rain 21 1005 88 10000 1.03 0 01:37 14.06.2022
1544 Rain 20 1004 94 10000 2.57 80 00:21 14.06.2022
1545 Rain 20 1004 91 10000 3.66 65 22:45 13.06.2022
1546 Rain 20 1004 91 10000 3.31 73 22:22 13.06.2022
1547 Rain 20 1004 88 10000 3.97 65 21:26 13.06.2022
1548 Rain 20 1004 88 10000 3.5 71 19:59 13.06.2022
1549 Rain 20 1005 88 10000 3.82 67 18:54 13.06.2022
1550 Clouds 20 1005 88 10000 4.09 60 17:55 13.06.2022
1551 Clouds 20 1005 88 10000 4 60 17:23 13.06.2022
1552 Rain 20 1005 88 10000 4 60 16:30 13.06.2022
1553 Rain 20 1005 88 6000 2.06 130 14:48 13.06.2022
1554 Mist 20 1005 94 4000 1.54 240 14:23 13.06.2022
1555 Rain 19 1005 94 9000 3.09 300 13:28 13.06.2022
1556 Rain 19 1005 94 8000 1.54 220 12:22 13.06.2022
1557 Rain 20 1005 88 9000 3.09 10 10:36 13.06.2022
1558 Rain 20 1006 88 10000 3.09 340 09:43 13.06.2022
1559 Rain 20 1006 83 10000 2.57 0 08:34 13.06.2022
1560 Rain 20 1007 88 9000 1.54 110 06:35 13.06.2022
1561 Rain 21 1009 88 8000 3.09 160 04:35 13.06.2022
1562 Rain 21 1009 88 9000 2.06 150 01:44 13.06.2022
1563 Rain 21 1009 88 9000 2.06 150 01:18 13.06.2022
1564 Rain 21 1009 88 10000 2.06 170 23:41 12.06.2022
1565 Rain 22 1009 83 10000 1.56 109 22:34 12.06.2022
1566 Clouds 22 1009 83 10000 1.51 70 21:45 12.06.2022
1567 Clouds 22 1009 83 10000 1.55 72 20:49 12.06.2022
1568 Clouds 22 1010 83 10000 1.16 85 19:43 12.06.2022
1569 Rain 22 1010 83 10000 1.26 68 18:53 12.06.2022
1570 Rain 22 1011 83 10000 1.75 80 17:20 12.06.2022
1571 Rain 22 1011 83 10000 1.57 120 15:34 12.06.2022
1572 Clear 22 1010 83 10000 4.12 330 14:48 12.06.2022
1573 Rain 22 1010 83 10000 4.12 330 14:18 12.06.2022
1574 Clear 23 1010 78 10000 5.66 340 13:43 12.06.2022
1575 Clear 24 1009 78 10000 5.66 310 11:58 12.06.2022
1576 Clear 25 1009 73 10000 5.66 310 10:46 12.06.2022
1577 Clear 26 1009 69 10000 5.66 300 09:36 12.06.2022
1578 Clouds 27 1009 57 10000 4.63 310 08:49 12.06.2022
1579 Clouds 27 1009 57 10000 2.57 220 07:49 12.06.2022
1580 Clouds 28 1010 54 10000 5.14 30 06:21 12.06.2022
1581 Clouds 26 1011 57 10000 6.69 20 03:38 12.06.2022
1582 Clouds 23 1011 78 10000 6.69 350 01:49 12.06.2022
1583 Clouds 23 1011 78 10000 6.69 350 01:23 12.06.2022
1584 Clouds 21 1011 83 10000 5.14 10 00:36 12.06.2022
1585 Clouds 21 1011 83 10000 5.14 10 00:18 12.06.2022
1586 Clear 20 1011 77 10000 3.35 18 22:53 11.06.2022
1587 Clear 20 1010 77 10000 4.37 27 22:29 11.06.2022
1588 Clear 20 1010 77 10000 3.57 15 21:18 11.06.2022
1589 Clouds 20 1009 77 10000 3.93 16 20:26 11.06.2022
1590 Clouds 18 1010 82 10000 3.33 10 19:33 11.06.2022
1591 Clouds 18 1010 81 10000 3.96 21 18:37 11.06.2022
1592 Clouds 18 1010 81 10000 3.96 21 18:37 11.06.2022
1593 Clouds 20 1010 77 10000 3.88 18 17:58 11.06.2022
1594 Clouds 20 1010 77 10000 3.88 18 17:38 11.06.2022
1595 Clouds 20 1009 77 10000 4.06 24 17:19 11.06.2022
1596 Clouds 20 1009 77 10000 4.06 24 16:38 11.06.2022
1597 Rain 20 1010 77 10000 4.2 25 15:46 11.06.2022
1598 Rain 22 1008 64 10000 6.69 30 13:54 11.06.2022
1599 Rain 22 1008 64 10000 6.69 30 13:36 11.06.2022
1600 Rain 23 1006 64 10000 2.57 360 11:18 11.06.2022
1601 Clouds 23 1006 64 10000 5.14 20 10:22 11.06.2022
1602 Rain 23 1006 68 10000 7.2 30 09:38 11.06.2022
1603 Rain 23 1007 73 10000 6.17 10 07:52 11.06.2022
1604 Rain 24 1007 64 10000 7.2 20 06:31 11.06.2022
1605 Rain 23 1007 73 10000 6.69 50 05:22 11.06.2022
1606 Rain 20 1010 88 10000 2.57 20 01:53 11.06.2022
1607 Rain 20 1010 88 10000 2.57 20 01:34 11.06.2022
1608 Rain 20 1010 94 10000 2.06 360 00:34 11.06.2022
1609 Clouds 19 1011 94 10000 3.43 24 22:35 10.06.2022
1610 Rain 19 1012 96 5286 2.43 1 21:54 10.06.2022
1611 Rain 18 1012 96 4692 1.42 4 20:43 10.06.2022
1612 Rain 19 1011 95 8497 0.86 331 20:23 10.06.2022
1613 Rain 19 1011 95 6985 1.93 15 20:23 10.06.2022
1614 Rain 19 1011 95 6985 1.93 15 19:48 10.06.2022
1615 Rain 19 1012 92 4005 1.24 285 19:18 10.06.2022
1616 Rain 19 1012 91 10000 0.46 213 18:19 10.06.2022
1617 Rain 19 1012 91 10000 0.46 213 17:36 10.06.2022
1618 Clouds 23 1013 83 7967 2.05 217 16:56 10.06.2022
1619 Clouds 23 1013 83 10000 2.18 189 15:48 10.06.2022
1620 Rain 23 1013 83 10000 2.77 179 15:19 10.06.2022
1621 Rain 23 1012 83 10000 4.12 320 13:44 10.06.2022
1622 Rain 24 1012 78 10000 2.06 320 12:28 10.06.2022
1623 Rain 24 1012 83 10000 3.6 340 11:40 10.06.2022
1624 Rain 24 1012 83 10000 3.6 330 10:37 10.06.2022
1625 Rain 25 1013 78 10000 2.06 310 09:43 10.06.2022
1626 Rain 26 1013 69 10000 2.06 280 08:23 10.06.2022
1627 Rain 28 1013 65 10000 2.57 290 06:52 10.06.2022
1628 Clouds 28 1013 65 10000 2.57 290 06:32 10.06.2022
1629 Clouds 26 1013 65 10000 2.06 320 05:45 10.06.2022
1630 Clouds 24 1013 73 10000 1.54 280 02:55 10.06.2022
1631 Clouds 23 1014 78 10000 0.51 0 01:37 10.06.2022
1632 Clouds 21 1013 88 9000 1.54 150 23:58 09.06.2022
1633 Clouds 23 1014 78 10000 1.16 118 22:56 09.06.2022
1634 Clouds 23 1013 78 10000 1.21 138 21:46 09.06.2022
1635 Clouds 23 1013 78 10000 1.12 137 21:28 09.06.2022
1636 Clouds 23 1013 78 10000 1.12 137 20:47 09.06.2022
1637 Clouds 23 1013 78 10000 0.87 149 19:54 09.06.2022
1638 Clouds 23 1013 78 10000 1.28 144 18:43 09.06.2022
1639 Clouds 23 1013 78 10000 1.09 132 17:56 09.06.2022
1640 Clouds 23 1014 78 10000 0.63 166 16:44 09.06.2022
1641 Clouds 23 1014 78 10000 1.25 147 15:42 09.06.2022
1642 Clouds 23 1013 78 10000 3.09 340 14:34 09.06.2022
1643 Clouds 23 1012 78 10000 3.6 330 13:46 09.06.2022
1644 Clouds 23 1012 78 10000 3.6 330 13:25 09.06.2022
1645 Clouds 25 1011 69 10000 6.17 220 11:53 09.06.2022
1646 Clouds 26 1011 65 10000 5.66 240 10:40 09.06.2022
1647 Clouds 27 1011 61 10000 6.17 250 09:41 09.06.2022
1648 Clouds 27 1011 61 10000 6.17 250 09:22 09.06.2022
1649 Clouds 27 1010 57 10000 2.57 310 07:29 09.06.2022
1650 Clouds 25 1013 69 10000 1.54 280 04:47 09.06.2022
1651 Clear 21 1012 78 10000 1.03 0 01:43 09.06.2022
1652 Clear 19 1012 94 10000 2.06 120 23:24 08.06.2022
1653 Clouds 20 1011 77 10000 2.64 50 22:45 08.06.2022
1654 Clouds 20 1011 77 10000 2.5 45 22:25 08.06.2022
1655 Clouds 20 1011 77 10000 2.5 45 21:45 08.06.2022
1656 Clouds 20 1011 77 10000 2.26 62 20:33 08.06.2022
1657 Clouds 20 1011 77 10000 2.14 62 19:47 08.06.2022
1658 Clear 20 1011 77 10000 2.47 69 18:49 08.06.2022
1659 Clear 20 1011 77 10000 2.77 78 18:22 08.06.2022
1660 Clear 20 1012 77 10000 2.89 62 16:30 08.06.2022
1661 Clouds 21 1011 78 10000 5.14 350 14:49 08.06.2022
1662 Clouds 23 1009 73 10000 7.2 340 12:55 08.06.2022
1663 Clouds 23 1009 73 10000 7.2 340 12:55 08.06.2022
1664 Clouds 25 1009 61 10000 5.14 320 11:44 08.06.2022
1665 Clouds 25 1009 61 10000 5.14 320 11:19 08.06.2022
1666 Clouds 27 1008 54 10000 2.06 270 09:46 08.06.2022
1667 Clouds 27 1008 54 10000 2.06 270 09:19 08.06.2022
1668 Clouds 27 1008 54 10000 3.09 300 07:30 08.06.2022
1669 Clouds 24 1010 60 10000 2.06 270 04:51 08.06.2022
1670 Clouds 22 1010 68 10000 1.54 20 02:19 08.06.2022
1671 Clouds 19 1009 82 10000 1.03 0 23:41 07.06.2022
1672 Clouds 20 1009 73 10000 2.68 40 23:22 07.06.2022
1673 Clouds 20 1009 73 10000 2.68 40 22:38 07.06.2022
1674 Clouds 20 1009 73 10000 2.82 32 21:41 07.06.2022
1675 Clouds 20 1009 73 10000 2.82 32 21:41 07.06.2022
1676 Clouds 20 1008 73 10000 2.42 45 21:23 07.06.2022
1677 Clouds 20 1008 73 10000 2.42 45 20:42 07.06.2022
1678 Clouds 20 1008 73 10000 2.31 54 19:58 07.06.2022
1679 Clouds 20 1008 73 10000 2.35 59 18:42 07.06.2022
1680 Clouds 20 1008 73 10000 2.08 56 17:51 07.06.2022
1681 Clouds 20 1008 73 10000 1.84 66 16:49 07.06.2022
1682 Clouds 20 1008 73 10000 1.84 66 16:31 07.06.2022
1683 Clouds 20 1008 73 10000 1.91 58 15:38 07.06.2022
1684 Clouds 20 1008 73 10000 1.17 66 15:19 07.06.2022
1685 Clouds 21 1007 73 10000 5.14 350 14:44 07.06.2022
1686 Clouds 21 1007 78 10000 5.66 340 13:42 07.06.2022
1687 Clouds 21 1007 78 10000 5.66 340 13:42 07.06.2022
1688 Clouds 21 1007 78 10000 5.66 340 13:23 07.06.2022
1689 Clouds 24 1006 64 10000 1.54 0 11:56 07.06.2022
1690 Clouds 24 1006 64 10000 4.12 220 10:53 07.06.2022
1691 Clouds 25 1006 57 10000 3.09 240 09:26 07.06.2022
1692 Clouds 26 1005 57 10000 2.06 270 08:22 07.06.2022
1693 Clouds 25 1006 61 10000 3.09 210 06:42 07.06.2022
1694 Clouds 23 1006 64 10000 2.06 310 04:47 07.06.2022
1695 Clouds 20 1007 77 10000 2.06 260 01:28 07.06.2022
1696 Clouds 18 1005 94 10000 1.54 110 23:59 06.06.2022
1697 Clear 20 1006 77 10000 1.42 34 22:56 06.06.2022
1698 Clear 18 1006 86 10000 1.42 34 22:30 06.06.2022
1699 Clear 18 1004 87 10000 2.16 43 21:18 06.06.2022
1700 Clouds 20 1004 77 10000 2.88 18 19:29 06.06.2022
1701 Clouds 20 1004 77 10000 2.88 18 18:53 06.06.2022
1702 Clouds 20 1004 77 10000 2.84 14 18:26 06.06.2022
1703 Clear 20 1004 77 10000 2.64 0 17:26 06.06.2022
1704 Clear 20 1004 77 10000 2.61 338 16:18 06.06.2022
1705 Clear 20 1004 77 10000 2.61 338 15:33 06.06.2022
1706 Clouds 20 1002 77 10000 6.17 10 14:32 06.06.2022
1707 Clouds 21 1001 78 10000 7.2 310 13:25 06.06.2022
1708 Clouds 22 1000 73 10000 7.2 300 12:36 06.06.2022
1709 Clouds 23 999 73 10000 7.72 300 11:53 06.06.2022
1710 Clouds 24 999 69 10000 7.72 310 10:41 06.06.2022
1711 Clouds 24 998 69 10000 7.72 310 09:39 06.06.2022
1712 Clouds 24 998 64 10000 6.69 310 08:32 06.06.2022
1713 Clouds 24 997 69 10000 7.72 320 07:28 06.06.2022
1714 Clouds 25 997 69 10000 7.72 350 05:27 06.06.2022
1715 Clouds 22 995 78 10000 8.23 340 02:55 06.06.2022
1716 Clouds 21 994 83 10000 8.23 350 01:23 06.06.2022
1717 Clouds 21 994 88 10000 9.26 350 00:38 06.06.2022
1718 Clouds 20 993 94 10000 6.17 340 23:34 05.06.2022
1719 Clouds 19 992 93 10000 4.77 337 22:45 05.06.2022
1720 Clouds 19 991 93 10000 5.34 255 20:47 05.06.2022
1721 Clouds 19 991 93 9089 7.21 240 19:41 05.06.2022
1722 Rain 19 992 93 331 5.86 220 18:29 05.06.2022
1723 Rain 19 992 93 331 5.86 220 17:51 05.06.2022
1724 Clouds 19 993 93 690 4.02 185 17:25 05.06.2022
1725 Rain 19 993 93 690 4.02 185 16:49 05.06.2022
1726 Rain 19 993 93 690 4.02 185 16:30 05.06.2022
1727 Rain 19 995 94 10000 8.23 130 14:24 05.06.2022
1728 Rain 19 996 94 9000 7.72 140 12:49 05.06.2022
1729 Rain 19 997 94 8000 7.2 140 11:43 05.06.2022
1730 Rain 19 998 94 9000 7.2 130 10:33 05.06.2022
1731 Clouds 19 999 94 8000 6.69 120 09:59 05.06.2022
1732 Rain 19 999 94 9000 6.69 130 08:28 05.06.2022
1733 Rain 19 1000 94 8000 7.2 110 07:41 05.06.2022
1734 Rain 19 1001 88 7000 7.2 130 05:21 05.06.2022
1735 Rain 21 1004 88 7000 3.09 160 03:43 05.06.2022
1736 Rain 22 1005 83 10000 4.12 140 01:32 05.06.2022
1737 Rain 23 1006 73 10000 2.06 170 00:29 05.06.2022
1738 Clouds 23 1006 78 10000 2.28 143 22:22 04.06.2022
1739 Rain 23 1007 78 10000 1.72 78 20:31 04.06.2022
1740 Rain 23 1009 78 10000 0.85 204 18:19 04.06.2022
1741 Clouds 23 1010 78 10000 1.13 163 16:44 04.06.2022
1742 Clouds 23 1011 78 10000 0.9 299 16:18 04.06.2022
1743 Clear 23 1009 78 10000 2.57 230 14:53 04.06.2022
1744 Clear 25 1009 57 10000 6.69 240 12:35 04.06.2022
1745 Clear 26 1008 57 10000 4.63 250 11:18 04.06.2022
1746 Clear 27 1008 61 10000 3.09 330 10:43 04.06.2022
1747 Clear 28 1008 57 10000 5.14 320 09:42 04.06.2022
1748 Clear 29 1008 45 10000 5.66 250 08:41 04.06.2022
1749 Clear 29 1008 51 10000 1.54 270 07:40 04.06.2022
1750 Clear 25 1010 61 10000 2.06 270 04:57 04.06.2022
1751 Clouds 22 1012 83 10000 1.54 270 01:25 04.06.2022
1752 Clouds 20 1011 88 10000 3.6 280 23:53 03.06.2022
1753 Clouds 20 1010 80 10000 1.75 45 22:30 03.06.2022
1754 Clear 20 1010 81 10000 1.93 51 21:24 03.06.2022
1755 Clear 20 1010 81 10000 1.93 51 20:33 03.06.2022
1756 Clouds 20 1010 87 10000 2.13 90 18:23 03.06.2022
1757 Clouds 23 1011 83 10000 2.12 65 16:47 03.06.2022
1758 Clear 23 1010 83 10000 1.11 68 15:18 03.06.2022
1759 Clear 23 1009 83 10000 5.66 330 13:20 03.06.2022
1760 Clear 26 1008 69 10000 5.14 330 11:19 03.06.2022
1761 Clouds 27 1008 61 10000 4.63 320 09:38 03.06.2022
1762 Clouds 27 1008 61 10000 6.69 320 08:45 03.06.2022
1763 Clouds 27 1008 65 10000 5.14 330 07:26 03.06.2022
1764 Clouds 27 1008 65 10000 5.14 330 07:26 03.06.2022
1765 Clouds 27 1009 21 10000 1.54 270 06:34 03.06.2022
1766 Clouds 27 1009 28 10000 2.57 340 05:36 03.06.2022
1767 Clouds 19 1010 94 10000 1.54 170 00:28 03.06.2022
1768 Clouds 18 1010 81 10000 1.44 40 22:45 02.06.2022
1769 Clouds 18 1009 83 10000 1.05 74 21:40 02.06.2022
1770 Clouds 18 1009 81 10000 0.63 63 20:22 02.06.2022
1771 Clouds 18 1010 83 10000 0.67 346 19:50 02.06.2022
1772 Clouds 18 1010 83 10000 0.67 346 19:31 02.06.2022
1773 Clouds 18 1009 82 10000 0.69 34 17:32 02.06.2022
1774 Clouds 19 1010 84 10000 0.84 248 16:27 02.06.2022
1775 Clouds 22 1009 78 10000 3.6 250 14:20 02.06.2022
1776 Clouds 22 1008 73 10000 5.14 220 13:29 02.06.2022
1777 Clouds 25 1007 57 10000 6.69 230 11:36 02.06.2022
1778 Clouds 26 1007 53 10000 6.69 240 10:20 02.06.2022
1779 Clouds 26 1007 57 10000 6.69 240 09:27 02.06.2022
1780 Clouds 28 1007 54 10000 5.14 240 08:27 02.06.2022
1781 Clouds 26 1007 61 10000 3.09 260 07:25 02.06.2022
1782 Clouds 24 1008 69 10000 2.57 300 04:52 02.06.2022
1783 Clouds 22 1009 73 10000 1.54 20 02:38 02.06.2022
1784 Clouds 19 1008 94 9000 1.54 140 23:47 01.06.2022
1785 Clear 20 1009 73 10000 0.95 309 22:32 01.06.2022
1786 Clear 20 1009 73 10000 1.07 295 21:35 01.06.2022
1787 Clear 20 1008 73 10000 1.19 268 20:58 01.06.2022
1788 Clear 20 1008 73 10000 1.19 268 20:37 01.06.2022
1789 Clouds 20 1008 73 10000 0.27 265 19:25 01.06.2022
1790 Clouds 20 1008 73 10000 0.58 218 17:44 01.06.2022
1791 Clouds 19 1008 83 10000 0.86 239 16:34 01.06.2022
1792 Clouds 21 1007 73 10000 4.12 250 14:54 01.06.2022
1793 Clouds 21 1007 78 10000 4.12 230 13:51 01.06.2022
1794 Clouds 22 1006 68 10000 5.66 230 12:26 01.06.2022
1795 Clouds 25 1005 61 10000 6.69 230 09:41 01.06.2022
1796 Rain 25 1006 61 10000 2.57 300 08:40 01.06.2022
1797 Clouds 26 1005 69 10000 4.12 180 07:22 01.06.2022
1798 Clouds 24 1007 73 10000 2.06 160 05:23 01.06.2022
1799 Clear 20 1008 77 10000 2.57 140 00:22 01.06.2022
1800 Clear 19 1008 82 10000 2.57 140 23:28 31.05.2022
1801 Clouds 22 1009 68 10000 1.49 154 22:36 31.05.2022
1802 Clouds 22 1009 68 10000 1.73 151 21:45 31.05.2022
1803 Clouds 22 1009 68 10000 1.84 136 20:45 31.05.2022
1804 Clouds 22 1009 68 10000 1.62 120 20:18 31.05.2022
1805 Clouds 22 1010 68 10000 1.48 86 18:52 31.05.2022
1806 Clouds 22 1009 68 10000 1.87 60 17:50 31.05.2022
1807 Clouds 22 1009 68 10000 1.5 59 16:56 31.05.2022
1808 Clouds 22 1009 68 10000 2.05 50 15:40 31.05.2022
1809 Clear 22 1008 68 10000 2.06 40 13:52 31.05.2022
1810 Clear 24 1007 53 10000 3.6 350 12:20 31.05.2022
1811 Clouds 26 1006 57 10000 5.66 350 10:53 31.05.2022
1812 Clouds 27 1007 54 10000 6.69 320 09:29 31.05.2022
1813 Clouds 26 1007 61 10000 4.63 290 07:24 31.05.2022
1814 Clouds 26 1008 61 10000 1.03 220 05:19 31.05.2022
1815 Clouds 21 1006 83 10000 3.6 310 00:36 31.05.2022
1816 Clouds 21 1006 83 10000 4.63 300 23:26 30.05.2022
1817 Clouds 20 1006 94 10000 2.01 309 22:53 30.05.2022
1818 Clouds 20 1005 94 10000 2.16 305 21:52 30.05.2022
1819 Clouds 20 1005 94 10000 2.16 305 21:32 30.05.2022
1820 Clouds 20 1005 94 10000 2.24 299 19:57 30.05.2022
1821 Clouds 20 1004 94 10000 2.49 304 18:40 30.05.2022
1822 Clouds 20 1004 94 10000 2.83 317 17:35 30.05.2022
1823 Clouds 20 1004 94 10000 2.51 327 16:41 30.05.2022
1824 Clouds 21 1003 94 6000 4.63 240 14:35 30.05.2022
1825 Clouds 22 1001 83 10000 5.14 210 12:24 30.05.2022
1826 Clouds 23 1001 83 10000 5.66 230 10:41 30.05.2022
1827 Clouds 24 1000 78 10000 6.17 220 09:19 30.05.2022
1828 Clouds 24 1001 83 10000 6.69 230 06:40 30.05.2022
1829 Clouds 23 1001 88 10000 5.66 230 05:48 30.05.2022
1830 Rain 20 1001 100 10000 4.63 140 01:33 30.05.2022
1831 Clouds 20 1002 73 10000 2.47 114 22:54 29.05.2022
1832 Rain 20 1002 73 10000 2.47 114 22:36 29.05.2022
1833 Clouds 20 1002 73 10000 2.96 110 20:53 29.05.2022
1834 Clouds 20 1003 73 10000 2.98 98 19:31 29.05.2022
1835 Rain 20 1004 73 10000 2.81 100 18:37 29.05.2022
1836 Rain 18 1005 78 10000 3.34 105 17:23 29.05.2022
1837 Rain 18 1006 78 10000 3.22 112 15:48 29.05.2022
1838 Rain 21 1005 73 10000 4.12 120 14:57 29.05.2022
1839 Clouds 23 1005 60 10000 3.6 130 13:52 29.05.2022
1840 Rain 23 1005 60 10000 4.12 240 11:41 29.05.2022
1841 Clouds 23 1004 60 10000 6.17 240 10:38 29.05.2022
1842 Clouds 27 1005 36 10000 4.63 170 08:47 29.05.2022
1843 Clouds 27 1006 36 10000 3.09 300 05:48 29.05.2022
1844 Clouds 25 1006 53 10000 2.57 300 04:43 29.05.2022
1845 Rain 22 1007 73 10000 1.03 0 02:50 29.05.2022
1846 Rain 19 1008 72 10000 1.54 80 23:49 28.05.2022
1847 Clear 19 1008 72 10000 1.54 80 23:26 28.05.2022
1848 Clouds 22 1009 68 10000 1.22 180 22:25 28.05.2022
1849 Clouds 22 1009 68 10000 1.22 180 21:34 28.05.2022
1850 Clouds 22 1009 68 10000 0.58 272 19:24 28.05.2022
1851 Clouds 22 1009 68 10000 0.58 272 18:46 28.05.2022
1852 Clouds 22 1010 68 10000 1.96 250 17:35 28.05.2022
1853 Clouds 22 1011 68 10000 2.74 242 16:35 28.05.2022
1854 Clouds 22 1011 68 10000 2.05 239 15:38 28.05.2022
1855 Clouds 22 1008 68 10000 5.66 240 13:57 28.05.2022
1856 Clear 23 1008 64 10000 6.69 240 12:43 28.05.2022
1857 Clear 24 1007 53 10000 7.2 240 11:57 28.05.2022
1858 Clear 25 1007 57 10000 6.17 240 10:49 28.05.2022
1859 Clear 25 1007 57 10000 7.2 240 09:56 28.05.2022
1860 Clear 26 1008 53 10000 7.2 240 08:43 28.05.2022
1861 Clouds 27 1008 50 10000 5.66 250 07:23 28.05.2022
1862 Clouds 25 1009 53 10000 1.03 0 05:24 28.05.2022
1863 Clear 23 1008 68 10000 2.06 190 02:33 28.05.2022
1864 Clear 20 1008 83 10000 1.54 160 00:18 28.05.2022
1865 Clouds 20 1008 77 10000 0.27 332 22:49 27.05.2022
1866 Clouds 20 1007 77 10000 0.83 315 21:35 27.05.2022
1867 Clouds 20 1007 77 10000 1.51 254 20:46 27.05.2022
1868 Clouds 20 1007 77 10000 1.57 272 20:21 27.05.2022
1869 Clouds 20 1007 77 10000 1.57 272 19:41 27.05.2022
1870 Clouds 20 1007 77 10000 1.54 281 19:21 27.05.2022
1871 Clouds 20 1007 77 10000 2.05 264 17:26 27.05.2022
1872 Clouds 20 1007 77 10000 2.09 248 15:57 27.05.2022
1873 Clear 20 1006 77 10000 4.63 180 14:58 27.05.2022
1874 Clear 22 1005 68 10000 6.17 220 13:41 27.05.2022
1875 Clouds 23 1005 60 10000 5.14 230 12:20 27.05.2022
1876 Clear 24 1004 57 10000 7.72 220 11:31 27.05.2022
1877 Clear 25 1003 47 10000 8.23 230 10:43 27.05.2022
1878 Clear 26 1004 38 10000 2.57 290 09:59 27.05.2022
1879 Clear 26 1004 38 10000 2.57 290 09:30 27.05.2022
1880 Clouds 25 1004 47 10000 5.66 350 07:39 27.05.2022
1881 Clouds 24 1005 57 10000 1.54 260 04:58 27.05.2022
1882 Clouds 20 1005 77 10000 1.03 0 01:38 27.05.2022
1883 Clouds 17 1004 88 10000 2.06 110 23:23 26.05.2022
1884 Clouds 17 1004 82 10000 2.23 311 22:22 26.05.2022
1885 Clouds 17 1003 82 10000 1.76 304 21:27 26.05.2022
1886 Clouds 16 1003 80 10000 1.98 326 19:39 26.05.2022
1887 Clouds 17 1003 79 10000 1.99 327 18:51 26.05.2022
1888 Clouds 17 1003 81 10000 2.56 318 17:36 26.05.2022
1889 Clouds 20 1004 88 10000 2.23 321 16:30 26.05.2022
1890 Clouds 20 1004 88 10000 2.35 320 15:28 26.05.2022
1891 Clouds 20 1004 88 10000 5.14 320 14:19 26.05.2022
1892 Clouds 21 1003 88 10000 1.54 270 12:18 26.05.2022
1893 Clouds 21 1003 94 8000 1.54 220 11:21 26.05.2022
1894 Mist 20 1004 100 4000 1.54 230 09:39 26.05.2022
1895 Rain 21 1004 94 4000 5.66 240 08:48 26.05.2022
1896 Rain 21 1004 94 4000 5.66 240 08:48 26.05.2022
1897 Rain 21 1005 88 10000 4.12 340 06:47 26.05.2022
1898 Clouds 23 1006 73 10000 2.57 160 02:51 26.05.2022
1899 Clouds 21 1006 88 9000 2.06 130 23:57 25.05.2022
1900 Rain 22 1007 83 10000 0.35 183 22:53 25.05.2022
1901 Clouds 22 1007 83 10000 0.61 156 21:42 25.05.2022
1902 Clouds 22 1007 83 10000 0.46 125 20:49 25.05.2022
1903 Clouds 22 1007 83 10000 0.67 10 19:45 25.05.2022
1904 Clouds 22 1008 83 10000 0.61 314 18:48 25.05.2022
1905 Clouds 20 1009 91 10000 1.12 276 17:24 25.05.2022
1906 Clouds 20 1009 91 10000 1.12 276 16:33 25.05.2022
1907 Clouds 20 1010 90 10000 1.86 254 15:36 25.05.2022
1908 Clouds 22 1008 83 10000 2.06 290 14:50 25.05.2022
1909 Clouds 22 1008 83 10000 2.06 290 14:32 25.05.2022
1910 Clouds 23 1008 73 10000 2.06 360 13:23 25.05.2022
1911 Clouds 25 1009 69 10000 2.05 265 11:50 25.05.2022
1912 Clouds 25 1007 69 10000 5.66 240 10:41 25.05.2022
1913 Clouds 26 1007 65 10000 4.12 320 09:38 25.05.2022
1914 Clouds 28 1009 54 10000 2.72 245 07:36 25.05.2022
1915 Clouds 27 1010 57 10000 3.09 300 05:41 25.05.2022
1916 Clouds 23 1011 72 10000 1.09 143 02:41 25.05.2022
1917 Clouds 20 1011 88 8000 2.06 140 23:48 24.05.2022
1918 Clouds 22 1012 83 10000 1.13 79 22:59 24.05.2022
1919 Clouds 22 1012 83 10000 1.13 79 22:59 24.05.2022
1920 Clouds 19 1012 94 10000 1.02 42 21:57 24.05.2022
1921 Clouds 19 1012 94 10000 1.02 42 21:37 24.05.2022
1922 Clouds 19 1012 94 10000 0.17 27 21:18 24.05.2022
1923 Clouds 22 1013 83 10000 1.28 175 19:23 24.05.2022
1924 Clouds 22 1013 83 10000 1.33 183 18:29 24.05.2022
1925 Clouds 22 1014 83 10000 2.1 175 16:39 24.05.2022
1926 Clouds 22 1014 83 10000 1.31 159 15:45 24.05.2022
1927 Clear 22 1013 83 10000 2.57 240 14:38 24.05.2022
1928 Clear 22 1013 78 10000 3.09 250 13:46 24.05.2022
1929 Clear 23 1012 68 10000 6.17 250 12:19 24.05.2022
1930 Clouds 26 1011 57 10000 7.72 250 09:52 24.05.2022
1931 Clouds 26 1011 61 10000 7.72 250 08:51 24.05.2022
1932 Clouds 27 1012 61 10000 7.72 240 07:44 24.05.2022
1933 Clouds 27 1012 57 10000 4.12 250 06:34 24.05.2022
1934 Clear 24 1014 69 10000 1.54 290 03:38 24.05.2022
1935 Clouds 21 1014 78 9000 0.51 0 01:46 24.05.2022
1936 Clouds 19 1014 94 8000 1.03 80 00:30 24.05.2022
1937 Clouds 20 1015 88 10000 1.51 345 22:24 23.05.2022
1938 Clouds 20 1015 88 10000 1.51 345 21:50 23.05.2022
1939 Clouds 20 1015 88 10000 1.78 322 20:46 23.05.2022
1940 Clouds 20 1015 88 10000 1.79 308 19:51 23.05.2022
1941 Clouds 20 1015 88 10000 1.67 306 19:22 23.05.2022
1942 Clouds 20 1015 88 10000 1.67 306 18:40 23.05.2022
1943 Clouds 20 1015 88 10000 1.41 332 17:56 23.05.2022
1944 Clouds 20 1015 88 10000 1.63 329 16:28 23.05.2022
1945 Clear 20 1014 88 10000 3.09 310 14:18 23.05.2022
1946 Clear 23 1012 73 10000 2.57 350 11:52 23.05.2022
1947 Clear 24 1012 64 10000 1.03 290 10:47 23.05.2022
1948 Clear 25 1012 65 10000 2.06 240 09:47 23.05.2022
1949 Clear 24 1012 57 10000 1.03 240 08:46 23.05.2022
1950 Clear 24 1012 57 10000 1.03 240 08:46 23.05.2022
1951 Clear 24 1012 60 10000 1.03 280 07:24 23.05.2022
1952 Rain 22 1012 68 10000 1.54 270 06:39 23.05.2022
1953 Rain 22 1012 73 10000 1.03 230 03:41 23.05.2022
1954 Clear 20 1012 83 10000 1.03 200 01:52 23.05.2022
1955 Clear 20 1012 83 10000 1.03 200 01:29 23.05.2022
1956 Clouds 19 1011 79 10000 1.57 346 23:18 22.05.2022
1957 Clouds 18 1011 81 10000 1.29 319 22:27 22.05.2022
1958 Clouds 18 1011 81 10000 1.29 319 21:51 22.05.2022
1959 Clouds 18 1011 81 10000 0.73 301 20:43 22.05.2022
1960 Clouds 18 1011 78 10000 1.25 334 20:22 22.05.2022
1961 Clouds 18 1011 79 10000 1.54 337 19:20 22.05.2022
1962 Clouds 18 1011 79 10000 1.54 337 18:46 22.05.2022
1963 Clouds 18 1011 79 10000 1.41 337 18:21 22.05.2022
1964 Clouds 18 1011 80 10000 1.7 339 16:51 22.05.2022
1965 Clouds 19 1011 82 10000 1.9 316 15:25 22.05.2022
1966 Clear 22 1010 53 10000 2.57 360 14:47 22.05.2022
1967 Clear 23 1008 60 10000 3.09 20 12:55 22.05.2022
1968 Clear 23 1008 60 10000 3.09 20 12:33 22.05.2022
1969 Clear 26 1008 50 10000 3.09 340 10:53 22.05.2022
1970 Clouds 27 1007 44 10000 6.17 300 09:31 22.05.2022
1971 Clouds 26 1008 50 10000 3.09 340 07:49 22.05.2022
1972 Clouds 26 1008 50 10000 3.09 340 07:20 22.05.2022
1973 Clouds 24 1009 64 10000 2.06 300 04:30 22.05.2022
1974 Clouds 20 1009 83 10000 1.54 250 01:19 22.05.2022
1975 Clouds 17 1008 88 10000 0 0 23:57 21.05.2022
1976 Clouds 17 1008 88 10000 0 0 23:29 21.05.2022
1977 Clouds 17 1009 80 10000 1.17 303 21:59 21.05.2022
1978 Clouds 17 1009 80 10000 1.17 303 21:38 21.05.2022
1979 Clouds 17 1008 77 10000 1.07 312 20:47 21.05.2022
1980 Clear 17 1008 75 10000 1.04 337 19:55 21.05.2022
1981 Clear 17 1008 77 10000 1.81 8 19:20 21.05.2022
1982 Clear 20 1009 72 10000 1.75 6 17:23 21.05.2022
1983 Clear 20 1007 73 10000 5.14 310 14:51 21.05.2022
1984 Clear 20 1007 73 10000 5.14 310 14:19 21.05.2022
1985 Clear 21 1006 68 10000 6.69 320 13:25 21.05.2022
1986 Clear 22 1006 60 10000 6.69 310 12:39 21.05.2022
1987 Clouds 24 1006 53 10000 6.17 290 11:45 21.05.2022
1988 Clouds 26 1005 41 10000 2.06 240 10:21 21.05.2022
1989 Clouds 26 1006 47 10000 3.09 180 08:59 21.05.2022
1990 Clouds 26 1006 47 10000 3.09 180 08:38 21.05.2022
1991 Clouds 25 1007 47 10000 0.74 245 06:20 21.05.2022
1992 Clouds 20 1009 64 10000 6.69 350 01:59 21.05.2022
1993 Clouds 18 1009 72 10000 6.17 360 23:36 20.05.2022
1994 Clouds 18 1010 72 10000 2.78 26 22:40 20.05.2022
1995 Clouds 18 1010 72 10000 2.9 24 21:58 20.05.2022
1996 Clouds 18 1010 72 10000 2.58 39 21:19 20.05.2022
1997 Clouds 18 1010 72 10000 2.58 39 20:47 20.05.2022
1998 Clouds 18 1011 72 10000 2.35 40 19:47 20.05.2022
1999 Clouds 18 1011 72 10000 2.03 42 18:53 20.05.2022
2000 Clouds 18 1011 72 10000 2.13 37 18:18 20.05.2022
2001 Rain 18 1013 72 10000 0.91 80 16:23 20.05.2022
2002 Rain 18 1013 72 10000 0.91 80 15:54 20.05.2022
2003 Clouds 18 1012 72 10000 1.03 120 14:44 20.05.2022
2004 Rain 18 1012 72 10000 1.03 120 14:26 20.05.2022
2005 Rain 20 1012 56 10000 3.09 160 11:52 20.05.2022
2006 Clouds 21 1012 56 10000 4.63 150 10:45 20.05.2022
2007 Rain 22 1013 56 10000 6.17 150 09:23 20.05.2022
2008 Rain 22 1013 60 10000 4.12 150 07:43 20.05.2022
2009 Rain 22 1014 56 10000 4.12 160 06:40 20.05.2022
2010 Rain 23 1015 53 10000 6.17 160 05:39 20.05.2022
2011 Clear 19 1016 72 10000 4.63 140 01:29 20.05.2022
2012 Rain 18 1016 82 10000 0.51 0 23:31 19.05.2022
2013 Rain 18 1017 77 10000 0.64 45 22:34 19.05.2022
2014 Rain 18 1016 77 10000 0.5 322 21:49 19.05.2022
2015 Rain 18 1016 77 10000 1.27 7 21:23 19.05.2022
2016 Rain 18 1016 77 10000 1.27 7 20:43 19.05.2022
2017 Rain 18 1016 77 10000 0.63 295 19:54 19.05.2022
2018 Rain 18 1017 77 10000 1.46 188 18:59 19.05.2022
2019 Clouds 18 1017 77 10000 1.35 70 17:35 19.05.2022
2020 Clouds 18 1018 77 10000 0.82 217 15:34 19.05.2022
2021 Clear 18 1018 77 10000 2.06 120 14:35 19.05.2022
2022 Clear 20 1018 68 10000 2.06 90 13:59 19.05.2022
2023 Clear 21 1018 68 10000 1.54 310 11:53 19.05.2022
2024 Clear 22 1017 60 10000 2.57 310 10:30 19.05.2022
2025 Rain 23 1018 53 10000 2.57 310 08:33 19.05.2022
2026 Clear 23 1019 46 10000 2.57 330 06:57 19.05.2022
2027 Clear 19 1020 63 10000 1.54 90 02:59 19.05.2022
2028 Clear 17 1020 77 10000 1.54 130 00:56 19.05.2022
2029 Clouds 19 1020 68 10000 1.96 61 23:21 18.05.2022
2030 Clouds 19 1020 68 10000 1.96 61 22:41 18.05.2022
2031 Clouds 19 1020 68 10000 1.59 73 21:33 18.05.2022
2032 Clouds 19 1020 68 10000 1.98 60 20:55 18.05.2022
2033 Clouds 19 1020 68 10000 0.68 122 20:19 18.05.2022
2034 Clouds 19 1020 68 10000 1.11 73 18:47 18.05.2022
2035 Clouds 19 1020 68 10000 1.89 42 17:41 18.05.2022
2036 Clouds 19 1021 68 10000 1.04 321 17:23 18.05.2022
2037 Clouds 19 1021 68 10000 1.04 321 16:36 18.05.2022
2038 Clouds 19 1020 68 10000 1.31 15 15:42 18.05.2022
2039 Clear 19 1020 68 10000 1.77 357 15:19 18.05.2022
2040 Clear 19 1019 63 10000 4.63 330 13:53 18.05.2022
2041 Clear 22 1018 56 10000 4.12 330 12:53 18.05.2022
2042 Clear 24 1018 46 10000 5.14 290 11:47 18.05.2022
2043 Clear 24 1018 46 10000 5.14 290 11:29 18.05.2022
2044 Clouds 26 1017 41 10000 5.66 330 09:59 18.05.2022
2045 Clouds 26 1018 27 10000 2.57 310 07:56 18.05.2022
2046 Clouds 26 1019 27 10000 1.54 200 06:50 18.05.2022
2047 Clear 21 1020 52 10000 2.06 200 02:44 18.05.2022
2048 Clear 16 1019 82 10000 1.54 120 00:31 18.05.2022
2049 Clear 18 1019 77 10000 2.33 43 22:57 17.05.2022
2050 Clear 18 1018 77 10000 2.41 42 21:21 17.05.2022
2051 Clear 18 1018 77 10000 2.41 42 20:30 17.05.2022
2052 Clear 18 1018 77 10000 1.72 41 19:29 17.05.2022
2053 Clear 18 1018 77 10000 1.94 22 17:53 17.05.2022
2054 Clear 18 1018 77 10000 2.14 15 17:22 17.05.2022
2055 Clear 18 1018 77 10000 2.14 15 16:36 17.05.2022
2056 Clear 18 1018 77 10000 1.67 12 15:43 17.05.2022
2057 Clear 18 1016 77 10000 4.63 330 14:31 17.05.2022
2058 Clear 19 1016 63 10000 4.63 330 13:54 17.05.2022
2059 Clear 21 1015 56 10000 5.66 310 12:23 17.05.2022
2060 Clouds 24 1014 43 10000 5.66 320 09:53 17.05.2022
2061 Clouds 24 1014 46 10000 4.63 320 08:44 17.05.2022
2062 Clouds 25 1014 41 10000 1.54 0 07:18 17.05.2022
2063 Clouds 23 1015 43 10000 4.12 310 04:28 17.05.2022
2064 Clear 16 1014 67 10000 1.03 100 00:47 17.05.2022
2065 Clouds 17 1015 67 10000 1.73 17 22:44 16.05.2022
2066 Clouds 17 1014 67 10000 1.43 28 22:18 16.05.2022
2067 Clouds 17 1014 67 10000 1.37 42 20:49 16.05.2022
2068 Clouds 17 1014 67 10000 2.2 13 19:57 16.05.2022
2069 Clouds 17 1014 67 10000 1.89 5 18:32 16.05.2022
2070 Clouds 17 1014 67 10000 2.4 4 16:28 16.05.2022
2071 Clouds 17 1013 67 10000 4.12 310 14:42 16.05.2022
2072 Clear 18 1012 63 10000 5.66 300 13:25 16.05.2022
2073 Clouds 19 1011 55 10000 6.17 290 11:34 16.05.2022
2074 Clouds 21 1011 46 10000 5.66 300 10:24 16.05.2022
2075 Clouds 22 1011 40 10000 1.03 260 07:33 16.05.2022
2076 Clouds 20 1012 56 10000 2.06 240 05:23 16.05.2022
2077 Clear 15 1012 77 10000 3.09 20 23:56 15.05.2022
2078 Clouds 17 1012 72 10000 2.1 4 22:34 15.05.2022
2079 Clouds 17 1012 72 10000 2.1 4 22:34 15.05.2022
2080 Clouds 17 1012 72 10000 2.12 15 21:47 15.05.2022
2081 Clouds 17 1012 72 10000 1.96 3 21:19 15.05.2022
2082 Clouds 17 1012 72 10000 2.2 6 19:56 15.05.2022
2083 Clouds 17 1013 72 10000 2.67 11 17:52 15.05.2022
2084 Clouds 17 1013 72 10000 2.54 15 16:35 15.05.2022
2085 Clear 17 1012 72 10000 3.09 30 14:18 15.05.2022
2086 Clouds 18 1011 63 10000 4.63 210 13:23 15.05.2022
2087 Rain 19 1010 59 10000 4.12 220 11:41 15.05.2022
2088 Rain 19 1010 59 10000 5.14 230 10:35 15.05.2022
2089 Rain 20 1011 49 10000 2.57 210 08:47 15.05.2022
2090 Rain 19 1012 55 10000 1.03 0 06:59 15.05.2022
2091 Rain 19 1012 63 10000 2.06 10 05:57 15.05.2022
2092 Clear 16 1012 82 10000 2.06 30 00:57 15.05.2022
2093 Rain 16 1012 82 10000 1.03 0 23:47 14.05.2022
2094 Clear 16 1012 82 10000 1.03 0 23:29 14.05.2022
2095 Clouds 17 1012 67 10000 3.52 349 21:29 14.05.2022
2096 Clouds 17 1012 67 10000 3.52 349 20:53 14.05.2022
2097 Clouds 17 1012 67 10000 3.79 346 19:40 14.05.2022
2098 Clouds 17 1013 67 10000 4.15 338 19:20 14.05.2022
2099 Clouds 17 1013 67 10000 4.15 338 18:46 14.05.2022
2100 Clouds 17 1013 67 10000 3.69 341 16:56 14.05.2022
2101 Clouds 17 1013 67 10000 3.57 337 15:33 14.05.2022
2102 Clear 17 1013 67 10000 5.66 310 14:34 14.05.2022
2103 Clear 19 1011 59 10000 6.69 310 12:34 14.05.2022
2104 Clear 21 1010 49 10000 5.66 340 11:35 14.05.2022
2105 Clear 21 1010 32 10000 5.14 360 10:21 14.05.2022
2106 Clouds 22 1010 33 10000 5.14 360 09:53 14.05.2022
2107 Clouds 24 1010 38 10000 3.6 310 08:49 14.05.2022
2108 Clouds 23 1010 49 10000 5.66 350 06:47 14.05.2022
2109 Clouds 20 1010 77 10000 5.14 340 02:45 14.05.2022
2110 Rain 18 1008 88 10000 5.66 360 23:44 13.05.2022
2111 Clouds 19 1009 93 10000 3.41 354 22:58 13.05.2022
2112 Clouds 19 1008 93 10000 3.85 349 22:27 13.05.2022
2113 Rain 19 1008 93 10000 3.85 349 21:52 13.05.2022
2114 Rain 19 1007 93 10000 3.69 347 20:45 13.05.2022
2115 Rain 19 1007 93 10000 3.87 345 20:27 13.05.2022
2116 Rain 19 1006 93 10000 4.1 341 19:28 13.05.2022
2117 Clouds 19 1006 93 10000 3.64 339 17:50 13.05.2022
2118 Rain 19 1005 93 10000 3.52 337 17:28 13.05.2022
2119 Rain 19 1005 93 10000 3.12 338 16:20 13.05.2022
2120 Rain 19 1005 93 10000 2.09 11 15:28 13.05.2022
2121 Rain 20 1004 94 10000 5.66 320 13:41 13.05.2022
2122 Rain 20 1004 94 10000 4.12 320 12:28 13.05.2022
2123 Rain 20 1003 100 10000 2.57 340 10:53 13.05.2022
2124 Clouds 20 1003 100 10000 2.06 320 09:34 13.05.2022
2125 Rain 20 1004 100 10000 1.54 310 08:24 13.05.2022
2126 Rain 20 1004 94 8000 1.54 30 07:48 13.05.2022
2127 Rain 20 1005 94 10000 2.06 290 06:33 13.05.2022
2128 Rain 20 1005 94 10000 2.06 290 06:33 13.05.2022
2129 Rain 20 1006 94 5000 3.6 330 02:48 13.05.2022
2130 Rain 20 1006 94 6000 5.66 340 23:56 12.05.2022
2131 Clouds 20 1006 94 4515 2.09 51 22:44 12.05.2022
2132 Rain 20 1007 94 2864 2.05 35 21:54 12.05.2022
2133 Rain 20 1007 94 10000 0.8 81 20:29 12.05.2022
2134 Clouds 20 1007 94 10000 1.37 46 18:51 12.05.2022
2135 Clouds 20 1008 94 10000 0.55 73 16:58 12.05.2022
2136 Clouds 20 1009 94 10000 0.17 71 15:55 12.05.2022
2137 Clouds 21 1008 94 10000 3.09 340 14:40 12.05.2022
2138 Clouds 21 1007 94 10000 3.09 320 13:38 12.05.2022
2139 Rain 22 1007 88 10000 1.54 260 10:45 12.05.2022
2140 Rain 22 1007 88 10000 1.03 0 09:24 12.05.2022
2141 Clouds 22 1007 88 10000 1.03 0 08:50 12.05.2022
2142 Clouds 22 1008 88 10000 2.06 260 07:38 12.05.2022
2143 Rain 20 1010 100 4500 1.03 20 05:35 12.05.2022
2144 Rain 20 1011 100 4000 2.06 140 02:49 12.05.2022
2145 Rain 20 1011 100 4500 1.54 140 00:33 12.05.2022
2146 Clouds 20 1011 94 10000 2.9 47 22:34 11.05.2022
2147 Rain 20 1011 94 10000 2.62 53 21:33 11.05.2022
2148 Rain 20 1011 94 10000 1.72 52 20:53 11.05.2022
2149 Clouds 20 1012 94 10000 0.93 29 18:27 11.05.2022
2150 Clouds 20 1013 94 10000 0.33 2 16:51 11.05.2022
2151 Clouds 20 1013 94 10000 0.33 2 16:51 11.05.2022
2152 Clouds 21 1014 94 10000 1.54 190 14:51 11.05.2022
2153 Rain 21 1014 94 10000 1.54 190 14:26 11.05.2022
2154 Rain 21 1013 88 10000 1.54 220 13:51 11.05.2022
2155 Rain 21 1012 88 10000 1.54 290 11:51 11.05.2022
2156 Clouds 22 1012 78 10000 2.06 340 10:27 11.05.2022
2157 Clouds 22 1013 83 10000 3.09 310 08:33 11.05.2022
2158 Rain 20 1014 94 10000 2.57 290 05:19 11.05.2022
2159 Rain 18 1015 100 7000 1.03 0 00:42 11.05.2022
2160 Rain 20 1014 82 6304 2.59 29 22:30 10.05.2022
2161 Rain 20 1014 82 10000 2.16 18 21:47 10.05.2022
2162 Rain 20 1014 82 10000 1.26 13 20:52 10.05.2022
2163 Rain 19 1014 92 10000 1.12 81 19:25 10.05.2022
2164 Rain 19 1014 91 10000 2.33 53 17:47 10.05.2022
2165 Clouds 20 1015 82 10000 2.09 56 16:41 10.05.2022
2166 Clouds 21 1014 78 10000 4.12 340 13:59 10.05.2022
2167 Rain 21 1013 78 10000 4.12 320 12:36 10.05.2022
2168 Clouds 22 1013 68 10000 3.6 330 11:49 10.05.2022
2169 Clouds 22 1013 68 10000 3.6 330 11:18 10.05.2022
2170 Clouds 22 1013 68 10000 3.6 330 11:18 10.05.2022
2171 Clouds 24 1013 60 10000 3.6 360 09:57 10.05.2022
2172 Clouds 24 1013 60 10000 3.6 360 09:18 10.05.2022
2173 Clouds 24 1013 57 10000 2.57 310 06:35 10.05.2022
2174 Clouds 21 1015 68 10000 2.06 280 02:59 10.05.2022
2175 Clouds 18 1014 72 10000 2.57 140 00:24 10.05.2022
2176 Clouds 19 1014 63 10000 2.3 57 22:43 09.05.2022
2177 Clouds 17 1014 77 10000 2.54 30 21:48 09.05.2022
2178 Clouds 19 1013 63 10000 2.88 44 20:23 09.05.2022
2179 Clouds 16 1014 77 10000 3.11 47 18:43 09.05.2022
2180 Clouds 17 1014 77 10000 3.14 41 17:39 09.05.2022
2181 Clouds 19 1014 63 10000 4 34 16:28 09.05.2022
2182 Clouds 19 1014 63 10000 4 34 15:48 09.05.2022
2183 Clear 19 1014 63 10000 6.69 350 14:46 09.05.2022
2184 Clear 19 1013 63 10000 7.72 350 13:59 09.05.2022
2185 Clear 19 1013 63 10000 7.72 350 13:32 09.05.2022
2186 Clouds 22 1012 56 10000 8.23 360 11:54 09.05.2022
2187 Clouds 22 1012 64 10000 7.72 340 10:50 09.05.2022
2188 Clouds 22 1012 64 10000 7.72 340 10:29 09.05.2022
2189 Clouds 22 1013 64 10000 2.06 250 07:57 09.05.2022
2190 Clouds 22 1013 60 10000 3.09 220 06:42 09.05.2022
2191 Clouds 19 1015 72 10000 3.6 360 02:37 09.05.2022
2192 Clouds 19 1015 72 10000 3.6 360 02:37 09.05.2022
2193 Clouds 19 1015 72 10000 3.6 360 02:37 09.05.2022
2194 Clear 17 1014 77 10000 4.63 350 23:29 08.05.2022
2195 Clouds 19 1014 72 10000 3.44 39 22:42 08.05.2022
2196 Clouds 19 1014 72 10000 3.14 31 21:37 08.05.2022
2197 Clouds 18 1014 78 10000 2.29 19 20:25 08.05.2022
2198 Clouds 19 1015 72 10000 2.79 24 19:37 08.05.2022
2199 Clouds 19 1015 72 10000 2.03 44 18:49 08.05.2022
2200 Clouds 19 1015 72 10000 2 59 17:45 08.05.2022
2201 Clouds 19 1016 72 10000 1.8 44 16:23 08.05.2022
2202 Clouds 19 1016 72 10000 1.67 35 15:24 08.05.2022
2203 Clouds 19 1014 77 10000 6.17 340 13:44 08.05.2022
2204 Clouds 22 1013 64 10000 5.14 350 11:50 08.05.2022
2205 Clouds 23 1013 64 10000 5.14 330 10:26 08.05.2022
2206 Clouds 25 1014 50 10000 3.09 320 09:53 08.05.2022
2207 Clouds 25 1014 50 10000 4.12 250 08:23 08.05.2022
2208 Clouds 25 1016 57 10000 1.54 360 06:21 08.05.2022
2209 Clouds 22 1017 68 10000 2.57 280 03:22 08.05.2022
2210 Clouds 19 1017 82 10000 3.09 350 01:19 08.05.2022
2211 Clouds 17 1017 88 10000 6.17 360 23:57 07.05.2022
2212 Clouds 17 1017 88 10000 6.17 360 23:32 07.05.2022
2213 Clouds 17 1016 88 10000 3.26 40 22:42 07.05.2022
2214 Clouds 17 1016 88 10000 3.59 40 21:56 07.05.2022
2215 Clouds 17 1016 87 10000 3.3 37 21:21 07.05.2022
2216 Clouds 17 1016 86 10000 2.98 39 20:25 07.05.2022
2217 Clouds 17 1016 84 10000 2.62 28 18:49 07.05.2022
2218 Clouds 20 1017 82 10000 2.46 353 16:34 07.05.2022
2219 Clouds 20 1016 83 10000 3.6 330 14:53 07.05.2022
2220 Clouds 23 1015 73 10000 4.63 330 11:23 07.05.2022
2221 Clouds 24 1015 69 10000 0.51 0 09:42 07.05.2022
2222 Clouds 24 1015 69 10000 2.57 330 08:30 07.05.2022
2223 Clouds 25 1016 61 10000 2.57 300 06:44 07.05.2022
2224 Clouds 25 1016 61 10000 2.57 300 06:24 07.05.2022
2225 Clouds 23 1017 73 10000 1.54 320 03:54 07.05.2022
2226 Clouds 18 1016 94 10000 2.57 130 23:41 06.05.2022
2227 Clouds 20 1016 82 10000 1.3 77 22:34 06.05.2022
2228 Clouds 20 1016 82 10000 1.4 57 21:52 06.05.2022
2229 Clouds 20 1016 82 10000 1.34 32 20:39 06.05.2022
2230 Clouds 20 1016 82 10000 0.21 157 19:43 06.05.2022
2231 Clouds 20 1016 82 10000 0.54 180 19:19 06.05.2022
2232 Clouds 20 1016 82 10000 0.84 163 18:25 06.05.2022
2233 Clouds 20 1016 82 10000 0.84 163 17:34 06.05.2022
2234 Clouds 20 1016 82 10000 0.88 77 15:51 06.05.2022
2235 Clouds 20 1016 83 10000 2.57 150 14:58 06.05.2022
2236 Clouds 20 1015 83 10000 2.57 170 13:38 06.05.2022
2237 Clouds 21 1015 78 10000 4.12 140 12:42 06.05.2022
2238 Clouds 21 1015 78 10000 5.66 160 11:58 06.05.2022
2239 Clouds 22 1015 73 10000 4.63 160 10:36 06.05.2022
2240 Clouds 24 1015 60 10000 4.63 150 09:46 06.05.2022
2241 Clouds 23 1015 68 10000 4.63 150 08:52 06.05.2022
2242 Clouds 23 1015 73 10000 7.2 160 07:26 06.05.2022
2243 Clouds 24 1016 64 10000 6.69 130 05:48 06.05.2022
2244 Clouds 21 1016 73 10000 2.06 300 02:51 06.05.2022
2245 Clouds 20 1016 83 10000 1.03 0 01:57 06.05.2022
2246 Clouds 19 1017 82 10000 1.15 69 22:45 05.05.2022
2247 Clouds 19 1017 82 10000 1.15 69 22:45 05.05.2022
2248 Clouds 19 1017 82 10000 0.67 79 21:31 05.05.2022
2249 Clouds 19 1017 82 10000 1.79 55 20:26 05.05.2022
2250 Clouds 19 1018 82 10000 2.44 43 18:35 05.05.2022
2251 Clouds 19 1018 82 10000 1.08 88 16:40 05.05.2022
2252 Clear 19 1018 82 10000 3.09 330 14:53 05.05.2022
2253 Clear 20 1017 73 10000 4.63 340 13:25 05.05.2022
2254 Clear 21 1017 60 10000 1.54 0 12:53 05.05.2022
2255 Clouds 24 1017 46 10000 2.06 250 10:52 05.05.2022
2256 Clouds 25 1018 47 10000 2.06 260 09:40 05.05.2022
2257 Clouds 25 1019 44 10000 4.63 170 07:36 05.05.2022
2258 Clouds 24 1020 50 10000 5.14 140 05:19 05.05.2022
2259 Clear 18 1021 82 10000 1.54 80 01:59 05.05.2022
2260 Clear 18 1021 82 10000 1.54 80 01:29 05.05.2022
2261 Clear 15 1021 88 10000 2.57 110 23:52 04.05.2022
2262 Clouds 17 1021 82 10000 1.74 71 22:42 04.05.2022
2263 Clouds 17 1021 82 10000 1.62 72 21:50 04.05.2022
2264 Clouds 17 1020 82 10000 1.73 64 21:29 04.05.2022
2265 Clouds 17 1021 82 10000 1.5 72 20:25 04.05.2022
2266 Clouds 17 1021 82 10000 1.54 64 19:53 04.05.2022
2267 Clouds 17 1021 82 10000 1.54 67 19:18 04.05.2022
2268 Clouds 17 1021 82 10000 1.18 72 18:22 04.05.2022
2269 Clouds 17 1021 82 10000 1.18 72 17:42 04.05.2022
2270 Clouds 17 1022 82 10000 1.29 69 15:41 04.05.2022
2271 Clouds 17 1022 82 10000 1.33 60 15:23 04.05.2022
2272 Clear 17 1021 82 10000 2.57 140 14:21 04.05.2022
2273 Clear 17 1021 77 10000 1.03 0 13:33 04.05.2022
2274 Clear 19 1020 68 10000 2.06 220 12:33 04.05.2022
2275 Clear 20 1020 64 10000 3.6 220 10:41 04.05.2022
2276 Clear 21 1020 56 10000 5.66 240 09:43 04.05.2022
2277 Clear 21 1020 52 10000 7.2 240 08:46 04.05.2022
2278 Clouds 22 1021 46 10000 7.72 230 06:41 04.05.2022
2279 Clear 18 1022 63 10000 1.54 30 02:58 04.05.2022
2280 Clouds 14 1022 82 10000 1.03 160 00:33 04.05.2022
2281 Clouds 13 1022 69 10000 0.95 17 22:37 03.05.2022
2282 Clouds 13 1021 68 10000 0.67 356 21:46 03.05.2022
2283 Clouds 14 1021 67 10000 0.58 324 20:54 03.05.2022
2284 Clouds 15 1021 63 10000 0.77 126 19:57 03.05.2022
2285 Clouds 15 1021 63 10000 0.93 107 18:54 03.05.2022
2286 Clear 15 1022 63 10000 1.09 78 18:20 03.05.2022
2287 Clear 15 1022 63 10000 1.53 38 16:44 03.05.2022
2288 Clouds 15 1022 63 10000 1.81 11 15:38 03.05.2022
2289 Clear 17 1019 55 10000 6.17 310 12:47 03.05.2022
2290 Clear 17 1019 55 10000 6.17 310 12:27 03.05.2022
2291 Clear 21 1018 43 10000 5.66 320 10:57 03.05.2022
2292 Clear 21 1018 43 10000 5.66 320 10:57 03.05.2022
2293 Clouds 21 1018 46 10000 5.14 230 09:34 03.05.2022
2294 Clouds 22 1019 33 10000 3.09 300 07:33 03.05.2022
2295 Clouds 21 1019 40 10000 3.09 260 06:44 03.05.2022
2296 Clouds 14 1018 77 10000 1.03 0 00:54 03.05.2022
2297 Clear 13 1018 76 10000 2.03 41 22:38 02.05.2022
2298 Clear 13 1017 74 10000 1.8 10 21:52 02.05.2022
2299 Clear 13 1017 74 10000 2.58 338 20:51 02.05.2022
2300 Clouds 14 1016 76 10000 4.32 327 18:40 02.05.2022
2301 Clouds 14 1016 77 10000 4.62 318 18:21 02.05.2022
2302 Clouds 17 1016 72 10000 4.62 318 17:37 02.05.2022
2303 Clouds 17 1016 72 10000 4.04 285 16:22 02.05.2022
2304 Clouds 17 1016 72 10000 4.06 258 15:30 02.05.2022
2305 Clouds 17 1016 72 10000 4.65 274 15:30 02.05.2022
2306 Clouds 18 1014 63 10000 3.6 250 13:50 02.05.2022
2307 Clouds 18 1014 59 10000 5.14 250 12:19 02.05.2022
2308 Clouds 20 1013 45 10000 6.17 220 10:38 02.05.2022
2309 Clouds 20 1013 49 10000 6.69 230 09:20 02.05.2022
2310 Clouds 21 1014 43 10000 2.57 250 07:51 02.05.2022
2311 Clouds 18 1015 39 10000 1.03 0 03:48 02.05.2022
2312 Clear 13 1014 82 10000 1.03 120 00:24 02.05.2022
2313 Clear 12 1014 82 10000 1.54 100 23:47 01.05.2022
2314 Clouds 13 1014 62 10000 2.91 350 22:20 01.05.2022
2315 Clouds 13 1014 63 10000 3.34 349 21:18 01.05.2022
2316 Clouds 13 1014 63 10000 3.13 349 19:50 01.05.2022
2317 Clouds 15 1014 58 10000 2.95 341 18:55 01.05.2022
2318 Clouds 15 1014 58 10000 3.2 340 18:27 01.05.2022
2319 Clouds 15 1015 58 10000 3.41 335 17:26 01.05.2022
2320 Clouds 15 1014 58 10000 3.77 346 16:23 01.05.2022
2321 Clouds 15 1014 58 10000 3.64 343 15:24 01.05.2022
2322 Clouds 15 1013 58 10000 6.69 340 13:42 01.05.2022
2323 Clouds 19 1010 48 10000 7.2 350 10:53 01.05.2022
2324 Clouds 20 1010 52 10000 4.63 330 08:53 01.05.2022
2325 Clouds 20 1010 52 10000 4.63 330 08:53 01.05.2022
2326 Clouds 20 1011 56 10000 5.14 360 07:53 01.05.2022
2327 Clouds 18 1012 63 10000 3.6 300 03:31 01.05.2022
2328 Clouds 15 1012 67 10000 2.06 10 23:49 30.04.2022
2329 Clouds 15 1013 72 10000 2.99 354 21:44 30.04.2022
2330 Clouds 15 1013 72 10000 3.05 352 20:45 30.04.2022
2331 Clouds 15 1013 72 10000 3.69 342 19:41 30.04.2022
2332 Clouds 15 1013 72 10000 3.69 342 19:41 30.04.2022
2333 Clouds 15 1014 72 10000 1.75 355 17:44 30.04.2022
2334 Clouds 14 1015 77 10000 1.5 27 16:42 30.04.2022
2335 Clouds 15 1015 72 10000 1.88 32 15:24 30.04.2022
2336 Clouds 16 1014 72 10000 1.54 160 14:34 30.04.2022
2337 Clouds 18 1013 59 10000 4.12 250 12:40 30.04.2022
2338 Clouds 19 1013 59 10000 5.66 190 11:33 30.04.2022
2339 Clouds 19 1013 55 10000 1.03 0 10:43 30.04.2022
2340 Clouds 19 1014 52 10000 1.03 0 08:59 30.04.2022
2341 Clouds 17 1015 55 10000 4.12 260 05:51 30.04.2022
2342 Clouds 15 1017 58 10000 8.23 20 01:51 30.04.2022
2343 Clouds 13 1017 67 10000 5.14 20 23:37 29.04.2022
2344 Clear 11 1016 81 10000 4.11 11 22:31 29.04.2022
2345 Clear 11 1016 80 10000 4.19 20 21:27 29.04.2022
2346 Clear 11 1016 80 10000 4.19 20 20:39 29.04.2022
2347 Clear 11 1016 79 10000 4.52 26 19:43 29.04.2022
2348 Clouds 12 1016 74 10000 5.35 27 17:54 29.04.2022
2349 Clouds 14 1016 71 10000 6.17 34 17:21 29.04.2022
2350 Clouds 14 1016 72 10000 6.17 20 14:57 29.04.2022
2351 Clouds 14 1016 72 10000 6.17 20 14:20 29.04.2022
2352 Clouds 14 1013 72 10000 8.23 10 12:48 29.04.2022
2353 Clouds 15 1011 72 10000 11.83 360 10:59 29.04.2022
2354 Clouds 15 1010 77 10000 11.32 360 08:33 29.04.2022
2355 Clouds 16 1009 77 10000 11.83 360 07:27 29.04.2022
2356 Clouds 16 1009 82 10000 11.32 350 06:37 29.04.2022
2357 Clouds 16 1006 82 10000 15.95 340 04:43 29.04.2022
2358 Rain 20 1003 94 3000 6.17 140 00:19 29.04.2022
2359 Rain 19 1004 100 6000 6.69 130 23:27 28.04.2022
2360 Rain 20 1005 77 2303 6.38 173 22:41 28.04.2022
2361 Rain 20 1006 77 6116 4.58 161 21:46 28.04.2022
2362 Rain 19 1007 98 3824 2.95 142 20:55 28.04.2022
2363 Clouds 20 1008 77 4448 2.56 131 20:22 28.04.2022
2364 Clouds 20 1008 77 4448 2.56 131 19:41 28.04.2022
2365 Clouds 20 1009 77 5682 2.22 118 19:21 28.04.2022
2366 Clouds 20 1009 77 5682 2.22 118 18:35 28.04.2022
2367 Clouds 20 1012 77 10000 1.68 82 16:59 28.04.2022
2368 Clouds 20 1013 77 10000 1.06 82 16:22 28.04.2022
2369 Clouds 20 1013 77 10000 1.06 82 15:57 28.04.2022
2370 Clouds 20 1013 77 10000 1.2 92 15:27 28.04.2022
2371 Clouds 20 1012 77 10000 3.6 360 13:44 28.04.2022
2372 Clouds 22 1012 68 10000 4.63 340 12:42 28.04.2022
2373 Clouds 22 1012 68 10000 4.63 310 11:53 28.04.2022
2374 Clouds 24 1011 73 10000 5.66 260 10:37 28.04.2022
2375 Clouds 25 1011 65 10000 5.14 260 09:52 28.04.2022
2376 Clouds 25 1011 50 10000 2.06 270 08:20 28.04.2022
2377 Clouds 24 1013 53 10000 3.09 300 06:56 28.04.2022
2378 Clear 23 1014 64 10000 2.57 350 05:54 28.04.2022
2379 Clear 22 1015 64 10000 2.06 250 04:50 28.04.2022
2380 Clear 22 1015 64 10000 2.06 250 04:31 28.04.2022
2381 Clouds 15 1014 88 10000 0.51 0 23:59 27.04.2022
2382 Clouds 17 1015 77 10000 3.51 42 22:34 27.04.2022
2383 Clouds 17 1014 77 10000 3.22 36 21:51 27.04.2022
2384 Clouds 17 1014 77 10000 2.98 41 20:56 27.04.2022
2385 Clouds 17 1014 77 10000 2.98 41 20:34 27.04.2022
2386 Clouds 17 1014 77 10000 2.98 41 20:34 27.04.2022
2387 Clouds 17 1014 77 10000 3.3 40 19:37 27.04.2022
2388 Clouds 17 1015 77 10000 3.65 38 18:52 27.04.2022
2389 Clouds 17 1014 77 10000 3.75 40 18:21 27.04.2022
2390 Clouds 17 1015 77 10000 3.14 44 16:23 27.04.2022
2391 Clear 17 1013 77 10000 6.69 340 13:51 27.04.2022
2392 Clouds 21 1012 73 10000 6.17 330 11:39 27.04.2022
2393 Clouds 21 1012 73 10000 6.17 330 11:20 27.04.2022
2394 Clouds 25 1010 57 10000 5.66 320 08:58 27.04.2022
2395 Rain 24 1010 64 10000 6.69 330 06:45 27.04.2022
2396 Rain 24 1010 64 10000 6.69 330 06:45 27.04.2022
2397 Clouds 22 1011 83 10000 6.69 350 03:30 27.04.2022
2398 Clouds 19 1010 100 10000 5.14 320 01:30 27.04.2022
2399 Clouds 19 1010 94 10000 3.6 320 00:35 27.04.2022
2400 Rain 19 1009 94 10000 4.63 310 23:25 26.04.2022
2401 Rain 22 1009 88 10000 1.46 306 22:52 26.04.2022
2402 Clouds 22 1009 88 10000 1.46 306 22:34 26.04.2022
2403 Clouds 22 1008 88 10000 1.71 260 21:26 26.04.2022
2404 Clouds 22 1008 88 10000 1.71 260 20:40 26.04.2022
2405 Clouds 22 1008 88 10000 1.71 260 20:40 26.04.2022
2406 Clouds 22 1008 88 9294 1.84 269 19:48 26.04.2022
2407 Clouds 22 1007 88 1111 4.4 279 19:26 26.04.2022
2408 Clouds 22 1007 88 1111 4.4 279 18:40 26.04.2022
2409 Rain 22 1007 88 317 6.21 275 17:50 26.04.2022
2410 Clouds 22 1006 88 591 3.3 159 16:19 26.04.2022
2411 Rain 22 1007 88 8000 6.69 210 13:58 26.04.2022
2412 Rain 22 1007 88 8000 6.69 210 13:29 26.04.2022
2413 Rain 22 1005 88 10000 6.17 210 11:29 26.04.2022
2414 Rain 22 1005 88 9000 7.72 220 10:31 26.04.2022
2415 Thunderstorm 21 1005 94 6000 6.69 220 08:38 26.04.2022
2416 Thunderstorm 24 1006 88 10000 14.92 200 05:29 26.04.2022
2417 Rain 24 1006 83 10000 15.43 200 04:23 26.04.2022
2418 Clouds 25 1006 78 10000 15.95 200 00:52 26.04.2022
2419 Clouds 24 1006 83 10000 15.43 200 23:52 25.04.2022
2420 Clouds 22 1008 83 5403 7.59 179 22:18 25.04.2022
2421 Clouds 22 1008 83 5403 7.59 179 21:33 25.04.2022
2422 Clouds 22 1009 83 9018 6.61 170 20:26 25.04.2022
2423 Clouds 22 1009 83 10000 5.91 163 18:52 25.04.2022
2424 Clouds 22 1010 83 10000 5.28 165 17:40 25.04.2022
2425 Clouds 22 1010 83 10000 5.28 165 17:40 25.04.2022
2426 Clouds 22 1010 83 10000 5.42 155 16:44 25.04.2022
2427 Clouds 22 1012 83 10000 3.44 163 15:23 25.04.2022
2428 Clouds 22 1011 83 10000 4.12 130 14:34 25.04.2022
2429 Clouds 22 1011 83 10000 4.12 130 14:34 25.04.2022
2430 Clouds 22 1011 83 10000 2.06 230 13:21 25.04.2022
2431 Clouds 23 1011 68 10000 7.72 250 10:44 25.04.2022
2432 Clouds 25 1011 61 10000 5.14 240 09:42 25.04.2022
2433 Clouds 25 1012 53 10000 2.57 300 07:56 25.04.2022
2434 Clouds 23 1014 78 10000 1.54 350 05:55 25.04.2022
2435 Fog 16 1014 100 2000 2.06 60 01:30 25.04.2022
2436 Fog 16 1013 100 200 1.03 0 23:56 24.04.2022
2437 Clouds 18 1013 93 10000 1.56 123 23:25 24.04.2022
2438 Clouds 18 1013 93 10000 1.56 123 22:39 24.04.2022
2439 Clouds 18 1013 93 10000 1.34 126 21:56 24.04.2022
2440 Clouds 18 1013 93 10000 0.9 109 21:22 24.04.2022
2441 Clouds 18 1013 93 10000 0.9 109 20:46 24.04.2022
2442 Clear 18 1012 93 10000 0.69 119 20:20 24.04.2022
2443 Clear 18 1013 93 10000 0.81 197 18:38 24.04.2022
2444 Clear 18 1013 93 10000 1.1 187 17:49 24.04.2022
2445 Clear 18 1013 93 10000 1.31 179 17:21 24.04.2022
2446 Clear 18 1013 93 10000 1.31 179 17:21 24.04.2022
2447 Clear 18 1013 93 10000 1.31 179 16:51 24.04.2022
2448 Clear 18 1013 93 10000 1.72 176 16:25 24.04.2022
2449 Clear 18 1013 93 10000 1.72 176 15:39 24.04.2022
2450 Clouds 18 1012 94 10000 1.03 0 14:33 24.04.2022
2451 Clouds 18 1012 94 10000 1.03 0 14:33 24.04.2022
2452 Clouds 19 1011 88 10000 1.54 180 13:27 24.04.2022
2453 Clouds 21 1010 78 10000 5.14 220 12:55 24.04.2022
2454 Clouds 22 1010 73 10000 4.63 240 11:49 24.04.2022
2455 Clouds 24 1009 60 10000 3.09 220 10:47 24.04.2022
2456 Clouds 22 1009 73 10000 3.09 190 09:43 24.04.2022
2457 Clouds 22 1009 68 10000 2.06 210 07:42 24.04.2022
2458 Clouds 23 1010 68 10000 4.12 340 05:38 24.04.2022
2459 Clouds 18 1010 88 10000 8.23 350 01:58 24.04.2022
2460 Clouds 17 1009 94 10000 2.06 300 00:45 24.04.2022
2461 Clouds 17 1009 100 7000 1.54 330 23:46 23.04.2022
2462 Clouds 17 1009 100 7000 1.54 330 23:25 23.04.2022
2463 Clouds 17 1010 96 10000 3.23 45 21:58 23.04.2022
2464 Clouds 17 1010 96 10000 3.23 45 21:36 23.04.2022
2465 Clouds 16 1009 95 5663 2.59 57 20:59 23.04.2022
2466 Rain 17 1010 93 10000 3.16 57 19:55 23.04.2022
2467 Rain 17 1010 93 10000 3.54 27 19:20 23.04.2022
2468 Rain 17 1010 93 10000 3.54 27 18:53 23.04.2022
2469 Rain 17 1010 93 10000 3.54 27 18:31 23.04.2022
2470 Rain 17 1011 93 10000 3.52 32 17:44 23.04.2022
2471 Rain 17 1012 93 10000 2.21 42 16:44 23.04.2022
2472 Rain 17 1012 93 10000 2.17 98 15:35 23.04.2022
2473 Rain 18 1012 94 9000 3.6 10 12:54 23.04.2022
2474 Rain 17 1011 94 8000 2.57 90 10:53 23.04.2022
2475 Rain 18 1012 94 10000 4.12 320 09:38 23.04.2022
2476 Clouds 18 1010 88 10000 6.17 150 07:52 23.04.2022
2477 Rain 17 1014 94 9000 5.66 140 03:56 23.04.2022
2478 Clouds 17 1014 94 10000 5.66 140 01:55 23.04.2022
2479 Rain 17 1014 88 10000 3.09 120 23:33 22.04.2022
2480 Rain 17 1015 82 10000 2.85 171 22:28 22.04.2022
2481 Clouds 17 1015 82 10000 2.85 171 21:44 22.04.2022
2482 Clouds 17 1015 82 10000 2.85 171 21:44 22.04.2022
2483 Rain 17 1014 82 10000 2.67 177 20:55 22.04.2022
2484 Clouds 17 1015 82 10000 2.44 183 20:28 22.04.2022
2485 Clouds 17 1015 82 10000 2.06 181 19:22 22.04.2022
2486 Clouds 17 1015 82 10000 2.06 181 18:46 22.04.2022
2487 Clouds 17 1015 82 10000 2.05 179 17:50 22.04.2022
2488 Clouds 17 1015 82 10000 2.25 176 16:52 22.04.2022
2489 Clouds 17 1015 82 10000 2.25 177 15:47 22.04.2022
2490 Clouds 17 1015 82 10000 2.14 167 15:21 22.04.2022
2491 Clouds 18 1014 82 10000 2.57 170 13:54 22.04.2022
2492 Clouds 19 1014 72 10000 3.09 200 12:59 22.04.2022
2493 Clouds 19 1014 72 10000 3.09 200 12:28 22.04.2022
2494 Clouds 19 1013 77 10000 5.14 240 11:22 22.04.2022
2495 Clear 20 1013 68 10000 5.14 240 10:51 22.04.2022
2496 Clear 20 1013 68 10000 5.14 240 10:31 22.04.2022
2497 Clear 21 1013 60 10000 3.6 250 09:53 22.04.2022
2498 Clouds 20 1013 68 10000 9.77 240 08:51 22.04.2022
2499 Clouds 21 1014 64 10000 7.2 240 07:33 22.04.2022
2500 Clouds 18 1016 77 10000 1.03 270 03:47 22.04.2022
2501 Clouds 14 1015 100 10000 2.06 160 00:52 22.04.2022
2502 Clouds 13 1014 94 10000 2.06 110 23:26 21.04.2022
2503 Clouds 15 1015 93 10000 1.29 4 22:29 21.04.2022
2504 Clouds 15 1015 93 10000 1.93 328 20:43 21.04.2022
2505 Clouds 15 1014 93 10000 2.24 310 20:24 21.04.2022
2506 Clouds 15 1015 93 10000 2.15 303 18:44 21.04.2022
2507 Clouds 15 1015 93 10000 2.21 292 18:18 21.04.2022
2508 Clouds 15 1015 93 10000 1.97 276 16:44 21.04.2022
2509 Clouds 15 1014 93 10000 1.16 349 15:22 21.04.2022
2510 Clouds 15 1013 94 10000 2.57 280 14:50 21.04.2022
2511 Clouds 15 1012 94 10000 4.12 310 13:23 21.04.2022
2512 Clouds 15 1012 94 10000 5.14 330 12:59 21.04.2022
2513 Clouds 15 1011 94 10000 2.06 180 10:57 21.04.2022
2514 Rain 15 1010 88 10000 6.69 140 08:57 21.04.2022
2515 Rain 15 1011 94 4500 7.2 130 07:32 21.04.2022
2516 Rain 15 1014 94 6000 2.57 120 05:43 21.04.2022
2517 Rain 16 1015 88 8000 2.57 210 03:32 21.04.2022
2518 Rain 16 1015 88 10000 2.57 130 02:47 21.04.2022
2519 Rain 16 1014 82 10000 3.09 160 00:47 21.04.2022
2520 Clouds 16 1015 82 10000 3.09 150 23:51 20.04.2022
2521 Rain 17 1016 63 10000 1.81 149 23:22 20.04.2022
2522 Rain 17 1016 63 10000 1.81 149 22:50 20.04.2022
2523 Rain 17 1016 63 10000 1.81 149 22:31 20.04.2022
2524 Rain 17 1016 63 10000 1.54 146 21:29 20.04.2022
2525 Rain 17 1016 63 10000 1.54 146 20:37 20.04.2022
2526 Rain 17 1017 63 10000 1.66 179 19:52 20.04.2022
2527 Clouds 17 1017 63 10000 1.96 180 19:21 20.04.2022
2528 Clouds 17 1017 63 10000 1.52 155 18:22 20.04.2022
2529 Clouds 17 1018 63 10000 1.12 147 16:54 20.04.2022
2530 Clouds 17 1018 63 10000 1.12 147 16:36 20.04.2022
2531 Clear 17 1017 63 10000 1.54 340 14:21 20.04.2022
2532 Clear 21 1015 40 10000 2.57 350 11:52 20.04.2022
2533 Clear 21 1015 40 10000 2.57 350 11:24 20.04.2022
2534 Clear 22 1015 37 10000 4.63 240 10:22 20.04.2022
2535 Clouds 23 1014 40 10000 5.66 230 09:25 20.04.2022
2536 Clouds 23 1015 40 10000 4.63 240 08:22 20.04.2022
2537 Clouds 24 1016 27 10000 2.57 270 07:37 20.04.2022
2538 Clouds 19 1018 59 10000 2.06 300 03:49 20.04.2022
2539 Clouds 13 1017 88 10000 1.03 0 00:23 20.04.2022
2540 Clouds 11 1017 93 10000 2.06 90 23:56 19.04.2022
2541 Clear 15 1017 67 10000 2.34 46 22:27 19.04.2022
2542 Clear 15 1017 67 10000 2.34 46 21:57 19.04.2022
2543 Clear 15 1017 67 10000 2.33 43 21:24 19.04.2022
2544 Clear 15 1017 67 10000 2.33 43 20:46 19.04.2022
2545 Clouds 15 1017 67 10000 2.29 37 19:57 19.04.2022
2546 Clouds 15 1017 67 10000 2.12 35 18:49 19.04.2022
2547 Clouds 15 1018 67 10000 1.99 33 17:40 19.04.2022
2548 Clouds 15 1018 67 10000 1.92 42 16:43 19.04.2022
2549 Clouds 15 1018 67 10000 1.84 47 16:23 19.04.2022
2550 Clear 16 1016 67 10000 1.03 0 14:50 19.04.2022
2551 Clear 17 1015 59 10000 3.6 350 13:54 19.04.2022
2552 Clear 20 1015 49 10000 1.54 290 12:50 19.04.2022
2553 Clear 20 1015 49 10000 1.54 290 12:20 19.04.2022
2554 Clouds 21 1014 46 10000 5.66 220 10:46 19.04.2022
2555 Clouds 22 1014 35 10000 6.17 230 09:19 19.04.2022
2556 Clear 21 1016 32 10000 2.06 240 05:56 19.04.2022
2557 Clear 17 1017 63 10000 1.03 260 03:26 19.04.2022
2558 Clear 12 1016 76 10000 1.03 110 00:55 19.04.2022
2559 Clear 11 1016 87 10000 2.06 120 23:30 18.04.2022
2560 Clouds 14 1016 67 10000 2.81 11 21:30 18.04.2022
2561 Clouds 14 1016 67 10000 2.65 0 20:55 18.04.2022
2562 Clouds 14 1016 67 10000 2.65 0 20:32 18.04.2022
2563 Clouds 14 1017 67 10000 2.31 347 19:49 18.04.2022
2564 Clouds 14 1017 67 10000 2.07 332 18:56 18.04.2022
2565 Clouds 14 1018 67 10000 1.88 312 17:57 18.04.2022
2566 Clouds 14 1018 67 10000 1.88 312 17:33 18.04.2022
2567 Clouds 14 1018 67 10000 1.85 285 16:55 18.04.2022
2568 Clouds 14 1018 67 10000 1.85 285 16:31 18.04.2022
2569 Clear 14 1017 67 10000 3.09 310 14:51 18.04.2022
2570 Clear 16 1016 59 10000 4.12 260 13:36 18.04.2022
2571 Clouds 17 1015 45 10000 4.63 240 12:30 18.04.2022
2572 Rain 18 1015 39 10000 4.12 220 11:34 18.04.2022
2573 Rain 18 1015 39 10000 4.12 270 10:31 18.04.2022
2574 Rain 19 1015 37 10000 4.12 220 09:31 18.04.2022
2575 Clouds 19 1016 34 10000 1.54 230 07:42 18.04.2022
2576 Clouds 19 1017 45 10000 3.6 10 05:37 18.04.2022
2577 Clear 13 1017 88 10000 2.06 160 00:27 18.04.2022
2578 Clouds 14 1018 82 10000 2.03 32 22:41 17.04.2022
2579 Clouds 14 1018 82 10000 1.79 53 21:43 17.04.2022
2580 Clouds 14 1018 82 10000 1.63 37 21:22 17.04.2022
2581 Clouds 14 1018 82 10000 1.63 37 20:35 17.04.2022
2582 Clouds 14 1018 82 10000 1.63 37 20:35 17.04.2022
2583 Clouds 14 1018 82 10000 2.18 41 19:28 17.04.2022
2584 Clouds 14 1019 82 10000 1.96 19 17:45 17.04.2022
2585 Clouds 14 1019 82 10000 2.68 15 15:39 17.04.2022
2586 Clear 14 1018 82 10000 3.6 330 14:54 17.04.2022
2587 Clear 15 1017 67 10000 4.63 310 13:48 17.04.2022
2588 Clear 16 1017 67 10000 4.12 320 12:58 17.04.2022
2589 Clear 16 1017 67 10000 4.12 320 12:27 17.04.2022
2590 Clouds 20 1016 49 10000 5.66 310 10:46 17.04.2022
2591 Clouds 20 1016 49 10000 5.66 310 10:28 17.04.2022
2592 Clouds 20 1016 49 10000 5.66 310 10:28 17.04.2022
2593 Clouds 20 1016 49 10000 5.66 310 10:28 17.04.2022
2594 Clouds 20 1016 52 10000 6.17 320 09:29 17.04.2022
2595 Clouds 20 1016 45 10000 1.54 280 08:42 17.04.2022
2596 Clouds 21 1017 24 10000 1.54 250 07:30 17.04.2022
2597 Clear 16 1018 33 10000 1.54 230 04:29 17.04.2022
2598 Clear 10 1018 81 10000 1.54 80 00:55 17.04.2022
2599 Clear 7 1017 87 10000 1.03 0 23:50 16.04.2022
2600 Clouds 10 1017 66 10000 3.05 18 22:29 16.04.2022
2601 Clouds 13 1017 62 10000 3.05 18 21:38 16.04.2022
2602 Clouds 13 1017 62 10000 3.21 13 20:32 16.04.2022
2603 Clouds 13 1017 62 10000 2.83 11 18:59 16.04.2022
2604 Clouds 13 1017 62 10000 2.64 359 17:46 16.04.2022
2605 Clouds 13 1017 62 10000 2.69 8 16:39 16.04.2022
2606 Clouds 13 1017 62 10000 2.87 12 15:45 16.04.2022
2607 Clear 13 1015 62 10000 7.2 360 14:56 16.04.2022
2608 Clear 13 1015 62 10000 7.2 340 13:58 16.04.2022
2609 Clear 13 1015 62 10000 7.2 340 13:32 16.04.2022
2610 Clear 14 1014 62 10000 7.72 340 12:22 16.04.2022
2611 Clouds 17 1013 51 10000 7.72 350 10:49 16.04.2022
2612 Clouds 18 1013 48 10000 8.75 350 09:56 16.04.2022
2613 Clouds 18 1013 45 10000 8.75 330 08:57 16.04.2022
2614 Clouds 18 1014 48 10000 8.23 340 07:35 16.04.2022
2615 Clouds 18 1014 45 10000 8.75 340 06:58 16.04.2022
2616 Clouds 13 1015 58 10000 7.2 10 02:46 16.04.2022
2617 Clouds 11 1015 62 10000 7.72 10 00:30 16.04.2022
2618 Clouds 10 1015 69 10000 5.03 23 22:58 15.04.2022
2619 Clouds 10 1015 69 10000 5.03 23 22:32 15.04.2022
2620 Clouds 11 1014 69 10000 5.49 25 21:50 15.04.2022
2621 Clouds 13 1014 76 10000 6 26 20:56 15.04.2022
2622 Clouds 13 1013 76 10000 6.16 26 20:21 15.04.2022
2623 Clouds 13 1014 76 10000 6.02 28 19:39 15.04.2022
2624 Clouds 13 1014 76 10000 5.64 25 18:53 15.04.2022
2625 Clouds 13 1014 76 10000 5.41 19 18:25 15.04.2022
2626 Clouds 13 1014 76 10000 5.41 19 17:34 15.04.2022
2627 Clouds 13 1014 76 10000 4.93 13 16:37 15.04.2022
2628 Clouds 13 1013 76 10000 4.67 19 16:18 15.04.2022
2629 Clouds 13 1013 76 10000 8.23 10 14:44 15.04.2022
2630 Clouds 13 1012 76 10000 8.23 10 13:34 15.04.2022
2631 Clouds 14 1011 72 10000 10.29 10 12:40 15.04.2022
2632 Clouds 14 1011 77 10000 9.26 360 11:55 15.04.2022
2633 Clouds 15 1010 72 10000 11.32 360 10:58 15.04.2022
2634 Clouds 15 1010 72 10000 11.32 360 10:40 15.04.2022
2635 Clouds 16 1010 72 10000 9.77 350 09:44 15.04.2022
2636 Clouds 16 1010 72 10000 9.77 350 09:19 15.04.2022
2637 Clouds 18 1010 68 10000 11.32 340 07:28 15.04.2022
2638 Clouds 18 1011 68 10000 8.75 360 05:58 15.04.2022
2639 Clouds 16 1011 77 10000 9.26 350 02:39 15.04.2022
2640 Clouds 14 1010 88 10000 9.26 350 23:31 14.04.2022
2641 Clouds 15 1010 87 10000 5.17 21 22:49 14.04.2022
2642 Clouds 15 1010 87 10000 5.14 31 22:29 14.04.2022
2643 Clouds 15 1010 87 10000 4.5 29 21:59 14.04.2022
2644 Clouds 15 1010 87 10000 4.81 23 20:37 14.04.2022
2645 Clouds 15 1011 87 10000 4.9 39 19:23 14.04.2022
2646 Clouds 15 1011 87 10000 4.85 29 18:19 14.04.2022
2647 Clouds 15 1011 87 10000 4.78 23 17:28 14.04.2022
2648 Clouds 15 1011 87 10000 4.78 23 16:36 14.04.2022
2649 Clouds 16 1011 88 10000 6.17 350 14:58 14.04.2022
2650 Clouds 16 1010 94 10000 8.23 360 13:45 14.04.2022
2651 Clouds 16 1011 94 10000 8.75 340 12:51 14.04.2022
2652 Rain 16 1011 94 10000 8.75 340 12:31 14.04.2022
2653 Rain 17 1010 88 10000 5.14 330 11:24 14.04.2022
2654 Rain 17 1009 94 10000 3.6 20 10:41 14.04.2022
2655 Rain 17 1010 94 10000 7.72 350 09:57 14.04.2022
2656 Rain 16 1010 100 10000 6.69 330 08:54 14.04.2022
2657 Rain 17 1011 94 10000 1.03 0 06:53 14.04.2022
2658 Rain 16 1012 94 7000 6.17 340 03:28 14.04.2022
2659 Rain 15 1010 100 7000 2.57 130 23:25 13.04.2022
2660 Rain 17 1010 82 10000 4.1 39 22:19 13.04.2022
2661 Rain 17 1010 82 10000 4.1 39 21:34 13.04.2022
2662 Rain 17 1011 82 10000 4.74 31 20:22 13.04.2022
2663 Rain 17 1011 82 10000 4.51 37 19:32 13.04.2022
2664 Rain 17 1012 82 9510 4.01 38 18:20 13.04.2022
2665 Clouds 17 1012 82 10000 3.36 52 17:24 13.04.2022
2666 Clouds 17 1012 82 10000 3.36 52 16:34 13.04.2022
2667 Clouds 17 1012 82 10000 4.03 43 15:38 13.04.2022
2668 Clouds 17 1012 82 10000 7.2 350 14:50 13.04.2022
2669 Clouds 17 1012 82 10000 7.2 350 14:19 13.04.2022
2670 Clouds 18 1011 82 10000 7.2 360 13:28 13.04.2022
2671 Clouds 18 1010 82 10000 6.69 320 12:25 13.04.2022
2672 Clouds 18 1010 82 10000 6.69 320 12:25 13.04.2022
2673 Clouds 19 1010 77 10000 8.75 320 10:49 13.04.2022
2674 Clouds 21 1010 68 10000 8.23 330 09:41 13.04.2022
2675 Clouds 22 1011 68 10000 7.72 340 08:42 13.04.2022
2676 Clouds 24 1012 64 10000 2.57 200 06:51 13.04.2022
2677 Clouds 24 1012 64 10000 2.57 200 06:25 13.04.2022
2678 Clouds 23 1012 73 10000 1.03 260 05:20 13.04.2022
2679 Fog 15 1012 100 200 2.57 160 00:21 13.04.2022
2680 Fog 15 1012 100 300 1.54 10 23:29 12.04.2022
2681 Clouds 19 1012 88 10000 1.03 57 21:58 12.04.2022
2682 Clouds 19 1012 88 10000 1.3 135 20:57 12.04.2022
2683 Clouds 19 1012 88 10000 1.3 135 20:38 12.04.2022
2684 Clouds 19 1012 88 10000 1.01 142 19:48 12.04.2022
2685 Clouds 19 1012 88 10000 0.65 139 19:29 12.04.2022
2686 Clouds 19 1012 88 10000 0.35 127 17:59 12.04.2022
2687 Clouds 19 1013 88 10000 0.39 254 16:58 12.04.2022
2688 Clouds 19 1013 88 10000 0.7 236 16:22 12.04.2022
2689 Clouds 19 1013 88 10000 0.32 216 15:29 12.04.2022
2690 Clouds 19 1012 88 10000 3.09 360 14:21 12.04.2022
2691 Clouds 19 1011 88 10000 1.54 20 13:29 12.04.2022
2692 Clouds 20 1011 88 10000 1.54 40 12:49 12.04.2022
2693 Clouds 22 1011 78 10000 3.6 330 11:46 12.04.2022
2694 Clouds 24 1010 69 10000 2.57 280 10:32 12.04.2022
2695 Clouds 24 1011 69 10000 2.06 280 08:57 12.04.2022
2696 Clouds 22 1012 78 10000 1.54 210 07:51 12.04.2022
2697 Clouds 20 1013 88 10000 2.06 300 05:49 12.04.2022
2698 Clouds 19 1013 88 10000 1.54 290 04:46 12.04.2022
2699 Mist 17 1012 100 4000 2.06 80 23:49 11.04.2022
2700 Clouds 17 1013 93 10000 2.31 90 22:44 11.04.2022
2701 Clouds 17 1013 93 10000 2.05 80 21:36 11.04.2022
2702 Clouds 17 1013 93 10000 2.15 94 20:54 11.04.2022
2703 Clouds 17 1014 93 10000 1.67 74 20:28 11.04.2022
2704 Clouds 17 1014 90 10000 1.55 74 19:36 11.04.2022
2705 Clouds 17 1014 90 10000 1.63 93 19:18 11.04.2022
2706 Clouds 17 1014 93 10000 1.63 93 18:37 11.04.2022
2707 Clouds 17 1014 93 10000 1.68 82 17:44 11.04.2022
2708 Clouds 17 1014 93 10000 1.43 101 16:38 11.04.2022
2709 Clouds 17 1014 93 10000 0.39 86 15:24 11.04.2022
2710 Clouds 17 1013 94 9000 3.09 150 13:51 11.04.2022
2711 Clouds 17 1013 94 10000 2.06 120 12:43 11.04.2022
2712 Clouds 17 1013 94 10000 2.06 120 12:22 11.04.2022
2713 Clouds 18 1013 88 10000 1.54 250 10:56 11.04.2022
2714 Clouds 18 1013 88 10000 1.03 0 09:58 11.04.2022
2715 Rain 17 1013 94 9000 2.57 140 08:24 11.04.2022
2716 Rain 16 1016 94 6000 3.6 160 05:26 11.04.2022
2717 Clouds 17 1016 77 10000 3.09 140 00:49 11.04.2022
2718 Clouds 17 1017 72 10000 3.17 76 22:33 10.04.2022
2719 Clouds 17 1017 72 10000 3.12 75 21:54 10.04.2022
2720 Clouds 17 1017 72 10000 2.98 87 21:23 10.04.2022
2721 Clouds 17 1018 72 10000 2.76 99 20:21 10.04.2022
2722 Clouds 17 1018 72 10000 2.57 93 19:37 10.04.2022
2723 Clouds 17 1018 72 10000 2.12 96 18:50 10.04.2022
2724 Clouds 17 1019 72 10000 1.61 108 18:26 10.04.2022
2725 Clouds 17 1019 72 10000 1.61 108 17:46 10.04.2022
2726 Clouds 17 1019 72 10000 1.17 147 16:59 10.04.2022
2727 Clouds 17 1019 72 10000 0.8 159 15:40 10.04.2022
2728 Clear 17 1019 72 10000 2.57 120 14:42 10.04.2022
2729 Clear 18 1018 68 10000 1.54 220 13:28 10.04.2022
2730 Clear 19 1017 55 10000 1.54 230 12:32 10.04.2022
2731 Clear 20 1017 52 10000 4.12 250 11:38 10.04.2022
2732 Clear 21 1017 52 10000 5.66 240 10:59 10.04.2022
2733 Clear 21 1017 52 10000 5.66 240 10:31 10.04.2022
2734 Clear 22 1016 53 10000 6.69 260 09:41 10.04.2022
2735 Clear 23 1017 46 10000 6.69 250 08:28 10.04.2022
2736 Clear 23 1017 46 10000 4.12 260 07:56 10.04.2022
2737 Clear 23 1018 43 10000 3.6 260 06:59 10.04.2022
2738 Clear 19 1020 63 10000 1.03 0 03:36 10.04.2022
2739 Clear 17 1020 67 10000 1.03 0 02:18 10.04.2022
2740 Clear 13 1019 88 10000 3.6 110 23:53 09.04.2022
2741 Clear 15 1019 67 10000 1.67 104 22:54 09.04.2022
2742 Clear 15 1019 67 10000 1.67 104 22:54 09.04.2022
2743 Clouds 15 1019 67 10000 1.15 117 22:24 09.04.2022
2744 Clouds 15 1019 67 10000 0.68 113 21:18 09.04.2022
2745 Clear 15 1019 67 10000 0.63 99 20:27 09.04.2022
2746 Clear 15 1019 67 10000 0.91 86 19:49 09.04.2022
2747 Clear 15 1019 67 10000 0.91 86 19:30 09.04.2022
2748 Clear 15 1019 67 10000 1.07 131 18:23 09.04.2022
2749 Clear 15 1019 67 10000 1.07 131 17:43 09.04.2022
2750 Clear 15 1020 67 10000 0.74 90 16:56 09.04.2022
2751 Clear 15 1020 67 10000 0.53 78 16:29 09.04.2022
2752 Clear 15 1020 67 10000 0.53 78 15:48 09.04.2022
2753 Clear 15 1020 67 10000 0.1 321 15:25 09.04.2022
2754 Clear 15 1019 67 10000 1.54 160 14:25 09.04.2022
2755 Clear 16 1018 51 10000 3.6 190 13:24 09.04.2022
2756 Clear 18 1017 52 10000 4.63 220 12:53 09.04.2022
2757 Clear 19 1016 39 10000 6.69 230 11:44 09.04.2022
2758 Clear 20 1016 37 10000 6.69 230 10:22 09.04.2022
2759 Clear 21 1017 49 10000 7.2 240 09:53 09.04.2022
2760 Clear 21 1017 52 10000 7.2 250 08:59 09.04.2022
2761 Clear 22 1017 46 10000 6.17 250 07:44 09.04.2022
2762 Clear 18 1020 68 10000 1.03 280 03:21 09.04.2022
2763 Clear 13 1019 82 10000 1.03 140 00:32 09.04.2022
2764 Clear 14 1019 65 10000 0.84 136 22:58 08.04.2022
2765 Clear 14 1019 63 10000 0.59 142 21:35 08.04.2022
2766 Clear 15 1019 59 10000 0.55 169 20:41 08.04.2022
2767 Clear 15 1019 59 10000 1.22 148 19:41 08.04.2022
2768 Clear 15 1019 59 10000 1.05 128 18:34 08.04.2022
2769 Clear 15 1019 59 10000 1.01 85 17:55 08.04.2022
2770 Clear 15 1019 59 10000 1.11 48 17:27 08.04.2022
2771 Clear 15 1019 59 10000 1.11 48 16:51 08.04.2022
2772 Clear 15 1019 59 10000 1.18 11 16:20 08.04.2022
2773 Clear 15 1020 59 10000 1.31 350 15:27 08.04.2022
2774 Clear 16 1019 59 10000 2.57 360 14:40 08.04.2022
2775 Clear 15 1018 77 10000 2.06 270 13:55 08.04.2022
2776 Clear 15 1018 77 10000 2.06 270 13:30 08.04.2022
2777 Clear 18 1018 63 10000 1.54 300 12:42 08.04.2022
2778 Clear 21 1017 46 10000 5.14 330 10:55 08.04.2022
2779 Clouds 21 1018 46 10000 3.09 310 09:41 08.04.2022
2780 Clouds 21 1018 46 10000 3.09 310 09:41 08.04.2022
2781 Clouds 21 1018 40 10000 2.06 280 08:58 08.04.2022
2782 Clouds 21 1018 32 10000 2.06 270 07:42 08.04.2022
2783 Clouds 21 1019 30 10000 1.54 260 06:44 08.04.2022
2784 Clear 14 1021 77 10000 1.54 240 02:27 08.04.2022
2785 Clear 12 1020 87 8000 1.03 120 00:28 08.04.2022
2786 Clear 14 1021 76 10000 1.47 54 23:38 07.04.2022
2787 Clear 14 1020 76 10000 1.39 52 22:40 07.04.2022
2788 Clear 14 1020 76 10000 1.45 45 22:22 07.04.2022
2789 Clear 14 1020 76 10000 1.45 45 21:56 07.04.2022
2790 Clear 14 1019 76 10000 1.71 29 21:19 07.04.2022
2791 Clear 14 1019 76 10000 1.71 29 20:41 07.04.2022
2792 Clear 14 1019 76 10000 2.15 357 18:58 07.04.2022
2793 Clear 14 1020 76 10000 2.3 335 17:27 07.04.2022
2794 Clear 14 1020 76 10000 2.3 335 16:45 07.04.2022
2795 Clear 14 1020 76 10000 2.43 321 16:23 07.04.2022
2796 Clear 14 1020 76 10000 2.43 321 15:37 07.04.2022
2797 Clouds 15 1018 72 10000 3.09 310 13:51 07.04.2022
2798 Clouds 15 1018 72 10000 3.09 310 13:22 07.04.2022
2799 Clouds 17 1016 67 10000 5.66 240 11:40 07.04.2022
2800 Clouds 18 1016 68 10000 5.66 240 10:27 07.04.2022
2801 Clouds 20 1016 56 10000 2.57 210 08:39 07.04.2022
2802 Clouds 19 1017 63 10000 2.06 300 06:58 07.04.2022
2803 Clouds 16 1019 67 10000 1.54 360 03:59 07.04.2022
2804 Clouds 14 1018 72 10000 1.03 260 02:28 07.04.2022
2805 Clouds 10 1018 81 10000 1.54 110 00:42 07.04.2022
2806 Clouds 13 1018 71 10000 1.52 335 22:54 06.04.2022
2807 Clouds 13 1018 71 10000 1.52 335 22:54 06.04.2022
2808 Clouds 13 1018 71 10000 1.52 335 22:30 06.04.2022
2809 Clouds 13 1018 71 10000 1.14 336 21:45 06.04.2022
2810 Clouds 13 1018 71 10000 1.43 328 20:40 06.04.2022
2811 Clouds 13 1019 71 10000 1.28 346 19:57 06.04.2022
2812 Clouds 13 1019 71 10000 1.79 329 18:52 06.04.2022
2813 Clouds 13 1019 71 10000 1.79 329 18:33 06.04.2022
2814 Clouds 13 1020 71 10000 1.59 324 17:35 06.04.2022
2815 Clouds 13 1020 71 10000 1.51 341 16:39 06.04.2022
2816 Clouds 13 1020 71 10000 1.5 348 15:49 06.04.2022
2817 Clouds 13 1021 71 10000 1.88 342 15:21 06.04.2022
2818 Clear 14 1020 72 10000 3.6 330 13:28 06.04.2022
2819 Clear 15 1019 63 10000 4.63 330 12:28 06.04.2022
2820 Clear 18 1019 42 10000 4.63 330 10:54 06.04.2022
2821 Clear 18 1019 42 10000 4.63 330 10:31 06.04.2022
2822 Clear 19 1018 39 10000 5.66 340 09:42 06.04.2022
2823 Clear 19 1019 37 10000 6.17 350 08:36 06.04.2022
2824 Clouds 19 1019 37 10000 5.14 350 07:54 06.04.2022
2825 Clouds 18 1021 52 10000 3.09 360 04:31 06.04.2022
2826 Clouds 12 1021 71 10000 2.06 60 23:56 05.04.2022
2827 Clouds 12 1021 71 10000 2.06 60 23:22 05.04.2022
2828 Clouds 13 1021 76 10000 1.94 336 21:29 05.04.2022
2829 Clouds 13 1021 76 10000 1.34 359 20:26 05.04.2022
2830 Clouds 13 1022 76 10000 1.18 344 19:52 05.04.2022
2831 Clouds 13 1022 76 10000 2.3 339 18:18 05.04.2022
2832 Clouds 13 1023 76 10000 1.81 295 16:55 05.04.2022
2833 Clouds 13 1023 76 10000 1.81 295 16:35 05.04.2022
2834 Clouds 13 1023 76 10000 1.14 303 15:35 05.04.2022
2835 Clear 13 1022 76 10000 2.06 340 14:37 05.04.2022
2836 Clear 14 1022 67 10000 4.12 290 13:38 05.04.2022
2837 Clear 15 1020 63 10000 4.63 320 11:51 05.04.2022
2838 Clear 15 1020 63 10000 4.63 320 11:51 05.04.2022
2839 Clear 15 1020 63 10000 4.63 320 11:33 05.04.2022
2840 Clear 16 1020 55 10000 5.14 330 10:52 05.04.2022
2841 Clear 18 1021 48 10000 2.06 300 08:55 05.04.2022
2842 Clear 18 1021 27 10000 2.57 260 07:24 05.04.2022
2843 Clear 11 1025 66 10000 1.54 210 02:39 05.04.2022
2844 Clouds 9 1025 55 10000 1.78 36 22:48 04.04.2022
2845 Clouds 9 1025 55 10000 2.03 22 22:29 04.04.2022
2846 Clouds 9 1025 56 10000 2.25 23 21:22 04.04.2022
2847 Clouds 9 1025 56 10000 2.25 23 20:50 04.04.2022
2848 Clouds 9 1025 56 10000 2.25 23 20:50 04.04.2022
2849 Clouds 9 1025 56 10000 2.16 19 20:22 04.04.2022
2850 Clouds 10 1025 57 10000 2.41 20 19:26 04.04.2022
2851 Clouds 10 1025 57 10000 2.41 20 18:39 04.04.2022
2852 Clouds 12 1026 50 10000 2.67 15 16:41 04.04.2022
2853 Clouds 12 1026 50 10000 2.75 18 16:23 04.04.2022
2854 Clouds 12 1026 50 10000 2.75 18 15:33 04.04.2022
2855 Clear 12 1025 50 10000 5.66 350 14:46 04.04.2022
2856 Clear 13 1025 47 10000 6.17 340 13:40 04.04.2022
2857 Clear 14 1025 41 10000 7.2 350 12:26 04.04.2022
2858 Clear 16 1024 31 10000 8.23 350 11:29 04.04.2022
2859 Clouds 18 1024 34 10000 8.75 340 09:51 04.04.2022
2860 Clouds 18 1026 36 10000 6.17 320 05:33 04.04.2022
2861 Clouds 12 1027 54 10000 2.57 190 02:47 04.04.2022
2862 Clear 8 1027 63 10000 3.21 18 22:49 03.04.2022
2863 Clear 8 1026 63 10000 3.2 19 21:58 03.04.2022
2864 Clear 8 1026 62 10000 3.09 15 21:25 03.04.2022
2865 Clear 8 1026 65 10000 3.05 14 19:52 03.04.2022
2866 Clear 9 1026 65 10000 2.95 14 18:34 03.04.2022
2867 Clear 10 1026 53 10000 3.47 10 17:49 03.04.2022
2868 Clear 10 1026 53 10000 3.48 12 17:27 03.04.2022
2869 Clear 10 1026 53 10000 3.48 12 16:48 03.04.2022
2870 Clear 10 1026 53 10000 3.82 15 15:32 03.04.2022
2871 Clear 12 1025 50 10000 7.72 360 13:58 03.04.2022
2872 Clear 13 1024 50 10000 7.2 350 12:56 03.04.2022
2873 Clouds 14 1023 51 10000 9.26 360 11:33 03.04.2022
2874 Clouds 17 1023 42 10000 9.26 340 09:40 03.04.2022
2875 Clouds 18 1023 34 10000 7.72 330 08:50 03.04.2022
2876 Clouds 17 1025 27 10000 5.14 340 05:42 03.04.2022
2877 Clear 13 1025 38 10000 7.72 360 02:55 03.04.2022
2878 Clouds 8 1025 59 10000 3.71 18 23:22 02.04.2022
2879 Clouds 8 1025 59 10000 3.71 18 23:22 02.04.2022
2880 Clouds 8 1025 59 10000 3.71 18 22:40 02.04.2022
2881 Clouds 8 1025 59 10000 3.66 15 21:54 02.04.2022
2882 Clouds 8 1025 61 10000 3.58 16 21:19 02.04.2022
2883 Clouds 8 1025 61 10000 3.58 16 20:35 02.04.2022
2884 Clouds 10 1025 57 10000 3.63 14 18:45 02.04.2022
2885 Clouds 10 1025 57 10000 3.56 18 18:18 02.04.2022
2886 Clouds 10 1026 57 10000 3.57 20 16:39 02.04.2022
2887 Clouds 10 1026 57 10000 3.56 25 15:23 02.04.2022
2888 Clear 10 1025 57 10000 6.69 360 14:51 02.04.2022
2889 Clear 11 1024 54 10000 7.2 360 13:57 02.04.2022
2890 Clear 11 1024 54 10000 7.2 360 13:23 02.04.2022
2891 Clear 13 1023 41 10000 7.72 360 11:54 02.04.2022
2892 Clouds 16 1023 31 10000 7.2 330 09:48 02.04.2022
2893 Clouds 16 1024 29 10000 5.66 310 06:58 02.04.2022
2894 Clouds 13 1026 35 10000 7.72 360 03:59 02.04.2022
2895 Clouds 7 1026 81 10000 1.54 340 00:27 02.04.2022
2896 Clear 7 1025 81 10000 3.09 120 23:53 01.04.2022
2897 Clouds 10 1026 46 10000 3.41 34 22:24 01.04.2022
2898 Clouds 10 1025 46 10000 3.29 35 20:54 01.04.2022
2899 Clouds 8 1025 65 10000 3.29 35 20:32 01.04.2022
2900 Clouds 10 1026 46 10000 3.41 31 19:39 01.04.2022
2901 Clouds 10 1026 46 10000 3.89 34 19:18 01.04.2022
2902 Clouds 10 1026 46 10000 3.89 34 18:35 01.04.2022
2903 Clouds 10 1027 46 10000 4.26 33 17:36 01.04.2022
2904 Clouds 10 1027 46 10000 4.9 31 15:44 01.04.2022
2905 Clouds 10 1026 46 10000 8.75 10 14:39 01.04.2022
2906 Clouds 10 1025 50 10000 9.26 10 13:36 01.04.2022
2907 Clouds 11 1024 50 10000 10.29 10 12:33 01.04.2022
2908 Clouds 13 1024 47 10000 7.72 10 11:45 01.04.2022
2909 Clouds 14 1024 47 10000 9.26 360 10:34 01.04.2022
2910 Clouds 16 1023 41 10000 9.77 350 09:30 01.04.2022
2911 Clouds 16 1024 33 10000 7.72 40 06:55 01.04.2022
2912 Clouds 15 1025 38 10000 6.69 30 04:54 01.04.2022
2913 Clouds 15 1025 38 10000 6.69 30 04:36 01.04.2022
2914 Clouds 13 1024 50 10000 9.26 40 02:19 01.04.2022
2915 Clouds 11 1024 62 10000 9.77 10 00:46 01.04.2022
2916 Clouds 10 1022 76 10000 7.61 28 22:20 31.03.2022
2917 Clouds 13 1022 76 10000 7.61 28 21:37 31.03.2022
2918 Clouds 13 1022 76 10000 7.22 24 20:30 31.03.2022
2919 Clouds 13 1021 76 10000 6.14 19 19:50 31.03.2022
2920 Clouds 13 1022 76 10000 4.45 12 18:52 31.03.2022
2921 Clouds 13 1022 76 10000 4.21 14 17:54 31.03.2022
2922 Clouds 13 1021 76 10000 3.5 13 16:40 31.03.2022
2923 Clouds 13 1021 76 10000 4.15 12 15:48 31.03.2022
2924 Clouds 13 1021 76 10000 3.87 34 15:20 31.03.2022
2925 Rain 13 1020 76 10000 7.2 340 14:40 31.03.2022
2926 Rain 13 1020 76 10000 8.75 350 12:48 31.03.2022
2927 Rain 13 1020 82 10000 11.83 350 11:28 31.03.2022
2928 Rain 14 1018 88 10000 7.2 350 09:50 31.03.2022
2929 Rain 15 1017 82 10000 9.77 350 08:29 31.03.2022
2930 Clouds 18 1018 77 10000 8.75 330 06:21 31.03.2022
2931 Rain 18 1018 88 10000 1.54 340 00:46 31.03.2022
2932 Rain 18 1017 88 10000 1.03 0 23:23 30.03.2022
2933 Clouds 17 1019 91 10000 2.25 173 21:41 30.03.2022
2934 Clouds 18 1019 82 10000 2.3 178 20:55 30.03.2022
2935 Clouds 18 1019 82 10000 2.58 181 20:20 30.03.2022
2936 Clouds 17 1019 94 10000 2.07 198 19:35 30.03.2022
2937 Clouds 18 1020 82 10000 3.05 203 18:29 30.03.2022
2938 Clouds 18 1020 82 10000 3.05 203 17:48 30.03.2022
2939 Clouds 18 1020 82 10000 3.21 204 16:57 30.03.2022
2940 Rain 18 1020 82 10000 3.21 204 16:38 30.03.2022
2941 Rain 18 1020 82 10000 3.58 188 15:24 30.03.2022
2942 Clouds 19 1019 72 10000 1.03 0 13:44 30.03.2022
2943 Clouds 19 1018 72 10000 3.6 220 12:57 30.03.2022
2944 Clouds 21 1019 64 10000 5.14 230 11:27 30.03.2022
2945 Clouds 21 1019 64 10000 5.14 230 11:27 30.03.2022
2946 Clouds 21 1018 64 10000 6.17 210 10:28 30.03.2022
2947 Clouds 20 1019 68 10000 5.14 240 09:24 30.03.2022
2948 Clouds 21 1019 64 10000 2.57 190 07:33 30.03.2022
2949 Clouds 21 1021 64 10000 6.69 130 05:41 30.03.2022
2950 Clouds 17 1023 77 10000 4.12 140 03:52 30.03.2022
2951 Clouds 14 1023 88 10000 4.12 140 00:41 30.03.2022
2952 Clouds 15 1023 82 10000 2.12 111 22:25 29.03.2022
2953 Clouds 15 1023 82 10000 2.12 111 21:44 29.03.2022
2954 Clouds 15 1023 82 10000 1.97 122 20:52 29.03.2022
2955 Clouds 15 1023 82 10000 1.43 105 19:53 29.03.2022
2956 Clouds 15 1023 82 10000 1.67 94 18:55 29.03.2022
2957 Clouds 15 1023 82 10000 1.32 100 18:19 29.03.2022
2958 Clouds 15 1024 82 10000 0.95 114 17:22 29.03.2022
2959 Clouds 15 1024 82 10000 0.95 114 16:56 29.03.2022
2960 Clouds 15 1024 82 10000 1.16 99 15:57 29.03.2022
2961 Clouds 15 1024 82 10000 1.54 130 14:50 29.03.2022
2962 Clouds 14 1023 88 10000 3.09 150 13:53 29.03.2022
2963 Clouds 15 1023 77 10000 3.09 140 12:47 29.03.2022
2964 Clouds 16 1023 72 10000 2.06 230 11:31 29.03.2022
2965 Clouds 17 1022 67 10000 3.09 230 10:27 29.03.2022
2966 Clouds 19 1022 59 10000 2.57 230 09:23 29.03.2022
2967 Clouds 19 1024 55 10000 4.12 120 06:55 29.03.2022
2968 Clouds 14 1025 67 10000 2.57 200 03:47 29.03.2022
2969 Clear 9 1024 87 10000 1.03 130 23:49 28.03.2022
2970 Clouds 12 1025 66 10000 2.04 65 22:59 28.03.2022
2971 Clouds 12 1025 66 10000 2.04 65 22:39 28.03.2022
2972 Clouds 12 1025 66 10000 2.05 62 22:19 28.03.2022
2973 Clouds 12 1024 66 10000 2.29 60 20:47 28.03.2022
2974 Clouds 12 1025 66 10000 2.51 44 19:59 28.03.2022
2975 Clouds 12 1025 66 10000 2.51 44 19:40 28.03.2022
2976 Clouds 12 1025 66 10000 2.54 61 18:51 28.03.2022
2977 Clouds 12 1025 66 10000 3.07 60 18:18 28.03.2022
2978 Clouds 12 1025 66 10000 3.22 52 17:28 28.03.2022
2979 Clouds 12 1025 66 10000 3.52 47 15:38 28.03.2022
2980 Clear 12 1024 66 10000 6.17 340 14:24 28.03.2022
2981 Clear 12 1023 71 10000 5.66 350 13:33 28.03.2022
2982 Clear 14 1022 62 10000 5.66 350 11:54 28.03.2022
2983 Clear 15 1022 58 10000 5.14 350 10:39 28.03.2022
2984 Clear 15 1021 58 10000 7.2 340 09:21 28.03.2022
2985 Clear 15 1021 55 10000 5.66 330 08:45 28.03.2022
2986 Clear 15 1021 55 10000 5.66 330 08:21 28.03.2022
2987 Clouds 16 1021 51 10000 4.12 320 07:23 28.03.2022
2988 Clouds 13 1021 71 10000 4.63 10 02:44 28.03.2022
2989 Clouds 14 1020 58 10000 2.25 1 22:38 27.03.2022
2990 Clouds 14 1020 58 10000 2.86 331 21:48 27.03.2022
2991 Clouds 14 1019 58 10000 2.87 333 21:28 27.03.2022
2992 Clouds 14 1019 58 10000 2.87 333 20:41 27.03.2022
2993 Clouds 14 1020 58 10000 2.36 357 19:43 27.03.2022
2994 Clouds 14 1020 58 10000 3.37 332 18:45 27.03.2022
2995 Clouds 14 1020 58 10000 2.97 327 18:23 27.03.2022
2996 Rain 14 1020 58 10000 2.97 327 17:37 27.03.2022
2997 Clouds 14 1020 58 10000 3.59 311 15:51 27.03.2022
2998 Clear 14 1016 58 10000 1.54 260 13:59 27.03.2022
2999 Clear 14 1016 58 10000 1.54 260 13:25 27.03.2022
3000 Clear 16 1014 59 10000 6.17 300 11:41 27.03.2022
3001 Clouds 19 1013 55 10000 4.12 330 09:49 27.03.2022
3002 Clouds 19 1013 48 10000 5.14 310 07:39 27.03.2022
3003 Clouds 18 1014 63 10000 3.6 300 04:25 27.03.2022
3004 Clouds 14 1013 88 10000 4.63 350 00:26 27.03.2022
3005 Clouds 12 1012 94 10000 4.63 350 22:52 26.03.2022
3006 Clouds 12 1012 93 10000 2.69 15 22:22 26.03.2022
3007 Clouds 14 1012 82 10000 2.69 15 21:30 26.03.2022
3008 Clouds 14 1011 82 10000 2.1 11 19:38 26.03.2022
3009 Clouds 14 1011 82 10000 2.65 317 18:44 26.03.2022
3010 Clouds 14 1011 82 10000 3.68 315 17:36 26.03.2022
3011 Clouds 14 1011 82 10000 3.03 318 16:40 26.03.2022
3012 Clouds 14 1011 82 10000 4.17 318 15:42 26.03.2022
3013 Clouds 14 1009 82 10000 3.09 310 13:56 26.03.2022
3014 Clouds 14 1009 82 10000 3.09 310 13:36 26.03.2022
3015 Clouds 14 1007 82 10000 4.63 310 11:50 26.03.2022
3016 Clouds 14 1006 82 10000 5.66 310 10:48 26.03.2022
3017 Clouds 16 1004 82 10000 5.66 270 08:50 26.03.2022
3018 Clouds 16 1003 88 10000 6.69 240 06:39 26.03.2022
3019 Clouds 18 1003 88 10000 6.69 230 05:30 26.03.2022
3020 Rain 17 1004 94 4000 8.23 170 01:47 26.03.2022
3021 Rain 15 1003 94 7000 7.2 150 22:21 25.03.2022
3022 Rain 15 1007 67 6070 11.58 147 20:57 25.03.2022
3023 Rain 15 1008 67 9416 12.43 152 20:26 25.03.2022
3024 Rain 15 1009 67 9060 11.78 153 19:18 25.03.2022
3025 Rain 15 1009 67 9060 11.78 153 18:34 25.03.2022
3026 Rain 15 1012 67 7507 13.3 148 17:29 25.03.2022
3027 Rain 15 1014 67 10000 11.66 154 16:27 25.03.2022
3028 Rain 15 1014 67 10000 11.66 154 15:33 25.03.2022
3029 Rain 16 1015 67 10000 5.14 150 13:28 25.03.2022
3030 Clouds 18 1017 59 10000 8.23 140 10:50 25.03.2022
3031 Clouds 18 1018 68 10000 4.63 150 09:28 25.03.2022
3032 Clouds 18 1019 63 10000 3.09 160 08:43 25.03.2022
3033 Clouds 19 1019 55 10000 4.63 190 07:32 25.03.2022
3034 Clear 19 1020 45 10000 6.69 230 06:29 25.03.2022
3035 Clear 14 1021 77 10000 4.12 160 02:28 25.03.2022
3036 Clouds 7 1022 93 6000 2.06 100 22:56 24.03.2022
3037 Clouds 9 1022 93 10000 1.85 102 21:56 24.03.2022
3038 Clouds 9 1022 93 10000 2.12 104 20:45 24.03.2022
3039 Clouds 9 1022 93 10000 1.67 111 19:49 24.03.2022
3040 Clouds 9 1022 93 10000 1.67 111 19:49 24.03.2022
3041 Clouds 9 1022 93 10000 2.2 88 18:22 24.03.2022
3042 Clear 9 1023 93 10000 2.27 90 17:29 24.03.2022
3043 Clear 9 1024 93 10000 1.47 158 15:56 24.03.2022
3044 Clear 9 1023 93 10000 1.06 141 14:51 24.03.2022
3045 Clear 9 1023 93 10000 0.75 102 14:21 24.03.2022
3046 Clear 9 1022 93 9000 1.54 60 13:26 24.03.2022
3047 Clear 13 1021 71 10000 3.09 240 11:59 24.03.2022
3048 Clear 14 1020 62 10000 3.6 340 10:28 24.03.2022
3049 Clear 16 1020 41 10000 2.06 280 09:22 24.03.2022
3050 Clouds 16 1020 44 10000 2.57 260 07:39 24.03.2022
3051 Clouds 14 1020 58 10000 2.06 220 04:34 24.03.2022
3052 Fog 6 1020 93 500 3.09 120 23:38 23.03.2022
3053 Clear 7 1019 93 10000 2.25 16 21:53 23.03.2022
3054 Clear 7 1018 93 10000 2.58 24 21:20 23.03.2022
3055 Clear 7 1018 93 10000 2.81 23 19:50 23.03.2022
3056 Clear 7 1018 93 10000 3.18 19 19:25 23.03.2022
3057 Clear 7 1018 93 10000 3.13 9 17:39 23.03.2022
3058 Clear 7 1018 93 10000 2.79 10 16:53 23.03.2022
3059 Clear 7 1018 93 10000 2.89 10 14:57 23.03.2022
3060 Clear 7 1018 93 10000 2.89 10 14:38 23.03.2022
3061 Clear 7 1017 93 10000 1.54 80 13:22 23.03.2022
3062 Clouds 9 1015 81 10000 2.06 0 10:20 23.03.2022
3063 Clouds 9 1015 76 10000 2.06 60 07:56 23.03.2022
3064 Rain 10 1016 71 10000 5.14 340 05:27 23.03.2022
3065 Clouds 10 1015 71 10000 0.51 0 01:41 23.03.2022
3066 Clouds 10 1015 76 10000 1.03 0 00:24 23.03.2022
3067 Clouds 10 1016 66 10000 2.55 26 21:32 22.03.2022
3068 Rain 10 1016 66 10000 2.92 22 20:55 22.03.2022
3069 Clouds 10 1016 66 10000 3.13 22 19:56 22.03.2022
3070 Clouds 10 1016 66 10000 3.31 21 19:25 22.03.2022
3071 Clouds 10 1016 66 10000 3.49 27 18:45 22.03.2022
3072 Clouds 10 1017 66 10000 3.58 24 17:42 22.03.2022
3073 Clouds 10 1018 66 10000 3.56 38 16:32 22.03.2022
3074 Clouds 10 1018 66 10000 5.7 35 15:23 22.03.2022
3075 Clouds 10 1018 66 10000 5.7 35 14:59 22.03.2022
3076 Clouds 10 1018 66 10000 5.7 35 14:41 22.03.2022
3077 Clouds 11 1017 66 10000 4.63 20 13:37 22.03.2022
3078 Clouds 12 1017 54 10000 5.66 30 11:52 22.03.2022
3079 Clouds 13 1017 58 10000 7.2 20 10:51 22.03.2022
3080 Clouds 15 1016 51 10000 7.72 10 08:40 22.03.2022
3081 Clouds 15 1016 55 10000 7.2 20 06:58 22.03.2022
3082 Clouds 12 1018 76 10000 8.23 10 03:54 22.03.2022
3083 Rain 10 1016 81 10000 1.03 0 00:34 22.03.2022
3084 Clouds 9 1015 87 10000 2.57 10 22:42 21.03.2022
3085 Rain 9 1015 87 6120 6.21 33 21:20 21.03.2022
3086 Rain 9 1015 87 6120 6.21 33 20:42 21.03.2022
3087 Rain 9 1016 87 6790 6.71 30 19:59 21.03.2022
3088 Rain 9 1016 87 6790 6.71 30 19:35 21.03.2022
3089 Rain 9 1017 87 4304 6.14 22 18:46 21.03.2022
3090 Rain 9 1017 87 3796 6.42 31 17:32 21.03.2022
3091 Rain 9 1018 87 4930 6.41 17 16:53 21.03.2022
3092 Rain 9 1019 87 5273 5.08 17 16:24 21.03.2022
3093 Rain 9 1019 87 4144 5.1 20 15:21 21.03.2022
3094 Rain 9 1019 87 10000 0 0 14:28 21.03.2022
3095 Rain 9 1020 81 10000 2.57 110 12:53 21.03.2022
3096 Rain 9 1021 76 10000 1.54 120 11:54 21.03.2022
3097 Rain 10 1021 87 10000 0.51 0 10:49 21.03.2022
3098 Rain 11 1020 82 10000 2.06 240 09:21 21.03.2022
3099 Rain 13 1020 62 10000 2.06 250 06:59 21.03.2022
3100 Clouds 12 1022 71 10000 1.54 220 04:54 21.03.2022
3101 Rain 10 1023 87 10000 1.03 140 00:36 21.03.2022
3102 Rain 9 1022 87 10000 0.51 90 22:56 20.03.2022
3103 Clouds 10 1022 71 10000 3.13 17 21:57 20.03.2022
3104 Rain 10 1022 71 10000 3.13 17 21:30 20.03.2022
3105 Clouds 10 1021 71 10000 2.66 5 20:48 20.03.2022
3106 Clouds 10 1021 71 10000 2.04 340 20:24 20.03.2022
3107 Rain 10 1021 71 10000 2.04 340 19:43 20.03.2022
3108 Rain 10 1022 71 10000 2.87 340 18:44 20.03.2022
3109 Clouds 10 1021 71 10000 3.41 340 17:38 20.03.2022
3110 Rain 10 1022 71 10000 3.55 323 16:58 20.03.2022
3111 Rain 10 1021 71 10000 3.63 319 15:52 20.03.2022
3112 Rain 10 1021 71 10000 3.24 327 14:36 20.03.2022
3113 Rain 11 1019 71 10000 4.63 330 13:20 20.03.2022
3114 Rain 11 1017 71 10000 5.66 300 11:37 20.03.2022
3115 Rain 13 1016 58 10000 3.6 330 09:57 20.03.2022
3116 Clouds 13 1016 58 10000 2.57 350 07:51 20.03.2022
3117 Clouds 14 1017 54 10000 1.54 230 05:49 20.03.2022
3118 Clouds 11 1019 71 10000 1.54 290 02:53 20.03.2022
3119 Clouds 9 1017 76 10000 0.51 0 00:48 20.03.2022
3120 Clouds 8 1016 81 10000 2.06 70 23:21 19.03.2022
3121 Rain 8 1015 65 10000 1.46 28 21:41 19.03.2022
3122 Clouds 8 1015 65 10000 2.1 10 21:18 19.03.2022
3123 Clouds 8 1015 65 10000 2.21 345 19:21 19.03.2022
3124 Clouds 8 1015 65 10000 2.17 18 18:25 19.03.2022
3125 Rain 8 1015 65 10000 2.17 18 17:41 19.03.2022
3126 Clouds 8 1014 65 10000 3.17 352 16:29 19.03.2022
3127 Clouds 8 1014 65 10000 3.57 344 15:20 19.03.2022
3128 Clouds 8 1012 66 10000 4.12 320 13:35 19.03.2022
3129 Clouds 8 1011 66 10000 7.2 330 12:41 19.03.2022
3130 Clouds 10 1011 57 10000 7.72 300 11:54 19.03.2022
3131 Clouds 10 1011 57 10000 7.72 300 11:33 19.03.2022
3132 Clouds 12 1008 66 10000 8.23 300 08:23 19.03.2022
3133 Rain 12 1006 87 9000 3.6 240 04:23 19.03.2022
3134 Clouds 12 1006 71 10000 3.6 230 02:30 19.03.2022
3135 Clouds 10 1006 81 10000 1.03 0 23:46 18.03.2022
3136 Clouds 10 1006 81 10000 2.06 80 22:29 18.03.2022
3137 Rain 10 1007 81 10000 0.75 20 21:55 18.03.2022
3138 Clouds 10 1006 81 10000 2.82 356 19:57 18.03.2022
3139 Clouds 10 1006 81 10000 3.1 355 19:22 18.03.2022
3140 Clouds 10 1007 81 10000 3.51 338 18:27 18.03.2022
3141 Clouds 10 1007 81 10000 3.46 352 16:52 18.03.2022
3142 Clouds 10 1006 81 10000 3.55 359 15:43 18.03.2022
3143 Clouds 10 1006 81 10000 3.81 359 14:25 18.03.2022
3144 Clouds 11 1004 87 10000 9.26 350 12:39 18.03.2022
3145 Clouds 12 1004 82 10000 8.75 340 11:21 18.03.2022
3146 Clouds 13 1002 82 10000 10.8 340 09:34 18.03.2022
3147 Clouds 15 1000 77 10000 9.26 350 08:42 18.03.2022
3148 Clouds 14 1000 88 10000 6.17 350 06:42 18.03.2022
3149 Clouds 13 999 94 10000 7.2 360 03:30 18.03.2022
3150 Mist 13 1000 100 3500 1.54 250 00:54 18.03.2022
3151 Rain 13 1001 94 4000 4.63 10 23:52 17.03.2022
3152 Rain 13 1001 94 5000 4.12 300 22:26 17.03.2022
3153 Rain 13 1000 93 4357 7.6 82 21:51 17.03.2022
3154 Rain 13 1002 93 3286 9.28 81 21:27 17.03.2022
3155 Rain 13 1002 93 3286 9.28 81 20:52 17.03.2022
3156 Rain 13 1004 93 6575 8.3 71 19:55 17.03.2022
3157 Rain 13 1004 93 6575 8.3 71 19:33 17.03.2022
3158 Rain 13 1007 93 10000 5.78 55 18:51 17.03.2022
3159 Rain 13 1010 93 8914 4.1 69 17:26 17.03.2022
3160 Rain 13 1011 93 7325 3.28 57 15:52 17.03.2022
3161 Rain 13 1011 93 7325 3.28 57 15:33 17.03.2022
3162 Rain 13 1011 93 10000 5.21 47 14:48 17.03.2022
3163 Rain 15 1012 88 10000 3.6 20 12:59 17.03.2022
3164 Clouds 14 1012 82 10000 7.2 330 12:37 17.03.2022
3165 Clear 15 1012 77 10000 4.63 300 11:30 17.03.2022
3166 Rain 16 1013 72 10000 3.6 350 10:32 17.03.2022
3167 Rain 17 1013 67 10000 2.06 350 08:41 17.03.2022
3168 Rain 18 1014 52 10000 1.54 300 07:52 17.03.2022
3169 Rain 17 1016 59 10000 2.57 20 05:48 17.03.2022
3170 Clear 14 1018 82 10000 1.03 0 01:37 17.03.2022
3171 Clear 10 1017 87 10000 1.54 150 23:56 16.03.2022
3172 Clear 10 1017 87 10000 1.54 100 22:50 16.03.2022
3173 Clear 10 1017 87 10000 1.54 100 22:32 16.03.2022
3174 Clouds 14 1016 82 10000 1.85 41 21:42 16.03.2022
3175 Clouds 14 1015 82 10000 1.68 54 20:26 16.03.2022
3176 Clouds 14 1016 82 10000 1.77 51 19:21 16.03.2022
3177 Clouds 14 1016 82 10000 1.93 50 18:38 16.03.2022
3178 Clouds 14 1017 82 10000 1.96 41 17:43 16.03.2022
3179 Clouds 14 1017 82 10000 1.68 45 17:20 16.03.2022
3180 Clouds 14 1017 82 10000 1.81 20 15:55 16.03.2022
3181 Clouds 14 1018 82 10000 1.53 355 14:27 16.03.2022
3182 Clear 14 1016 82 10000 3.6 310 13:32 16.03.2022
3183 Clear 15 1015 63 10000 1.54 240 11:57 16.03.2022
3184 Clear 15 1015 63 10000 1.54 240 11:21 16.03.2022
3185 Clear 18 1014 55 10000 2.57 330 10:23 16.03.2022
3186 Clear 22 1013 30 10000 5.14 250 08:53 16.03.2022
3187 Clear 22 1015 46 10000 2.06 290 06:27 16.03.2022
3188 Clouds 13 1016 76 10000 0.51 0 01:45 16.03.2022
3189 Clear 9 1015 93 10000 0.51 0 22:41 15.03.2022
3190 Clouds 13 1015 87 10000 1.11 302 21:55 15.03.2022
3191 Clouds 13 1014 87 10000 1.85 267 20:28 15.03.2022
3192 Clouds 13 1014 87 10000 2.17 248 18:58 15.03.2022
3193 Clouds 13 1014 87 10000 1.13 242 16:59 15.03.2022
3194 Clouds 13 1014 87 10000 1.13 242 16:32 15.03.2022
3195 Clouds 13 1014 87 10000 0.42 318 15:21 15.03.2022
3196 Clouds 13 1014 87 10000 0.42 318 14:40 15.03.2022
3197 Clear 13 1013 88 10000 2.06 300 13:38 15.03.2022
3198 Clear 14 1012 77 10000 1.03 0 12:24 15.03.2022
3199 Clear 16 1011 63 10000 1.03 0 11:31 15.03.2022
3200 Clear 20 1011 40 10000 2.06 20 09:40 15.03.2022
3201 Clear 21 1011 43 10000 2.06 360 08:42 15.03.2022
3202 Clear 20 1011 42 10000 1.54 290 07:50 15.03.2022
3203 Clear 20 1011 42 10000 1.54 290 07:28 15.03.2022
3204 Clouds 17 1014 59 10000 3.09 310 03:30 15.03.2022
3205 Clouds 12 1012 82 10000 2.57 290 23:40 14.03.2022
3206 Clouds 12 1012 82 10000 2.57 290 23:21 14.03.2022
3207 Clouds 12 1012 87 10000 3.09 310 22:26 14.03.2022
3208 Clouds 13 1013 82 10000 2.86 335 21:26 14.03.2022
3209 Clouds 13 1013 82 10000 2.86 335 20:35 14.03.2022
3210 Clouds 14 1012 83 10000 3.29 315 19:59 14.03.2022
3211 Clouds 14 1012 87 10000 4.02 309 18:37 14.03.2022
3212 Clouds 18 1012 82 9582 4.18 313 17:44 14.03.2022
3213 Rain 18 1012 82 10000 4.58 315 16:58 14.03.2022
3214 Clouds 18 1012 82 10000 4.62 304 15:37 14.03.2022
3215 Clouds 18 1012 82 10000 4.07 275 14:38 14.03.2022
3216 Clouds 19 1011 82 10000 7.2 240 12:21 14.03.2022
3217 Clouds 20 1010 77 10000 3.09 180 10:50 14.03.2022
3218 Clouds 21 1011 73 10000 5.14 210 09:41 14.03.2022
3219 Clouds 21 1011 73 10000 5.14 210 09:20 14.03.2022
3220 Clouds 21 1012 73 10000 5.14 200 08:55 14.03.2022
3221 Clouds 22 1012 68 10000 4.12 230 07:21 14.03.2022
3222 Clouds 21 1013 73 10000 5.14 230 05:22 14.03.2022
3223 Fog 16 1014 94 8000 0.51 0 01:52 14.03.2022
3224 Fog 16 1014 94 8000 0.51 0 01:20 14.03.2022
3225 Clouds 16 1013 100 10000 1.54 150 22:42 13.03.2022
3226 Clouds 18 1014 88 10000 1.46 289 21:28 13.03.2022
3227 Clouds 18 1014 88 10000 1.46 289 20:55 13.03.2022
3228 Clouds 18 1014 88 10000 1.86 263 20:29 13.03.2022
3229 Clouds 18 1014 88 10000 1.86 263 19:48 13.03.2022
3230 Clouds 18 1014 88 10000 1.89 248 19:25 13.03.2022
3231 Clouds 18 1014 88 10000 1.89 248 18:50 13.03.2022
3232 Clouds 18 1014 88 10000 1.89 248 18:50 13.03.2022
3233 Clouds 18 1014 88 10000 3.67 230 18:27 13.03.2022
3234 Clouds 18 1014 88 10000 3.67 230 17:40 13.03.2022
3235 Clouds 18 1014 88 10000 4.62 228 16:48 13.03.2022
3236 Clouds 18 1014 88 10000 4.53 222 16:27 13.03.2022
3237 Clouds 18 1014 88 10000 4.53 222 15:44 13.03.2022
3238 Clouds 17 1015 87 10000 4.62 220 14:50 13.03.2022
3239 Clouds 17 1015 87 10000 4.62 220 14:50 13.03.2022
3240 Clouds 18 1014 88 10000 5.14 250 13:30 13.03.2022
3241 Rain 19 1014 82 10000 3.09 220 12:37 13.03.2022
3242 Rain 19 1013 77 10000 6.17 210 11:51 13.03.2022
3243 Rain 19 1013 77 10000 6.17 210 11:25 13.03.2022
3244 Clouds 19 1013 77 10000 6.69 190 10:44 13.03.2022
3245 Rain 20 1013 73 10000 10.29 200 09:43 13.03.2022
3246 Rain 20 1013 73 10000 10.29 200 09:20 13.03.2022
3247 Rain 21 1013 64 10000 8.75 210 08:39 13.03.2022
3248 Clouds 21 1013 60 10000 9.77 200 07:37 13.03.2022
3249 Rain 19 1015 68 10000 5.66 190 05:39 13.03.2022
3250 Clouds 16 1016 77 10000 7.2 130 01:48 13.03.2022
3251 Clouds 14 1016 88 10000 5.66 140 23:28 12.03.2022
3252 Clouds 14 1017 87 10000 4.31 175 21:48 12.03.2022
3253 Clouds 14 1016 87 10000 4.64 170 20:27 12.03.2022
3254 Clouds 14 1016 87 10000 4.64 170 19:46 12.03.2022
3255 Clouds 14 1017 87 10000 3.98 174 18:44 12.03.2022
3256 Clouds 14 1018 87 10000 3.32 172 18:19 12.03.2022
3257 Clouds 14 1018 87 10000 2.83 163 16:32 12.03.2022
3258 Clouds 14 1019 87 10000 2.94 164 15:52 12.03.2022
3259 Clear 14 1019 87 10000 3.06 172 15:22 12.03.2022
3260 Clouds 14 1018 88 10000 3.09 120 13:54 12.03.2022
3261 Clouds 17 1018 77 10000 1.54 180 12:33 12.03.2022
3262 Clouds 17 1018 77 10000 2.06 200 11:55 12.03.2022
3263 Clouds 17 1018 77 10000 2.06 200 11:34 12.03.2022
3264 Clouds 18 1017 68 10000 3.6 250 10:26 12.03.2022
3265 Clouds 19 1017 63 10000 4.63 240 09:43 12.03.2022
3266 Clouds 21 1017 56 10000 6.17 250 07:58 12.03.2022
3267 Clouds 21 1017 52 10000 5.66 250 06:44 12.03.2022
3268 Clouds 13 1020 88 10000 1.54 100 00:55 12.03.2022
3269 Clouds 12 1019 87 10000 2.06 150 23:43 11.03.2022
3270 Clouds 12 1019 87 10000 2.06 150 23:43 11.03.2022
3271 Clouds 13 1020 76 10000 1.66 148 22:32 11.03.2022
3272 Clouds 13 1020 76 10000 1.3 164 21:24 11.03.2022
3273 Clouds 13 1020 76 10000 1.3 164 20:46 11.03.2022
3274 Clouds 13 1019 76 10000 1.32 162 20:26 11.03.2022
3275 Clouds 13 1019 76 10000 1.32 162 19:33 11.03.2022
3276 Clear 13 1020 76 10000 0.95 152 18:30 11.03.2022
3277 Clear 13 1020 76 10000 1.16 165 17:24 11.03.2022
3278 Clear 13 1020 76 10000 1.26 171 15:59 11.03.2022
3279 Clear 13 1020 76 10000 1.26 171 15:36 11.03.2022
3280 Clear 13 1018 76 10000 2.57 120 13:42 11.03.2022
3281 Clear 13 1018 76 10000 1.54 70 12:39 11.03.2022
3282 Clear 13 1018 76 10000 1.54 70 12:19 11.03.2022
3283 Clouds 17 1017 59 10000 3.09 210 10:44 11.03.2022
3284 Clouds 18 1017 55 10000 5.14 230 09:34 11.03.2022
3285 Clouds 19 1017 52 10000 2.06 290 08:28 11.03.2022
3286 Clouds 20 1017 45 10000 3.09 240 07:48 11.03.2022
3287 Clouds 20 1018 42 10000 2.57 230 06:26 11.03.2022
3288 Clouds 18 1020 52 10000 1.54 50 04:28 11.03.2022
3289 Rain 11 1021 82 10000 6.17 130 01:20 11.03.2022
3290 Rain 9 1020 93 10000 3.6 130 22:32 10.03.2022
3291 Clouds 9 1021 76 10000 1.77 115 21:53 10.03.2022
3292 Clouds 9 1020 76 10000 1.99 94 21:24 10.03.2022
3293 Clouds 9 1020 76 10000 1.99 94 21:24 10.03.2022
3294 Clouds 9 1020 76 10000 2.09 68 20:18 10.03.2022
3295 Clouds 9 1020 76 10000 2 59 18:56 10.03.2022
3296 Clouds 9 1021 76 10000 0.93 79 17:37 10.03.2022
3297 Clouds 9 1021 76 10000 0.29 118 16:42 10.03.2022
3298 Clouds 9 1022 76 10000 0.07 12 15:27 10.03.2022
3299 Clear 9 1021 76 10000 1.03 160 13:41 10.03.2022
3300 Clear 11 1021 71 10000 0.51 0 12:35 10.03.2022
3301 Clear 12 1020 43 10000 1.54 200 11:26 10.03.2022
3302 Clear 15 1020 41 10000 5.66 240 09:28 10.03.2022
3303 Clear 17 1020 31 10000 1.54 230 07:46 10.03.2022
3304 Clear 14 1023 51 10000 2.06 10 04:59 10.03.2022
3305 Clear 8 1024 76 10000 2.06 110 01:56 10.03.2022
3306 Clouds 4 1023 87 9000 1.54 120 23:30 09.03.2022
3307 Clear 8 1023 65 10000 2.12 62 21:56 09.03.2022
3308 Clear 8 1023 65 10000 2.12 62 21:36 09.03.2022
3309 Clear 9 1022 65 10000 2.15 64 19:56 09.03.2022
3310 Clear 9 1022 66 10000 2.35 44 18:34 09.03.2022
3311 Clear 9 1022 65 10000 2.27 45 17:27 09.03.2022
3312 Clear 9 1022 65 10000 2.27 45 16:34 09.03.2022
3313 Clear 7 1022 65 10000 2.75 57 15:31 09.03.2022
3314 Clear 10 1022 66 10000 3.09 300 13:54 09.03.2022
3315 Clear 10 1021 66 10000 4.63 20 12:48 09.03.2022
3316 Clouds 11 1021 66 10000 5.66 330 11:54 09.03.2022
3317 Clouds 11 1021 66 10000 5.66 330 11:35 09.03.2022
3318 Clear 13 1020 50 10000 4.63 320 10:34 09.03.2022
3319 Clouds 16 1020 41 10000 5.14 330 08:57 09.03.2022
3320 Clouds 17 1020 36 10000 5.66 330 07:54 09.03.2022
3321 Clouds 11 1021 62 10000 1.54 50 02:59 09.03.2022
3322 Clouds 7 1021 81 10000 1.54 90 00:46 09.03.2022
3323 Clear 6 1019 81 10000 1.03 150 22:48 08.03.2022
3324 Clear 6 1019 81 10000 1.03 150 22:27 08.03.2022
3325 Clear 7 1019 75 10000 1.65 348 21:23 08.03.2022
3326 Clear 7 1019 75 10000 1.65 348 20:42 08.03.2022
3327 Clear 7 1019 75 10000 1.78 353 19:42 08.03.2022
3328 Clear 7 1019 75 10000 1.96 354 18:44 08.03.2022
3329 Clear 7 1019 75 10000 1.9 3 17:32 08.03.2022
3330 Clear 7 1019 75 10000 2.35 349 15:56 08.03.2022
3331 Clear 7 1020 75 10000 2.65 331 14:19 08.03.2022
3332 Clear 10 1019 57 10000 1.03 0 12:43 08.03.2022
3333 Clear 11 1018 50 10000 3.6 300 11:45 08.03.2022
3334 Clear 12 1018 43 10000 5.14 310 10:45 08.03.2022
3335 Clear 14 1017 41 10000 7.2 320 09:43 08.03.2022
3336 Clouds 15 1017 31 10000 3.09 340 06:59 08.03.2022
3337 Clouds 12 1018 50 10000 1.54 260 04:52 08.03.2022
3338 Clear 2 1019 87 10000 3.6 130 23:50 07.03.2022
3339 Clear 5 1018 65 10000 2.59 19 21:54 07.03.2022
3340 Clear 5 1018 65 10000 2.59 19 21:31 07.03.2022
3341 Clear 6 1018 66 10000 2.53 25 20:44 07.03.2022
3342 Clear 6 1018 66 10000 2.83 14 19:55 07.03.2022
3343 Clouds 6 1018 66 10000 3.01 19 19:29 07.03.2022
3344 Clouds 6 1018 67 10000 3.11 18 18:40 07.03.2022
3345 Clouds 6 1019 66 10000 3.19 15 17:47 07.03.2022
3346 Clouds 8 1019 65 10000 3.15 11 16:55 07.03.2022
3347 Clouds 8 1019 64 10000 3.27 10 15:32 07.03.2022
3348 Clear 8 1017 53 10000 5.66 10 12:54 07.03.2022
3349 Clear 8 1017 51 10000 5.66 10 12:21 07.03.2022
3350 Clear 10 1017 32 10000 2.06 310 10:36 07.03.2022
3351 Clear 11 1016 22 10000 2.06 230 08:39 07.03.2022
3352 Clouds 9 1019 37 10000 1.54 250 03:41 07.03.2022
3353 Clear 6 1019 49 10000 2.06 50 00:22 07.03.2022
3354 Clear 6 1019 45 10000 3.6 40 23:29 06.03.2022
3355 Clear 4 1019 65 10000 0.51 0 22:37 06.03.2022
3356 Clouds 5 1019 52 10000 2.1 45 21:45 06.03.2022
3357 Clouds 5 1019 52 10000 2.03 43 20:30 06.03.2022
3358 Clouds 5 1019 52 10000 2.88 24 19:50 06.03.2022
3359 Clouds 5 1019 52 10000 3.2 35 18:51 06.03.2022
3360 Clouds 5 1019 52 10000 3.31 31 17:53 06.03.2022
3361 Clouds 5 1019 52 10000 3.6 28 17:20 06.03.2022
3362 Clouds 5 1019 52 10000 3.6 28 16:40 06.03.2022
3363 Clouds 5 1019 52 10000 3.79 27 15:37 06.03.2022
3364 Clouds 5 1020 52 10000 3.35 18 14:49 06.03.2022
3365 Clouds 5 1020 52 10000 3.88 17 14:28 06.03.2022
3366 Clear 6 1019 49 10000 6.69 20 12:43 06.03.2022
3367 Clear 7 1019 49 10000 8.75 340 11:56 06.03.2022
3368 Clear 8 1018 39 10000 7.2 310 10:45 06.03.2022
3369 Clear 10 1018 34 10000 7.72 310 09:34 06.03.2022
3370 Clear 11 1018 30 10000 7.2 310 08:28 06.03.2022
3371 Clear 11 1017 32 10000 7.2 310 07:33 06.03.2022
3372 Clouds 9 1020 43 10000 5.66 320 03:58 06.03.2022
3373 Clouds 7 1020 45 10000 7.2 350 00:42 06.03.2022
3374 Clouds 7 1020 45 10000 7.2 350 00:23 06.03.2022
3375 Clouds 5 1020 45 10000 3.89 337 23:19 05.03.2022
3376 Clouds 6 1019 45 10000 7.2 340 22:38 05.03.2022
3377 Clouds 5 1019 61 10000 4.44 334 21:31 05.03.2022
3378 Clouds 5 1019 62 10000 4.95 333 20:39 05.03.2022
3379 Clouds 8 1018 49 10000 5.8 322 19:23 05.03.2022
3380 Clouds 8 1018 49 10000 5.8 322 18:50 05.03.2022
3381 Clouds 8 1018 49 10000 6.85 321 17:39 05.03.2022
3382 Clear 8 1018 49 10000 7 317 16:19 05.03.2022
3383 Clear 8 1018 49 10000 7.2 319 15:20 05.03.2022
3384 Clear 8 1018 49 10000 7.2 319 14:36 05.03.2022
3385 Clear 8 1015 49 10000 6.17 310 13:44 05.03.2022
3386 Clear 9 1015 53 10000 7.72 290 12:46 05.03.2022
3387 Clouds 9 1015 57 10000 6.69 300 11:21 05.03.2022
3388 Clouds 10 1014 57 10000 7.72 290 10:53 05.03.2022
3389 Clouds 11 1014 50 10000 8.23 290 09:37 05.03.2022
3390 Clear 13 1013 35 10000 8.23 300 08:31 05.03.2022
3391 Clear 15 1013 25 10000 7.72 300 07:22 05.03.2022
3392 Clear 15 1014 41 10000 8.75 310 05:39 05.03.2022
3393 Clouds 9 1014 87 10000 1.54 50 00:49 05.03.2022
3394 Clouds 8 1013 87 10000 6.17 130 22:58 04.03.2022
3395 Clouds 8 1013 87 10000 6.17 130 22:38 04.03.2022
3396 Clouds 11 1014 81 10000 3.29 247 21:43 04.03.2022
3397 Clouds 10 1014 82 10000 2.71 248 20:45 04.03.2022
3398 Clouds 7 1014 87 10000 2.48 226 19:38 04.03.2022
3399 Clouds 7 1014 87 10000 3.01 215 18:58 04.03.2022
3400 Clouds 7 1014 87 10000 3.06 216 18:35 04.03.2022
3401 Clouds 7 1015 87 10000 3.65 204 17:29 04.03.2022
3402 Clouds 7 1015 87 10000 3.69 193 15:58 04.03.2022
3403 Clouds 7 1016 87 10000 3.58 190 15:27 04.03.2022
3404 Clouds 7 1015 87 8000 3.6 120 13:36 04.03.2022
3405 Clouds 8 1015 81 9000 3.09 140 12:47 04.03.2022
3406 Clear 9 1015 81 10000 3.6 150 11:37 04.03.2022
3407 Clear 9 1015 81 10000 3.6 150 11:37 04.03.2022
3408 Clear 10 1014 66 10000 3.09 140 10:26 04.03.2022
3409 Clear 12 1015 58 10000 1.54 110 09:28 04.03.2022
3410 Rain 10 1015 81 10000 3.09 150 07:48 04.03.2022
3411 Rain 10 1016 71 10000 1.54 0 06:21 04.03.2022
3412 Clear 9 1019 76 10000 2.57 150 02:26 04.03.2022
3413 Clouds 5 1018 87 9000 3.6 120 23:41 03.03.2022
3414 Clouds 6 1018 81 10000 4.12 130 22:18 03.03.2022
3415 Clouds 5 1019 75 10000 1.36 69 21:36 03.03.2022
3416 Clear 5 1019 75 10000 1 70 20:48 03.03.2022
3417 Clear 5 1019 75 10000 1.37 26 19:29 03.03.2022
3418 Clear 5 1020 75 10000 1.17 359 18:26 03.03.2022
3419 Clear 5 1020 75 10000 1.17 359 17:31 03.03.2022
3420 Clear 5 1020 75 10000 1.33 349 16:41 03.03.2022
3421 Clear 5 1020 75 10000 1.69 338 15:44 03.03.2022
3422 Clear 5 1020 75 10000 1.62 328 14:44 03.03.2022
3423 Clear 5 1020 75 10000 1.97 336 14:26 03.03.2022
3424 Clear 8 1018 66 10000 2.57 300 12:35 03.03.2022
3425 Clear 10 1018 57 10000 4.12 290 11:26 03.03.2022
3426 Clear 11 1018 50 10000 6.17 300 10:38 03.03.2022
3427 Clouds 13 1017 41 10000 6.17 310 08:42 03.03.2022
3428 Clouds 13 1018 35 10000 5.14 290 06:57 03.03.2022
3429 Clouds 12 1019 47 10000 2.57 280 05:37 03.03.2022
3430 Clouds 4 1019 81 10000 1.54 130 23:57 02.03.2022
3431 Clouds 4 1019 78 10000 1.54 130 23:18 02.03.2022
3432 Clouds 5 1018 75 10000 1.54 30 22:42 02.03.2022
3433 Clear 8 1019 61 10000 4.33 330 21:22 02.03.2022
3434 Clear 7 1018 58 10000 4.46 325 20:26 02.03.2022
3435 Clear 8 1018 61 10000 4.46 325 19:41 02.03.2022
3436 Clear 8 1018 61 10000 4.67 324 19:23 02.03.2022
3437 Clear 8 1019 61 10000 4.62 326 18:37 02.03.2022
3438 Clear 7 1019 63 10000 4.57 319 17:45 02.03.2022
3439 Clear 7 1019 66 10000 4.3 310 16:54 02.03.2022
3440 Clear 8 1019 61 10000 4.15 305 16:18 02.03.2022
3441 Clear 8 1019 61 10000 4.16 308 14:32 02.03.2022
3442 Clouds 8 1018 61 10000 4.12 270 12:58 02.03.2022
3443 Clouds 8 1018 61 10000 4.12 270 12:35 02.03.2022
3444 Clouds 8 1017 61 10000 3.6 300 11:28 02.03.2022
3445 Clouds 8 1017 57 10000 5.66 300 10:50 02.03.2022
3446 Clouds 9 1016 53 10000 8.23 280 09:40 02.03.2022
3447 Clouds 10 1016 50 10000 6.69 290 08:44 02.03.2022
3448 Clouds 11 1016 50 10000 8.23 280 07:24 02.03.2022
3449 Clouds 12 1017 47 10000 6.69 300 05:42 02.03.2022
3450 Clouds 9 1017 71 10000 3.6 290 00:42 02.03.2022
3451 Clouds 9 1016 76 10000 7.2 300 23:40 01.03.2022
3452 Clouds 9 1016 81 10000 6.17 300 22:42 01.03.2022
3453 Clouds 9 1017 63 10000 4.95 313 21:55 01.03.2022
3454 Clouds 10 1017 87 10000 4.83 314 20:44 01.03.2022
3455 Clouds 10 1016 87 10000 4.91 311 20:22 01.03.2022
3456 Clouds 10 1017 87 10000 4.91 314 18:59 01.03.2022
3457 Clouds 10 1017 87 10000 4.92 313 18:25 01.03.2022
3458 Clouds 10 1017 87 10000 4.92 313 17:54 01.03.2022
3459 Clouds 10 1016 87 10000 4.4 312 16:39 01.03.2022
3460 Clouds 10 1017 87 10000 4.85 310 15:49 01.03.2022
3461 Clouds 10 1017 87 10000 4.5 312 14:54 01.03.2022
3462 Clouds 10 1017 87 10000 4.5 312 14:31 01.03.2022
3463 Clouds 10 1015 87 10000 5.66 280 13:26 01.03.2022
3464 Clouds 10 1014 87 10000 2.57 300 12:37 01.03.2022
3465 Clouds 11 1014 87 10000 1.03 0 11:38 01.03.2022
3466 Clouds 14 1013 77 10000 5.14 290 09:53 01.03.2022
3467 Clouds 14 1012 77 10000 5.66 310 08:30 01.03.2022
3468 Clouds 14 1012 82 10000 4.12 320 07:19 01.03.2022
3469 Clouds 15 1013 94 9000 7.2 300 03:27 01.03.2022
3470 Rain 12 1013 76 10000 6.17 120 00:48 01.03.2022
3471 Clouds 11 1013 82 10000 6.69 130 23:46 28.02.2022
3472 Clouds 10 1014 77 10000 4.63 140 22:43 28.02.2022
3473 Clouds 10 1016 66 10000 3.96 162 21:48 28.02.2022
3474 Clouds 10 1016 66 10000 4.07 164 20:54 28.02.2022
3475 Clouds 10 1017 66 10000 3.86 166 19:51 28.02.2022
3476 Clouds 10 1018 66 10000 3.76 175 18:56 28.02.2022
3477 Clouds 10 1019 66 10000 3.27 183 17:43 28.02.2022
3478 Clouds 10 1020 66 10000 2.99 182 17:23 28.02.2022
3479 Clouds 10 1021 66 10000 2.95 185 16:25 28.02.2022
3480 Clouds 10 1021 66 10000 1.61 175 14:33 28.02.2022
3481 Clear 10 1020 66 10000 1.03 90 13:56 28.02.2022
3482 Clear 10 1020 66 10000 1.03 90 13:24 28.02.2022
3483 Clear 10 1021 62 10000 2.57 250 12:25 28.02.2022
3484 Clear 11 1020 50 10000 1.03 230 11:19 28.02.2022
3485 Clear 12 1020 43 10000 3.6 240 10:23 28.02.2022
3486 Clear 13 1020 41 10000 2.57 240 09:51 28.02.2022
3487 Clear 13 1020 39 10000 2.57 240 09:23 28.02.2022
3488 Clear 13 1020 38 10000 2.06 300 08:21 28.02.2022
3489 Clear 12 1021 24 10000 2.06 10 06:31 28.02.2022
3490 Clear 11 1022 46 10000 2.57 300 04:31 28.02.2022
3491 Clear 6 1024 61 10000 1.54 120 01:24 28.02.2022
3492 Clear 2 1023 75 10000 2.06 130 22:55 27.02.2022
3493 Clear 2 1023 75 10000 2.06 130 22:32 27.02.2022
3494 Clear 7 1023 56 10000 1.98 33 21:42 27.02.2022
3495 Clear 7 1023 56 10000 2.01 34 20:50 27.02.2022
3496 Clear 7 1023 56 10000 2.02 30 20:18 27.02.2022
3497 Clear 7 1023 56 10000 2.02 30 19:49 27.02.2022
3498 Clear 7 1023 56 10000 2.07 22 19:22 27.02.2022
3499 Clear 7 1024 56 10000 2.11 38 18:37 27.02.2022
3500 Clear 7 1024 56 10000 2.61 25 17:52 27.02.2022
3501 Clear 7 1024 56 10000 2.52 14 16:30 27.02.2022
3502 Clear 7 1024 56 10000 2.85 360 15:24 27.02.2022
3503 Clear 7 1022 57 10000 4.63 330 12:37 27.02.2022
3504 Clear 9 1021 49 10000 5.66 310 11:54 27.02.2022
3505 Clear 10 1021 46 10000 5.66 300 10:37 27.02.2022
3506 Clear 12 1020 37 10000 5.14 300 09:58 27.02.2022
3507 Clear 12 1020 37 10000 5.14 300 09:24 27.02.2022
3508 Clear 13 1020 41 10000 4.63 310 08:48 27.02.2022
3509 Clear 13 1020 44 10000 4.63 310 06:30 27.02.2022
3510 Clear 12 1021 37 10000 3.6 290 04:19 27.02.2022
3511 Clouds 8 1021 57 10000 6.69 340 00:31 27.02.2022
3512 Clouds 9 1019 61 6000 8.75 300 22:48 26.02.2022
3513 Clouds 8 1019 75 10000 7.63 302 21:29 26.02.2022
3514 Clouds 8 1019 75 10000 7.63 302 20:43 26.02.2022
3515 Clouds 8 1019 75 10000 7.53 298 19:57 26.02.2022
3516 Clouds 8 1019 75 10000 7.53 298 19:33 26.02.2022
3517 Clear 8 1019 75 10000 6.84 281 18:34 26.02.2022
3518 Clear 8 1019 75 10000 6.7 274 17:37 26.02.2022
3519 Clear 8 1019 75 10000 6.92 272 16:39 26.02.2022
3520 Clear 8 1019 75 10000 6.46 264 15:42 26.02.2022
3521 Clear 8 1020 75 10000 5.74 252 15:19 26.02.2022
3522 Clear 8 1020 75 10000 5.74 252 14:44 26.02.2022
3523 Clear 8 1020 75 10000 5.36 243 14:19 26.02.2022
3524 Clouds 8 1019 76 10000 3.09 130 12:53 26.02.2022
3525 Clouds 9 1019 66 10000 2.06 150 11:53 26.02.2022
3526 Clouds 9 1019 66 10000 2.06 150 11:26 26.02.2022
3527 Clouds 11 1019 58 10000 5.14 220 10:19 26.02.2022
3528 Clouds 12 1020 47 10000 4.63 220 08:35 26.02.2022
3529 Clouds 13 1022 44 10000 1.54 240 06:40 26.02.2022
3530 Clouds 4 1025 81 10000 4.12 130 00:25 26.02.2022
3531 Clouds 2 1025 80 10000 1.54 100 22:43 25.02.2022
3532 Clear 5 1025 65 10000 0.57 30 21:33 25.02.2022
3533 Clear 5 1025 65 10000 0.55 47 20:56 25.02.2022
3534 Clear 5 1025 65 10000 0.83 39 20:27 25.02.2022
3535 Clear 5 1026 65 10000 1.52 16 18:18 25.02.2022
3536 Clear 5 1026 65 10000 2.31 7 17:20 25.02.2022
3537 Clear 5 1027 65 10000 2.48 356 16:19 25.02.2022
3538 Clear 5 1027 65 10000 2.7 350 15:24 25.02.2022
3539 Clear 5 1027 65 10000 2.7 350 15:24 25.02.2022
3540 Clear 5 1027 65 10000 2.7 350 14:56 25.02.2022
3541 Clear 5 1027 65 10000 2.7 350 14:37 25.02.2022
3542 Clear 5 1026 65 10000 2.57 320 13:30 25.02.2022
3543 Clear 6 1026 61 10000 4.12 290 12:33 25.02.2022
3544 Clouds 7 1026 57 10000 5.14 300 11:22 25.02.2022
3545 Clear 8 1025 53 10000 6.17 320 10:23 25.02.2022
3546 Clouds 9 1025 49 10000 6.17 330 09:51 25.02.2022
3547 Clouds 10 1025 43 10000 6.17 330 08:42 25.02.2022
3548 Clouds 12 1025 35 10000 5.66 320 07:35 25.02.2022
3549 Clouds 11 1027 40 10000 4.12 300 05:43 25.02.2022
3550 Clouds 7 1029 53 10000 1.03 0 02:48 25.02.2022
3551 Clouds 3 1027 87 10000 2.57 160 22:48 24.02.2022
3552 Clear 2 1027 69 10000 3.56 327 21:51 24.02.2022
3553 Clear 2 1027 69 10000 3.56 327 21:31 24.02.2022
3554 Clear 2 1027 69 10000 3.53 322 20:47 24.02.2022
3555 Clear 2 1027 69 10000 3.21 317 19:32 24.02.2022
3556 Clear 2 1027 69 10000 2.11 325 18:21 24.02.2022
3557 Clear 2 1027 69 10000 2.11 325 17:58 24.02.2022
3558 Clear 2 1027 69 10000 2.11 325 17:33 24.02.2022
3559 Clear 2 1028 69 10000 1.68 4 16:28 24.02.2022
3560 Clear 2 1028 69 10000 1.68 4 15:44 24.02.2022
3561 Clear 2 1028 69 10000 2.35 360 14:50 24.02.2022
3562 Clear 2 1028 69 10000 2.86 353 14:19 24.02.2022
3563 Clouds 2 1028 69 10000 2.06 0 13:39 24.02.2022
3564 Clouds 5 1027 56 10000 5.66 290 11:56 24.02.2022
3565 Clouds 5 1027 48 10000 7.72 310 10:34 24.02.2022
3566 Clouds 8 1026 36 10000 7.2 300 08:44 24.02.2022
3567 Clouds 8 1026 34 10000 7.2 310 07:26 24.02.2022
3568 Clouds 8 1027 29 10000 5.14 320 05:43 24.02.2022
3569 Clouds 1 1029 69 10000 2.06 140 00:32 24.02.2022
3570 Clouds -1 1028 69 10000 3.09 120 22:25 23.02.2022
3571 Clear 3 1028 69 10000 2.83 10 20:48 23.02.2022
3572 Clear 3 1028 69 10000 2.99 2 20:28 23.02.2022
3573 Clear 3 1028 69 10000 2.99 2 19:35 23.02.2022
3574 Clear 3 1028 69 10000 3.4 351 18:27 23.02.2022
3575 Clear 3 1029 69 10000 3.41 350 16:33 23.02.2022
3576 Clear 3 1029 69 10000 4.02 350 14:22 23.02.2022
3577 Clouds 4 1028 65 10000 6.17 360 12:37 23.02.2022
3578 Clouds 4 1027 60 10000 6.17 360 11:23 23.02.2022
3579 Clouds 5 1027 56 10000 6.17 350 10:23 23.02.2022
3580 Clouds 7 1026 53 10000 6.17 340 08:55 23.02.2022
3581 Clouds 7 1026 53 10000 6.17 340 07:55 23.02.2022
3582 Clouds 7 1029 53 10000 5.66 340 03:29 23.02.2022
3583 Rain 4 1029 65 10000 2.06 130 00:18 23.02.2022
3584 Rain 4 1029 58 10000 1.54 130 23:34 22.02.2022
3585 Clouds 4 1028 56 10000 1.54 130 22:28 22.02.2022
3586 Clouds 4 1028 44 10000 4.32 348 21:45 22.02.2022
3587 Rain 4 1029 44 10000 4.3 339 21:21 22.02.2022
3588 Clouds 4 1029 44 10000 4.3 339 20:43 22.02.2022
3589 Clouds 4 1029 44 10000 3.26 344 20:25 22.02.2022
3590 Clouds 4 1029 44 10000 3.26 344 19:34 22.02.2022
3591 Clouds 4 1030 44 10000 3.64 334 18:42 22.02.2022
3592 Clouds 4 1030 44 10000 1.79 10 17:35 22.02.2022
3593 Clouds 4 1030 44 10000 1.45 17 16:57 22.02.2022
3594 Clouds 4 1030 44 10000 2.22 10 16:22 22.02.2022
3595 Clouds 4 1030 44 10000 2.22 10 15:31 22.02.2022
3596 Clouds 4 1031 44 10000 2.81 3 14:37 22.02.2022
3597 Clouds 4 1029 43 10000 5.66 340 11:41 22.02.2022
3598 Clouds 6 1028 36 10000 8.23 310 09:48 22.02.2022
3599 Clouds 7 1028 33 10000 9.77 310 07:41 22.02.2022
3600 Clouds 7 1028 33 10000 9.77 310 07:23 22.02.2022
3601 Clouds 8 1030 39 10000 10.29 320 02:51 22.02.2022
3602 Clouds 5 1029 52 10000 8.75 330 23:48 21.02.2022
3603 Clouds 6 1028 49 10000 6.69 340 22:37 21.02.2022
3604 Clouds 3 1028 60 10000 6 336 21:23 21.02.2022
3605 Clouds 3 1028 60 10000 5.37 335 19:36 21.02.2022
3606 Clouds 3 1028 60 10000 4.74 334 18:39 21.02.2022
3607 Clouds 5 1029 57 10000 3.18 335 16:37 21.02.2022
3608 Clouds 4 1030 58 10000 1.76 360 14:24 21.02.2022
3609 Clouds 3 1028 54 10000 3.09 110 13:40 21.02.2022
3610 Clouds 4 1029 48 10000 2.57 340 12:57 21.02.2022
3611 Clouds 4 1029 48 10000 2.57 340 12:21 21.02.2022
3612 Clouds 4 1028 48 10000 7.2 310 10:31 21.02.2022
3613 Clouds 7 1027 36 10000 4.12 340 07:51 21.02.2022
3614 Clouds 3 1029 52 10000 8.23 10 00:36 21.02.2022
3615 Clouds 2 1027 54 10000 7.72 340 22:32 20.02.2022
3616 Clouds 2 1027 51 10000 6.43 326 21:44 20.02.2022
3617 Clouds 2 1027 51 10000 6.23 326 21:25 20.02.2022
3618 Clouds 2 1027 51 10000 6.23 326 20:43 20.02.2022
3619 Clouds 2 1026 51 10000 5.42 331 19:51 20.02.2022
3620 Clouds 2 1026 51 10000 4.74 336 18:57 20.02.2022
3621 Clouds 2 1026 51 10000 4.35 343 18:37 20.02.2022
3622 Clouds 2 1026 51 10000 4.24 349 17:56 20.02.2022
3623 Clouds 2 1026 51 10000 4.45 351 17:24 20.02.2022
3624 Clouds 2 1026 51 10000 4.45 351 17:24 20.02.2022
3625 Clouds 2 1026 51 10000 4.07 359 15:28 20.02.2022
3626 Clouds 2 1024 51 10000 2.57 50 13:59 20.02.2022
3627 Clouds 2 1024 51 10000 7.72 330 12:47 20.02.2022
3628 Clouds 2 1024 48 10000 7.72 330 11:50 20.02.2022
3629 Clouds 3 1023 52 10000 9.77 330 10:21 20.02.2022
3630 Clouds 3 1022 48 10000 8.75 320 09:24 20.02.2022
3631 Clouds 5 1021 42 10000 11.32 320 06:29 20.02.2022
3632 Clouds 3 1020 56 10000 13.89 330 00:32 20.02.2022
3633 Clouds 3 1019 60 10000 12.35 330 23:33 19.02.2022
3634 Clouds 4 1018 65 10000 12.35 330 22:24 19.02.2022
3635 Clouds 4 1020 63 10000 10.26 328 21:45 19.02.2022
3636 Clouds 7 1018 87 10000 11 327 20:26 19.02.2022
3637 Clouds 7 1018 87 10000 11 327 19:34 19.02.2022
3638 Clouds 7 1018 87 10000 9.75 323 18:39 19.02.2022
3639 Clouds 7 1017 87 10000 7.4 330 17:57 19.02.2022
3640 Clouds 7 1017 87 10000 5.95 334 16:47 19.02.2022
3641 Clouds 7 1018 87 10000 5.4 326 15:59 19.02.2022
3642 Clouds 7 1018 87 10000 5.23 328 14:53 19.02.2022
3643 Clouds 7 1017 87 10000 3.09 280 13:55 19.02.2022
3644 Clouds 7 1017 87 10000 6.17 360 11:42 19.02.2022
3645 Clouds 8 1017 81 10000 6.69 10 10:45 19.02.2022
3646 Clouds 8 1017 87 10000 5.14 10 08:54 19.02.2022
3647 Rain 7 1017 93 10000 6.69 360 06:45 19.02.2022
3648 Rain 5 1020 93 8000 5.66 360 00:23 19.02.2022
3649 Rain 5 1021 93 10000 7.72 360 22:24 18.02.2022
3650 Rain 5 1021 70 10000 4.06 27 21:18 18.02.2022
3651 Rain 5 1021 70 10000 3.17 31 19:56 18.02.2022
3652 Rain 5 1022 70 10000 2.45 44 18:51 18.02.2022
3653 Rain 5 1023 70 10000 2.38 65 18:25 18.02.2022
3654 Rain 5 1023 70 10000 2.38 65 17:56 18.02.2022
3655 Rain 5 1024 70 10000 2.05 108 15:35 18.02.2022
3656 Rain 6 1024 70 10000 2.06 130 13:56 18.02.2022
3657 Clear 6 1024 70 10000 2.06 130 13:28 18.02.2022
3658 Clear 7 1023 57 10000 1.54 110 12:42 18.02.2022
3659 Clear 7 1023 53 10000 1.54 320 11:55 18.02.2022
3660 Clear 8 1023 49 10000 2.06 340 10:42 18.02.2022
3661 Clouds 9 1025 37 10000 3.09 250 06:58 18.02.2022
3662 Clouds 8 1026 38 10000 4.12 290 05:42 18.02.2022
3663 Clouds 0 1028 80 10000 1.03 130 23:53 17.02.2022
3664 Clouds 3 1028 62 10000 6.28 48 21:50 17.02.2022
3665 Clouds 3 1027 62 10000 5.71 51 21:26 17.02.2022
3666 Clouds 0 1027 50 10000 5.71 51 20:40 17.02.2022
3667 Clouds 0 1027 50 10000 5.83 46 19:52 17.02.2022
3668 Clouds 0 1027 50 10000 6.52 41 18:54 17.02.2022
3669 Clouds 0 1028 50 10000 4.93 42 17:55 17.02.2022
3670 Clouds 2 1027 57 10000 5.56 41 16:43 17.02.2022
3671 Clouds 0 1027 50 10000 5.02 48 15:40 17.02.2022
3672 Clouds 0 1027 50 10000 5.42 38 14:28 17.02.2022
3673 Clouds 1 1025 55 10000 8.23 20 12:50 17.02.2022
3674 Clouds 2 1025 48 10000 7.72 20 11:27 17.02.2022
3675 Clouds 4 1023 35 10000 6.17 350 09:30 17.02.2022
3676 Clouds 5 1024 38 10000 6.17 340 04:41 17.02.2022
3677 Clouds 1 1023 51 10000 9.26 330 23:21 16.02.2022
3678 Clouds 4 1023 51 10000 8.47 334 21:45 16.02.2022
3679 Clouds 4 1023 51 10000 8.51 328 19:57 16.02.2022
3680 Clouds 4 1023 51 10000 8.46 327 18:43 16.02.2022
3681 Clouds 4 1023 51 10000 8.09 329 17:53 16.02.2022
3682 Clouds 4 1023 51 10000 8.28 327 15:40 16.02.2022
3683 Clouds 4 1023 51 10000 8.43 324 15:19 16.02.2022
3684 Clouds 4 1021 52 10000 9.77 300 13:31 16.02.2022
3685 Clouds 4 1020 52 10000 9.77 300 12:20 16.02.2022
3686 Clouds 5 1020 52 10000 10.8 300 11:28 16.02.2022
3687 Clouds 5 1020 52 10000 10.29 300 10:34 16.02.2022
3688 Clouds 5 1020 54 10000 11.83 310 08:20 16.02.2022
3689 Clouds 5 1020 60 10000 8.23 320 06:29 16.02.2022
3690 Clouds 3 1021 65 10000 8.75 340 23:45 15.02.2022
3691 Clouds 5 1021 56 10000 10.29 320 22:30 15.02.2022
3692 Rain 5 1022 52 10000 7.69 325 21:47 15.02.2022
3693 Clouds 5 1021 52 10000 7.31 325 21:27 15.02.2022
3694 Clouds 5 1021 52 10000 7.31 325 20:56 15.02.2022
3695 Clouds 5 1021 52 10000 7.21 324 19:57 15.02.2022
3696 Clear 5 1021 52 10000 7.14 325 18:56 15.02.2022
3697 Clear 5 1022 52 10000 7.35 325 18:22 15.02.2022
3698 Clear 5 1022 52 10000 7.35 325 17:50 15.02.2022
3699 Clear 5 1021 52 10000 7.37 325 16:50 15.02.2022
3700 Clear 5 1021 52 10000 8.09 317 15:28 15.02.2022
3701 Clouds 6 1020 52 10000 9.26 290 13:27 15.02.2022
3702 Clouds 6 1020 56 10000 7.72 290 12:37 15.02.2022
3703 Clouds 6 1019 61 10000 7.72 290 11:40 15.02.2022
3704 Clouds 8 1018 53 10000 7.2 310 09:31 15.02.2022
3705 Clouds 10 1018 46 10000 8.75 310 06:58 15.02.2022
3706 Clouds 9 1020 57 10000 7.2 310 04:54 15.02.2022
3707 Clouds 9 1019 71 10000 8.23 300 23:33 14.02.2022
3708 Clouds 8 1020 70 10000 6.35 315 21:47 14.02.2022
3709 Clouds 8 1019 70 10000 5.55 314 20:40 14.02.2022
3710 Clouds 8 1019 70 10000 4.73 313 19:36 14.02.2022
3711 Clouds 8 1019 70 10000 4.49 309 18:44 14.02.2022
3712 Clouds 8 1019 70 10000 4.42 311 18:22 14.02.2022
3713 Clouds 8 1019 70 10000 2.98 312 17:26 14.02.2022
3714 Clear 8 1020 70 10000 2.98 325 16:24 14.02.2022
3715 Clear 8 1019 70 10000 2.38 355 14:29 14.02.2022
3716 Clear 8 1019 71 10000 2.57 10 13:31 14.02.2022
3717 Clear 10 1018 53 10000 1.54 30 12:48 14.02.2022
3718 Clear 10 1018 53 10000 3.6 10 11:54 14.02.2022
3719 Clouds 10 1017 66 10000 5.66 330 10:44 14.02.2022
3720 Clouds 15 1016 38 10000 3.6 330 08:45 14.02.2022
3721 Clouds 15 1015 41 10000 5.14 350 07:31 14.02.2022
3722 Clouds 10 1017 50 10000 5.14 20 01:18 14.02.2022
3723 Rain 9 1016 53 10000 5.66 20 22:42 13.02.2022
3724 Rain 9 1016 53 10000 5.66 20 22:24 13.02.2022
3725 Clouds 9 1016 76 10000 4.86 31 21:32 13.02.2022
3726 Rain 9 1016 76 10000 3.53 39 20:35 13.02.2022
3727 Clouds 9 1016 76 10000 3.46 25 19:31 13.02.2022
3728 Rain 9 1016 76 10000 3.59 15 18:46 13.02.2022
3729 Rain 9 1017 76 10000 3.32 4 18:26 13.02.2022
3730 Rain 9 1016 76 10000 3.43 15 15:54 13.02.2022
3731 Rain 9 1017 76 10000 3.6 5 15:24 13.02.2022
3732 Rain 9 1017 76 10000 3.46 15 14:22 13.02.2022
3733 Rain 9 1016 76 10000 5.14 350 12:51 13.02.2022
3734 Rain 9 1015 81 10000 5.66 360 11:44 13.02.2022
3735 Clouds 10 1014 76 10000 5.66 10 10:33 13.02.2022
3736 Clouds 10 1014 81 10000 7.72 10 09:45 13.02.2022
3737 Clouds 12 1014 71 10000 5.66 350 07:48 13.02.2022
3738 Mist 7 1016 96 4500 2.06 30 00:35 13.02.2022
3739 Mist 7 1016 100 4000 1.03 0 23:42 12.02.2022
3740 Clouds 8 1016 93 6000 3.09 100 22:33 12.02.2022
3741 Clouds 9 1017 92 10000 3.46 28 21:30 12.02.2022
3742 Clouds 10 1017 76 7413 3.6 13 20:45 12.02.2022
3743 Clouds 10 1017 76 10000 4.31 33 19:30 12.02.2022
3744 Clouds 10 1018 76 10000 3.3 29 18:53 12.02.2022
3745 Clouds 9 1018 86 10000 3.3 29 18:35 12.02.2022
3746 Clouds 10 1019 76 10000 3.43 23 17:19 12.02.2022
3747 Clouds 10 1020 76 10000 2.49 18 16:26 12.02.2022
3748 Clouds 10 1020 76 10000 2.49 18 15:51 12.02.2022
3749 Clouds 10 1020 76 10000 2.49 18 15:51 12.02.2022
3750 Clouds 10 1020 76 10000 2.98 28 14:31 12.02.2022
3751 Clouds 10 1020 71 10000 1.54 300 13:22 12.02.2022
3752 Clouds 11 1020 50 10000 0.51 0 10:42 12.02.2022
3753 Clouds 11 1019 54 10000 2.06 180 09:49 12.02.2022
3754 Clouds 11 1019 54 10000 2.06 180 09:26 12.02.2022
3755 Clouds 12 1020 54 10000 3.09 190 08:44 12.02.2022
3756 Clouds 11 1021 43 10000 1.54 290 05:40 12.02.2022
3757 Clouds 10 1022 50 10000 2.57 300 04:30 12.02.2022
3758 Clouds 8 1023 61 10000 2.57 130 02:18 12.02.2022
3759 Clear 6 1022 75 10000 1.54 110 22:37 11.02.2022
3760 Clouds 8 1023 52 10000 2.09 39 22:18 11.02.2022
3761 Clouds 8 1023 52 10000 2.61 39 20:41 11.02.2022
3762 Clouds 8 1022 52 10000 2.6 32 19:47 11.02.2022
3763 Clouds 8 1023 52 10000 2.86 15 19:27 11.02.2022
3764 Clouds 8 1023 52 10000 2.62 39 17:59 11.02.2022
3765 Clouds 8 1023 52 10000 3.08 40 17:26 11.02.2022
3766 Clouds 8 1023 52 10000 3.5 44 16:23 11.02.2022
3767 Clouds 8 1023 52 10000 4.31 43 14:43 11.02.2022
3768 Clouds 8 1023 52 10000 5.1 40 14:21 11.02.2022
3769 Clear 8 1023 53 10000 3.09 70 13:59 11.02.2022
3770 Clear 8 1023 53 10000 3.09 70 13:39 11.02.2022
3771 Clouds 9 1022 57 10000 4.12 30 11:47 11.02.2022
3772 Clouds 12 1022 47 10000 3.6 360 09:59 11.02.2022
3773 Clouds 13 1022 44 10000 4.12 350 08:49 11.02.2022
3774 Clouds 13 1022 44 10000 4.12 350 08:27 11.02.2022
3775 Clouds 13 1021 47 10000 4.63 10 07:18 11.02.2022
3776 Clouds 7 1024 87 10000 1.03 250 02:26 11.02.2022
3777 Clouds 5 1023 93 10000 1.03 0 00:52 11.02.2022
3778 Clear 3 1022 93 10000 1.54 90 22:51 10.02.2022
3779 Clouds 8 1022 65 10000 2.71 23 21:46 10.02.2022
3780 Clouds 8 1022 65 10000 2.91 20 20:59 10.02.2022
3781 Clouds 8 1022 65 10000 2.91 20 20:35 10.02.2022
3782 Clouds 8 1021 65 10000 2.77 21 19:26 10.02.2022
3783 Clouds 8 1021 65 10000 3.14 20 18:45 10.02.2022
3784 Clouds 8 1021 65 10000 2.54 16 17:26 10.02.2022
3785 Clouds 8 1021 65 10000 2.54 16 16:50 10.02.2022
3786 Clouds 8 1021 65 10000 2.6 14 15:49 10.02.2022
3787 Clouds 8 1022 65 10000 2.79 10 15:29 10.02.2022
3788 Clouds 8 1022 65 10000 2.79 10 14:47 10.02.2022
3789 Clouds 8 1022 65 10000 3.22 7 14:23 10.02.2022
3790 Clouds 8 1020 66 10000 4.12 360 13:26 10.02.2022
3791 Clouds 9 1020 66 10000 3.6 350 12:27 10.02.2022
3792 Clouds 9 1020 66 10000 4.12 350 11:33 10.02.2022
3793 Clouds 10 1019 57 10000 4.63 360 10:44 10.02.2022
3794 Clouds 10 1019 62 10000 5.14 360 09:50 10.02.2022
3795 Clouds 10 1019 62 10000 5.14 360 09:18 10.02.2022
3796 Clouds 11 1018 66 10000 7.2 340 06:50 10.02.2022
3797 Clouds 10 1019 71 10000 4.12 360 03:55 10.02.2022
3798 Clouds 8 1019 76 10000 5.66 10 01:43 10.02.2022
3799 Clouds 8 1019 81 10000 5.14 10 00:42 10.02.2022
3800 Clouds 8 1019 81 10000 5.14 10 00:24 10.02.2022
3801 Clouds 7 1018 76 10000 4.63 360 22:58 09.02.2022
3802 Clouds 7 1018 76 10000 4.63 360 22:33 09.02.2022
3803 Clouds 8 1019 61 10000 2.48 17 21:49 09.02.2022
3804 Clouds 8 1019 61 10000 1.97 22 21:28 09.02.2022
3805 Clouds 8 1019 61 10000 1.97 22 20:47 09.02.2022
3806 Clouds 8 1019 61 10000 2.03 20 20:23 09.02.2022
3807 Clouds 8 1019 61 10000 2.03 20 19:43 09.02.2022
3808 Clouds 8 1019 61 10000 2.19 23 18:55 09.02.2022
3809 Clouds 8 1020 61 10000 1.86 27 17:24 09.02.2022
3810 Clouds 8 1021 61 10000 1.47 19 16:26 09.02.2022
3811 Clouds 8 1021 61 10000 1.47 19 15:32 09.02.2022
3812 Rain 8 1020 61 10000 1.03 80 13:56 09.02.2022
3813 Rain 8 1019 66 10000 2.57 40 12:25 09.02.2022
3814 Clouds 8 1019 49 10000 0.51 330 10:37 09.02.2022
3815 Clouds 11 1019 40 10000 1.54 230 09:56 09.02.2022
3816 Clouds 11 1019 40 10000 1.54 230 09:22 09.02.2022
3817 Clouds 12 1019 40 10000 3.09 180 08:51 09.02.2022
3818 Clouds 11 1019 37 10000 2.57 210 06:56 09.02.2022
3819 Clouds 10 1022 40 10000 1.03 220 04:36 09.02.2022
3820 Clouds 10 1023 46 10000 3.09 220 03:49 09.02.2022
3821 Clouds 2 1023 87 10000 2.06 30 23:57 08.02.2022
3822 Clouds 2 1023 87 10000 2.06 30 23:19 08.02.2022
3823 Clear 4 1023 81 10000 2.57 100 22:39 08.02.2022
3824 Clear 4 1023 81 10000 2.57 100 22:20 08.02.2022
3825 Clouds 5 1023 75 10000 4.16 24 21:22 08.02.2022
3826 Clouds 5 1023 75 10000 4.16 24 20:59 08.02.2022
3827 Clouds 5 1023 75 10000 4.16 24 20:38 08.02.2022
3828 Clouds 5 1023 75 10000 4.06 17 19:31 08.02.2022
3829 Clouds 5 1023 75 10000 4.47 21 18:24 08.02.2022
3830 Clouds 5 1023 75 10000 4.47 21 17:30 08.02.2022
3831 Clouds 5 1024 75 10000 4.69 21 15:47 08.02.2022
3832 Clear 5 1024 75 10000 4.67 25 15:27 08.02.2022
3833 Clouds 6 1023 75 10000 3.6 30 13:50 08.02.2022
3834 Clouds 7 1023 70 10000 5.14 10 12:24 08.02.2022
3835 Clouds 8 1022 66 10000 8.23 360 10:52 08.02.2022
3836 Clouds 9 1022 53 10000 6.17 10 09:49 08.02.2022
3837 Clouds 10 1022 53 10000 8.23 340 08:53 08.02.2022
3838 Clouds 9 1022 57 10000 2.57 300 06:49 08.02.2022
3839 Clouds 8 1023 66 10000 4.63 300 04:40 08.02.2022
3840 Clouds 8 1023 66 10000 4.63 300 04:22 08.02.2022
3841 Clouds 8 1023 61 10000 4.63 340 03:36 08.02.2022
3842 Clouds 8 1023 61 10000 4.63 340 03:18 08.02.2022
3843 Clouds 6 1023 70 10000 2.57 260 02:59 08.02.2022
3844 Clouds 6 1023 70 10000 2.57 260 02:36 08.02.2022
3845 Clouds 5 1023 75 10000 2.57 260 02:18 08.02.2022
3846 Clouds 5 1023 81 10000 2.57 130 01:44 08.02.2022
3847 Clouds 5 1023 81 10000 2.57 130 01:25 08.02.2022
3848 Clouds 4 1023 81 10000 4.12 130 00:55 08.02.2022
3849 Clouds 4 1023 81 10000 4.12 130 00:21 08.02.2022
3850 Clouds 5 1023 75 10000 3.6 120 23:44 07.02.2022
3851 Clouds 5 1023 75 10000 3.6 120 23:18 07.02.2022
3852 Clouds 5 1023 65 10000 1.03 0 22:59 07.02.2022
3853 Clouds 5 1023 65 10000 1.03 0 22:19 07.02.2022
3854 Clouds 5 1024 60 10000 2.21 18 21:50 07.02.2022
3855 Rain 5 1023 60 10000 1.92 24 21:27 07.02.2022
3856 Clouds 5 1023 60 10000 1.92 24 20:45 07.02.2022
3857 Rain 5 1023 60 10000 1.08 22 20:27 07.02.2022
3858 Rain 5 1023 60 10000 1.08 22 19:47 07.02.2022
3859 Clouds 5 1023 60 10000 1.35 112 18:35 07.02.2022
3860 Rain 5 1025 60 10000 1.5 168 17:18 07.02.2022
3861 Clouds 5 1025 60 10000 1.5 168 16:46 07.02.2022
3862 Rain 5 1024 60 10000 0.55 34 15:48 07.02.2022
3863 Rain 6 1023 61 10000 5.14 20 13:51 07.02.2022
3864 Rain 6 1023 61 10000 5.14 20 13:26 07.02.2022
3865 Clear 7 1023 53 10000 3.6 350 11:58 07.02.2022
3866 Clear 7 1023 53 10000 3.6 350 11:38 07.02.2022
3867 Clouds 7 1023 53 10000 3.6 330 10:54 07.02.2022
3868 Clouds 7 1023 53 10000 3.6 330 10:36 07.02.2022
3869 Clouds 7 1024 53 10000 1.03 0 09:53 07.02.2022
3870 Clouds 7 1024 53 10000 1.03 0 09:18 07.02.2022
3871 Clouds 8 1023 49 10000 3.09 350 08:44 07.02.2022
3872 Clouds 8 1023 49 10000 3.09 330 07:34 07.02.2022
3873 Clouds 8 1024 49 10000 2.57 340 06:34 07.02.2022
3874 Clouds 7 1026 48 10000 0.87 10 04:18 07.02.2022
3875 Clouds 6 1027 61 10000 1.54 130 01:29 07.02.2022
3876 Clouds 5 1026 70 10000 1.54 80 23:50 06.02.2022
3877 Clouds 5 1026 70 10000 1.54 80 23:19 06.02.2022
3878 Clouds 4 1025 60 10000 3.6 350 22:38 06.02.2022
3879 Clouds 4 1026 55 10000 2.99 333 21:37 06.02.2022
3880 Clouds 4 1025 55 10000 3.55 340 20:58 06.02.2022
3881 Clouds 4 1025 55 10000 3.55 340 20:37 06.02.2022
3882 Clouds 4 1026 55 10000 3.85 331 19:50 06.02.2022
3883 Clouds 4 1026 55 10000 3.21 342 18:52 06.02.2022
3884 Clouds 4 1026 55 10000 3.37 351 18:26 06.02.2022
3885 Clouds 4 1027 55 10000 2.86 341 17:29 06.02.2022
3886 Clouds 4 1027 55 10000 2.86 341 16:50 06.02.2022
3887 Clouds 4 1027 55 10000 2.76 339 15:50 06.02.2022
3888 Clouds 4 1027 55 10000 2.73 345 15:28 06.02.2022
3889 Clouds 4 1027 55 10000 2.73 345 14:52 06.02.2022
3890 Clouds 4 1026 56 10000 4.12 350 13:53 06.02.2022
3891 Clouds 4 1026 56 10000 4.12 350 13:20 06.02.2022
3892 Clouds 4 1025 56 10000 6.17 340 11:44 06.02.2022
3893 Clouds 4 1025 52 10000 7.2 330 10:33 06.02.2022
3894 Clouds 5 1025 48 10000 8.23 330 09:29 06.02.2022
3895 Clouds 5 1026 42 10000 8.23 310 08:41 06.02.2022
3896 Clouds 6 1026 39 10000 8.23 320 06:19 06.02.2022
3897 Clouds 6 1027 33 10000 8.23 340 04:51 06.02.2022
3898 Clouds 6 1028 42 10000 8.23 330 02:25 06.02.2022
3899 Clouds 3 1027 53 10000 10.8 330 00:30 06.02.2022
3900 Clouds 3 1027 56 10000 10.29 330 23:25 05.02.2022
3901 Clouds 4 1026 55 10000 8.15 330 21:38 05.02.2022
3902 Clouds 4 1026 55 10000 8.24 325 20:25 05.02.2022
3903 Clouds 4 1026 55 10000 8.24 325 19:51 05.02.2022
3904 Clouds 4 1026 55 10000 8.23 325 19:33 05.02.2022
3905 Clouds 4 1026 55 10000 8.33 324 18:26 05.02.2022
3906 Clouds 4 1026 55 10000 8.33 324 17:33 05.02.2022
3907 Clouds 4 1025 55 10000 8.35 324 15:43 05.02.2022
3908 Clouds 4 1025 55 10000 7.63 324 15:25 05.02.2022
3909 Clouds 4 1024 54 10000 10.29 330 13:22 05.02.2022
3910 Clouds 4 1024 53 10000 8.23 320 12:42 05.02.2022
3911 Clouds 4 1024 48 10000 10.29 310 10:57 05.02.2022
3912 Clouds 4 1024 48 10000 10.29 310 10:38 05.02.2022
3913 Clouds 4 1023 52 10000 11.83 320 09:47 05.02.2022
3914 Clouds 4 1023 54 10000 11.83 320 08:20 05.02.2022
3915 Clouds 5 1022 56 10000 9.77 330 06:58 05.02.2022
3916 Clouds 6 1023 45 10000 8.23 320 04:55 05.02.2022
3917 Clouds 5 1024 56 10000 8.75 330 01:19 05.02.2022
3918 Clouds 4 1023 48 10000 10.8 310 00:53 05.02.2022
3919 Clouds 4 1023 52 10000 10.29 320 23:58 04.02.2022
3920 Clouds 4 1023 52 10000 10.29 320 23:30 04.02.2022
3921 Clouds 5 1023 48 10000 7.69 325 21:59 04.02.2022
3922 Clouds 5 1023 48 10000 7.69 325 21:36 04.02.2022
3923 Clouds 5 1023 48 10000 8.24 326 21:18 04.02.2022
3924 Clouds 5 1023 48 10000 9.01 324 20:20 04.02.2022
3925 Clouds 5 1023 48 10000 8.61 324 17:45 04.02.2022
3926 Clouds 5 1023 48 10000 8.33 322 15:55 04.02.2022
3927 Clouds 5 1023 48 10000 8.33 322 15:55 04.02.2022
3928 Clouds 5 1023 48 10000 7.79 323 14:55 04.02.2022
3929 Clouds 6 1022 49 10000 9.77 310 13:39 04.02.2022
3930 Clouds 6 1021 49 10000 8.23 320 12:43 04.02.2022
3931 Clouds 5 1021 56 10000 6.17 330 11:42 04.02.2022
3932 Clouds 5 1021 56 10000 6.17 330 11:42 04.02.2022
3933 Clouds 6 1022 52 10000 8.75 330 10:36 04.02.2022
3934 Clouds 7 1021 45 10000 8.75 320 08:42 04.02.2022
3935 Clouds 9 1020 40 10000 8.75 310 06:57 04.02.2022
3936 Clouds 8 1022 42 10000 6.17 350 02:46 04.02.2022
3937 Clouds 6 1022 65 10000 5.66 340 01:52 04.02.2022
3938 Clouds 3 1021 81 10000 2.06 120 23:29 03.02.2022
3939 Clouds 4 1020 67 10000 1.54 10 22:40 03.02.2022
3940 Clouds 5 1021 52 10000 3.44 9 21:49 03.02.2022
3941 Clouds 5 1021 52 10000 3.33 2 20:39 03.02.2022
3942 Clouds 5 1021 52 10000 3.11 9 20:18 03.02.2022
3943 Clouds 5 1021 52 10000 3.11 9 19:32 03.02.2022
3944 Clouds 5 1021 52 10000 3.21 360 18:38 03.02.2022
3945 Clouds 5 1022 52 10000 3.29 5 17:32 03.02.2022
3946 Clouds 5 1022 52 10000 3.38 14 16:26 03.02.2022
3947 Clouds 5 1022 52 10000 3.66 12 14:45 03.02.2022
3948 Clear 6 1022 56 10000 5.14 10 12:52 03.02.2022
3949 Clear 6 1021 52 10000 5.14 10 11:22 03.02.2022
3950 Clouds 8 1021 40 10000 6.69 360 08:37 03.02.2022
3951 Rain 9 1021 46 10000 4.63 350 05:26 03.02.2022
3952 Rain 5 1024 81 10000 1.54 110 00:32 03.02.2022
3953 Clouds 5 1023 81 10000 2.57 140 23:39 02.02.2022
3954 Clouds 5 1024 64 10000 2.71 20 21:55 02.02.2022
3955 Clouds 5 1024 64 10000 2.71 20 21:31 02.02.2022
3956 Clouds 5 1024 63 10000 2.93 356 20:49 02.02.2022
3957 Clouds 5 1024 63 10000 2.95 345 19:58 02.02.2022
3958 Rain 5 1024 63 10000 3.13 348 19:27 02.02.2022
3959 Rain 5 1024 65 10000 2.91 353 18:45 02.02.2022
3960 Clouds 5 1024 65 10000 2.96 354 17:56 02.02.2022
3961 Clouds 5 1025 65 10000 3.43 347 17:19 02.02.2022
3962 Clouds 6 1025 65 10000 3.43 347 16:41 02.02.2022
3963 Clouds 5 1024 65 10000 3.6 340 12:57 02.02.2022
3964 Clouds 5 1024 65 10000 3.6 340 12:20 02.02.2022
3965 Clouds 6 1024 65 10000 4.12 340 11:33 02.02.2022
3966 Clouds 8 1024 61 10000 6.69 320 09:47 02.02.2022
3967 Clouds 8 1024 59 10000 5.14 300 07:33 02.02.2022
3968 Clouds 1 1026 86 10000 1.54 130 22:51 01.02.2022
3969 Clear 4 1026 57 10000 1.57 10 21:40 01.02.2022
3970 Clear 5 1026 56 10000 2.07 4 19:58 01.02.2022
3971 Clouds 5 1026 56 10000 3.29 359 17:41 01.02.2022
3972 Clouds 5 1026 56 10000 3.74 350 16:36 01.02.2022
3973 Clouds 6 1025 56 10000 7.2 320 13:56 01.02.2022
3974 Clouds 7 1025 57 10000 7.72 320 12:42 01.02.2022
3975 Clouds 7 1024 53 10000 9.77 310 11:19 01.02.2022
3976 Clouds 8 1024 71 10000 4.12 330 02:32 01.02.2022
3977 Clouds 5 1023 75 10000 3.09 140 23:41 31.01.2022
3978 Clouds 4 1023 81 10000 3.6 130 22:57 31.01.2022
3979 Clouds 4 1024 69 10000 2.89 313 21:39 31.01.2022
3980 Clouds 4 1024 69 10000 3.38 319 20:50 31.01.2022
3981 Clouds 4 1024 69 10000 3.29 319 20:27 31.01.2022
3982 Clouds 4 1024 69 10000 3.03 322 19:20 31.01.2022
3983 Clouds 4 1024 69 10000 2.66 318 18:25 31.01.2022
3984 Clouds 4 1024 69 10000 2.25 320 17:26 31.01.2022
3985 Clouds 4 1024 69 10000 2.45 326 16:26 31.01.2022
3986 Clouds 4 1024 69 10000 2.6 327 14:54 31.01.2022
3987 Clear 4 1024 70 10000 2.06 10 13:51 31.01.2022
3988 Clear 5 1023 65 10000 3.09 30 12:38 31.01.2022
3989 Clear 7 1023 57 10000 6.17 310 11:42 31.01.2022
3990 Clear 7 1022 53 10000 5.14 300 10:49 31.01.2022
3991 Clear 9 1022 43 10000 5.66 310 09:45 31.01.2022
3992 Clouds 10 1021 37 10000 7.2 310 08:58 31.01.2022
3993 Clouds 10 1021 37 10000 7.2 310 08:38 31.01.2022
3994 Clouds 10 1021 34 10000 7.2 310 08:19 31.01.2022
3995 Clouds 10 1021 34 10000 4.12 310 06:18 31.01.2022
3996 Clouds 4 1021 81 10000 1.54 130 00:44 31.01.2022
3997 Clouds 1 1020 69 10000 1.54 90 22:38 30.01.2022
3998 Clear 7 1020 55 10000 3.5 346 22:20 30.01.2022
3999 Clear 5 1020 55 10000 3.5 346 21:38 30.01.2022
4000 Clear 5 1020 57 10000 3.49 340 21:18 30.01.2022
4001 Clear 5 1020 57 10000 3.49 340 20:45 30.01.2022
4002 Clear 5 1020 55 10000 3.66 334 20:26 30.01.2022
4003 Clouds 7 1020 54 10000 4.02 333 19:24 30.01.2022
4004 Clouds 7 1020 54 10000 4.02 333 18:35 30.01.2022
4005 Clouds 7 1020 55 10000 4.14 340 17:53 30.01.2022
4006 Clouds 7 1020 57 10000 4.56 337 17:20 30.01.2022
4007 Clouds 7 1020 57 10000 4.56 337 16:37 30.01.2022
4008 Clouds 7 1020 59 10000 4.93 330 16:19 30.01.2022
4009 Clouds 7 1020 59 10000 4.93 330 15:48 30.01.2022
4010 Clouds 7 1020 59 10000 4.93 330 15:30 30.01.2022
4011 Clouds 7 1020 64 10000 5.15 328 14:45 30.01.2022
4012 Clouds 8 1017 53 10000 7.72 330 12:46 30.01.2022
4013 Clouds 8 1017 57 10000 7.72 320 11:53 30.01.2022
4014 Clouds 8 1016 57 10000 7.72 340 10:27 30.01.2022
4015 Clouds 10 1015 43 10000 6.69 350 09:48 30.01.2022
4016 Clouds 11 1015 43 10000 5.66 350 08:48 30.01.2022
4017 Clouds 10 1015 46 10000 2.57 300 05:30 30.01.2022
4018 Clouds 7 1016 61 10000 1.03 0 01:55 30.01.2022
4019 Clear 6 1016 70 10000 2.57 360 00:19 30.01.2022
4020 Clear 6 1015 61 10000 3.6 20 22:58 29.01.2022
4021 Clouds 7 1015 56 10000 3.52 21 21:46 29.01.2022
4022 Clouds 7 1015 56 10000 3.3 22 21:22 29.01.2022
4023 Clouds 7 1016 56 10000 2.99 28 20:22 29.01.2022
4024 Clouds 7 1016 56 10000 2.99 28 19:33 29.01.2022
4025 Clouds 7 1016 56 10000 3.05 12 18:51 29.01.2022
4026 Clouds 7 1017 56 10000 3.32 358 18:18 29.01.2022
4027 Clouds 7 1017 56 10000 3.43 360 17:27 29.01.2022
4028 Clouds 7 1016 56 10000 3.32 13 15:42 29.01.2022
4029 Clear 7 1017 57 10000 4.12 10 13:58 29.01.2022
4030 Clear 7 1017 57 10000 4.12 10 13:37 29.01.2022
4031 Clear 7 1017 57 10000 4.12 10 13:18 29.01.2022
4032 Clear 8 1016 53 10000 6.17 350 11:40 29.01.2022
4033 Clear 8 1015 46 10000 7.2 320 10:38 29.01.2022
4034 Clouds 10 1015 37 10000 5.66 310 08:36 29.01.2022
4035 Clouds 9 1017 57 10000 2.57 340 03:25 29.01.2022
4036 Clouds 6 1018 75 10000 1.03 0 00:32 29.01.2022
4037 Clouds 6 1017 75 10000 2.06 110 23:32 28.01.2022
4038 Clouds 6 1017 75 10000 2.06 110 23:32 28.01.2022
4039 Clouds 6 1018 81 10000 1.03 140 22:47 28.01.2022
4040 Clouds 8 1018 45 10000 2.78 341 22:19 28.01.2022
4041 Clouds 8 1018 45 10000 2.48 340 20:41 28.01.2022
4042 Clouds 8 1018 45 10000 2.95 344 19:58 28.01.2022
4043 Clouds 8 1018 45 10000 3.01 339 18:52 28.01.2022
4044 Clouds 8 1018 45 10000 3.01 339 18:34 28.01.2022
4045 Clouds 8 1019 45 10000 2.7 354 16:23 28.01.2022
4046 Clouds 8 1019 45 10000 2.7 355 14:54 28.01.2022
4047 Clear 8 1019 46 10000 3.09 50 13:21 28.01.2022
4048 Clear 8 1019 46 10000 7.2 340 11:50 28.01.2022
4049 Clouds 9 1018 53 10000 6.69 350 10:27 28.01.2022
4050 Clouds 10 1018 46 10000 7.2 310 09:46 28.01.2022
4051 Clouds 12 1018 47 10000 6.69 320 07:41 28.01.2022
4052 Clouds 12 1018 54 10000 3.09 300 05:31 28.01.2022
4053 Clouds 9 1021 66 8000 2.06 260 03:51 28.01.2022
4054 Clouds 8 1021 87 6000 2.06 260 02:25 28.01.2022
4055 Clouds 7 1020 87 6000 0.51 0 01:37 28.01.2022
4056 Clouds 5 1021 87 6000 2.57 50 00:42 28.01.2022
4057 Clouds 7 1020 81 10000 2.65 350 22:20 27.01.2022
4058 Clouds 7 1020 81 10000 2.65 350 21:34 27.01.2022
4059 Clouds 7 1020 81 10000 2.54 353 20:59 27.01.2022
4060 Clouds 7 1020 81 10000 2.81 341 19:37 27.01.2022
4061 Clouds 7 1020 81 10000 2.83 348 18:18 27.01.2022
4062 Clouds 7 1020 81 10000 3.02 347 16:45 27.01.2022
4063 Clear 7 1020 81 10000 1.54 130 13:57 27.01.2022
4064 Clear 8 1020 71 10000 1.54 50 12:48 27.01.2022
4065 Clear 9 1020 71 10000 2.57 50 11:24 27.01.2022
4066 Clouds 11 1019 58 10000 1.54 230 09:47 27.01.2022
4067 Clouds 11 1019 54 10000 1.03 0 08:40 27.01.2022
4068 Clouds 11 1019 54 10000 2.06 30 07:23 27.01.2022
4069 Rain 8 1021 71 10000 1.03 0 02:59 27.01.2022
4070 Clear 7 1022 81 10000 1.03 120 00:23 27.01.2022
4071 Clouds 7 1021 76 10000 1.03 0 22:27 26.01.2022
4072 Clouds 7 1022 75 10000 2.28 0 21:42 26.01.2022
4073 Rain 7 1022 75 10000 2.29 7 20:42 26.01.2022
4074 Clouds 7 1022 75 10000 1.93 17 20:24 26.01.2022
4075 Clouds 7 1022 75 10000 1.73 352 19:28 26.01.2022
4076 Clouds 7 1022 75 10000 1.73 352 18:46 26.01.2022
4077 Clouds 7 1022 75 10000 1.91 337 17:52 26.01.2022
4078 Rain 7 1021 75 10000 1.79 3 17:24 26.01.2022
4079 Clouds 7 1021 75 10000 1.79 3 16:40 26.01.2022
4080 Clouds 7 1022 75 10000 1.87 13 15:50 26.01.2022
4081 Clouds 7 1022 75 10000 3.2 34 14:23 26.01.2022
4082 Clouds 8 1021 66 10000 5.66 10 11:56 26.01.2022
4083 Clouds 10 1020 57 10000 7.72 20 10:45 26.01.2022
4084 Clouds 11 1020 54 10000 6.69 340 09:49 26.01.2022
4085 Clouds 12 1020 50 10000 5.66 320 08:32 26.01.2022
4086 Clouds 13 1021 54 10000 5.66 310 05:42 26.01.2022
4087 Clouds 7 1021 87 10000 1.03 360 23:59 25.01.2022
4088 Clouds 7 1021 87 10000 1.03 360 23:20 25.01.2022
4089 Clouds 8 1021 87 10000 0.51 0 22:26 25.01.2022
4090 Clouds 9 1021 76 10000 3.16 331 21:59 25.01.2022
4091 Clouds 9 1020 76 10000 2.27 342 20:59 25.01.2022
4092 Clouds 9 1020 76 10000 2.27 342 20:40 25.01.2022
4093 Clouds 9 1020 76 10000 1.97 354 19:53 25.01.2022
4094 Clouds 9 1020 76 10000 2.17 356 18:38 25.01.2022
4095 Clear 9 1021 76 10000 2.39 354 17:45 25.01.2022
4096 Clear 9 1020 76 10000 2.32 357 16:45 25.01.2022
4097 Clear 9 1020 76 10000 2.4 1 16:21 25.01.2022
4098 Clear 9 1020 76 10000 2.4 1 15:38 25.01.2022
4099 Clear 9 1020 76 10000 2.37 2 14:57 25.01.2022
4100 Clouds 9 1020 76 10000 2.06 130 13:42 25.01.2022
4101 Clouds 10 1019 66 10000 2.06 180 10:51 25.01.2022
4102 Clouds 12 1018 54 10000 3.6 230 08:38 25.01.2022
4103 Clouds 12 1018 58 10000 3.09 210 07:29 25.01.2022
4104 Clouds 12 1018 54 10000 1.54 220 06:49 25.01.2022
4105 Clouds 11 1018 56 10000 3.09 0 05:22 25.01.2022
4106 Clouds 5 1019 75 10000 5.66 340 23:37 24.01.2022
4107 Clouds 5 1019 75 10000 5.66 340 23:18 24.01.2022
4108 Clouds 5 1019 75 10000 6.69 350 22:59 24.01.2022
4109 Clouds 5 1019 75 10000 6.69 350 22:41 24.01.2022
4110 Clear 6 1019 75 10000 3.18 16 21:53 24.01.2022
4111 Clear 7 1018 65 10000 3.5 22 21:29 24.01.2022
4112 Clear 7 1018 65 10000 3.5 22 20:30 24.01.2022
4113 Clear 7 1018 65 10000 2.96 18 19:50 24.01.2022
4114 Clear 7 1018 65 10000 2.95 16 19:24 24.01.2022
4115 Clear 7 1019 65 10000 2.84 4 18:18 24.01.2022
4116 Clear 7 1019 65 10000 3.2 21 17:24 24.01.2022
4117 Clear 7 1019 65 10000 3.2 21 16:52 24.01.2022
4118 Clear 7 1018 65 10000 3.68 31 16:19 24.01.2022
4119 Clear 7 1018 65 10000 3.92 31 14:38 24.01.2022
4120 Clouds 7 1017 65 10000 6.17 20 12:58 24.01.2022
4121 Clouds 7 1017 65 10000 6.17 20 12:23 24.01.2022
4122 Clouds 9 1016 66 10000 8.23 10 10:30 24.01.2022
4123 Clouds 9 1016 66 10000 8.23 10 10:30 24.01.2022
4124 Clouds 10 1016 66 10000 8.75 360 09:48 24.01.2022
4125 Clouds 11 1015 62 10000 7.72 10 08:34 24.01.2022
4126 Clouds 12 1015 62 10000 7.72 360 06:40 24.01.2022
4127 Clouds 10 1015 71 10000 8.75 20 01:31 24.01.2022
4128 Clouds 10 1014 71 10000 8.75 20 00:36 24.01.2022
4129 Clouds 10 1013 71 10000 8.23 20 23:52 23.01.2022
4130 Clouds 10 1013 71 10000 6.17 10 22:32 23.01.2022
4131 Clouds 9 1012 100 10000 6.73 28 21:49 23.01.2022
4132 Clouds 9 1012 100 10000 7.3 28 21:25 23.01.2022
4133 Clouds 9 1012 100 10000 7.3 28 20:44 23.01.2022
4134 Clouds 9 1012 100 10000 6.73 25 19:44 23.01.2022
4135 Clouds 9 1012 100 10000 6.16 28 18:51 23.01.2022
4136 Rain 9 1013 100 10000 4.89 22 17:49 23.01.2022
4137 Clouds 9 1013 100 10000 4.92 25 16:47 23.01.2022
4138 Clouds 9 1014 100 10000 4.69 20 14:59 23.01.2022
4139 Clouds 9 1014 100 9548 3.64 22 14:25 23.01.2022
4140 Clouds 9 1014 100 9000 1.03 40 12:59 23.01.2022
4141 Rain 9 1014 97 10000 1.03 40 12:22 23.01.2022
4142 Rain 10 1014 93 10000 5.66 360 11:59 23.01.2022
4143 Rain 10 1014 93 10000 5.66 360 11:19 23.01.2022
4144 Rain 10 1013 93 9000 8.75 350 10:27 23.01.2022
4145 Rain 10 1013 93 10000 7.72 360 09:51 23.01.2022
4146 Rain 9 1013 100 7000 0.51 0 08:54 23.01.2022
4147 Rain 9 1015 100 6000 2.57 270 05:57 23.01.2022
4148 Rain 8 1018 93 5000 1.03 150 01:52 23.01.2022
4149 Mist 8 1018 93 2500 1.54 180 01:27 23.01.2022
4150 Rain 7 1018 100 3000 0 0 00:23 23.01.2022
4151 Rain 7 1018 100 3000 2.06 110 23:56 22.01.2022
4152 Rain 7 1019 88 3500 1.03 0 22:46 22.01.2022
4153 Rain 8 1018 75 4645 4.27 70 21:36 22.01.2022
4154 Rain 8 1019 75 7151 4.35 56 19:51 22.01.2022
4155 Rain 8 1020 75 4689 3.17 63 18:56 22.01.2022
4156 Rain 8 1021 75 10000 2.78 69 18:24 22.01.2022
4157 Clouds 8 1021 75 10000 2.78 69 17:40 22.01.2022
4158 Rain 8 1022 75 10000 2.47 54 16:56 22.01.2022
4159 Clouds 8 1022 75 10000 2.79 50 15:53 22.01.2022
4160 Clouds 8 1023 75 10000 2.72 58 15:26 22.01.2022
4161 Clouds 8 1023 76 10000 1.54 140 13:46 22.01.2022
4162 Clouds 8 1023 76 10000 2.57 140 12:52 22.01.2022
4163 Clouds 8 1023 76 10000 2.57 140 12:29 22.01.2022
4164 Clouds 8 1022 71 10000 2.06 130 11:31 22.01.2022
4165 Clouds 8 1023 71 10000 2.57 140 10:29 22.01.2022
4166 Clouds 8 1023 66 10000 3.09 150 09:59 22.01.2022
4167 Clouds 10 1023 62 10000 1.54 160 08:52 22.01.2022
4168 Clouds 9 1023 61 10000 1.03 0 07:38 22.01.2022
4169 Clouds 8 1025 57 10000 1.03 270 04:53 22.01.2022
4170 Clouds 6 1026 70 10000 1.54 130 01:35 22.01.2022
4171 Clouds 5 1026 65 10000 2.57 110 23:38 21.01.2022
4172 Clouds 5 1025 63 10000 2.57 120 22:28 21.01.2022
4173 Clouds 5 1026 66 10000 2.77 45 20:28 21.01.2022
4174 Clouds 6 1026 65 10000 2.55 50 18:40 21.01.2022
4175 Clouds 5 1027 56 10000 2.48 49 17:31 21.01.2022
4176 Clouds 5 1027 56 10000 2.82 55 15:42 21.01.2022
4177 Clouds 6 1027 52 10000 2.57 70 13:37 21.01.2022
4178 Clouds 7 1026 49 10000 4.12 60 12:38 21.01.2022
4179 Clouds 7 1026 53 10000 7.72 20 11:28 21.01.2022
4180 Clouds 8 1026 46 10000 6.17 30 10:19 21.01.2022
4181 Clouds 9 1026 43 10000 4.63 60 08:24 21.01.2022
4182 Clouds 10 1026 40 10000 5.14 50 06:57 21.01.2022
4183 Clouds 3 1027 60 10000 1.03 60 23:35 20.01.2022
4184 Clouds 3 1027 60 10000 2.57 30 22:24 20.01.2022
4185 Clouds 4 1027 76 10000 4.99 40 21:43 20.01.2022
4186 Clouds 4 1026 78 10000 4.83 39 20:43 20.01.2022
4187 Clouds 4 1026 79 10000 4.32 40 19:20 20.01.2022
4188 Clouds 4 1026 77 10000 4.43 39 18:44 20.01.2022
4189 Clouds 5 1026 52 10000 4.14 38 16:58 20.01.2022
4190 Clouds 5 1026 52 10000 4.04 36 15:43 20.01.2022
4191 Clouds 5 1026 52 10000 4.07 30 15:19 20.01.2022
4192 Clouds 6 1025 52 10000 4.12 50 13:41 20.01.2022
4193 Clouds 5 1025 60 10000 4.12 30 12:34 20.01.2022
4194 Clouds 6 1024 56 10000 5.14 50 11:50 20.01.2022
4195 Clouds 6 1023 56 10000 6.69 40 10:39 20.01.2022
4196 Clouds 7 1023 57 10000 8.75 30 09:36 20.01.2022
4197 Clouds 8 1022 61 10000 6.69 350 07:50 20.01.2022
4198 Clouds 5 1022 56 10000 6.69 340 00:44 20.01.2022
4199 Clouds 7 1020 53 10000 9.26 300 22:54 19.01.2022
4200 Clouds 4 1021 64 10000 8.11 321 21:48 19.01.2022
4201 Clouds 4 1021 64 10000 8.91 318 21:23 19.01.2022
4202 Clouds 4 1021 64 10000 8.91 318 20:46 19.01.2022
4203 Clouds 4 1020 64 10000 9.09 317 19:42 19.01.2022
4204 Clouds 4 1020 64 10000 4.4 303 18:18 19.01.2022
4205 Clouds 4 1020 64 10000 4.4 303 17:44 19.01.2022
4206 Clouds 4 1021 64 10000 4.47 318 16:46 19.01.2022
4207 Clear 4 1021 64 10000 3.78 324 14:42 19.01.2022
4208 Clouds 4 1021 60 10000 2.57 60 12:41 19.01.2022
4209 Clouds 6 1021 52 10000 5.66 340 11:39 19.01.2022
4210 Clouds 7 1020 49 10000 6.69 310 10:20 19.01.2022
4211 Clouds 8 1020 42 10000 6.17 300 09:33 19.01.2022
4212 Clouds 9 1021 43 10000 2.57 360 06:35 19.01.2022
4213 Clouds 2 1024 80 10000 3.09 130 01:55 19.01.2022
4214 Clouds 0 1024 86 10000 2.06 120 23:19 18.01.2022
4215 Clear 2 1023 68 10000 2.57 120 22:18 18.01.2022
4216 Clear 4 1023 55 10000 2.72 16 20:55 18.01.2022
4217 Clear 4 1024 55 10000 2.76 10 19:54 18.01.2022
4218 Clear 4 1024 55 10000 2.81 10 19:36 18.01.2022
4219 Clear 4 1024 55 10000 2.92 13 18:36 18.01.2022
4220 Clear 4 1024 55 10000 2.91 19 17:51 18.01.2022
4221 Clear 4 1024 55 10000 3 22 16:38 18.01.2022
4222 Clear 4 1025 55 10000 3.18 22 15:39 18.01.2022
4223 Clear 4 1025 55 10000 3.26 17 15:19 18.01.2022
4224 Clear 5 1024 56 10000 7.2 30 11:53 18.01.2022
4225 Clouds 6 1023 52 10000 6.17 360 10:43 18.01.2022
4226 Clouds 8 1022 42 10000 6.69 310 08:49 18.01.2022
4227 Clouds 9 1022 40 10000 5.66 310 07:46 18.01.2022
4228 Clouds 6 1025 56 10000 5.66 360 02:31 18.01.2022
4229 Clouds 5 1024 60 10000 6.17 340 23:22 17.01.2022
4230 Clouds 5 1024 66 10000 5.93 331 22:19 17.01.2022
4231 Clouds 7 1024 56 10000 5.93 331 21:32 17.01.2022
4232 Clouds 7 1024 56 10000 7.33 323 19:51 17.01.2022
4233 Clouds 7 1024 56 10000 7.28 314 18:28 17.01.2022
4234 Clouds 7 1024 56 10000 7.19 319 17:24 17.01.2022
4235 Clouds 7 1025 56 10000 6.96 323 16:27 17.01.2022
4236 Clouds 7 1025 56 10000 7.04 328 14:59 17.01.2022
4237 Clouds 7 1025 56 10000 7.04 328 14:33 17.01.2022
4238 Clouds 7 1024 57 10000 7.72 320 13:20 17.01.2022
4239 Clouds 7 1024 61 10000 7.2 330 12:54 17.01.2022
4240 Clouds 7 1024 61 10000 7.2 330 11:48 17.01.2022
4241 Clouds 6 1023 65 10000 8.23 320 10:21 17.01.2022
4242 Clouds 8 1023 57 10000 8.23 310 08:51 17.01.2022
4243 Clouds 9 1023 53 10000 8.23 300 07:22 17.01.2022
4244 Clouds 8 1026 53 10000 6.17 330 02:23 17.01.2022
4245 Clouds 6 1025 65 10000 4.12 330 00:53 17.01.2022
4246 Clouds 8 1024 61 10000 6.63 326 21:26 16.01.2022
4247 Clouds 8 1024 61 10000 6.63 326 20:33 16.01.2022
4248 Clouds 8 1024 61 10000 6.4 325 18:50 16.01.2022
4249 Clouds 8 1024 61 10000 5.79 325 17:55 16.01.2022
4250 Clouds 8 1024 61 10000 5.43 322 16:56 16.01.2022
4251 Clouds 8 1025 61 10000 5.49 318 15:50 16.01.2022
4252 Clouds 8 1025 61 10000 5.97 313 14:30 16.01.2022
4253 Clouds 8 1025 61 10000 5.97 313 14:30 16.01.2022
4254 Clouds 8 1023 61 10000 7.72 300 13:33 16.01.2022
4255 Clouds 8 1023 61 10000 6.69 290 12:26 16.01.2022
4256 Clouds 9 1023 66 10000 6.69 310 11:38 16.01.2022
4257 Clouds 9 1022 71 10000 6.17 310 10:43 16.01.2022
4258 Clouds 10 1021 71 10000 6.69 310 09:58 16.01.2022
4259 Clouds 10 1021 71 10000 6.69 310 09:38 16.01.2022
4260 Clouds 10 1021 71 10000 6.69 310 09:19 16.01.2022
4261 Clouds 10 1022 76 10000 0.51 0 07:19 16.01.2022
4262 Clouds 6 1023 90 10000 3.09 140 00:36 16.01.2022
4263 Clouds 6 1022 87 10000 2.57 120 22:53 15.01.2022
4264 Clouds 7 1023 75 10000 2.05 323 21:22 15.01.2022
4265 Clouds 7 1023 75 10000 2.05 323 20:45 15.01.2022
4266 Clouds 9 1023 71 10000 1.86 315 20:22 15.01.2022
4267 Clouds 9 1023 68 10000 2.3 299 19:27 15.01.2022
4268 Clouds 7 1023 75 10000 1.55 305 18:18 15.01.2022
4269 Clouds 7 1023 75 10000 1.65 305 16:49 15.01.2022
4270 Clouds 2 1023 67 10000 1.37 321 14:38 15.01.2022
4271 Clouds 7 1023 76 10000 1.54 130 12:40 15.01.2022
4272 Clouds 7 1022 76 10000 1.03 140 11:26 15.01.2022
4273 Clouds 8 1022 66 10000 1.03 0 09:46 15.01.2022
4274 Clouds 4 1023 70 10000 3.6 150 01:58 15.01.2022
4275 Clear 4 1023 75 10000 2.57 110 23:20 14.01.2022
4276 Clouds 3 1023 60 10000 1.73 18 20:57 14.01.2022
4277 Clouds 3 1023 60 10000 1.66 22 20:24 14.01.2022
4278 Clouds 3 1023 60 10000 1.66 22 19:49 14.01.2022
4279 Clouds 3 1024 60 10000 1.67 360 18:38 14.01.2022
4280 Clouds 3 1023 60 10000 1.4 2 17:21 14.01.2022
4281 Clouds 3 1023 60 10000 1.4 2 16:40 14.01.2022
4282 Clouds 3 1024 60 10000 2.23 15 14:50 14.01.2022
4283 Clouds 3 1023 60 10000 2.84 13 14:20 14.01.2022
4284 Clouds 4 1023 56 10000 3.6 20 12:37 14.01.2022
4285 Clouds 4 1023 56 10000 4.63 40 11:34 14.01.2022
4286 Clear 6 1022 45 10000 5.66 350 10:24 14.01.2022
4287 Clouds 7 1021 36 10000 5.14 300 08:52 14.01.2022
4288 Clouds 8 1021 36 10000 4.12 300 07:29 14.01.2022
4289 Clouds 5 1023 52 10000 7.72 330 01:43 14.01.2022
4290 Clouds 4 1022 56 10000 7.72 330 23:39 13.01.2022
4291 Clouds 4 1022 51 10000 5.85 333 21:45 13.01.2022
4292 Clouds 4 1022 51 10000 6.44 329 21:27 13.01.2022
4293 Clouds 4 1021 51 10000 6.61 330 19:44 13.01.2022
4294 Clouds 4 1022 51 10000 7.11 327 19:22 13.01.2022
4295 Clouds 4 1022 51 10000 7.11 327 18:33 13.01.2022
4296 Clouds 4 1021 51 10000 6.89 324 16:43 13.01.2022
4297 Clouds 4 1022 51 10000 6.88 323 15:38 13.01.2022
4298 Clouds 4 1022 51 10000 7.22 323 14:50 13.01.2022
4299 Clouds 4 1022 51 10000 7.22 323 14:50 13.01.2022
4300 Clouds 4 1019 56 10000 8.75 350 12:54 13.01.2022
4301 Clouds 4 1018 56 10000 12.35 320 10:25 13.01.2022
4302 Clouds 4 1018 56 10000 12.86 320 09:22 13.01.2022
4303 Clouds 5 1017 52 10000 14.4 320 08:28 13.01.2022
4304 Clouds 6 1016 65 10000 13.38 310 07:25 13.01.2022
4305 Clouds 6 1015 73 10000 10.8 310 06:41 13.01.2022
4306 Clouds 6 1016 81 10000 7.72 330 05:20 13.01.2022
4307 Clouds 6 1016 81 10000 3.09 350 03:24 13.01.2022
4308 Clouds 5 1017 65 10000 3.09 350 00:56 13.01.2022
4309 Clouds 5 1017 65 10000 5.66 350 23:50 12.01.2022
4310 Clouds 5 1017 63 10000 5.66 350 23:30 12.01.2022
4311 Clouds 5 1018 60 10000 6.93 315 21:58 12.01.2022
4312 Clouds 5 1018 60 10000 7.67 316 21:23 12.01.2022
4313 Clouds 5 1018 60 10000 7.67 316 20:57 12.01.2022
4314 Clouds 5 1018 60 10000 8.23 313 19:57 12.01.2022
4315 Clouds 5 1018 60 10000 8.1 310 18:48 12.01.2022
4316 Clouds 5 1019 60 10000 7.69 309 17:51 12.01.2022
4317 Clouds 6 1019 66 10000 7.05 309 16:39 12.01.2022
4318 Clouds 1 1019 66 10000 5.39 309 14:49 12.01.2022
4319 Clouds 5 1019 60 10000 2.06 20 13:34 12.01.2022
4320 Clouds 5 1019 60 10000 3.6 300 12:35 12.01.2022
4321 Clouds 5 1018 56 10000 5.66 310 08:50 12.01.2022
4322 Clouds 5 1018 48 10000 7.2 300 07:52 12.01.2022
4323 Clouds 5 1018 48 10000 7.2 300 07:32 12.01.2022
4324 Clouds 4 1020 53 10000 8.23 340 01:26 12.01.2022
4325 Clouds 4 1019 45 10000 8.75 340 23:25 11.01.2022
4326 Clouds 3 1019 60 10000 8.23 340 22:24 11.01.2022
4327 Clouds 4 1019 62 10000 5.3 336 21:25 11.01.2022
4328 Clouds 4 1019 51 10000 5.3 336 20:33 11.01.2022
4329 Clouds 4 1019 51 10000 5.52 345 18:52 11.01.2022
4330 Clouds 4 1019 51 10000 5.46 348 17:46 11.01.2022
4331 Clouds 4 1019 51 10000 5.7 346 16:39 11.01.2022
4332 Clouds 4 1019 51 10000 6.58 343 16:18 11.01.2022
4333 Clouds 4 1019 51 10000 7.72 334 14:44 11.01.2022
4334 Clouds 4 1019 51 10000 9.02 326 14:18 11.01.2022
4335 Clouds 4 1018 52 10000 10.8 330 13:42 11.01.2022
4336 Clouds 4 1018 52 10000 10.8 330 13:24 11.01.2022
4337 Clouds 4 1017 52 10000 13.89 320 12:23 11.01.2022
4338 Clouds 4 1017 56 10000 11.32 330 10:25 11.01.2022
4339 Clouds 5 1014 56 10000 13.38 310 07:35 11.01.2022
4340 Clouds 8 1013 71 10000 7.2 340 02:57 11.01.2022
4341 Clouds 7 1013 76 10000 2.57 40 00:24 11.01.2022
4342 Rain 7 1013 81 10000 7.72 330 23:38 10.01.2022
4343 Clouds 7 1013 87 10000 8.35 319 22:19 10.01.2022
4344 Rain 7 1013 87 10000 8.35 319 21:55 10.01.2022
4345 Clouds 7 1013 87 10000 8.35 319 21:32 10.01.2022
4346 Rain 7 1013 87 10000 8.47 314 20:58 10.01.2022
4347 Clouds 7 1013 87 10000 9.67 300 20:29 10.01.2022
4348 Rain 7 1013 87 10000 9.67 300 19:47 10.01.2022
4349 Clouds 7 1013 87 10000 7.54 261 19:22 10.01.2022
4350 Clouds 7 1014 87 10000 4.95 275 18:54 10.01.2022
4351 Clouds 7 1014 87 10000 4.95 275 18:34 10.01.2022
4352 Clouds 10 1015 69 10000 3.69 258 16:43 10.01.2022
4353 Rain 7 1016 87 10000 3.47 256 15:55 10.01.2022
4354 Clouds 7 1017 87 10000 2.98 259 14:39 10.01.2022
4355 Clouds 8 1017 87 10000 0.51 0 12:31 10.01.2022
4356 Clouds 10 1017 76 10000 3.09 250 11:25 10.01.2022
4357 Clouds 10 1016 71 10000 3.09 300 10:21 10.01.2022
4358 Clouds 13 1016 50 10000 2.06 20 08:22 10.01.2022
4359 Clouds 12 1017 62 10000 1.54 240 05:50 10.01.2022
4360 Clear 6 1020 81 9000 1.54 100 01:33 10.01.2022
4361 Clear 3 1020 100 6000 1.54 120 00:33 10.01.2022
4362 Clear 4 1020 93 7000 2.57 130 23:43 09.01.2022
4363 Clear 4 1019 87 8000 2.06 100 22:42 09.01.2022
4364 Clear 5 1020 81 10000 2.34 12 21:47 09.01.2022
4365 Clear 5 1020 81 10000 2.37 13 21:24 09.01.2022
4366 Clear 5 1020 81 10000 2.37 13 20:54 09.01.2022
4367 Clear 5 1020 81 10000 2.37 13 20:36 09.01.2022
4368 Clear 5 1020 81 10000 2.53 19 20:18 09.01.2022
4369 Clear 5 1020 81 10000 2.53 19 19:36 09.01.2022
4370 Clouds 5 1020 81 10000 2.49 22 19:18 09.01.2022
4371 Clouds 5 1020 81 10000 2.49 22 18:37 09.01.2022
4372 Clouds 5 1020 81 10000 2.3 19 17:48 09.01.2022
4373 Clouds 5 1020 81 10000 2.37 14 17:25 09.01.2022
4374 Clouds 5 1020 81 10000 2.37 14 16:34 09.01.2022
4375 Clouds 5 1020 81 10000 2.53 351 15:37 09.01.2022
4376 Clouds 5 1020 81 10000 2.46 348 14:41 09.01.2022
4377 Clouds 6 1019 81 10000 4.12 310 13:56 09.01.2022
4378 Clouds 6 1019 81 10000 4.12 310 13:36 09.01.2022
4379 Clouds 9 1018 66 10000 3.6 360 11:56 09.01.2022
4380 Clouds 9 1018 66 10000 3.6 360 11:19 09.01.2022
4381 Clouds 11 1018 58 10000 5.66 340 09:51 09.01.2022
4382 Clouds 11 1018 58 10000 3.6 330 08:54 09.01.2022
4383 Clouds 11 1018 62 10000 4.12 320 05:54 09.01.2022
4384 Clouds 7 1020 87 10000 1.54 110 01:25 09.01.2022
4385 Clouds 6 1020 93 10000 2.06 130 00:37 09.01.2022
4386 Clouds 6 1020 93 10000 3.09 130 23:27 08.01.2022
4387 Clouds 5 1020 87 10000 1.54 140 22:35 08.01.2022
4388 Clouds 9 1020 81 10000 2.58 350 21:26 08.01.2022
4389 Clouds 9 1020 81 10000 2.58 350 20:43 08.01.2022
4390 Clouds 9 1020 81 10000 2.2 354 20:21 08.01.2022
4391 Clouds 9 1021 81 10000 2.09 343 18:45 08.01.2022
4392 Clouds 9 1022 81 10000 2.26 320 17:23 08.01.2022
4393 Clouds 9 1022 81 10000 2.21 321 15:58 08.01.2022
4394 Clouds 9 1023 81 10000 2.14 314 14:46 08.01.2022
4395 Clouds 9 1022 81 10000 1.03 0 13:29 08.01.2022
4396 Clouds 9 1022 76 10000 2.06 150 11:30 08.01.2022
4397 Clouds 10 1021 65 10000 0.51 0 10:30 08.01.2022
4398 Clouds 11 1021 54 10000 1.54 350 09:54 08.01.2022
4399 Clouds 11 1021 54 10000 1.54 350 09:28 08.01.2022
4400 Clouds 9 1024 71 10000 4.12 120 03:45 08.01.2022
4401 Clear 5 1024 87 10000 5.14 130 00:58 08.01.2022
4402 Clouds 4 1024 87 10000 2.57 120 22:54 07.01.2022
4403 Clear 5 1024 81 10000 1.94 20 21:34 07.01.2022
4404 Clear 5 1024 81 10000 2.21 8 20:23 07.01.2022
4405 Clouds 5 1025 81 10000 1.9 16 19:26 07.01.2022
4406 Clouds 5 1025 81 10000 1.63 22 18:45 07.01.2022
4407 Clouds 8 1025 64 10000 2.08 34 17:28 07.01.2022
4408 Clouds 5 1025 81 10000 2.08 34 16:41 07.01.2022
4409 Clouds 3 1027 63 10000 2.41 28 14:37 07.01.2022
4410 Clouds 6 1026 81 10000 2.57 80 13:42 07.01.2022
4411 Clouds 8 1026 63 10000 2.06 350 12:50 07.01.2022
4412 Clouds 10 1025 53 10000 1.54 300 09:48 07.01.2022
4413 Clouds 7 1028 76 10000 0.51 0 02:58 07.01.2022
4414 Clouds 7 1028 76 10000 0.51 0 02:19 07.01.2022
4415 Clouds 6 1027 81 10000 1.54 130 01:41 07.01.2022
4416 Clouds 6 1027 81 10000 1.54 130 01:20 07.01.2022
4417 Clouds 4 1027 87 10000 2.06 120 00:28 07.01.2022
4418 Clouds 5 1027 69 10000 4.81 41 21:40 06.01.2022
4419 Clouds 5 1026 68 10000 4.75 34 20:36 06.01.2022
4420 Clouds 5 1026 66 10000 4.31 28 19:54 06.01.2022
4421 Clouds 5 1026 65 10000 4.18 23 19:28 06.01.2022
4422 Clouds 5 1027 64 10000 4.33 20 17:51 06.01.2022
4423 Clouds 5 1026 64 10000 4.62 24 17:19 06.01.2022
4424 Clouds 5 1026 63 10000 5.04 27 16:21 06.01.2022
4425 Clouds 5 1026 63 10000 5.04 27 15:39 06.01.2022
4426 Clear 5 1026 62 10000 4.84 28 15:19 06.01.2022
4427 Clear 5 1026 66 10000 4.86 30 14:19 06.01.2022
4428 Clear 7 1025 65 10000 3.09 40 12:58 06.01.2022
4429 Clouds 8 1024 61 10000 3.09 80 11:50 06.01.2022
4430 Clouds 8 1024 61 10000 3.09 80 11:28 06.01.2022
4431 Clouds 12 1022 58 10000 6.69 340 08:59 06.01.2022
4432 Clouds 7 1022 93 10000 3.09 20 01:52 06.01.2022
4433 Clouds 6 1021 90 10000 6.69 340 23:54 05.01.2022
4434 Clouds 6 1021 90 10000 6.69 340 23:19 05.01.2022
4435 Clouds 6 1021 93 10000 7.2 340 22:40 05.01.2022
4436 Clouds 7 1020 87 10000 3.31 14 21:54 05.01.2022
4437 Clouds 7 1019 87 10000 2.97 31 21:21 05.01.2022
4438 Clouds 7 1019 87 9224 3.15 58 20:19 05.01.2022
4439 Clouds 7 1020 87 7273 3.48 42 18:54 05.01.2022
4440 Clouds 7 1021 87 8710 3.51 49 17:45 05.01.2022
4441 Rain 7 1021 87 7408 3.45 56 16:51 05.01.2022
4442 Rain 7 1022 87 5766 3.04 52 15:46 05.01.2022
4443 Clouds 7 1024 87 8530 4.43 26 14:28 05.01.2022
4444 Rain 7 1023 87 10000 3.09 130 13:32 05.01.2022
4445 Rain 8 1021 76 10000 1.03 0 11:45 05.01.2022
4446 Clouds 9 1021 57 10000 2.57 340 08:20 05.01.2022
4447 Clouds 8 1022 61 10000 0.51 0 06:25 05.01.2022
4448 Clear 6 1025 81 10000 1.54 140 00:59 05.01.2022
4449 Clouds 5 1024 81 10000 2.06 150 23:29 04.01.2022
4450 Clear 5 1024 81 10000 3.6 140 22:58 04.01.2022
4451 Clouds 5 1024 75 10000 2.55 35 21:31 04.01.2022
4452 Clouds 5 1025 75 10000 2.47 22 19:22 04.01.2022
4453 Clouds 5 1025 75 10000 2.4 10 17:54 04.01.2022
4454 Clouds 5 1025 75 10000 2.47 14 16:53 04.01.2022
4455 Clouds 5 1025 75 10000 2.68 18 16:25 04.01.2022
4456 Clouds 5 1025 75 10000 2.68 18 14:54 04.01.2022
4457 Clouds 5 1025 75 10000 2.68 18 14:35 04.01.2022
4458 Clouds 6 1024 70 10000 1.03 120 13:29 04.01.2022
4459 Clouds 8 1024 61 10000 4.63 360 10:52 04.01.2022
4460 Clouds 9 1024 53 10000 7.2 320 09:47 04.01.2022
4461 Clouds 11 1024 50 10000 7.2 310 08:34 04.01.2022
4462 Clouds 8 1026 76 10000 1.54 330 02:52 04.01.2022
4463 Clouds 3 1025 93 10000 2.06 120 00:42 04.01.2022
4464 Clear 3 1025 93 10000 1.03 0 23:34 03.01.2022
4465 Clear 5 1025 61 10000 4.42 339 21:52 03.01.2022
4466 Clear 5 1025 61 10000 4.42 339 21:34 03.01.2022
4467 Clear 5 1024 59 10000 4.33 334 20:26 03.01.2022
4468 Clear 5 1024 58 10000 3.52 328 18:54 03.01.2022
4469 Clear 5 1024 58 10000 3.08 330 18:28 03.01.2022
4470 Clear 5 1024 57 10000 2.88 328 16:58 03.01.2022
4471 Clear 5 1024 57 10000 2.89 327 15:40 03.01.2022
4472 Clear 5 1024 57 10000 2.76 319 14:31 03.01.2022
4473 Clear 5 1024 57 10000 2.76 319 14:31 03.01.2022
4474 Clear 7 1023 61 10000 3.09 320 12:48 03.01.2022
4475 Clear 9 1023 57 10000 5.14 280 11:38 03.01.2022
4476 Clouds 9 1022 53 10000 6.17 290 10:36 03.01.2022
4477 Clouds 11 1022 54 10000 1.54 260 08:48 03.01.2022
4478 Clouds 12 1021 50 10000 3.09 330 07:36 03.01.2022
4479 Clouds 3 1025 93 10000 2.57 130 23:56 02.01.2022
4480 Clouds 3 1025 93 10000 2.57 130 23:22 02.01.2022
4481 Clouds 4 1024 87 10000 2.06 140 22:53 02.01.2022
4482 Clouds 5 1025 75 10000 1.82 343 21:42 02.01.2022
4483 Clouds 5 1024 75 10000 1.1 331 20:33 02.01.2022
4484 Clouds 5 1024 75 10000 1.16 351 19:55 02.01.2022
4485 Clouds 5 1024 75 10000 1.42 356 19:30 02.01.2022
4486 Clouds 5 1025 75 10000 1.16 358 18:46 02.01.2022
4487 Clouds 5 1025 75 10000 1.85 11 17:54 02.01.2022
4488 Clouds 5 1025 75 10000 1.85 11 17:36 02.01.2022
4489 Clouds 5 1025 75 10000 2.01 10 17:18 02.01.2022
4490 Clouds 5 1025 75 10000 2.33 10 16:25 02.01.2022
4491 Clouds 5 1026 75 10000 3.1 349 14:22 02.01.2022
4492 Clouds 7 1024 65 10000 2.06 70 12:49 02.01.2022
4493 Clouds 9 1024 57 10000 3.6 10 11:57 02.01.2022
4494 Clouds 9 1024 57 10000 3.6 10 11:23 02.01.2022
4495 Clouds 9 1024 53 10000 6.69 340 10:44 02.01.2022
4496 Clouds 11 1024 50 10000 7.2 320 08:46 02.01.2022
4497 Clouds 8 1026 76 10000 2.57 30 03:49 02.01.2022
4498 Clouds 6 1025 81 10000 5.14 130 00:58 02.01.2022
4499 Clouds 5 1025 81 10000 3.6 130 23:39 01.01.2022
4500 Clouds 5 1025 81 10000 3.6 130 23:39 01.01.2022
4501 Clouds 5 1025 81 10000 3.6 130 22:55 01.01.2022
4502 Clouds 5 1026 75 10000 1.09 3 22:21 01.01.2022
4503 Clouds 5 1026 75 10000 1.09 3 21:43 01.01.2022
4504 Clouds 5 1026 75 10000 1.44 354 20:53 01.01.2022
4505 Clouds 5 1026 75 10000 1.69 345 19:55 01.01.2022
4506 Clouds 5 1027 75 10000 1.78 338 18:58 01.01.2022
4507 Clouds 5 1027 75 10000 1.72 322 17:58 01.01.2022
4508 Clouds 5 1027 75 10000 1.93 316 16:37 01.01.2022
4509 Clouds 5 1027 75 10000 1.27 305 16:19 01.01.2022
4510 Clouds 5 1027 75 10000 0.74 291 15:22 01.01.2022
4511 Clear 5 1027 75 10000 2.57 120 13:42 01.01.2022
4512 Clear 5 1026 75 10000 3.09 130 12:49 01.01.2022
4513 Clear 6 1026 75 10000 2.57 130 11:47 01.01.2022
4514 Clear 6 1026 75 10000 2.57 130 11:21 01.01.2022
4515 Clear 8 1026 53 10000 1.03 0 09:49 01.01.2022
4516 Clear 8 1026 53 10000 1.03 0 09:21 01.01.2022
4517 Clouds 9 1026 49 10000 1.03 0 08:24 01.01.2022
4518 Clouds 9 1026 46 10000 2.57 350 07:41 01.01.2022
4519 Clouds 9 1027 46 10000 3.09 30 06:45 01.01.2022
4520 Clouds 8 1027 49 10000 1.54 290 05:26 01.01.2022
4521 Clouds 7 1028 53 10000 1.54 280 04:37 01.01.2022
4522 Clouds 2 1029 75 10000 2.57 120 00:53 01.01.2022
4523 Clouds 1 1028 80 10000 2.57 120 23:22 31.12.2021
4524 Clouds 4 1028 60 10000 2.71 23 21:52 31.12.2021
4525 Clouds 4 1028 60 10000 2.97 21 20:32 31.12.2021
4526 Clouds 4 1028 60 10000 2.92 19 19:29 31.12.2021
4527 Clouds 4 1028 65 10000 3.01 19 18:30 31.12.2021
4528 Clouds 4 1028 60 10000 2.9 13 17:37 31.12.2021
4529 Clouds 4 1028 60 10000 2.91 360 17:18 31.12.2021
4530 Clouds 4 1028 60 10000 3.14 349 16:21 31.12.2021
4531 Clouds 4 1028 60 10000 3.14 349 15:53 31.12.2021
4532 Clouds 4 1028 60 10000 3.57 344 15:28 31.12.2021
4533 Clouds 4 1028 60 10000 3.57 344 14:43 31.12.2021
4534 Clouds 4 1028 60 10000 3.75 339 14:18 31.12.2021
4535 Clouds 4 1027 60 10000 2.57 20 13:35 31.12.2021
4536 Clouds 4 1027 65 10000 6.17 350 12:44 31.12.2021
4537 Clouds 5 1027 56 10000 6.69 340 11:43 31.12.2021
4538 Clouds 5 1027 56 10000 6.69 340 11:20 31.12.2021
4539 Clouds 5 1027 52 10000 6.69 340 10:30 31.12.2021
4540 Clouds 5 1026 56 10000 8.75 300 09:35 31.12.2021
4541 Clouds 6 1026 52 10000 8.75 310 08:56 31.12.2021
4542 Clouds 6 1026 52 10000 8.75 310 08:25 31.12.2021
4543 Clouds 7 1026 45 10000 7.2 310 06:39 31.12.2021
4544 Clouds 5 1026 52 10000 11.32 330 23:23 30.12.2021
4545 Clouds 5 1026 56 10000 9.26 330 22:32 30.12.2021
4546 Clouds 6 1026 57 10000 8.29 327 21:41 30.12.2021
4547 Clouds 8 1025 52 10000 8.76 324 21:22 30.12.2021
4548 Clouds 8 1025 52 10000 8.76 324 20:43 30.12.2021
4549 Clouds 8 1025 52 10000 8.93 324 20:23 30.12.2021
4550 Clouds 8 1025 52 10000 8.93 324 19:36 30.12.2021
4551 Clouds 8 1025 52 10000 10.23 315 18:29 30.12.2021
4552 Clouds 8 1025 52 10000 10.23 315 17:38 30.12.2021
4553 Clouds 8 1025 52 10000 10.05 313 15:55 30.12.2021
4554 Clouds 8 1025 52 10000 10.05 313 15:36 30.12.2021
4555 Clouds 5 1025 65 10000 9.45 316 14:37 30.12.2021
4556 Rain 7 1024 54 10000 9.77 300 13:32 30.12.2021
4557 Clouds 7 1024 53 10000 7.2 340 11:59 30.12.2021
4558 Clouds 7 1023 53 10000 8.23 330 10:44 30.12.2021
4559 Clouds 7 1023 53 10000 9.77 330 09:54 30.12.2021
4560 Clouds 8 1023 46 10000 10.8 310 07:42 30.12.2021
4561 Clouds 8 1022 57 10000 10.29 300 06:38 30.12.2021
4562 Clouds 9 1023 53 10000 10.8 290 03:41 30.12.2021
4563 Clouds 8 1023 61 10000 8.75 300 02:35 30.12.2021
4564 Clouds 8 1022 57 10000 6.69 290 23:40 29.12.2021
4565 Clouds 8 1021 57 10000 7.2 290 22:59 29.12.2021
4566 Clouds 8 1021 57 10000 7.2 290 22:18 29.12.2021
4567 Clouds 10 1021 71 10000 8.36 312 21:27 29.12.2021
4568 Clouds 10 1021 71 10000 8.36 312 20:31 29.12.2021
4569 Clouds 10 1021 71 10000 7.88 312 19:43 29.12.2021
4570 Clouds 10 1021 71 10000 7.94 313 18:45 29.12.2021
4571 Clouds 10 1021 71 10000 8.69 312 17:53 29.12.2021
4572 Clouds 10 1020 71 10000 7.64 303 17:27 29.12.2021
4573 Clouds 10 1020 71 10000 7.31 302 16:23 29.12.2021
4574 Clouds 10 1020 71 10000 7.31 302 15:42 29.12.2021
4575 Clouds 11 1019 71 10000 7.2 310 13:53 29.12.2021
4576 Clouds 10 1019 81 10000 4.12 280 12:36 29.12.2021
4577 Clouds 9 1019 93 9000 0.51 0 11:26 29.12.2021
4578 Clouds 9 1018 100 6000 1.03 0 09:46 29.12.2021
4579 Clouds 9 1018 93 7000 1.03 0 07:47 29.12.2021
4580 Clouds 9 1018 93 8000 5.14 130 06:37 29.12.2021
4581 Clouds 8 1019 93 8000 5.14 140 05:57 29.12.2021
4582 Clouds 8 1019 93 8000 5.14 140 05:30 29.12.2021
4583 Clouds 7 1022 93 8000 6.17 130 01:45 29.12.2021
4584 Clouds 8 1023 81 10000 0.73 193 00:00 29.12.2021
4585 Clouds 8 1022 81 10000 4.63 140 23:31 28.12.2021
4586 Clouds 7 1022 81 10000 5.14 120 22:29 28.12.2021
4587 Clouds 5 1023 81 10000 0.58 110 21:57 28.12.2021
4588 Clouds 5 1023 81 10000 0.58 110 21:36 28.12.2021
4589 Clouds 5 1023 81 10000 0.32 314 20:35 28.12.2021
4590 Clouds 5 1025 81 10000 1.88 222 18:59 28.12.2021
4591 Clouds 5 1025 81 10000 2.36 210 18:29 28.12.2021
4592 Clouds 5 1025 81 10000 2.36 210 17:48 28.12.2021
4593 Clouds 5 1026 81 10000 1.38 193 16:29 28.12.2021
4594 Rain 5 1026 81 10000 1.38 193 15:45 28.12.2021
4595 Clouds 5 1026 81 10000 1.46 204 15:19 28.12.2021
4596 Clouds 5 1026 81 10000 1.46 204 14:45 28.12.2021
4597 Clouds 5 1027 81 10000 1.12 203 14:20 28.12.2021
4598 Clouds 6 1026 81 10000 4.12 130 13:42 28.12.2021
4599 Clouds 6 1026 81 10000 4.12 130 13:24 28.12.2021
4600 Clouds 6 1026 75 10000 2.57 150 12:39 28.12.2021
4601 Clouds 7 1026 65 10000 4.12 120 11:27 28.12.2021
4602 Clouds 9 1026 61 10000 2.57 140 07:40 28.12.2021
4603 Clouds 8 1027 61 10000 1.54 130 06:40 28.12.2021
4604 Clouds 4 1029 81 10000 4.63 140 23:42 27.12.2021
4605 Clouds 4 1029 81 10000 4.12 130 22:53 27.12.2021
4606 Clouds 3 1029 64 10000 3.08 353 21:33 27.12.2021
4607 Clouds 3 1029 64 10000 3 351 20:46 27.12.2021
4608 Clouds 3 1029 64 10000 2.65 358 19:57 27.12.2021
4609 Clouds 3 1029 64 10000 2.65 358 19:39 27.12.2021
4610 Clouds 3 1029 64 10000 2.5 15 17:55 27.12.2021
4611 Clouds 3 1029 64 10000 2.5 15 17:55 27.12.2021
4612 Clouds 3 1029 64 10000 2.5 15 17:37 27.12.2021
4613 Clear 3 1029 64 10000 2.86 24 16:36 27.12.2021
4614 Clear 3 1030 64 10000 3.11 19 15:51 27.12.2021
4615 Clear 3 1030 64 10000 3.25 9 14:31 27.12.2021
4616 Clouds 3 1029 65 10000 4.12 10 13:38 27.12.2021
4617 Clouds 4 1029 60 10000 7.72 340 11:41 27.12.2021
4618 Clouds 5 1028 56 10000 7.2 330 10:28 27.12.2021
4619 Clouds 5 1028 56 10000 7.72 330 09:38 27.12.2021
4620 Clouds 6 1027 49 10000 8.23 320 07:35 27.12.2021
4621 Clouds 5 1027 60 10000 9.77 320 06:38 27.12.2021
4622 Clouds 3 1029 48 10000 6.69 340 01:59 27.12.2021
4623 Clouds 2 1029 55 10000 7.2 340 23:57 26.12.2021
4624 Clouds 2 1029 55 10000 7.2 340 23:34 26.12.2021
4625 Clouds 2 1029 43 10000 7.08 329 21:53 26.12.2021
4626 Clouds 3 1029 60 10000 7.53 329 20:42 26.12.2021
4627 Clouds 2 1028 43 10000 7.65 331 19:31 26.12.2021
4628 Clouds 2 1029 43 10000 7.47 337 18:23 26.12.2021
4629 Clouds 2 1030 43 10000 6.97 338 15:56 26.12.2021
4630 Clouds 2 1030 44 10000 9.77 330 13:52 26.12.2021
4631 Rain 2 1030 44 10000 9.77 330 13:32 26.12.2021
4632 Clouds 2 1030 41 10000 9.26 340 12:39 26.12.2021
4633 Snow 1 1030 55 10000 9.77 340 11:58 26.12.2021
4634 Clouds 1 1029 47 10000 8.75 340 10:22 26.12.2021
4635 Clouds 1 1028 47 10000 9.77 340 09:18 26.12.2021
4636 Clouds 2 1028 51 10000 9.77 340 08:40 26.12.2021
4637 Snow 2 1028 57 10000 10.29 340 07:25 26.12.2021
4638 Snow 2 1030 51 10000 9.77 340 00:59 26.12.2021
4639 Snow 1 1029 55 10000 10.29 340 23:51 25.12.2021
4640 Snow 1 1029 55 10000 10.29 340 23:26 25.12.2021
4641 Snow 1 1028 51 10000 11.83 350 22:23 25.12.2021
4642 Rain 2 1028 84 5664 6.12 342 20:48 25.12.2021
4643 Clouds 4 1027 55 10000 8.06 332 19:22 25.12.2021
4644 Clouds 4 1028 55 10000 8.27 329 18:54 25.12.2021
4645 Clouds 4 1027 55 10000 7.66 338 17:28 25.12.2021
4646 Clouds 4 1027 55 10000 7.18 337 16:18 25.12.2021
4647 Clouds 4 1027 55 10000 6.83 329 14:38 25.12.2021
4648 Clouds 5 1026 56 10000 10.29 330 12:48 25.12.2021
4649 Clouds 4 1026 60 10000 11.32 330 11:37 25.12.2021
4650 Clouds 5 1024 56 10000 11.32 310 09:49 25.12.2021
4651 Clouds 7 1023 57 10000 9.77 310 07:54 25.12.2021
4652 Clouds 7 1023 57 10000 11.32 320 02:18 25.12.2021
4653 Clouds 7 1022 65 10000 10.29 330 00:33 25.12.2021
4654 Clouds 8 1021 66 10000 9.77 320 23:38 24.12.2021
4655 Clouds 10 1019 93 10000 9.02 321 19:39 24.12.2021
4656 Clouds 10 1018 93 10000 7.4 326 19:20 24.12.2021
4657 Clouds 10 1017 93 10000 5.26 328 16:50 24.12.2021
4658 Clouds 10 1017 93 10000 5.51 327 16:19 24.12.2021
4659 Clouds 10 1017 93 10000 5.51 327 15:45 24.12.2021
4660 Clouds 10 1018 93 10000 4.6 338 14:46 24.12.2021
4661 Clouds 10 1018 93 10000 3.97 349 14:22 24.12.2021
4662 Rain 10 1017 93 10000 2.57 320 13:37 24.12.2021
4663 Rain 10 1017 93 10000 2.57 310 12:48 24.12.2021
4664 Clouds 10 1016 93 8000 2.57 360 11:52 24.12.2021
4665 Rain 10 1016 93 8000 2.57 360 11:26 24.12.2021
4666 Clouds 10 1016 93 10000 3.09 340 10:50 24.12.2021
4667 Clouds 10 1016 93 10000 3.09 340 10:18 24.12.2021
4668 Rain 11 1015 82 9000 4.63 360 08:24 24.12.2021
4669 Rain 11 1015 74 10000 3.09 330 07:48 24.12.2021
4670 Clouds 10 1018 76 10000 1.54 110 02:52 24.12.2021
4671 Clear 7 1019 87 10000 4.63 130 23:56 23.12.2021
4672 Clear 7 1019 87 10000 4.12 140 22:58 23.12.2021
4673 Clear 7 1019 87 10000 4.12 140 22:37 23.12.2021
4674 Clear 8 1019 82 10000 4.12 140 22:18 23.12.2021
4675 Clouds 9 1020 76 10000 2.02 55 20:56 23.12.2021
4676 Clouds 9 1020 76 10000 2.18 63 20:18 23.12.2021
4677 Clouds 9 1020 76 10000 2.18 63 20:18 23.12.2021
4678 Clouds 9 1021 76 10000 2.07 69 18:36 23.12.2021
4679 Clouds 9 1021 76 10000 2.37 69 17:57 23.12.2021
4680 Clear 9 1022 76 10000 2.3 60 16:44 23.12.2021
4681 Clear 9 1022 76 10000 2.4 55 16:24 23.12.2021
4682 Clear 9 1022 76 10000 2.4 55 15:31 23.12.2021
4683 Clear 9 1022 76 10000 2.31 50 14:52 23.12.2021
4684 Clear 9 1022 76 10000 2.31 50 14:30 23.12.2021
4685 Clear 9 1021 87 10000 2.57 150 12:54 23.12.2021
4686 Clear 11 1021 71 10000 1.54 140 10:52 23.12.2021
4687 Clear 13 1021 67 10000 1.54 170 09:42 23.12.2021
4688 Clear 15 1021 41 10000 1.03 230 08:59 23.12.2021
4689 Clear 15 1021 41 10000 1.03 230 08:59 23.12.2021
4690 Clear 14 1021 51 10000 2.06 240 06:55 23.12.2021
4691 Clouds 14 1022 54 10000 1.54 290 04:30 23.12.2021
4692 Clear 5 1023 93 10000 1.54 90 23:20 22.12.2021
4693 Clear 5 1022 93 10000 2.06 110 22:42 22.12.2021
4694 Clear 9 1022 70 10000 2.94 28 21:56 22.12.2021
4695 Clear 9 1022 70 10000 3.04 26 21:29 22.12.2021
4696 Clear 9 1022 70 10000 3.04 26 20:47 22.12.2021
4697 Clear 9 1021 70 10000 2.87 31 20:26 22.12.2021
4698 Clear 9 1021 70 10000 2.82 37 19:21 22.12.2021
4699 Clear 9 1021 70 10000 3.31 30 17:42 22.12.2021
4700 Clear 9 1021 70 10000 3.34 30 16:39 22.12.2021
4701 Clear 9 1021 70 10000 3.34 27 15:39 22.12.2021
4702 Clear 9 1021 71 10000 4.12 360 13:32 22.12.2021
4703 Clear 10 1021 71 10000 3.6 20 12:39 22.12.2021
4704 Clouds 13 1019 58 10000 4.12 20 10:18 22.12.2021
4705 Clouds 14 1018 54 10000 6.17 20 09:38 22.12.2021
4706 Clouds 16 1017 48 10000 3.09 280 07:25 22.12.2021
4707 Clouds 15 1018 63 10000 0.51 0 05:43 22.12.2021
4708 Clouds 15 1018 63 10000 0.51 0 05:24 22.12.2021
4709 Clouds 13 1018 76 10000 1.54 240 04:49 22.12.2021
4710 Clouds 13 1018 76 10000 1.54 240 04:24 22.12.2021
4711 Clouds 12 1019 76 10000 1.03 250 03:32 22.12.2021
4712 Clouds 7 1019 93 10000 1.03 110 00:33 22.12.2021
4713 Clouds 8 1018 93 10000 2.06 120 22:52 21.12.2021
4714 Clouds 8 1018 93 10000 2.06 120 22:27 21.12.2021
4715 Clear 10 1018 93 10000 2.39 18 21:43 21.12.2021
4716 Clear 10 1018 93 10000 2.52 7 20:54 21.12.2021
4717 Clear 10 1018 93 10000 2.22 351 20:20 21.12.2021
4718 Clear 10 1018 93 10000 2.22 351 19:41 21.12.2021
4719 Clouds 10 1018 93 10000 2.27 342 18:45 21.12.2021
4720 Clouds 10 1018 93 10000 2.63 348 18:21 21.12.2021
4721 Clouds 10 1018 93 10000 2.63 348 17:41 21.12.2021
4722 Clouds 10 1018 93 10000 2.58 339 15:55 21.12.2021
4723 Clouds 10 1018 93 10000 2.76 340 15:20 21.12.2021
4724 Clouds 10 1017 93 10000 2.06 120 13:50 21.12.2021
4725 Clouds 10 1017 93 10000 2.06 120 13:29 21.12.2021
4726 Clouds 12 1017 82 10000 1.54 120 11:36 21.12.2021
4727 Clouds 13 1016 76 10000 1.03 0 10:21 21.12.2021
4728 Clouds 15 1016 72 10000 1.54 290 09:19 21.12.2021
4729 Clouds 16 1015 59 10000 3.6 250 07:55 21.12.2021
4730 Clouds 16 1015 59 10000 3.6 250 07:26 21.12.2021
4731 Clouds 16 1016 55 10000 1.54 200 05:31 21.12.2021
4732 Clouds 11 1018 87 10000 3.6 130 02:40 21.12.2021
4733 Clouds 9 1018 93 10000 4.63 130 23:58 20.12.2021
4734 Clouds 9 1018 93 10000 4.63 130 23:24 20.12.2021
4735 Clouds 9 1017 93 10000 4.63 130 22:28 20.12.2021
4736 Clouds 10 1018 66 10000 3.56 275 21:43 20.12.2021
4737 Clouds 10 1018 66 10000 3.8 274 21:23 20.12.2021
4738 Clouds 10 1018 66 10000 3.8 274 20:42 20.12.2021
4739 Clouds 10 1018 66 10000 4.24 269 19:48 20.12.2021
4740 Clouds 10 1019 66 10000 4.37 264 19:29 20.12.2021
4741 Clouds 10 1019 66 10000 4.07 264 18:49 20.12.2021
4742 Clouds 10 1020 66 10000 4.35 265 17:52 20.12.2021
4743 Clouds 13 1020 61 10000 4.27 266 16:56 20.12.2021
4744 Clouds 13 1020 61 10000 4.27 266 16:36 20.12.2021
4745 Clouds 10 1020 66 10000 4.04 261 15:47 20.12.2021
4746 Clouds 10 1021 66 10000 3.76 262 14:41 20.12.2021
4747 Clouds 10 1019 71 10000 4.12 140 12:44 20.12.2021
4748 Clouds 9 1019 76 10000 5.14 130 11:18 20.12.2021
4749 Clouds 10 1020 66 10000 3.09 140 09:47 20.12.2021
4750 Clouds 11 1020 58 10000 4.63 140 08:57 20.12.2021
4751 Clouds 11 1020 58 10000 4.63 140 08:38 20.12.2021
4752 Clouds 12 1019 50 10000 1.54 160 07:46 20.12.2021
4753 Clouds 11 1020 48 10000 2.06 80 06:40 20.12.2021
4754 Clouds 11 1023 58 10000 1.54 120 03:41 20.12.2021
4755 Clouds 6 1023 87 10000 2.57 120 23:50 19.12.2021
4756 Clouds 6 1022 87 10000 1.54 140 22:44 19.12.2021
4757 Clouds 8 1023 61 10000 2.54 346 21:49 19.12.2021
4758 Clouds 8 1022 61 10000 2.54 337 21:25 19.12.2021
4759 Clouds 8 1022 61 10000 2.52 341 20:29 19.12.2021
4760 Clouds 8 1022 61 10000 2.52 341 19:45 19.12.2021
4761 Clear 8 1023 61 10000 2.26 359 18:54 19.12.2021
4762 Clear 8 1023 61 10000 2.24 348 18:20 19.12.2021
4763 Clear 8 1023 61 10000 2.24 348 17:45 19.12.2021
4764 Clear 8 1023 61 10000 2.14 352 16:46 19.12.2021
4765 Clear 8 1024 61 10000 2.09 357 15:58 19.12.2021
4766 Clear 8 1024 61 10000 2.56 358 15:25 19.12.2021
4767 Clear 8 1024 61 10000 2.56 358 14:49 19.12.2021
4768 Clouds 8 1022 61 10000 4.12 10 13:41 19.12.2021
4769 Clouds 8 1022 61 10000 4.12 10 13:20 19.12.2021
4770 Clouds 8 1022 57 10000 5.14 360 12:33 19.12.2021
4771 Clouds 8 1022 61 10000 6.69 350 11:39 19.12.2021
4772 Clouds 9 1022 57 10000 7.72 320 10:51 19.12.2021
4773 Clouds 9 1022 57 10000 7.72 320 10:23 19.12.2021
4774 Clouds 10 1021 53 10000 8.75 300 08:55 19.12.2021
4775 Clouds 12 1020 43 10000 9.77 300 06:54 19.12.2021
4776 Clouds 7 1023 93 10000 2.57 120 02:30 19.12.2021
4777 Clouds 6 1022 87 10000 2.06 150 00:55 19.12.2021
4778 Clouds 4 1022 93 10000 2.57 90 23:21 18.12.2021
4779 Clouds 4 1021 100 10000 1.54 90 22:29 18.12.2021
4780 Rain 4 1022 60 10000 6.12 307 21:44 18.12.2021
4781 Rain 4 1022 60 10000 3.84 311 21:26 18.12.2021
4782 Clouds 4 1022 60 10000 3.84 311 20:43 18.12.2021
4783 Clouds 4 1023 60 10000 3.71 320 19:40 18.12.2021
4784 Clouds 4 1024 60 10000 2.7 309 18:26 18.12.2021
4785 Clouds 4 1024 60 10000 2.7 309 17:49 18.12.2021
4786 Clouds 4 1024 60 10000 2.51 324 16:50 18.12.2021
4787 Clouds 6 1025 69 10000 2.86 334 16:21 18.12.2021
4788 Clouds 3 1025 66 10000 3.44 339 15:24 18.12.2021
4789 Clouds 4 1024 60 10000 4.12 340 13:58 18.12.2021
4790 Clouds 5 1024 56 10000 6.17 340 11:57 18.12.2021
4791 Clouds 5 1025 56 10000 6.17 310 09:59 18.12.2021
4792 Clouds 5 1025 56 10000 6.17 310 09:32 18.12.2021
4793 Clouds 5 1024 54 10000 6.69 340 08:36 18.12.2021
4794 Clouds 5 1025 54 10000 7.2 310 07:41 18.12.2021
4795 Clouds 4 1025 56 10000 5.66 20 01:46 18.12.2021
4796 Clouds 3 1024 56 10000 9.26 350 23:51 17.12.2021
4797 Clouds 3 1024 56 10000 7.2 330 22:40 17.12.2021
4798 Clouds 5 1025 48 10000 4.71 6 21:49 17.12.2021
4799 Clouds 5 1025 48 10000 5.28 349 20:44 17.12.2021
4800 Clouds 5 1024 48 10000 6.47 341 19:57 17.12.2021
4801 Clouds 5 1025 48 10000 7.94 339 18:40 17.12.2021
4802 Clouds 5 1025 48 10000 8.31 338 17:59 17.12.2021
4803 Clouds 5 1025 48 10000 9.18 335 16:53 17.12.2021
4804 Clouds 5 1025 48 10000 9.74 327 16:28 17.12.2021
4805 Clouds 5 1025 48 10000 9.74 327 15:49 17.12.2021
4806 Clouds 5 1024 48 10000 10.02 325 14:43 17.12.2021
4807 Clouds 5 1022 48 10000 14.4 320 13:55 17.12.2021
4808 Clouds 5 1021 60 10000 11.83 340 12:37 17.12.2021
4809 Clouds 6 1021 56 10000 10.29 300 10:42 17.12.2021
4810 Clouds 6 1020 56 10000 12.86 320 09:47 17.12.2021
4811 Clouds 7 1019 49 10000 13.89 320 08:32 17.12.2021
4812 Clouds 7 1019 53 10000 14.4 320 07:38 17.12.2021
4813 Clouds 9 1017 57 10000 12.86 310 04:41 17.12.2021
4814 Clouds 12 1015 66 8000 7.72 310 00:57 17.12.2021
4815 Clouds 12 1014 66 10000 8.23 300 22:44 16.12.2021
4816 Clouds 13 1015 93 10000 7.73 316 22:22 16.12.2021
4817 Clouds 13 1015 93 10000 7.73 316 21:43 16.12.2021
4818 Clouds 13 1015 93 10000 6.76 311 20:40 16.12.2021
4819 Clouds 13 1014 93 10000 6.46 320 19:52 16.12.2021
4820 Clouds 13 1014 93 10000 7.13 319 18:45 16.12.2021
4821 Clouds 13 1014 93 10000 6.6 322 18:26 16.12.2021
4822 Clouds 13 1014 93 10000 6.6 322 17:36 16.12.2021
4823 Clouds 13 1014 93 10000 3.26 330 16:24 16.12.2021
4824 Clouds 13 1014 93 10000 3.25 346 15:26 16.12.2021
4825 Rain 13 1012 94 10000 5.66 360 13:45 16.12.2021
4826 Rain 13 1012 97 10000 7.2 360 11:48 16.12.2021
4827 Rain 13 1012 100 8000 5.14 10 11:18 16.12.2021
4828 Rain 13 1013 100 5000 4.12 340 10:39 16.12.2021
4829 Mist 13 1013 100 4500 4.12 130 09:39 16.12.2021
4830 Rain 13 1014 91 5000 5.66 120 06:23 16.12.2021
4831 Rain 13 1019 82 10000 6.69 130 03:19 16.12.2021
4832 Clouds 11 1019 87 10000 4.12 160 23:36 15.12.2021
4833 Clouds 11 1019 87 10000 4.12 140 22:49 15.12.2021
4834 Clouds 10 1020 81 10000 4.85 149 22:19 15.12.2021
4835 Clouds 10 1020 81 10000 4.85 149 21:31 15.12.2021
4836 Rain 10 1020 81 10000 4.68 157 20:32 15.12.2021
4837 Clouds 10 1021 81 10000 4.61 170 19:53 15.12.2021
4838 Clouds 10 1021 81 10000 3.91 176 18:40 15.12.2021
4839 Clouds 10 1022 81 10000 3.35 165 17:57 15.12.2021
4840 Clouds 10 1022 81 10000 3.35 165 17:39 15.12.2021
4841 Clouds 10 1022 81 10000 3.55 175 16:35 15.12.2021
4842 Clouds 10 1022 81 10000 3.35 169 15:47 15.12.2021
4843 Clouds 10 1023 81 10000 2.88 175 15:29 15.12.2021
4844 Clouds 10 1023 81 10000 3.23 158 14:43 15.12.2021
4845 Clear 10 1022 81 10000 3.6 130 12:52 15.12.2021
4846 Clouds 12 1022 76 10000 4.12 120 10:49 15.12.2021
4847 Clouds 13 1021 65 10000 4.63 120 09:28 15.12.2021
4848 Clouds 15 1021 63 10000 4.63 120 07:44 15.12.2021
4849 Clouds 9 1024 87 10000 4.12 120 01:39 15.12.2021
4850 Clouds 7 1023 93 10000 3.6 140 23:44 14.12.2021
4851 Clear 7 1022 87 10000 3.6 140 22:49 14.12.2021
4852 Clear 7 1022 87 10000 3.6 140 22:49 14.12.2021
4853 Clear 7 1022 87 10000 3.6 140 22:30 14.12.2021
4854 Clouds 7 1023 75 10000 1.61 74 20:57 14.12.2021
4855 Clouds 7 1023 75 10000 1.09 58 19:44 14.12.2021
4856 Clouds 7 1023 75 10000 1.09 58 19:44 14.12.2021
4857 Clouds 7 1023 75 10000 1.09 58 19:44 14.12.2021
4858 Clouds 7 1023 75 10000 1.02 38 19:20 14.12.2021
4859 Clear 7 1024 75 10000 1.09 27 18:29 14.12.2021
4860 Clear 7 1024 75 10000 1.09 27 17:34 14.12.2021
4861 Clear 7 1023 75 10000 1.52 27 16:43 14.12.2021
4862 Clear 7 1024 75 10000 1.54 19 15:41 14.12.2021
4863 Clouds 7 1023 76 10000 3.09 130 13:32 14.12.2021
4864 Clouds 8 1022 71 10000 3.09 60 12:27 14.12.2021
4865 Clouds 8 1022 66 10000 3.09 300 11:24 14.12.2021
4866 Clouds 8 1022 66 10000 2.57 310 10:25 14.12.2021
4867 Clouds 9 1022 61 10000 3.6 300 09:53 14.12.2021
4868 Clouds 10 1021 62 10000 7.72 310 08:28 14.12.2021
4869 Clouds 11 1021 62 10000 5.66 290 07:59 14.12.2021
4870 Clouds 11 1021 62 10000 2.57 140 05:38 14.12.2021
4871 Clouds 6 1023 75 10000 4.12 130 22:59 13.12.2021
4872 Clouds 5 1023 70 10000 0.54 330 21:53 13.12.2021
4873 Clouds 5 1023 70 10000 0.54 330 21:34 13.12.2021
4874 Clouds 5 1023 70 10000 0.88 3 20:45 13.12.2021
4875 Clouds 5 1023 70 10000 1.33 2 19:57 13.12.2021
4876 Clear 5 1024 70 10000 1.53 357 19:19 13.12.2021
4877 Clear 5 1024 70 10000 2.14 339 17:26 13.12.2021
4878 Clear 5 1024 70 10000 2.29 340 15:56 13.12.2021
4879 Clear 5 1024 70 10000 2.29 340 15:38 13.12.2021
4880 Clear 6 1024 70 10000 2.06 30 13:47 13.12.2021
4881 Clouds 6 1024 70 10000 4.63 350 12:59 13.12.2021
4882 Clouds 6 1024 70 10000 4.63 350 12:19 13.12.2021
4883 Clouds 7 1023 65 10000 6.17 350 11:35 13.12.2021
4884 Clouds 8 1023 61 10000 7.2 350 10:47 13.12.2021
4885 Clouds 8 1022 61 10000 7.72 310 09:41 13.12.2021
4886 Clouds 11 1022 46 10000 5.14 310 07:53 13.12.2021
4887 Clouds 10 1023 50 10000 5.66 300 05:36 13.12.2021
4888 Clouds 10 1025 43 10000 3.6 330 03:30 13.12.2021
4889 Clouds 7 1024 53 10000 8.23 330 23:26 12.12.2021
4890 Clouds 9 1023 66 10000 4.69 354 21:41 12.12.2021
4891 Clear 9 1022 71 10000 5.12 314 20:18 12.12.2021
4892 Clouds 8 1023 67 10000 6.83 311 18:43 12.12.2021
4893 Clouds 8 1024 66 10000 8.28 313 17:38 12.12.2021
4894 Clouds 12 1024 66 10000 8.82 322 16:28 12.12.2021
4895 Clouds 12 1024 66 10000 8.82 322 15:46 12.12.2021
4896 Clouds 12 1023 66 10000 8.64 321 15:25 12.12.2021
4897 Clouds 12 1023 66 10000 8.64 321 14:34 12.12.2021
4898 Clouds 12 1021 66 10000 6.17 300 13:26 12.12.2021
4899 Clouds 13 1021 58 10000 6.17 310 12:30 12.12.2021
4900 Clouds 13 1021 62 10000 8.75 330 11:44 12.12.2021
4901 Clouds 13 1021 62 10000 8.75 330 11:20 12.12.2021
4902 Clouds 13 1021 62 10000 9.77 310 10:22 12.12.2021
4903 Clouds 13 1020 62 10000 8.23 300 09:38 12.12.2021
4904 Clouds 14 1020 62 10000 7.72 310 07:57 12.12.2021
4905 Clouds 16 1020 59 10000 8.23 300 05:57 12.12.2021
4906 Clouds 16 1021 55 10000 6.69 300 04:56 12.12.2021
4907 Clouds 15 1022 67 10000 6.69 290 03:27 12.12.2021
4908 Clouds 11 1021 93 9000 1.03 100 23:39 11.12.2021
4909 Clouds 13 1022 87 10000 3.29 294 22:22 11.12.2021
4910 Clouds 13 1022 87 10000 3.29 294 21:51 11.12.2021
4911 Clouds 13 1022 80 10000 3.09 302 20:29 11.12.2021
4912 Clouds 13 1023 79 10000 2.97 294 19:23 11.12.2021
4913 Clouds 14 1023 77 10000 3.28 291 18:52 11.12.2021
4914 Clouds 13 1023 76 10000 2.77 283 18:19 11.12.2021
4915 Clouds 13 1023 87 10000 2.69 286 17:20 11.12.2021
4916 Clouds 13 1024 87 10000 2.47 288 15:52 11.12.2021
4917 Clouds 13 1024 87 10000 2.55 293 15:18 11.12.2021
4918 Clouds 13 1023 94 10000 1.54 320 12:50 11.12.2021
4919 Clouds 14 1023 88 10000 1.03 330 11:25 11.12.2021
4920 Clouds 15 1023 72 10000 1.03 300 09:45 11.12.2021
4921 Clouds 16 1023 67 10000 1.03 0 07:49 11.12.2021
4922 Clouds 12 1026 87 10000 1.54 130 02:20 11.12.2021
4923 Clouds 9 1024 93 10000 3.09 130 23:50 10.12.2021
4924 Clouds 9 1024 93 10000 3.09 130 23:18 10.12.2021
4925 Clouds 10 1025 93 10000 1.27 40 21:52 10.12.2021
4926 Clouds 10 1024 93 10000 1.09 22 20:57 10.12.2021
4927 Clouds 10 1024 93 10000 0.69 6 19:21 10.12.2021
4928 Clear 10 1024 93 10000 0.71 34 17:55 10.12.2021
4929 Clear 10 1024 93 10000 1.1 28 16:55 10.12.2021
4930 Clear 10 1024 93 10000 1.54 16 16:19 10.12.2021
4931 Clear 10 1024 93 10000 1.54 16 15:39 10.12.2021
4932 Clear 10 1025 93 10000 1.89 10 15:20 10.12.2021
4933 Clouds 11 1024 93 10000 2.06 110 13:51 10.12.2021
4934 Clouds 11 1024 93 10000 2.06 110 13:26 10.12.2021
4935 Clouds 11 1024 87 10000 0.51 0 12:34 10.12.2021
4936 Clouds 14 1024 72 10000 1.54 60 11:28 10.12.2021
4937 Clouds 15 1022 67 10000 2.06 130 09:54 10.12.2021
4938 Clouds 16 1022 63 10000 0.51 0 08:32 10.12.2021
4939 Clouds 16 1023 63 10000 2.57 300 05:57 10.12.2021
4940 Clouds 14 1025 67 10000 2.06 120 02:48 10.12.2021
4941 Clouds 11 1024 76 10000 2.06 100 23:46 09.12.2021
4942 Clouds 11 1024 76 10000 2.06 100 23:20 09.12.2021
4943 Clouds 12 1024 71 10000 2.57 150 22:24 09.12.2021
4944 Clouds 10 1025 76 10000 0.96 50 21:49 09.12.2021
4945 Clouds 10 1025 76 10000 0.34 206 20:41 09.12.2021
4946 Clouds 10 1025 76 10000 0.34 206 20:41 09.12.2021
4947 Clouds 10 1025 76 10000 0.55 162 20:20 09.12.2021
4948 Clouds 10 1025 76 10000 0.58 92 19:21 09.12.2021
4949 Clouds 10 1026 76 10000 0.71 100 18:35 09.12.2021
4950 Clouds 10 1026 76 10000 0.63 80 17:51 09.12.2021
4951 Clouds 10 1026 76 10000 0.87 81 17:25 09.12.2021
4952 Clouds 10 1026 76 10000 0.87 81 17:25 09.12.2021
4953 Clouds 10 1026 76 10000 0.87 81 16:53 09.12.2021
4954 Clouds 10 1026 76 10000 1.59 96 15:31 09.12.2021
4955 Clouds 10 1026 76 10000 1.81 105 14:44 09.12.2021
4956 Clear 11 1025 76 10000 3.09 150 13:18 09.12.2021
4957 Clear 11 1026 76 10000 3.09 140 12:35 09.12.2021
4958 Clear 13 1026 62 10000 2.57 80 10:58 09.12.2021
4959 Clear 14 1026 51 10000 1.54 10 08:49 09.12.2021
4960 Clear 16 1026 41 10000 1.54 300 06:19 09.12.2021
4961 Clear 12 1028 54 10000 1.03 0 02:49 09.12.2021
4962 Clear 7 1027 81 10000 3.09 150 23:42 08.12.2021
4963 Clear 7 1027 81 10000 3.09 150 23:20 08.12.2021
4964 Clear 7 1027 81 10000 2.57 140 22:45 08.12.2021
4965 Clear 10 1027 57 10000 3.35 46 21:39 08.12.2021
4966 Clear 10 1027 57 10000 3.61 42 20:59 08.12.2021
4967 Clear 10 1027 57 10000 3.81 38 19:58 08.12.2021
4968 Clear 10 1027 57 10000 3.81 38 19:33 08.12.2021
4969 Clouds 10 1027 57 10000 4.62 41 18:30 08.12.2021
4970 Clouds 10 1028 57 10000 5.89 41 17:24 08.12.2021
4971 Clouds 10 1028 57 10000 6.64 37 15:46 08.12.2021
4972 Clouds 10 1028 57 10000 7.19 36 15:23 08.12.2021
4973 Clouds 10 1028 57 10000 7.19 38 14:26 08.12.2021
4974 Clouds 13 1028 54 10000 7.2 10 10:53 08.12.2021
4975 Clouds 13 1028 54 10000 7.2 10 10:28 08.12.2021
4976 Clouds 14 1027 54 10000 8.23 20 08:54 08.12.2021
4977 Clouds 15 1026 47 10000 8.75 20 07:21 08.12.2021
4978 Clouds 13 1028 58 10000 2.57 20 01:21 08.12.2021
4979 Clouds 10 1027 71 10000 3.09 30 23:31 07.12.2021
4980 Clear 12 1026 71 10000 6.82 29 21:26 07.12.2021
4981 Clear 12 1026 71 10000 6.82 29 20:30 07.12.2021
4982 Clear 12 1025 71 10000 7.3 28 19:48 07.12.2021
4983 Clear 12 1025 71 10000 6.94 23 18:37 07.12.2021
4984 Clear 12 1025 71 10000 5.99 17 17:27 07.12.2021
4985 Clear 12 1025 71 10000 5.99 17 16:57 07.12.2021
4986 Clear 12 1025 71 10000 5.06 13 16:27 07.12.2021
4987 Clear 12 1025 71 10000 4.67 13 14:47 07.12.2021
4988 Clouds 12 1024 71 10000 6.69 360 13:45 07.12.2021
4989 Clouds 12 1024 71 10000 8.23 350 12:27 07.12.2021
4990 Clouds 12 1023 66 10000 5.66 10 11:23 07.12.2021
4991 Clouds 13 1022 71 10000 4.63 360 09:43 07.12.2021
4992 Clouds 13 1022 71 10000 3.09 340 07:52 07.12.2021
4993 Clouds 14 1022 72 10000 8.23 10 05:54 07.12.2021
4994 Clouds 14 1022 72 10000 8.23 10 05:26 07.12.2021
4995 Clouds 14 1022 72 10000 8.23 10 05:26 07.12.2021
4996 Clouds 7 1023 93 10000 3.09 120 23:38 06.12.2021
4997 Clear 9 1023 87 10000 2.74 13 22:41 06.12.2021
4998 Clear 9 1023 87 10000 2.86 20 21:59 06.12.2021
4999 Clear 9 1023 87 10000 2.86 20 21:36 06.12.2021
5000 Clear 9 1023 87 10000 2.94 29 20:33 06.12.2021
5001 Clear 9 1023 87 10000 2.63 22 19:25 06.12.2021
5002 Clear 9 1023 87 10000 2.63 22 18:55 06.12.2021
5003 Clear 9 1024 87 10000 2.31 15 17:55 06.12.2021
5004 Clear 9 1024 87 10000 2.31 15 17:33 06.12.2021
5005 Clear 9 1024 87 10000 2.25 18 15:52 06.12.2021
5006 Clear 9 1024 87 10000 2.36 25 14:46 06.12.2021
5007 Clear 9 1024 87 10000 1.54 120 13:35 06.12.2021
5008 Clear 10 1024 81 10000 1.54 130 12:38 06.12.2021
5009 Clouds 11 1024 76 10000 2.06 120 10:28 06.12.2021
5010 Clear 15 1023 51 10000 3.6 150 07:41 06.12.2021
5011 Clouds 10 1026 81 10000 1.03 0 02:28 06.12.2021
5012 Clouds 7 1026 87 10000 2.57 110 22:26 05.12.2021
5013 Clouds 8 1026 81 10000 1.75 78 21:25 05.12.2021
5014 Rain 8 1026 81 10000 1.75 78 20:52 05.12.2021
5015 Clouds 8 1026 81 10000 1.71 78 20:18 05.12.2021
5016 Clouds 8 1027 81 10000 1.43 87 19:24 05.12.2021
5017 Clouds 8 1027 81 10000 1.81 84 18:29 05.12.2021
5018 Clouds 8 1027 81 10000 1.81 84 17:49 05.12.2021
5019 Clouds 8 1027 81 10000 1.81 87 17:20 05.12.2021
5020 Clear 8 1027 81 10000 1.78 84 16:28 05.12.2021
5021 Clear 8 1027 81 10000 1.78 84 15:59 05.12.2021
5022 Clear 8 1027 81 10000 1.29 73 14:48 05.12.2021
5023 Clear 8 1027 81 10000 1.19 58 14:29 05.12.2021
5024 Clear 8 1027 81 10000 2.57 120 13:33 05.12.2021
5025 Clear 9 1026 81 10000 2.06 140 12:43 05.12.2021
5026 Clear 9 1026 81 10000 2.06 140 12:25 05.12.2021
5027 Clear 10 1026 76 10000 0.51 120 11:43 05.12.2021
5028 Clear 10 1026 65 10000 3.09 80 10:25 05.12.2021
5029 Clouds 12 1026 54 10000 1.54 20 09:41 05.12.2021
5030 Clouds 14 1027 51 10000 3.6 130 05:30 05.12.2021
5031 Clouds 8 1028 81 10000 3.09 140 01:24 05.12.2021
5032 Clouds 8 1028 81 10000 3.09 140 01:24 05.12.2021
5033 Clouds 6 1027 87 10000 3.6 130 22:44 04.12.2021
5034 Clear 7 1027 75 10000 2.77 52 21:37 04.12.2021
5035 Clear 7 1027 75 10000 2.9 54 20:46 04.12.2021
5036 Clear 7 1027 75 10000 2.59 53 19:43 04.12.2021
5037 Clear 7 1027 75 10000 2.76 51 19:23 04.12.2021
5038 Clouds 7 1027 75 10000 2.58 59 17:52 04.12.2021
5039 Clear 7 1027 75 10000 2.65 59 17:22 04.12.2021
5040 Clear 7 1027 75 10000 2.65 59 16:46 04.12.2021
5041 Clear 7 1027 75 10000 3.19 45 16:27 04.12.2021
5042 Clouds 6 1026 70 10000 1.54 110 12:44 04.12.2021
5043 Clouds 8 1026 57 10000 3.09 90 11:39 04.12.2021
5044 Clouds 9 1025 49 10000 4.63 60 10:59 04.12.2021
5045 Clouds 10 1025 46 10000 7.2 360 09:42 04.12.2021
5046 Clouds 11 1024 43 10000 8.23 360 08:29 04.12.2021
5047 Clouds 12 1025 40 10000 8.23 340 04:43 04.12.2021
5048 Clouds 9 1024 49 10000 8.23 350 00:56 04.12.2021
5049 Clouds 8 1024 53 10000 8.75 340 23:43 03.12.2021
5050 Clouds 8 1023 53 10000 6.69 350 22:53 03.12.2021
5051 Clouds 9 1023 87 10000 5.38 4 21:54 03.12.2021
5052 Clouds 9 1023 87 10000 4.39 6 21:22 03.12.2021
5053 Clouds 8 1023 62 10000 4.39 6 20:42 03.12.2021
5054 Clouds 9 1022 63 10000 7.12 324 19:21 03.12.2021
5055 Clouds 9 1022 87 10000 7.8 325 18:23 03.12.2021
5056 Clouds 9 1022 87 10000 7.8 325 17:31 03.12.2021
5057 Clouds 9 1018 90 6000 4.63 290 13:38 03.12.2021
5058 Clouds 10 1017 93 10000 1.03 0 12:30 03.12.2021
5059 Clouds 9 1017 93 10000 2.06 100 11:23 03.12.2021
5060 Clouds 10 1016 87 10000 2.06 60 09:21 03.12.2021
5061 Mist 10 1017 84 5000 4.12 330 08:18 03.12.2021
5062 Clouds 14 1015 54 10000 3.6 240 06:41 03.12.2021
5063 Clouds 8 1018 93 10000 3.09 130 00:49 03.12.2021
5064 Clouds 8 1018 87 10000 3.09 140 23:54 02.12.2021
5065 Clouds 8 1018 87 10000 3.09 140 23:34 02.12.2021
5066 Clouds 7 1019 75 10000 1.04 308 21:41 02.12.2021
5067 Clouds 7 1018 75 10000 0.8 341 20:46 02.12.2021
5068 Clouds 7 1018 75 10000 0.36 14 20:23 02.12.2021
5069 Clouds 7 1019 75 10000 0.87 15 19:23 02.12.2021
5070 Clouds 7 1020 75 10000 0.87 345 17:21 02.12.2021
5071 Clouds 7 1020 75 10000 0.1 266 15:41 02.12.2021
5072 Clouds 7 1021 75 10000 0.62 209 14:57 02.12.2021
5073 Clouds 7 1019 76 10000 3.6 120 13:44 02.12.2021
5074 Clouds 7 1020 81 10000 3.6 130 12:50 02.12.2021
5075 Clouds 8 1019 73 10000 3.6 140 11:52 02.12.2021
5076 Clouds 8 1019 66 10000 1.54 360 09:27 02.12.2021
5077 Clouds 9 1019 61 10000 1.03 0 08:19 02.12.2021
5078 Clouds 6 1022 67 10000 3.09 130 01:38 02.12.2021
5079 Clouds 6 1022 70 10000 1.54 90 00:50 02.12.2021
5080 Clouds 4 1021 65 10000 4.12 70 22:33 01.12.2021
5081 Clear 5 1022 62 10000 2.91 8 21:54 01.12.2021
5082 Clear 6 1021 62 10000 3.44 0 20:24 01.12.2021
5083 Clear 6 1021 62 10000 3.44 0 19:46 01.12.2021
5084 Clouds 6 1021 62 10000 3.97 355 18:55 01.12.2021
5085 Clouds 6 1022 62 10000 4.53 4 17:32 01.12.2021
5086 Clouds 6 1023 61 10000 4.96 6 16:36 01.12.2021
5087 Clouds 8 1023 52 10000 5.29 23 14:39 01.12.2021
5088 Clouds 8 1021 53 10000 9.26 320 13:37 01.12.2021
5089 Clouds 9 1020 49 10000 11.32 330 11:26 01.12.2021
5090 Clouds 9 1019 55 10000 8.23 340 10:40 01.12.2021
5091 Clouds 9 1018 53 10000 10.29 330 08:53 01.12.2021
5092 Clouds 9 1018 53 10000 10.29 330 08:26 01.12.2021
5093 Clouds 10 1018 50 10000 11.83 310 07:31 01.12.2021
5094 Clouds 10 1019 53 10000 11.83 300 03:59 01.12.2021
5095 Clouds 10 1019 53 10000 11.83 300 03:28 01.12.2021
5096 Clouds 10 1017 57 10000 11.83 300 00:45 01.12.2021
5097 Clouds 10 1017 50 10000 9.77 300 23:33 30.11.2021
5098 Clouds 9 1016 66 10000 12.35 300 22:34 30.11.2021
5099 Clouds 9 1016 69 10000 8.91 319 20:47 30.11.2021
5100 Clouds 10 1016 64 10000 9.71 316 20:26 30.11.2021
5101 Clouds 10 1016 64 10000 9.71 316 19:39 30.11.2021
5102 Clouds 10 1015 59 10000 8.92 311 18:57 30.11.2021
5103 Clouds 10 1016 69 10000 8.66 316 17:47 30.11.2021
5104 Clouds 13 1015 82 10000 10.69 316 16:25 30.11.2021
5105 Clouds 13 1014 82 10000 10.91 315 14:35 30.11.2021
5106 Clouds 13 1011 82 10000 10.29 300 13:41 30.11.2021
5107 Clouds 14 1011 88 10000 4.12 220 12:54 30.11.2021
5108 Clouds 14 1011 88 10000 4.12 220 12:21 30.11.2021
5109 Clouds 14 1011 88 9000 2.06 260 11:26 30.11.2021
5110 Rain 14 1011 94 5000 6.17 290 10:36 30.11.2021
5111 Rain 14 1010 100 8000 1.54 350 08:58 30.11.2021
5112 Rain 14 1010 100 6000 4.63 320 08:32 30.11.2021
5113 Rain 15 1009 94 8000 9.26 320 07:59 30.11.2021
5114 Mist 16 1009 88 2000 16.98 230 06:38 30.11.2021
5115 Clouds 16 1015 72 10000 5.66 140 01:50 30.11.2021
5116 Clouds 16 1015 72 10000 5.66 140 01:28 30.11.2021
5117 Clouds 12 1017 87 10000 7.72 140 23:50 29.11.2021
5118 Clouds 12 1017 87 10000 7.72 140 23:19 29.11.2021
5119 Clouds 11 1018 93 10000 5.66 150 22:38 29.11.2021
5120 Clouds 10 1020 81 10000 4.1 119 21:56 29.11.2021
5121 Clouds 10 1021 81 10000 2.89 110 21:20 29.11.2021
5122 Clouds 10 1021 81 10000 2.89 110 20:48 29.11.2021
5123 Clouds 10 1022 81 10000 2.45 114 19:59 29.11.2021
5124 Clouds 10 1022 81 10000 2.45 114 19:41 29.11.2021
5125 Clouds 10 1022 81 10000 2.08 115 18:59 29.11.2021
5126 Clouds 13 1022 76 10000 2.77 119 18:41 29.11.2021
5127 Clouds 13 1023 72 10000 2.41 107 17:22 29.11.2021
5128 Clouds 13 1023 72 10000 2.41 107 16:45 29.11.2021
5129 Clouds 13 1024 71 10000 2.16 102 16:24 29.11.2021
5130 Clouds 13 1025 71 10000 1.84 90 14:46 29.11.2021
5131 Clear 13 1025 70 10000 2.05 78 13:52 29.11.2021
5132 Clouds 14 1026 67 10000 1.03 58 12:59 29.11.2021
5133 Clouds 14 1026 66 10000 0.71 41 12:19 29.11.2021
5134 Clouds 14 1026 65 10000 0.9 305 11:28 29.11.2021
5135 Clear 14 1024 67 10000 2.06 330 09:58 29.11.2021
5136 Clouds 17 1024 55 10000 2.06 360 07:26 29.11.2021
5137 Clouds 17 1026 48 10000 2.57 320 05:51 29.11.2021
5138 Clouds 11 1029 76 10000 2.57 130 01:22 29.11.2021
5139 Clouds 8 1029 93 10000 4.12 130 23:47 28.11.2021
5140 Clouds 8 1029 93 10000 4.12 130 23:29 28.11.2021
5141 Clouds 11 1029 73 10000 1.84 102 21:57 28.11.2021
5142 Clouds 11 1029 73 10000 1.84 102 21:38 28.11.2021
5143 Clouds 11 1029 70 10000 1.7 116 20:36 28.11.2021
5144 Clouds 11 1029 67 10000 1.63 120 19:44 28.11.2021
5145 Clouds 11 1030 60 10000 1.48 102 18:40 28.11.2021
5146 Clouds 11 1030 58 10000 1.25 88 17:58 28.11.2021
5147 Clouds 11 1030 58 10000 1.25 88 17:34 28.11.2021
5148 Clouds 11 1031 56 10000 0.69 81 16:45 28.11.2021
5149 Clouds 11 1031 54 10000 0.54 146 16:27 28.11.2021
5150 Clouds 3 1031 54 10000 0.54 146 15:48 28.11.2021
5151 Clear 4 1031 53 10000 0.4 82 14:51 28.11.2021
5152 Clear 8 1031 76 10000 2.57 120 13:53 28.11.2021
5153 Clear 9 1031 66 10000 2.06 90 12:54 28.11.2021
5154 Clear 9 1031 71 10000 2.57 120 11:29 28.11.2021
5155 Clear 10 1030 62 10000 1.03 0 10:22 28.11.2021
5156 Clear 12 1030 47 10000 0.51 0 09:40 28.11.2021
5157 Clear 15 1030 38 10000 3.09 190 08:28 28.11.2021
5158 Clouds 8 1033 57 10000 3.6 40 00:49 28.11.2021
5159 Clear 9 1032 58 10000 4.2 43 21:46 27.11.2021
5160 Clear 10 1032 56 10000 5.12 44 19:50 27.11.2021
5161 Clear 10 1033 56 10000 5.56 41 18:20 27.11.2021
5162 Clear 5 1033 55 10000 5.53 43 15:59 27.11.2021
5163 Clear 6 1033 54 10000 5.58 45 14:35 27.11.2021
5164 Clouds 11 1033 58 10000 4.12 60 13:20 27.11.2021
5165 Clouds 12 1032 54 10000 3.09 50 11:23 27.11.2021
5166 Clouds 14 1030 41 10000 5.66 60 09:55 27.11.2021
5167 Clouds 15 1030 38 10000 5.66 10 08:51 27.11.2021
5168 Clouds 15 1029 38 10000 6.17 340 06:35 27.11.2021
5169 Clouds 14 1030 47 10000 5.66 20 03:52 27.11.2021
5170 Clouds 9 1030 76 10000 1.54 0 00:19 27.11.2021
5171 Clear 7 1028 76 10000 2.06 100 22:41 26.11.2021
5172 Clear 9 1028 61 10000 3.46 12 22:19 26.11.2021
5173 Clear 10 1028 60 10000 3.06 10 21:22 26.11.2021
5174 Clear 10 1028 60 10000 3.06 10 20:40 26.11.2021
5175 Clear 10 1028 60 10000 2.97 13 19:55 26.11.2021
5176 Clouds 10 1028 59 10000 3.01 10 18:45 26.11.2021
5177 Clouds 10 1028 58 10000 2.9 9 17:26 26.11.2021
5178 Clouds 10 1028 58 10000 2.9 9 16:50 26.11.2021
5179 Clouds 6 1027 57 10000 3.03 359 14:57 26.11.2021
5180 Clear 10 1027 62 10000 3.09 10 13:35 26.11.2021
5181 Clear 12 1025 50 10000 7.2 360 10:44 26.11.2021
5182 Clouds 13 1024 44 10000 7.2 20 09:53 26.11.2021
5183 Clouds 15 1023 47 10000 8.23 20 08:50 26.11.2021
5184 Clouds 15 1023 47 10000 8.23 20 08:20 26.11.2021
5185 Clouds 17 1022 39 10000 5.66 310 06:30 26.11.2021
5186 Clouds 17 1022 43 10000 6.17 310 05:35 26.11.2021
5187 Clouds 16 1023 48 10000 5.14 320 03:39 26.11.2021
5188 Clouds 9 1022 87 10000 4.63 340 23:43 25.11.2021
5189 Clear 9 1021 93 10000 1.54 50 22:34 25.11.2021
5190 Clear 12 1021 81 10000 3.7 335 20:45 25.11.2021
5191 Clear 12 1021 81 10000 3.42 315 19:22 25.11.2021
5192 Clear 13 1021 68 10000 2.96 319 18:31 25.11.2021
5193 Clear 12 1021 81 10000 2.96 310 17:28 25.11.2021
5194 Clear 12 1021 81 10000 2.96 310 16:45 25.11.2021
5195 Clear 8 1021 67 10000 3.23 309 16:00 25.11.2021
5196 Clear 10 1021 65 10000 2.9 303 14:31 25.11.2021
5197 Clouds 11 1019 71 10000 2.57 220 12:57 25.11.2021
5198 Clouds 14 1019 62 10000 2.57 300 11:56 25.11.2021
5199 Clouds 15 1019 58 10000 4.63 300 10:43 25.11.2021
5200 Clouds 17 1018 55 10000 3.6 270 08:21 25.11.2021
5201 Clouds 16 1019 61 10000 5.14 280 02:58 25.11.2021
5202 Clouds 13 1019 76 10000 6.17 240 00:37 25.11.2021
5203 Clouds 13 1018 71 10000 3.09 130 22:33 24.11.2021
5204 Clouds 14 1019 54 10000 4.88 267 21:48 24.11.2021
5205 Clouds 14 1019 54 10000 5.01 269 21:22 24.11.2021
5206 Clouds 14 1019 54 10000 4.95 270 20:27 24.11.2021
5207 Clouds 14 1019 54 10000 4.95 270 19:36 24.11.2021
5208 Clouds 14 1019 54 10000 4.25 272 18:19 24.11.2021
5209 Clouds 14 1020 54 10000 3.21 276 16:21 24.11.2021
5210 Clouds 14 1020 54 10000 3.06 281 14:57 24.11.2021
5211 Clouds 14 1020 54 10000 2.79 274 14:21 24.11.2021
5212 Clouds 14 1019 54 10000 5.14 260 13:34 24.11.2021
5213 Clouds 14 1019 54 10000 6.17 260 11:26 24.11.2021
5214 Clouds 14 1019 54 10000 5.14 250 10:55 24.11.2021
5215 Clouds 14 1019 54 10000 5.14 250 10:35 24.11.2021
5216 Clouds 14 1018 54 10000 4.63 260 09:29 24.11.2021
5217 Clouds 14 1019 54 10000 1.54 230 07:39 24.11.2021
5218 Clouds 13 1019 54 10000 5.66 310 05:23 24.11.2021
5219 Clouds 11 1021 71 10000 1.54 350 02:44 24.11.2021
5220 Clouds 12 1020 47 10000 7.2 350 23:33 23.11.2021
5221 Clouds 11 1019 53 10000 7.2 310 22:37 23.11.2021
5222 Clouds 10 1020 57 10000 5.7 315 21:45 23.11.2021
5223 Clouds 10 1020 57 10000 6.21 312 20:22 23.11.2021
5224 Clouds 10 1020 57 10000 6.74 310 19:29 23.11.2021
5225 Clouds 11 1020 66 10000 6.3 311 18:33 23.11.2021
5226 Clouds 10 1020 57 10000 6.54 311 17:30 23.11.2021
5227 Clouds 10 1020 57 10000 6.36 309 16:35 23.11.2021
5228 Clouds 10 1020 57 10000 7.05 311 15:26 23.11.2021
5229 Clouds 10 1020 57 10000 7.05 311 14:44 23.11.2021
5230 Clouds 11 1017 62 10000 5.66 270 12:53 23.11.2021
5231 Clouds 10 1017 76 10000 7.2 300 10:28 23.11.2021
5232 Clouds 10 1017 76 10000 7.72 280 09:45 23.11.2021
5233 Rain 11 1016 76 10000 11.32 290 07:51 23.11.2021
5234 Clouds 11 1017 71 10000 7.2 300 04:38 23.11.2021
5235 Clouds 11 1018 66 10000 8.23 300 03:27 23.11.2021
5236 Clouds 9 1017 71 10000 6.17 310 23:26 22.11.2021
5237 Clouds 9 1017 71 10000 5.66 340 22:56 22.11.2021
5238 Clouds 9 1017 71 10000 5.66 340 22:30 22.11.2021
5239 Clouds 12 1018 54 10000 5.36 327 21:44 22.11.2021
5240 Clouds 12 1018 54 10000 6.16 328 21:18 22.11.2021
5241 Clouds 12 1018 54 10000 6.06 329 20:23 22.11.2021
5242 Clouds 12 1017 54 10000 6.12 330 19:20 22.11.2021
5243 Clouds 10 1017 61 10000 6.12 330 18:40 22.11.2021
5244 Clouds 12 1018 54 10000 6.85 332 17:46 22.11.2021
5245 Clouds 12 1018 54 10000 6.81 332 16:30 22.11.2021
5246 Clouds 12 1017 54 10000 7.5 334 14:28 22.11.2021
5247 Clouds 12 1015 47 10000 9.77 330 12:47 22.11.2021
5248 Clouds 12 1014 54 10000 11.32 330 10:45 22.11.2021
5249 Clouds 12 1014 54 10000 10.8 330 09:48 22.11.2021
5250 Rain 13 1013 54 10000 10.8 300 08:41 22.11.2021
5251 Clouds 13 1012 62 10000 12.35 310 06:59 22.11.2021
5252 Clouds 15 1009 97 10000 5.66 340 23:39 21.11.2021
5253 Rain 15 1009 100 10000 6.69 340 22:53 21.11.2021
5254 Rain 15 1010 87 10000 3.06 354 22:19 21.11.2021
5255 Rain 15 1010 87 4816 5.81 326 20:42 21.11.2021
5256 Rain 15 1011 87 2106 6.02 309 20:21 21.11.2021
5257 Rain 15 1010 87 7665 1.89 32 18:30 21.11.2021
5258 Rain 15 1011 87 5852 1.04 111 17:39 21.11.2021
5259 Rain 15 1012 87 9502 1.9 140 16:46 21.11.2021
5260 Rain 15 1014 87 10000 2.4 100 14:46 21.11.2021
5261 Rain 15 1014 88 10000 5.66 140 13:49 21.11.2021
5262 Rain 14 1015 94 10000 5.66 140 12:38 21.11.2021
5263 Clouds 14 1016 94 10000 6.69 140 11:57 21.11.2021
5264 Clouds 14 1016 94 10000 6.69 140 11:35 21.11.2021
5265 Rain 15 1016 94 10000 2.57 150 10:19 21.11.2021
5266 Rain 15 1017 94 5000 2.06 70 08:56 21.11.2021
5267 Mist 15 1016 88 5000 3.6 320 08:26 21.11.2021
5268 Rain 15 1015 88 10000 2.57 40 07:49 21.11.2021
5269 Clouds 18 1017 67 10000 4.33 146 06:18 21.11.2021
5270 Rain 18 1016 68 10000 4.12 160 05:30 21.11.2021
5271 Clouds 17 1018 72 10000 5.66 140 03:19 21.11.2021
5272 Clouds 17 1019 67 10000 2.06 120 02:52 21.11.2021
5273 Clear 14 1019 82 10000 3.6 130 00:59 21.11.2021
5274 Clear 13 1018 82 10000 4.63 140 23:59 20.11.2021
5275 Clouds 13 1020 76 10000 2.45 138 21:50 20.11.2021
5276 Clouds 13 1020 76 10000 2.45 138 21:30 20.11.2021
5277 Clouds 13 1020 76 10000 1.08 136 19:23 20.11.2021
5278 Clouds 13 1020 76 10000 1.08 136 18:45 20.11.2021
5279 Clouds 13 1019 76 10000 0.96 80 18:19 20.11.2021
5280 Clouds 13 1019 76 10000 1.78 55 17:18 20.11.2021
5281 Clear 13 1020 76 10000 2.27 73 14:49 20.11.2021
5282 Clear 13 1020 76 10000 3.03 64 14:28 20.11.2021
5283 Clear 13 1019 76 10000 4.12 130 13:32 20.11.2021
5284 Clear 15 1019 58 10000 2.57 80 11:20 20.11.2021
5285 Clear 16 1018 63 10000 1.54 320 09:53 20.11.2021
5286 Clear 20 1017 42 10000 0.51 270 08:25 20.11.2021
5287 Clear 20 1017 42 10000 1.03 0 05:29 20.11.2021
5288 Clear 18 1018 52 10000 2.57 230 04:51 20.11.2021
5289 Clear 18 1018 55 10000 2.06 200 03:24 20.11.2021
5290 Clear 12 1018 87 10000 3.09 140 00:42 20.11.2021
5291 Clear 9 1017 87 10000 2.57 140 23:43 19.11.2021
5292 Clear 9 1017 93 10000 2.57 140 22:52 19.11.2021
5293 Clear 13 1017 62 10000 3.28 31 21:21 19.11.2021
5294 Clear 13 1017 62 10000 3.28 31 20:37 19.11.2021
5295 Clear 13 1017 62 10000 3.1 29 19:56 19.11.2021
5296 Clear 13 1017 62 10000 3.22 30 19:27 19.11.2021
5297 Clear 13 1017 62 10000 3.18 27 18:43 19.11.2021
5298 Clear 13 1017 62 10000 3.35 33 17:37 19.11.2021
5299 Clear 13 1017 62 10000 3.42 30 15:58 19.11.2021
5300 Clear 13 1017 62 10000 2.06 50 13:56 19.11.2021
5301 Clear 16 1015 36 10000 4.63 30 10:30 19.11.2021
5302 Clear 18 1015 36 10000 6.17 350 09:48 19.11.2021
5303 Clear 19 1015 39 10000 1.54 300 08:26 19.11.2021
5304 Clear 17 1017 51 10000 1.03 0 04:54 19.11.2021
5305 Clear 15 1018 63 10000 1.03 0 02:40 19.11.2021
5306 Clear 9 1017 87 10000 2.57 110 23:52 18.11.2021
5307 Clear 12 1018 76 10000 2.95 43 22:21 18.11.2021
5308 Clouds 12 1018 76 10000 3.2 23 20:50 18.11.2021
5309 Clouds 12 1018 76 10000 3.2 23 20:32 18.11.2021
5310 Clouds 12 1018 76 10000 3.09 24 19:55 18.11.2021
5311 Clouds 12 1018 76 10000 3.09 24 19:34 18.11.2021
5312 Clouds 12 1018 76 10000 2.83 22 18:34 18.11.2021
5313 Clouds 12 1019 76 10000 2.56 30 17:51 18.11.2021
5314 Clouds 12 1018 76 10000 2.85 24 16:45 18.11.2021
5315 Clouds 12 1018 76 10000 2.73 20 15:49 18.11.2021
5316 Clear 12 1018 76 10000 1.03 90 13:59 18.11.2021
5317 Clear 12 1018 71 10000 2.57 60 12:34 18.11.2021
5318 Clear 14 1017 77 10000 1.54 50 11:43 18.11.2021
5319 Clear 14 1017 77 10000 1.54 50 11:24 18.11.2021
5320 Clear 17 1017 55 10000 3.09 320 09:59 18.11.2021
5321 Clouds 18 1017 48 10000 1.54 300 07:35 18.11.2021
5322 Clouds 19 1018 48 10000 3.09 20 05:57 18.11.2021
5323 Clouds 19 1018 48 10000 3.09 20 05:38 18.11.2021
5324 Clear 15 1019 72 10000 2.06 130 01:24 18.11.2021
5325 Clear 15 1019 72 10000 2.06 130 01:24 18.11.2021
5326 Clear 13 1020 82 10000 2.57 130 23:19 17.11.2021
5327 Clear 12 1019 87 10000 3.09 130 22:34 17.11.2021
5328 Clouds 13 1020 71 10000 1.77 5 21:53 17.11.2021
5329 Clouds 13 1020 71 10000 1.77 5 21:34 17.11.2021
5330 Clouds 13 1020 71 10000 1.99 351 19:22 17.11.2021
5331 Clouds 13 1020 71 10000 2.05 0 17:28 17.11.2021
5332 Clouds 13 1021 71 10000 2.24 357 14:53 17.11.2021
5333 Clear 13 1021 71 10000 1.54 70 12:42 17.11.2021
5334 Clear 14 1021 72 10000 2.57 30 11:52 17.11.2021
5335 Clear 16 1020 59 10000 5.14 300 10:50 17.11.2021
5336 Clouds 16 1020 55 10000 5.66 320 09:27 17.11.2021
5337 Clouds 19 1020 45 10000 1.54 220 07:45 17.11.2021
5338 Clouds 19 1020 42 10000 2.06 200 06:20 17.11.2021
5339 Clear 15 1023 77 10000 0.51 0 02:42 17.11.2021
5340 Clouds 9 1023 93 10000 2.57 110 23:27 16.11.2021
5341 Clear 14 1023 71 10000 3.09 27 21:48 16.11.2021
5342 Clear 14 1023 71 10000 2.73 12 20:19 16.11.2021
5343 Clear 14 1023 71 10000 2.74 13 18:54 16.11.2021
5344 Clear 14 1023 71 10000 2.74 13 18:36 16.11.2021
5345 Clear 14 1023 71 10000 2.74 13 18:36 16.11.2021
5346 Clear 14 1023 71 10000 2.68 12 17:43 16.11.2021
5347 Clear 14 1023 71 10000 2.82 9 16:58 16.11.2021
5348 Clear 14 1023 71 10000 2.72 9 16:18 16.11.2021
5349 Clear 14 1023 71 10000 2.72 9 15:41 16.11.2021
5350 Clouds 16 1021 63 10000 5.66 20 12:40 16.11.2021
5351 Clouds 17 1021 51 10000 4.12 340 09:49 16.11.2021
5352 Clouds 17 1021 59 10000 5.14 310 08:50 16.11.2021
5353 Clouds 18 1020 55 10000 3.6 310 07:34 16.11.2021
5354 Clouds 17 1021 72 10000 1.54 300 04:45 16.11.2021
5355 Clouds 11 1022 93 10000 3.6 120 23:23 15.11.2021
5356 Clouds 11 1022 93 10000 3.6 120 22:40 15.11.2021
5357 Clouds 12 1022 87 10000 2.02 4 21:55 15.11.2021
5358 Clouds 12 1022 87 10000 2.02 4 21:30 15.11.2021
5359 Clouds 12 1021 87 10000 2.4 9 20:29 15.11.2021
5360 Clouds 12 1021 87 10000 1.77 22 18:53 15.11.2021
5361 Clouds 12 1021 87 10000 1.67 359 16:56 15.11.2021
5362 Clouds 12 1021 87 10000 1.96 358 15:48 15.11.2021
5363 Clouds 12 1021 87 10000 1.96 358 15:48 15.11.2021
5364 Clouds 12 1021 87 10000 2.18 349 15:29 15.11.2021
5365 Clouds 12 1020 87 10000 2.57 90 13:49 15.11.2021
5366 Clouds 14 1020 77 10000 2.06 90 12:18 15.11.2021
5367 Clouds 16 1020 63 10000 4.63 310 09:30 15.11.2021
5368 Clouds 19 1019 55 10000 3.6 310 07:59 15.11.2021
5369 Clouds 18 1020 52 10000 1.54 30 05:25 15.11.2021
5370 Clouds 12 1022 87 10000 2.06 130 00:32 15.11.2021
5371 Clouds 12 1021 85 10000 2.06 100 22:38 14.11.2021
5372 Clear 13 1020 82 10000 1.48 9 20:51 14.11.2021
5373 Clear 13 1020 82 10000 1.67 6 19:18 14.11.2021
5374 Clear 13 1020 82 10000 1.67 6 18:54 14.11.2021
5375 Clear 13 1020 82 10000 1.67 6 18:36 14.11.2021
5376 Clear 13 1021 82 10000 1.88 357 18:18 14.11.2021
5377 Clear 13 1021 82 10000 1.88 357 17:57 14.11.2021
5378 Clear 13 1021 82 10000 1.88 357 17:39 14.11.2021
5379 Clear 13 1021 82 10000 1.98 349 17:21 14.11.2021
5380 Clear 13 1021 82 10000 1.98 349 16:50 14.11.2021
5381 Clear 13 1021 82 10000 2.06 346 16:21 14.11.2021
5382 Clear 13 1021 82 10000 2.06 346 15:51 14.11.2021
5383 Clear 13 1020 82 10000 2.18 342 15:19 14.11.2021
5384 Clear 13 1020 82 10000 2.18 342 14:33 14.11.2021
5385 Clouds 13 1020 82 10000 1.54 120 13:59 14.11.2021
5386 Clouds 13 1020 82 10000 1.54 120 13:40 14.11.2021
5387 Clouds 13 1020 82 10000 2.57 110 12:45 14.11.2021
5388 Clouds 13 1020 82 10000 2.57 110 12:18 14.11.2021
5389 Clouds 15 1019 72 10000 0.51 0 10:50 14.11.2021
5390 Clouds 15 1019 72 10000 0.51 0 10:27 14.11.2021
5391 Clouds 17 1018 55 10000 1.54 30 08:57 14.11.2021
5392 Clouds 18 1018 55 10000 1.03 0 07:28 14.11.2021
5393 Clouds 14 1021 88 10000 1.54 250 01:25 14.11.2021
5394 Clouds 13 1020 88 10000 3.09 120 22:27 13.11.2021
5395 Clouds 13 1020 88 10000 3.09 120 22:27 13.11.2021
5396 Clouds 13 1020 76 10000 1.92 309 21:57 13.11.2021
5397 Clouds 13 1020 76 10000 1.49 356 21:27 13.11.2021
5398 Clouds 13 1020 76 10000 1.35 3 19:50 13.11.2021
5399 Clouds 13 1020 76 10000 1.7 324 18:48 13.11.2021
5400 Rain 13 1020 76 10000 2.06 282 18:26 13.11.2021
5401 Rain 13 1020 76 10000 2.53 263 16:40 13.11.2021
5402 Rain 13 1020 76 10000 2.6 252 15:37 13.11.2021
5403 Rain 13 1021 76 10000 2.67 250 14:33 13.11.2021
5404 Rain 12 1020 78 10000 3.09 120 13:38 13.11.2021
5405 Clouds 13 1020 77 10000 4.12 120 12:28 13.11.2021
5406 Rain 14 1020 72 10000 3.09 210 11:38 13.11.2021
5407 Clouds 14 1019 58 10000 2.57 220 10:45 13.11.2021
5408 Clouds 14 1019 56 10000 2.57 220 10:22 13.11.2021
5409 Clouds 15 1019 55 10000 0.51 0 09:38 13.11.2021
5410 Clouds 15 1018 51 10000 3.09 300 08:56 13.11.2021
5411 Clouds 15 1018 51 10000 3.09 300 08:31 13.11.2021
5412 Clouds 16 1019 48 10000 0.51 0 05:59 13.11.2021
5413 Clouds 15 1019 47 10000 1.54 60 04:30 13.11.2021
5414 Clouds 14 1021 54 10000 4.12 20 01:38 13.11.2021
5415 Clouds 11 1020 82 10000 3.09 50 22:58 12.11.2021
5416 Clouds 10 1021 71 10000 3.51 337 21:46 12.11.2021
5417 Clouds 10 1020 71 10000 4.73 329 19:55 12.11.2021
5418 Clouds 10 1020 71 10000 5.54 321 19:28 12.11.2021
5419 Clouds 10 1020 71 10000 4.53 325 18:46 12.11.2021
5420 Clouds 10 1020 71 10000 5.18 308 16:35 12.11.2021
5421 Clouds 10 1020 71 10000 6.07 297 15:33 12.11.2021
5422 Clouds 13 1019 54 10000 5.14 260 11:58 12.11.2021
5423 Clouds 13 1018 47 10000 6.17 300 10:51 12.11.2021
5424 Clouds 13 1018 47 10000 6.69 300 09:44 12.11.2021
5425 Clouds 14 1018 51 10000 7.72 310 08:38 12.11.2021
5426 Clouds 12 1018 71 10000 7.72 340 02:32 12.11.2021
5427 Clouds 12 1016 71 10000 7.2 360 23:42 11.11.2021
5428 Clouds 12 1016 71 10000 7.2 300 22:31 11.11.2021
5429 Clouds 14 1016 60 10000 8.91 302 21:27 11.11.2021
5430 Clouds 14 1016 60 10000 8.91 302 20:42 11.11.2021
5431 Clouds 13 1015 69 10000 7.63 299 19:20 11.11.2021
5432 Clouds 13 1015 70 10000 6.52 310 17:43 11.11.2021
5433 Clouds 13 1015 72 10000 6.61 313 16:54 11.11.2021
5434 Clouds 10 1014 65 10000 8.07 299 14:51 11.11.2021
5435 Thunderstorm 13 1013 82 10000 4.12 300 14:28 11.11.2021
5436 Rain 12 1013 87 10000 6.17 190 13:38 11.11.2021
5437 Mist 12 1013 82 3500 3.09 100 12:48 11.11.2021
5438 Clouds 13 1012 76 10000 3.6 340 10:40 11.11.2021
5439 Clouds 14 1012 67 10000 5.14 280 09:34 11.11.2021
5440 Clouds 16 1011 55 10000 5.66 300 07:38 11.11.2021
5441 Clouds 15 1013 72 10000 3.09 340 03:58 11.11.2021
5442 Clouds 12 1012 82 10000 2.06 310 23:00 10.11.2021
5443 Clouds 13 1012 76 10000 6.76 293 22:22 10.11.2021
5444 Clouds 13 1012 76 10000 6.68 293 21:21 10.11.2021
5445 Clouds 13 1012 76 10000 6.68 293 20:46 10.11.2021
5446 Clouds 13 1012 76 10000 6.8 291 19:47 10.11.2021
5447 Clouds 13 1012 76 10000 7.38 296 18:33 10.11.2021
5448 Clouds 13 1012 76 10000 7.63 296 16:34 10.11.2021
5449 Clouds 13 1012 76 10000 7.34 284 14:52 10.11.2021
5450 Clouds 13 1011 74 10000 5.66 260 13:41 10.11.2021
5451 Clouds 13 1010 71 10000 7.2 260 12:47 10.11.2021
5452 Clouds 14 1009 67 10000 5.66 270 10:39 10.11.2021
5453 Clouds 14 1009 67 10000 7.2 290 08:45 10.11.2021
5454 Clouds 14 1008 72 10000 7.2 280 07:32 10.11.2021
5455 Clouds 14 1008 72 10000 7.2 280 07:32 10.11.2021
5456 Clouds 12 1009 87 10000 8.23 260 06:26 10.11.2021
5457 Thunderstorm 13 1008 82 10000 3.6 260 05:51 10.11.2021
5458 Clouds 12 1010 76 10000 5.14 230 23:52 09.11.2021
5459 Clouds 13 1011 71 10000 8.76 278 21:47 09.11.2021
5460 Clouds 13 1011 71 10000 8.55 279 20:31 09.11.2021
5461 Clouds 13 1011 71 9576 8.64 282 19:21 09.11.2021
5462 Clouds 13 1011 71 10000 8.6 284 17:31 09.11.2021
5463 Clouds 13 1012 71 10000 7.08 283 15:45 09.11.2021
5464 Clouds 13 1013 71 10000 7.15 288 14:24 09.11.2021
5465 Clouds 12 1012 76 10000 9.26 260 12:52 09.11.2021
5466 Clouds 13 1012 76 10000 6.69 250 11:38 09.11.2021
5467 Clouds 13 1012 76 10000 6.69 250 11:38 09.11.2021
5468 Clouds 13 1011 71 10000 6.69 260 10:44 09.11.2021
5469 Clouds 12 1012 82 10000 13.38 290 09:24 09.11.2021
5470 Clouds 14 1012 67 10000 9.26 300 08:19 09.11.2021
5471 Clouds 13 1012 82 10000 5.14 330 05:45 09.11.2021
5472 Clouds 15 1014 63 10000 7.2 320 02:19 09.11.2021
5473 Clouds 14 1014 58 10000 5.66 330 01:39 09.11.2021
5474 Clouds 14 1013 58 10000 6.17 340 23:36 08.11.2021
5475 Clouds 14 1013 58 10000 6.17 350 22:49 08.11.2021
5476 Clouds 14 1015 71 10000 5.34 329 21:46 08.11.2021
5477 Clouds 14 1015 71 10000 5.34 329 21:46 08.11.2021
5478 Clouds 14 1015 71 10000 6 326 20:47 08.11.2021
5479 Clouds 14 1015 71 10000 6.26 324 19:48 08.11.2021
5480 Clouds 14 1015 71 10000 6.09 322 17:55 08.11.2021
5481 Clouds 14 1015 71 10000 6.59 315 15:59 08.11.2021
5482 Clouds 14 1015 71 10000 6.87 313 14:57 08.11.2021
5483 Clouds 14 1015 71 10000 6.91 313 14:34 08.11.2021
5484 Clouds 14 1014 72 10000 7.72 310 13:23 08.11.2021
5485 Clouds 14 1013 94 10000 7.72 320 11:56 08.11.2021
5486 Clouds 14 1013 94 10000 9.77 320 10:50 08.11.2021
5487 Clouds 14 1013 94 10000 9.77 320 10:50 08.11.2021
5488 Mist 15 1012 94 5000 10.29 320 09:37 08.11.2021
5489 Mist 14 1012 94 5000 12.35 320 08:52 08.11.2021
5490 Clouds 22 1009 73 10000 6.69 350 07:27 08.11.2021
5491 Rain 20 1012 68 10000 4.63 120 03:42 08.11.2021
5492 Rain 20 1012 68 10000 4.63 120 03:22 08.11.2021
5493 Clouds 17 1014 77 10000 3.09 130 23:43 07.11.2021
5494 Clouds 15 1015 77 10000 2.04 140 21:42 07.11.2021
5495 Clouds 15 1015 77 10000 2.31 100 20:51 07.11.2021
5496 Clouds 15 1016 77 10000 1.3 106 19:22 07.11.2021
5497 Clouds 15 1017 77 10000 2.63 157 17:47 07.11.2021
5498 Clouds 15 1017 77 10000 2.42 157 16:44 07.11.2021
5499 Clouds 15 1017 77 10000 2.32 149 15:42 07.11.2021
5500 Clouds 15 1018 77 10000 1.63 106 14:28 07.11.2021
5501 Clear 17 1017 72 10000 3.09 120 12:55 07.11.2021
5502 Clear 17 1016 67 10000 2.06 130 11:42 07.11.2021
5503 Clear 21 1015 52 10000 1.54 190 09:21 07.11.2021
5504 Clouds 22 1017 49 10000 2.57 360 04:33 07.11.2021
5505 Clear 19 1018 63 10000 2.06 290 02:28 07.11.2021
5506 Clouds 14 1017 88 10000 3.09 40 22:57 06.11.2021
5507 Clouds 14 1017 88 10000 3.09 40 22:29 06.11.2021
5508 Clear 15 1017 93 10000 3.52 35 21:27 06.11.2021
5509 Clear 15 1017 93 10000 3.5 47 20:30 06.11.2021
5510 Clouds 15 1017 93 10000 4.28 36 17:50 06.11.2021
5511 Clouds 15 1017 93 10000 4.19 34 16:38 06.11.2021
5512 Clouds 15 1017 93 10000 3.76 41 14:31 06.11.2021
5513 Clouds 15 1016 94 10000 4.63 90 13:37 06.11.2021
5514 Clouds 16 1016 77 10000 2.06 30 11:24 06.11.2021
5515 Clouds 16 1015 82 10000 0.51 0 09:20 06.11.2021
5516 Rain 15 1017 82 10000 4.63 130 04:52 06.11.2021
5517 Rain 16 1017 67 10000 1.54 130 00:43 06.11.2021
5518 Rain 16 1016 67 10000 1.54 140 23:31 05.11.2021
5519 Rain 16 1016 61 10000 1.54 120 22:33 05.11.2021
5520 Rain 15 1017 63 10000 2.58 59 20:41 05.11.2021
5521 Rain 15 1018 63 10000 3.19 49 20:18 05.11.2021
5522 Rain 15 1018 63 10000 3.18 48 18:56 05.11.2021
5523 Rain 15 1018 63 10000 3.18 48 18:37 05.11.2021
5524 Clouds 15 1018 63 10000 3.02 76 16:49 05.11.2021
5525 Clouds 15 1019 63 10000 2.85 38 14:33 05.11.2021
5526 Clear 17 1018 63 10000 2.06 130 12:27 05.11.2021
5527 Clear 20 1017 42 10000 3.09 20 09:47 05.11.2021
5528 Clear 20 1017 40 10000 4.12 60 08:38 05.11.2021
5529 Clear 21 1017 32 10000 4.63 50 06:40 05.11.2021
5530 Clear 21 1019 30 10000 1.54 0 03:38 05.11.2021
5531 Clear 19 1020 52 10000 1.54 200 02:21 05.11.2021
5532 Clear 12 1020 94 10000 2.57 120 23:58 04.11.2021
5533 Clear 12 1019 87 10000 2.06 120 22:37 04.11.2021
5534 Clouds 15 1019 67 10000 3 37 22:18 04.11.2021
5535 Clear 15 1019 67 10000 2.85 39 21:28 04.11.2021
5536 Clouds 15 1019 67 10000 2.75 32 20:29 04.11.2021
5537 Clouds 15 1019 67 10000 2.75 32 19:49 04.11.2021
5538 Clouds 15 1019 67 10000 2.64 21 19:28 04.11.2021
5539 Clouds 15 1020 67 10000 2.85 14 18:29 04.11.2021
5540 Clouds 15 1020 67 10000 2.7 10 17:26 04.11.2021
5541 Clouds 15 1020 67 10000 2.92 9 15:46 04.11.2021
5542 Clouds 15 1019 67 10000 2.57 50 13:50 04.11.2021
5543 Clouds 18 1018 52 10000 4.63 30 10:48 04.11.2021
5544 Clouds 21 1017 40 10000 6.17 350 08:41 04.11.2021
5545 Clouds 21 1017 46 10000 5.14 350 07:49 04.11.2021
5546 Clouds 21 1017 46 10000 5.14 350 07:31 04.11.2021
5547 Clouds 12 1018 87 10000 2.57 130 23:18 03.11.2021
5548 Clouds 12 1017 87 10000 2.06 110 22:25 03.11.2021
5549 Clear 14 1018 71 10000 2.35 2 21:37 03.11.2021
5550 Clouds 14 1017 71 10000 2.27 355 20:44 03.11.2021
5551 Clouds 14 1017 71 10000 2.62 3 20:25 03.11.2021
5552 Clouds 14 1017 71 10000 2.62 3 19:33 03.11.2021
5553 Clouds 14 1017 71 10000 2.76 355 18:27 03.11.2021
5554 Clouds 14 1017 71 10000 2.76 355 18:27 03.11.2021
5555 Clouds 14 1017 71 10000 2.76 355 18:27 03.11.2021
5556 Clouds 14 1017 71 10000 2.76 355 17:42 03.11.2021
5557 Clouds 14 1018 71 10000 3.14 336 16:48 03.11.2021
5558 Clouds 14 1018 71 10000 3.01 331 15:49 03.11.2021
5559 Clouds 14 1018 71 10000 3.01 331 15:30 03.11.2021
5560 Clear 14 1017 72 10000 2.57 50 13:41 03.11.2021
5561 Clear 17 1016 63 10000 4.63 360 11:35 03.11.2021
5562 Clouds 17 1016 63 10000 5.14 360 10:50 03.11.2021
5563 Clouds 18 1015 59 10000 6.17 350 09:46 03.11.2021
5564 Clouds 20 1015 52 10000 6.17 320 08:53 03.11.2021
5565 Clouds 21 1015 49 10000 7.2 310 07:55 03.11.2021
5566 Clouds 21 1015 49 10000 7.2 310 07:32 03.11.2021
5567 Clouds 21 1017 40 10000 3.6 320 04:23 03.11.2021
5568 Clouds 15 1018 77 10000 1.54 100 00:58 03.11.2021
5569 Clouds 13 1018 82 10000 2.06 100 23:21 02.11.2021
5570 Clouds 15 1018 77 10000 2.55 350 21:57 02.11.2021
5571 Clouds 15 1018 77 10000 2.17 356 20:43 02.11.2021
5572 Clouds 15 1017 77 10000 2.43 0 19:57 02.11.2021
5573 Clouds 15 1017 77 10000 2.62 5 19:27 02.11.2021
5574 Clouds 15 1018 77 10000 2.7 360 18:35 02.11.2021
5575 Clouds 15 1018 77 10000 2.72 7 17:44 02.11.2021
5576 Clouds 15 1018 77 10000 2.8 360 16:47 02.11.2021
5577 Clouds 15 1019 77 10000 2.9 359 15:50 02.11.2021
5578 Clouds 15 1019 77 10000 3.13 356 14:56 02.11.2021
5579 Clouds 16 1018 77 10000 3.6 360 13:29 02.11.2021
5580 Clouds 17 1018 72 10000 5.14 350 12:46 02.11.2021
5581 Clouds 17 1018 72 10000 5.14 350 12:46 02.11.2021
5582 Clouds 18 1018 68 10000 6.17 340 11:39 02.11.2021
5583 Clouds 18 1017 68 10000 6.17 360 10:55 02.11.2021
5584 Clouds 18 1017 68 10000 6.17 360 10:32 02.11.2021
5585 Clouds 19 1017 68 10000 6.17 350 09:44 02.11.2021
5586 Clouds 21 1017 49 10000 5.14 320 07:46 02.11.2021
5587 Clouds 21 1018 52 10000 4.63 310 04:58 02.11.2021
5588 Clouds 20 1019 64 10000 3.09 350 03:22 02.11.2021
5589 Clouds 12 1020 87 10000 2.57 130 23:42 01.11.2021
5590 Clouds 17 1020 67 10000 2.16 13 21:46 01.11.2021
5591 Clear 17 1020 67 10000 1.83 16 20:43 01.11.2021
5592 Clear 17 1020 67 10000 2.21 13 19:58 01.11.2021
5593 Clear 17 1020 67 10000 2.21 13 19:38 01.11.2021
5594 Clouds 17 1020 67 10000 3.02 15 18:23 01.11.2021
5595 Clouds 17 1020 67 10000 3.02 15 17:36 01.11.2021
5596 Clouds 17 1021 67 10000 2.86 12 16:51 01.11.2021
5597 Clouds 17 1021 67 10000 2.94 7 15:57 01.11.2021
5598 Clouds 17 1021 67 10000 3.15 15 15:27 01.11.2021
5599 Clouds 17 1021 67 10000 3.15 15 14:44 01.11.2021
5600 Clouds 17 1021 67 10000 3.62 15 14:23 01.11.2021
5601 Clear 17 1021 67 10000 2.57 50 13:50 01.11.2021
5602 Clear 18 1021 68 10000 3.09 30 12:34 01.11.2021
5603 Clear 19 1020 63 10000 3.09 50 11:26 01.11.2021
5604 Clouds 21 1019 52 10000 6.17 360 09:43 01.11.2021
5605 Clouds 23 1019 43 10000 5.14 360 07:50 01.11.2021
5606 Clouds 23 1019 43 10000 5.14 360 07:30 01.11.2021
5607 Clouds 22 1021 53 10000 4.63 340 03:45 01.11.2021
5608 Clouds 16 1022 82 10000 2.57 110 00:41 01.11.2021
5609 Clouds 14 1021 88 10000 2.57 90 22:31 31.10.2021
5610 Clouds 18 1021 63 10000 2.96 20 20:50 31.10.2021
5611 Clouds 18 1021 63 10000 3.06 11 18:57 31.10.2021
5612 Clouds 18 1021 63 10000 3.06 11 18:37 31.10.2021
5613 Clouds 18 1021 63 10000 2.83 11 17:31 31.10.2021
5614 Clouds 18 1022 63 10000 2.84 19 15:48 31.10.2021
5615 Clear 18 1021 63 10000 5.66 350 13:56 31.10.2021
5616 Clear 19 1020 63 10000 6.69 10 12:49 31.10.2021
5617 Clear 19 1020 63 10000 6.17 10 11:38 31.10.2021
5618 Clear 20 1020 64 10000 6.69 10 10:41 31.10.2021
5619 Clouds 22 1019 60 10000 7.2 350 09:21 31.10.2021
5620 Clouds 22 1019 60 10000 7.2 350 09:21 31.10.2021
5621 Clouds 24 1019 57 10000 4.63 320 07:20 31.10.2021
5622 Clouds 14 1022 94 10000 2.57 110 00:54 31.10.2021
5623 Clouds 17 1021 88 10000 3.05 15 22:36 30.10.2021
5624 Clouds 16 1021 86 10000 2.86 14 21:34 30.10.2021
5625 Clouds 17 1021 88 10000 3.11 16 20:21 30.10.2021
5626 Clouds 17 1022 88 10000 2.77 34 18:36 30.10.2021
5627 Clouds 17 1022 88 10000 1.86 32 16:53 30.10.2021
5628 Rain 17 1022 88 10000 3.6 130 14:43 30.10.2021
5629 Rain 17 1022 88 8000 4.12 120 13:39 30.10.2021
5630 Clouds 17 1022 94 10000 2.57 130 13:20 30.10.2021
5631 Clouds 18 1021 79 10000 2.57 300 11:51 30.10.2021
5632 Clouds 18 1021 79 10000 2.57 300 11:31 30.10.2021
5633 Clouds 18 1021 82 10000 2.06 300 10:24 30.10.2021
5634 Clouds 20 1020 64 10000 2.06 10 08:48 30.10.2021
5635 Clouds 20 1021 64 10000 1.03 0 06:26 30.10.2021
5636 Clouds 19 1021 64 10000 2.06 40 05:38 30.10.2021
5637 Clouds 15 1021 77 10000 2.57 130 23:52 29.10.2021
5638 Clouds 17 1022 51 10000 2.69 67 22:36 29.10.2021
5639 Clear 17 1022 51 10000 2.68 66 21:23 29.10.2021
5640 Clear 17 1022 51 10000 2.68 66 20:42 29.10.2021
5641 Clear 17 1022 51 10000 2.55 55 19:44 29.10.2021
5642 Clear 17 1022 51 10000 2.47 64 18:26 29.10.2021
5643 Clear 17 1022 51 10000 2.7 56 16:50 29.10.2021
5644 Clear 17 1020 51 10000 2.06 80 14:29 29.10.2021
5645 Clouds 20 1019 42 10000 4.63 50 10:52 29.10.2021
5646 Clouds 20 1019 42 10000 4.63 50 10:33 29.10.2021
5647 Clouds 22 1019 35 10000 6.17 20 07:25 29.10.2021
5648 Clouds 16 1021 51 10000 5.14 60 00:35 29.10.2021
5649 Clouds 16 1020 61 10000 6.84 42 22:51 28.10.2021
5650 Clouds 17 1020 62 10000 7.23 40 21:32 28.10.2021
5651 Clouds 19 1020 55 10000 7.34 37 20:20 28.10.2021
5652 Clouds 19 1021 55 10000 7.6 38 19:23 28.10.2021
5653 Clouds 19 1021 55 10000 7.2 37 17:59 28.10.2021
5654 Clouds 19 1020 55 10000 7.17 38 16:57 28.10.2021
5655 Clear 19 1020 55 10000 7.3 37 15:20 28.10.2021
5656 Clear 17 1020 63 10000 3.6 10 13:35 28.10.2021
5657 Clear 19 1019 55 10000 5.14 10 12:53 28.10.2021
5658 Clear 19 1019 55 10000 5.14 10 12:34 28.10.2021
5659 Clear 21 1018 52 10000 6.17 10 10:48 28.10.2021
5660 Clouds 22 1017 53 10000 8.23 350 09:38 28.10.2021
5661 Clouds 23 1017 49 10000 6.69 350 08:37 28.10.2021
5662 Clouds 23 1017 49 10000 3.6 340 07:47 28.10.2021
5663 Clear 21 1019 52 10000 3.09 330 04:19 28.10.2021
5664 Clear 13 1019 82 10000 3.09 120 23:26 27.10.2021
5665 Clear 15 1019 63 10000 2.71 20 22:29 27.10.2021
5666 Clear 15 1019 63 10000 2.71 20 21:32 27.10.2021
5667 Clear 15 1018 63 10000 2.62 12 20:48 27.10.2021
5668 Clear 15 1018 63 10000 2.64 8 19:50 27.10.2021
5669 Clear 15 1019 63 10000 2.4 360 18:56 27.10.2021
5670 Clear 15 1019 63 10000 2.4 360 18:37 27.10.2021
5671 Clear 15 1018 63 10000 2.82 4 16:26 27.10.2021
5672 Clear 15 1018 63 10000 2.84 4 15:29 27.10.2021
5673 Clear 16 1018 63 10000 1.54 50 14:38 27.10.2021
5674 Clouds 20 1017 42 10000 6.17 350 11:20 27.10.2021
5675 Clouds 21 1016 46 10000 6.17 320 10:57 27.10.2021
5676 Clouds 22 1016 40 10000 5.66 310 09:38 27.10.2021
5677 Clouds 23 1016 43 10000 2.57 320 07:51 27.10.2021
5678 Clouds 22 1017 43 10000 2.06 300 06:36 27.10.2021
5679 Clouds 15 1019 77 10000 2.57 120 01:29 27.10.2021
5680 Clouds 14 1018 88 10000 3.6 130 00:55 27.10.2021
5681 Clouds 14 1018 88 10000 1.54 140 23:56 26.10.2021
5682 Clouds 16 1018 67 10000 2.16 355 22:55 26.10.2021
5683 Clouds 16 1018 66 10000 2.07 356 22:29 26.10.2021
5684 Clouds 16 1018 66 10000 2.07 356 21:51 26.10.2021
5685 Clouds 18 1018 55 10000 1.76 1 20:26 26.10.2021
5686 Clouds 18 1018 55 10000 2.06 8 19:25 26.10.2021
5687 Clouds 18 1018 55 10000 2.06 8 18:30 26.10.2021
5688 Clouds 18 1018 55 10000 2.32 5 15:54 26.10.2021
5689 Clouds 18 1018 55 10000 3.6 20 14:18 26.10.2021
5690 Clouds 19 1016 48 10000 6.17 10 11:31 26.10.2021
5691 Clouds 22 1016 43 10000 6.69 340 09:28 26.10.2021
5692 Clouds 23 1017 43 10000 5.66 340 07:23 26.10.2021
5693 Clouds 14 1019 88 10000 2.57 100 00:50 26.10.2021
5694 Clouds 13 1018 88 10000 1.54 100 23:48 25.10.2021
5695 Clear 17 1018 59 10000 3.5 6 22:36 25.10.2021
5696 Clear 17 1018 59 10000 3.35 1 21:48 25.10.2021
5697 Clear 17 1017 59 10000 3.16 12 21:23 25.10.2021
5698 Clear 17 1018 59 10000 3.76 13 19:45 25.10.2021
5699 Clear 16 1018 74 10000 3.48 16 19:24 25.10.2021
5700 Clear 16 1018 74 10000 3.48 16 18:50 25.10.2021
5701 Clear 17 1018 59 10000 3.37 14 17:42 25.10.2021
5702 Clear 17 1019 59 10000 3.33 4 15:31 25.10.2021
5703 Clear 17 1018 59 10000 5.66 10 13:29 25.10.2021
5704 Clouds 19 1017 52 10000 4.12 30 11:58 25.10.2021
5705 Clouds 22 1018 46 10000 4.12 10 09:23 25.10.2021
5706 Clouds 22 1018 46 10000 3.6 350 07:26 25.10.2021
5707 Clouds 21 1018 49 10000 5.14 10 05:24 25.10.2021
5708 Clouds 16 1021 72 10000 3.09 120 00:52 25.10.2021
5709 Rain 16 1021 72 10000 3.09 120 00:34 25.10.2021
5710 Rain 16 1021 72 10000 3.09 120 00:34 25.10.2021
5711 Rain 16 1021 72 10000 3.09 120 00:34 25.10.2021
5712 Clouds 16 1020 77 10000 3.6 130 23:44 24.10.2021
5713 Rain 14 1022 86 10000 2.48 54 22:39 24.10.2021
5714 Clouds 17 1022 63 9815 1.76 12 22:20 24.10.2021
5715 Clouds 17 1022 63 9815 1.76 12 21:33 24.10.2021
5716 Rain 17 1022 63 10000 2.38 34 20:42 24.10.2021
5717 Rain 17 1023 63 10000 2.08 344 19:49 24.10.2021
5718 Rain 17 1023 63 10000 2.13 327 18:30 24.10.2021
5719 Clouds 17 1023 63 10000 2.66 350 17:46 24.10.2021
5720 Clouds 17 1024 63 10000 0.83 44 15:57 24.10.2021
5721 Clouds 17 1024 63 10000 1.32 41 15:19 24.10.2021
5722 Clouds 17 1022 59 10000 3.09 150 13:19 24.10.2021
5723 Clouds 18 1022 52 10000 1.54 120 12:23 24.10.2021
5724 Clouds 19 1022 42 10000 3.09 60 11:34 24.10.2021
5725 Clouds 19 1022 39 10000 1.03 0 10:30 24.10.2021
5726 Clear 21 1022 37 10000 2.06 270 07:59 24.10.2021
5727 Clear 16 1025 51 10000 2.57 160 01:26 24.10.2021
5728 Clear 13 1024 62 10000 1.03 120 23:51 23.10.2021
5729 Clouds 14 1025 65 10000 2.94 49 22:32 23.10.2021
5730 Clouds 14 1025 65 10000 3.23 53 20:39 23.10.2021
5731 Clear 14 1025 65 10000 4.4 38 18:59 23.10.2021
5732 Clear 14 1025 65 10000 4.4 38 18:31 23.10.2021
5733 Clear 14 1026 63 10000 4.76 35 17:44 23.10.2021
5734 Clear 9 1026 60 10000 4.78 31 16:38 23.10.2021
5735 Clear 17 1025 48 10000 4.12 50 14:45 23.10.2021
5736 Clouds 21 1023 40 10000 7.72 40 09:45 23.10.2021
5737 Clouds 14 1023 67 10000 3.6 60 00:28 23.10.2021
5738 Clear 14 1023 71 10000 6.41 34 23:23 22.10.2021
5739 Clear 15 1022 58 10000 7.03 29 20:55 22.10.2021
5740 Clouds 15 1021 58 10000 6.77 20 18:57 22.10.2021
5741 Clouds 15 1021 58 10000 6.03 12 17:44 22.10.2021
5742 Clouds 15 1021 58 10000 5.83 0 15:50 22.10.2021
5743 Clouds 15 1019 58 10000 6.17 340 14:23 22.10.2021
5744 Clouds 16 1018 51 10000 8.23 330 12:38 22.10.2021
5745 Clouds 18 1017 42 10000 8.75 340 10:48 22.10.2021
5746 Clouds 19 1017 42 10000 8.75 320 09:56 22.10.2021
5747 Clouds 19 1017 42 10000 8.75 320 09:30 22.10.2021
5748 Clouds 20 1016 49 10000 8.75 320 07:25 22.10.2021
5749 Clouds 18 1017 63 10000 6.17 340 03:48 22.10.2021
5750 Clouds 14 1016 88 10000 1.03 70 00:19 22.10.2021
5751 Clouds 14 1015 88 10000 2.57 110 23:39 21.10.2021
5752 Clouds 15 1016 82 10000 4.43 332 22:21 21.10.2021
5753 Clouds 15 1015 82 10000 3.87 327 20:53 21.10.2021
5754 Clouds 15 1015 82 10000 3.23 327 20:19 21.10.2021
5755 Clouds 15 1015 82 10000 3.97 338 19:30 21.10.2021
5756 Clouds 15 1015 82 10000 3.22 331 18:52 21.10.2021
5757 Clouds 15 1016 82 10000 2.68 327 18:19 21.10.2021
5758 Clouds 15 1016 82 10000 2.68 327 17:39 21.10.2021
5759 Clouds 15 1016 82 10000 0.21 231 15:54 21.10.2021
5760 Clouds 15 1017 82 10000 0.6 192 15:20 21.10.2021
5761 Clouds 16 1016 82 10000 3.6 130 14:38 21.10.2021
5762 Clouds 16 1016 77 10000 4.63 120 13:19 21.10.2021
5763 Clouds 16 1015 77 10000 3.6 130 11:27 21.10.2021
5764 Clouds 17 1015 67 10000 2.57 150 08:55 21.10.2021
5765 Clouds 17 1015 63 10000 2.06 160 07:29 21.10.2021
5766 Clouds 15 1018 72 10000 1.54 120 03:31 21.10.2021
5767 Rain 15 1017 67 10000 1.03 130 23:29 20.10.2021
5768 Rain 15 1017 63 10000 2.44 58 22:18 20.10.2021
5769 Clouds 15 1017 63 10000 2.44 58 21:38 20.10.2021
5770 Rain 15 1017 63 10000 2.97 54 20:54 20.10.2021
5771 Clouds 15 1017 63 10000 2.97 54 20:33 20.10.2021
5772 Clouds 15 1017 63 10000 3.08 52 19:57 20.10.2021
5773 Rain 15 1018 63 10000 3.61 57 18:54 20.10.2021
5774 Clouds 15 1018 63 10000 3.72 58 17:50 20.10.2021
5775 Rain 15 1018 63 10000 3.93 56 15:39 20.10.2021
5776 Rain 18 1016 59 10000 3.09 90 10:43 20.10.2021
5777 Rain 19 1016 52 10000 2.06 300 08:53 20.10.2021
5778 Clouds 17 1019 57 10000 1.03 0 03:21 20.10.2021
5779 Clouds 15 1017 58 10000 3.6 40 00:47 20.10.2021
5780 Clouds 15 1017 58 10000 3.6 30 23:59 19.10.2021
5781 Clouds 17 1017 55 10000 4.4 7 21:43 19.10.2021
5782 Clouds 17 1017 55 10000 4.35 9 20:54 19.10.2021
5783 Clouds 17 1017 55 10000 4.2 5 20:22 19.10.2021
5784 Clouds 17 1017 55 10000 4.9 3 19:41 19.10.2021
5785 Clouds 17 1018 55 10000 4.6 342 19:19 19.10.2021
5786 Clouds 17 1017 55 10000 5.44 334 17:58 19.10.2021
5787 Clouds 17 1017 55 10000 4.17 352 15:39 19.10.2021
5788 Clouds 17 1017 55 10000 4.6 353 15:19 19.10.2021
5789 Clouds 17 1016 55 10000 5.66 340 14:26 19.10.2021
5790 Clouds 18 1016 52 10000 8.23 330 13:29 19.10.2021
5791 Clouds 19 1015 59 10000 7.2 330 11:32 19.10.2021
5792 Clouds 19 1015 52 10000 8.75 310 10:23 19.10.2021
5793 Clouds 21 1015 37 10000 9.26 300 08:58 19.10.2021
5794 Clouds 20 1016 60 10000 1.54 0 06:50 19.10.2021
5795 Clouds 16 1017 72 10000 2.57 110 00:24 19.10.2021
5796 Clouds 17 1017 67 10000 2.06 120 23:50 18.10.2021
5797 Clouds 18 1018 59 10000 2.14 10 23:19 18.10.2021
5798 Clouds 18 1018 59 10000 2.14 10 22:53 18.10.2021
5799 Clouds 18 1018 59 10000 2.45 6 21:19 18.10.2021
5800 Clouds 18 1018 59 10000 2.45 6 20:41 18.10.2021
5801 Clouds 18 1019 59 10000 2.39 353 19:53 18.10.2021
5802 Clouds 18 1020 59 10000 2.31 349 19:29 18.10.2021
5803 Clouds 18 1020 59 10000 2.31 349 18:52 18.10.2021
5804 Clouds 18 1020 59 10000 2.26 3 15:32 18.10.2021
5805 Clouds 18 1019 63 10000 6.17 10 13:32 18.10.2021
5806 Clouds 20 1019 52 10000 3.6 360 10:42 18.10.2021
5807 Clouds 21 1019 46 10000 4.63 350 09:28 18.10.2021
5808 Clouds 18 1022 55 10000 2.06 40 02:30 18.10.2021
5809 Clouds 14 1021 77 10000 3.09 40 23:31 17.10.2021
5810 Clear 15 1021 67 10000 4.47 34 21:55 17.10.2021
5811 Clear 15 1021 67 10000 4.8 36 21:18 17.10.2021
5812 Clear 15 1021 67 10000 4.76 35 20:38 17.10.2021
5813 Clouds 15 1021 67 10000 4.78 34 19:39 17.10.2021
5814 Clouds 15 1021 67 10000 5.04 35 18:58 17.10.2021
5815 Clouds 15 1021 67 10000 5.15 34 17:34 17.10.2021
5816 Clouds 15 1021 67 10000 5.23 28 15:42 17.10.2021
5817 Clouds 16 1021 67 10000 5.66 40 14:24 17.10.2021
5818 Clouds 16 1021 67 10000 5.66 20 13:42 17.10.2021
5819 Clouds 18 1019 55 10000 7.72 10 11:57 17.10.2021
5820 Clouds 19 1019 55 10000 9.26 10 10:43 17.10.2021
5821 Clouds 20 1018 49 10000 10.29 20 09:41 17.10.2021
5822 Clouds 21 1018 49 10000 9.26 10 07:19 17.10.2021
5823 Clouds 17 1018 67 10000 9.77 360 00:53 17.10.2021
5824 Clouds 17 1018 67 10000 9.77 360 00:22 17.10.2021
5825 Clouds 15 1018 67 10000 5.25 355 21:49 16.10.2021
5826 Clouds 17 1018 93 10000 5.89 357 20:32 16.10.2021
5827 Clouds 17 1018 93 10000 5.52 357 19:46 16.10.2021
5828 Clouds 17 1019 93 10000 5.92 356 19:23 16.10.2021
5829 Clouds 17 1019 93 10000 5.92 356 18:56 16.10.2021
5830 Clouds 17 1019 93 10000 5.92 356 18:37 16.10.2021
5831 Clouds 17 1019 93 10000 5.69 347 18:18 16.10.2021
5832 Clouds 17 1019 93 10000 6.6 347 17:25 16.10.2021
5833 Clouds 17 1018 93 10000 7.52 346 15:25 16.10.2021
5834 Clouds 19 1015 94 8000 12.35 340 11:55 16.10.2021
5835 Mist 20 1014 94 5000 9.26 340 10:43 16.10.2021
5836 Clouds 23 1013 78 10000 7.72 360 08:20 16.10.2021
5837 Clouds 22 1015 83 10000 3.6 130 01:25 16.10.2021
5838 Clouds 22 1015 83 10000 3.6 130 01:25 16.10.2021
5839 Clouds 20 1014 88 10000 1.54 90 23:55 15.10.2021
5840 Clouds 20 1014 88 10000 1.54 90 23:24 15.10.2021
5841 Clear 23 1014 78 10000 1.3 69 22:19 15.10.2021
5842 Clear 23 1014 78 10000 1.37 62 21:26 15.10.2021
5843 Clear 23 1014 78 10000 1.12 64 20:47 15.10.2021
5844 Clear 23 1014 78 10000 1.17 89 19:31 15.10.2021
5845 Clear 23 1014 78 10000 1.49 90 18:40 15.10.2021
5846 Clear 23 1015 78 10000 2.07 85 16:29 15.10.2021
5847 Clear 23 1015 78 10000 2.07 85 15:36 15.10.2021
5848 Clear 23 1014 73 10000 4.63 340 13:29 15.10.2021
5849 Clear 25 1013 65 10000 5.66 350 11:36 15.10.2021
5850 Clear 27 1013 50 10000 2.06 250 10:46 15.10.2021
5851 Clouds 28 1013 47 10000 3.09 190 09:49 15.10.2021
5852 Clouds 26 1015 57 10000 2.57 300 05:32 15.10.2021
5853 Clouds 26 1015 57 10000 2.57 300 05:32 15.10.2021
5854 Clear 22 1015 68 10000 4.63 350 01:45 15.10.2021
5855 Clear 20 1015 77 10000 5.66 360 00:22 15.10.2021
5856 Clear 19 1015 73 10000 2.17 22 22:52 14.10.2021
5857 Clear 20 1015 74 10000 2.17 17 21:44 14.10.2021
5858 Clear 20 1015 74 10000 2.41 17 20:48 14.10.2021
5859 Clear 20 1015 74 10000 2.33 27 20:18 14.10.2021
5860 Clear 20 1015 74 10000 2.33 27 19:35 14.10.2021
5861 Clear 20 1016 73 10000 2.65 29 17:31 14.10.2021
5862 Clear 18 1016 74 10000 2.91 25 16:49 14.10.2021
5863 Clear 19 1016 74 10000 3 17 15:44 14.10.2021
5864 Clear 23 1016 56 10000 6.69 360 14:43 14.10.2021
5865 Clear 23 1015 53 10000 6.17 10 13:39 14.10.2021
5866 Clouds 24 1015 60 10000 7.2 350 11:44 14.10.2021
5867 Clouds 27 1015 44 10000 7.72 340 09:55 14.10.2021
5868 Clear 28 1015 54 10000 1.28 301 06:56 14.10.2021
5869 Clear 23 1019 78 10000 3.75 43 00:59 14.10.2021
5870 Clear 23 1019 78 10000 4.15 37 00:25 14.10.2021
5871 Clear 24 1018 83 10000 3.82 41 21:58 13.10.2021
5872 Clear 24 1018 83 10000 3.82 41 21:32 13.10.2021
5873 Clear 24 1018 83 10000 3.33 36 19:59 13.10.2021
5874 Clear 24 1018 83 10000 3.46 32 18:54 13.10.2021
5875 Clear 24 1018 83 10000 3.46 32 18:34 13.10.2021
5876 Clear 24 1019 83 10000 3.53 37 15:32 13.10.2021
5877 Clouds 24 1019 83 10000 5.14 360 14:45 13.10.2021
5878 Clouds 24 1019 83 10000 5.14 360 14:21 13.10.2021
5879 Clouds 25 1019 78 10000 6.17 360 12:22 13.10.2021
5880 Clouds 27 1018 74 10000 6.69 340 10:47 13.10.2021
5881 Clouds 29 1017 65 10000 6.17 330 08:29 13.10.2021
5882 Clouds 28 1019 74 10000 6.17 330 06:41 13.10.2021
5883 Clouds 26 1021 78 10000 4.63 10 02:26 13.10.2021
5884 Clouds 25 1020 83 10000 6.69 360 01:37 13.10.2021
5885 Rain 24 1020 83 10000 3.09 20 23:29 12.10.2021
5886 Rain 25 1020 83 10000 3.63 34 22:45 12.10.2021
5887 Rain 25 1020 83 10000 3.58 37 21:30 12.10.2021
5888 Rain 25 1020 83 10000 3.59 37 20:34 12.10.2021
5889 Rain 25 1020 83 10000 3.64 35 19:57 12.10.2021
5890 Clouds 25 1020 83 10000 3.38 37 18:28 12.10.2021
5891 Clouds 25 1020 83 10000 3.38 37 17:44 12.10.2021
5892 Clouds 25 1020 83 10000 3.3 37 16:38 12.10.2021
5893 Clouds 25 1020 83 10000 3.41 38 15:46 12.10.2021
5894 Clouds 25 1020 83 10000 6.17 10 14:38 12.10.2021
5895 Rain 25 1020 83 10000 6.17 350 13:42 12.10.2021
5896 Clouds 26 1018 78 10000 8.23 360 11:37 12.10.2021
5897 Clouds 28 1017 78 10000 7.72 340 09:41 12.10.2021
5898 Clouds 30 1017 70 10000 7.2 340 08:42 12.10.2021
5899 Clouds 30 1018 66 10000 3.09 310 06:53 12.10.2021
5900 Clouds 29 1018 70 10000 2.57 300 05:29 12.10.2021
5901 Clouds 28 1019 74 10000 2.06 260 04:31 12.10.2021
5902 Clouds 24 1018 88 10000 2.57 120 00:27 12.10.2021
5903 Clouds 23 1018 94 10000 2.57 130 23:39 11.10.2021
5904 Clear 25 1018 78 10000 2.06 59 22:56 11.10.2021
5905 Clear 25 1017 78 10000 1.97 57 21:43 11.10.2021
5906 Clouds 25 1017 78 10000 1.92 56 20:32 11.10.2021
5907 Clouds 25 1017 78 10000 2.08 53 19:38 11.10.2021
5908 Clouds 25 1017 78 10000 2.34 61 18:24 11.10.2021
5909 Clouds 25 1017 78 10000 2.27 61 16:49 11.10.2021
5910 Clouds 25 1017 78 10000 2.27 61 16:31 11.10.2021
5911 Clouds 25 1018 78 10000 2.41 63 15:46 11.10.2021
5912 Clouds 26 1016 78 10000 5.14 360 14:54 11.10.2021
5913 Clouds 26 1016 78 10000 5.14 360 14:22 11.10.2021
5914 Clouds 26 1016 73 10000 6.17 360 13:36 11.10.2021
5915 Clouds 28 1015 69 10000 5.14 20 11:37 11.10.2021
5916 Clouds 30 1014 62 10000 1.54 300 09:55 11.10.2021
5917 Clouds 29 1014 65 10000 2.06 220 08:41 11.10.2021
5918 Clouds 26 1017 73 10000 1.03 0 03:47 11.10.2021
5919 Clouds 24 1016 83 10000 2.06 90 01:34 11.10.2021
5920 Clouds 23 1016 88 10000 1.54 110 00:43 11.10.2021
5921 Clouds 23 1016 88 10000 2.57 130 23:52 10.10.2021
5922 Clear 25 1017 78 10000 1.14 71 21:51 10.10.2021
5923 Clear 25 1017 78 10000 1.14 71 21:51 10.10.2021
5924 Clear 25 1017 78 10000 0.98 95 21:28 10.10.2021
5925 Clear 25 1017 78 10000 0.98 95 20:41 10.10.2021
5926 Clear 25 1017 78 10000 1.13 72 20:20 10.10.2021
5927 Clear 25 1017 78 10000 1.13 72 19:51 10.10.2021
5928 Clear 25 1017 78 10000 1.13 72 19:31 10.10.2021
5929 Clear 25 1018 78 10000 0.98 124 18:24 10.10.2021
5930 Clear 25 1018 78 10000 0.94 102 15:57 10.10.2021
5931 Clear 25 1018 78 10000 0.94 102 15:38 10.10.2021
5932 Clouds 26 1017 78 10000 4.12 330 13:42 10.10.2021
5933 Clouds 27 1016 74 10000 3.6 320 12:44 10.10.2021
5934 Clouds 27 1016 74 10000 3.6 320 12:22 10.10.2021
5935 Clouds 30 1016 58 10000 1.54 310 10:33 10.10.2021
5936 Clouds 30 1016 54 10000 1.54 290 09:22 10.10.2021
5937 Clouds 30 1016 54 10000 2.57 310 08:51 10.10.2021
5938 Clouds 31 1018 51 10000 2.06 300 06:19 10.10.2021
5939 Clouds 26 1020 69 10000 1.54 360 02:23 10.10.2021
5940 Clouds 24 1019 78 10000 2.06 130 00:52 10.10.2021
5941 Clouds 23 1019 83 10000 2.06 120 23:52 09.10.2021
5942 Clear 25 1019 83 10000 1.86 71 22:21 09.10.2021
5943 Clear 25 1019 83 10000 1.86 71 21:30 09.10.2021
5944 Clear 25 1019 83 10000 1.86 71 21:30 09.10.2021
5945 Clear 25 1020 83 10000 1.67 64 19:53 09.10.2021
5946 Clear 25 1020 83 10000 1.67 64 19:34 09.10.2021
5947 Clear 25 1020 83 10000 1.39 110 18:45 09.10.2021
5948 Clear 25 1020 83 10000 1.7 125 17:51 09.10.2021
5949 Clear 25 1020 83 10000 1.4 76 16:20 09.10.2021
5950 Clouds 26 1019 78 10000 3.6 320 13:49 09.10.2021
5951 Clouds 26 1019 78 10000 3.6 320 13:31 09.10.2021
5952 Clouds 26 1019 78 10000 3.09 320 12:23 09.10.2021
5953 Clouds 29 1018 65 10000 1.54 280 10:43 09.10.2021
5954 Clouds 29 1018 65 10000 1.54 280 10:18 09.10.2021
5955 Clouds 30 1018 51 10000 2.57 270 08:33 09.10.2021
5956 Clouds 30 1018 54 10000 4.12 190 07:50 09.10.2021
5957 Clouds 30 1018 54 10000 4.12 190 07:50 09.10.2021
5958 Clouds 30 1019 54 10000 5.14 180 06:22 09.10.2021
5959 Clouds 27 1020 61 10000 2.06 280 04:31 09.10.2021
5960 Clouds 25 1021 78 10000 1.03 270 02:43 09.10.2021
5961 Clouds 21 1020 94 10000 2.06 100 23:58 08.10.2021
5962 Clouds 21 1020 94 10000 2.06 100 23:31 08.10.2021
5963 Clear 25 1020 78 10000 1.34 71 22:42 08.10.2021
5964 Clear 25 1020 78 10000 1.21 103 21:39 08.10.2021
5965 Clouds 25 1020 78 10000 1.69 111 19:47 08.10.2021
5966 Clouds 25 1020 78 10000 1.87 93 18:19 08.10.2021
5967 Clouds 25 1020 78 10000 1.99 58 16:53 08.10.2021
5968 Clouds 25 1020 78 10000 1.94 50 16:24 08.10.2021
5969 Clouds 25 1019 78 10000 3.6 340 14:20 08.10.2021
5970 Clouds 25 1019 73 10000 2.57 340 13:41 08.10.2021
5971 Clouds 26 1017 69 10000 5.66 330 11:41 08.10.2021
5972 Clouds 27 1017 69 10000 4.63 330 10:42 08.10.2021
5973 Clouds 27 1017 63 10000 3.6 330 09:46 08.10.2021
5974 Clear 23 1017 83 10000 2.06 130 00:35 08.10.2021
5975 Clear 22 1018 80 10000 2.19 60 23:22 07.10.2021
5976 Clear 24 1018 69 10000 2.48 57 21:47 07.10.2021
5977 Clear 22 1018 80 10000 2.49 60 21:28 07.10.2021
5978 Clear 22 1018 78 10000 2.13 65 20:28 07.10.2021
5979 Clear 24 1018 69 10000 2.13 65 19:31 07.10.2021
5980 Clouds 24 1018 69 10000 2.06 54 18:27 07.10.2021
5981 Clouds 24 1018 69 10000 2.02 42 17:27 07.10.2021
5982 Clouds 24 1018 69 10000 1.97 35 15:56 07.10.2021
5983 Clouds 24 1017 69 10000 2.06 70 14:24 07.10.2021
5984 Clouds 24 1017 69 10000 4.12 30 13:43 07.10.2021
5985 Clear 25 1016 69 10000 5.14 340 12:48 07.10.2021
5986 Clouds 27 1015 50 10000 3.6 310 10:57 07.10.2021
5987 Clouds 27 1015 50 10000 3.6 310 10:22 07.10.2021
5988 Clouds 28 1015 51 10000 1.54 280 09:34 07.10.2021
5989 Clouds 28 1015 51 10000 1.54 280 09:34 07.10.2021
5990 Clouds 28 1015 47 10000 1.54 200 08:52 07.10.2021
5991 Clouds 28 1015 47 10000 4.12 170 07:56 07.10.2021
5992 Clouds 28 1015 47 10000 4.12 170 07:36 07.10.2021
5993 Clouds 26 1017 73 10000 4.12 170 03:54 07.10.2021
5994 Clouds 21 1016 94 10000 2.06 110 00:29 07.10.2021
5995 Clear 24 1017 73 10000 0.27 0 22:51 06.10.2021
5996 Clear 24 1017 73 10000 0.58 280 22:21 06.10.2021
5997 Clear 24 1017 73 10000 1 255 20:40 06.10.2021
5998 Clear 24 1017 73 10000 1.55 247 20:20 06.10.2021
5999 Clear 24 1017 73 10000 1.94 235 18:42 06.10.2021
6000 Clear 24 1017 73 10000 2.26 221 16:58 06.10.2021
6001 Clear 24 1017 73 10000 2.05 211 15:31 06.10.2021
6002 Clear 24 1016 73 10000 4.12 210 14:28 06.10.2021
6003 Clear 24 1016 69 10000 3.09 260 13:20 06.10.2021
6004 Clear 24 1015 73 10000 4.12 230 12:43 06.10.2021
6005 Clear 24 1015 73 10000 4.12 230 12:21 06.10.2021
6006 Clear 28 1015 47 10000 1.54 250 10:21 06.10.2021
6007 Clear 29 1015 45 10000 2.06 280 09:39 06.10.2021
6008 Clouds 29 1015 45 10000 2.57 270 08:43 06.10.2021
6009 Clouds 29 1016 42 10000 2.57 250 07:50 06.10.2021
6010 Clouds 27 1018 57 10000 2.06 250 05:26 06.10.2021
6011 Clear 21 1020 88 10000 1.54 120 00:29 06.10.2021
6012 Clear 20 1019 88 10000 1.54 90 23:58 05.10.2021
6013 Clear 20 1019 88 10000 1.54 90 23:39 05.10.2021
6014 Clear 21 1019 75 10000 2.01 26 23:20 05.10.2021
6015 Clear 21 1019 74 10000 1.5 49 22:28 05.10.2021
6016 Clear 21 1019 74 10000 1.5 49 21:49 05.10.2021
6017 Clear 22 1019 73 10000 1.36 67 20:42 05.10.2021
6018 Clear 22 1020 74 10000 1.41 76 20:24 05.10.2021
6019 Clear 22 1020 74 10000 1.41 76 19:43 05.10.2021
6020 Clear 22 1020 74 10000 1.49 76 18:54 05.10.2021
6021 Clear 20 1021 73 10000 2.06 42 16:38 05.10.2021
6022 Clear 25 1020 61 10000 3.09 10 14:38 05.10.2021
6023 Clear 25 1020 61 10000 3.6 20 13:35 05.10.2021
6024 Clear 25 1019 69 10000 5.66 320 12:47 05.10.2021
6025 Clear 25 1019 69 10000 5.66 320 12:18 05.10.2021
6026 Clear 28 1019 47 10000 3.6 330 10:59 05.10.2021
6027 Clouds 29 1019 42 10000 1.54 270 09:25 05.10.2021
6028 Clouds 25 1022 73 10000 1.03 0 03:57 05.10.2021
6029 Clear 20 1021 88 10000 3.09 130 23:53 04.10.2021
6030 Clear 23 1022 78 10000 1.19 78 22:35 04.10.2021
6031 Clouds 23 1022 78 10000 1.32 113 19:59 04.10.2021
6032 Clouds 23 1023 78 10000 1.49 127 18:34 04.10.2021
6033 Clouds 23 1023 78 10000 1.5 65 16:24 04.10.2021
6034 Clouds 23 1023 78 10000 1.65 63 15:31 04.10.2021
6035 Clear 23 1023 78 10000 1.54 90 14:42 04.10.2021
6036 Clear 23 1022 73 10000 1.03 0 13:57 04.10.2021
6037 Clear 23 1022 73 10000 1.03 0 13:24 04.10.2021
6038 Clear 24 1022 69 10000 4.63 330 12:26 04.10.2021
6039 Clear 25 1021 57 10000 2.06 340 11:30 04.10.2021
6040 Clear 29 1021 39 10000 2.57 310 09:59 04.10.2021
6041 Clear 29 1021 39 10000 3.6 300 08:40 04.10.2021
6042 Clear 29 1022 37 10000 2.57 300 07:19 04.10.2021
6043 Clear 21 1022 83 10000 3.09 130 00:33 04.10.2021
6044 Clear 23 1022 83 10000 1.65 105 22:34 03.10.2021
6045 Clear 23 1022 83 10000 2.21 120 21:39 03.10.2021
6046 Clear 23 1022 83 10000 1.91 139 20:59 03.10.2021
6047 Clear 23 1022 83 10000 1.71 138 19:57 03.10.2021
6048 Clear 23 1022 83 10000 2.58 144 18:34 03.10.2021
6049 Clear 23 1023 83 10000 1.87 145 17:48 03.10.2021
6050 Clear 23 1023 83 10000 0.81 107 15:57 03.10.2021
6051 Clear 23 1022 83 10000 1.54 120 14:46 03.10.2021
6052 Clear 22 1021 83 10000 2.06 90 13:58 03.10.2021
6053 Clear 22 1021 83 10000 2.06 90 13:21 03.10.2021
6054 Clear 26 1021 65 10000 4.12 350 12:28 03.10.2021
6055 Clear 28 1020 61 10000 3.09 330 10:36 03.10.2021
6056 Clear 31 1019 37 10000 2.57 350 08:36 03.10.2021
6057 Clear 21 1020 83 10000 3.09 120 00:41 03.10.2021
6058 Clear 22 1019 78 10000 2.23 84 22:33 02.10.2021
6059 Clear 22 1018 78 10000 2.2 26 20:55 02.10.2021
6060 Clear 22 1018 78 10000 2.59 37 19:32 02.10.2021
6061 Clear 22 1017 78 10000 2.52 52 18:31 02.10.2021
6062 Clear 22 1017 78 10000 2.24 73 17:38 02.10.2021
6063 Clear 22 1017 78 10000 2.21 65 16:46 02.10.2021
6064 Clear 22 1016 78 10000 1.54 180 14:42 02.10.2021
6065 Clear 25 1005 83 10000 2.71 30 15:41 30.09.2021
6066 Clouds 25 1005 83 10000 7.2 360 14:42 30.09.2021
6067 Clouds 26 1004 78 10000 5.66 360 12:22 30.09.2021
6068 Clouds 26 1004 73 10000 5.66 20 11:29 30.09.2021
6069 Clouds 27 1003 74 10000 4.63 20 10:26 30.09.2021
6070 Clouds 28 1004 69 10000 4.12 20 08:32 30.09.2021
6071 Clouds 29 1004 70 10000 6.17 320 07:57 30.09.2021
6072 Clouds 30 1005 62 10000 6.17 320 05:50 30.09.2021
6073 Clouds 26 1006 78 10000 1.54 300 02:33 30.09.2021
6074 Clouds 25 1006 78 10000 1.54 130 00:37 30.09.2021
6075 Clear 25 1007 83 10000 2.07 43 22:59 29.09.2021
6076 Clear 25 1007 83 10000 1.61 28 21:54 29.09.2021
6077 Clear 25 1007 83 10000 1.04 39 20:40 29.09.2021
6078 Clear 25 1007 83 10000 1.36 27 20:20 29.09.2021
6079 Clear 25 1008 83 10000 0.68 38 19:24 29.09.2021
6080 Clear 25 1008 83 10000 0.73 7 18:18 29.09.2021
6081 Clear 25 1008 83 10000 1.01 344 16:55 29.09.2021
6082 Clear 25 1009 83 10000 0.97 322 16:27 29.09.2021
6083 Clear 25 1009 83 10000 1.1 309 15:24 29.09.2021
6084 Clouds 26 1008 83 10000 2.57 300 14:37 29.09.2021
6085 Clouds 27 1008 78 10000 4.12 330 13:33 29.09.2021
6086 Clouds 27 1008 78 10000 5.66 330 12:38 29.09.2021
6087 Clouds 28 1007 74 10000 4.63 330 11:20 29.09.2021
6088 Clouds 30 1007 58 10000 2.06 310 10:27 29.09.2021
6089 Clouds 30 1007 58 10000 2.06 330 09:40 29.09.2021
6090 Clouds 30 1008 62 10000 2.06 290 07:51 29.09.2021
6091 Clouds 31 1008 62 10000 1.54 270 06:27 29.09.2021
6092 Clear 23 1010 88 10000 0.51 120 23:59 28.09.2021
6093 Clear 25 1011 88 10000 1.44 113 22:25 28.09.2021
6094 Clear 25 1011 88 10000 1.44 113 21:46 28.09.2021
6095 Clear 25 1010 88 10000 1.04 117 20:48 28.09.2021
6096 Clouds 25 1011 88 10000 0.87 104 19:48 28.09.2021
6097 Clouds 25 1011 88 10000 1.43 128 19:25 28.09.2021
6098 Clouds 25 1011 88 10000 1.43 128 18:40 28.09.2021
6099 Clouds 25 1011 88 10000 1.25 143 16:54 28.09.2021
6100 Clouds 25 1012 88 10000 0.87 112 15:19 28.09.2021
6101 Clouds 26 1011 83 10000 3.6 340 13:25 28.09.2021
6102 Clouds 26 1011 78 10000 2.57 330 12:24 28.09.2021
6103 Clouds 27 1010 67 10000 2.06 290 11:47 28.09.2021
6104 Clouds 27 1010 67 10000 2.06 290 11:25 28.09.2021
6105 Clouds 28 1010 65 10000 2.06 20 10:27 28.09.2021
6106 Clouds 28 1010 67 10000 2.57 360 09:29 28.09.2021
6107 Clouds 28 1010 65 10000 2.06 350 08:43 28.09.2021
6108 Clouds 28 1010 65 10000 3.09 310 07:55 28.09.2021
6109 Clouds 28 1011 65 10000 2.06 240 06:25 28.09.2021
6110 Clouds 25 1012 78 10000 2.57 290 01:31 28.09.2021
6111 Clear 24 1011 88 10000 1.54 330 00:28 28.09.2021
6112 Clouds 24 1011 83 10000 1.03 310 23:48 27.09.2021
6113 Clouds 24 1011 83 10000 1.03 310 23:23 27.09.2021
6114 Clouds 25 1011 74 10000 2.18 55 22:20 27.09.2021
6115 Clouds 25 1011 74 10000 2.18 55 22:20 27.09.2021
6116 Clouds 25 1011 74 10000 1.88 49 20:54 27.09.2021
6117 Clouds 25 1012 74 10000 1.41 101 20:24 27.09.2021
6118 Clouds 23 1012 83 10000 1.41 101 19:36 27.09.2021
6119 Clouds 25 1012 74 10000 1.85 109 18:52 27.09.2021
6120 Clouds 25 1012 74 10000 1.85 109 18:52 27.09.2021
6121 Clouds 25 1012 74 10000 1.85 109 18:52 27.09.2021
6122 Clouds 25 1012 74 10000 2.09 87 17:36 27.09.2021
6123 Clouds 25 1012 74 10000 2.12 87 16:53 27.09.2021
6124 Clouds 25 1012 74 10000 2 72 15:46 27.09.2021
6125 Clouds 25 1012 74 10000 1.96 62 15:27 27.09.2021
6126 Clouds 26 1012 73 10000 5.14 350 13:35 27.09.2021
6127 Clouds 26 1011 73 10000 6.17 360 12:20 27.09.2021
6128 Clouds 28 1010 69 10000 6.17 340 10:42 27.09.2021
6129 Clouds 29 1010 54 10000 3.6 310 09:31 27.09.2021
6130 Clouds 28 1011 57 10000 3.09 260 06:33 27.09.2021
6131 Clouds 26 1013 69 10000 1.54 290 03:30 27.09.2021
6132 Clear 22 1013 88 10000 2.06 120 23:41 26.09.2021
6133 Clouds 22 1013 83 10000 2.52 48 21:55 26.09.2021
6134 Clouds 22 1013 83 10000 2.55 46 21:26 26.09.2021
6135 Clouds 22 1014 83 10000 2.54 46 20:24 26.09.2021
6136 Clouds 22 1014 83 10000 2.54 46 19:53 26.09.2021
6137 Clouds 22 1014 82 10000 2.83 50 18:52 26.09.2021
6138 Clouds 22 1014 82 10000 3 43 17:59 26.09.2021
6139 Clouds 22 1014 82 10000 3 43 17:36 26.09.2021
6140 Clouds 23 1015 81 10000 3.31 45 17:18 26.09.2021
6141 Clouds 25 1015 73 10000 3.61 42 16:22 26.09.2021
6142 Clouds 25 1015 73 10000 3.48 41 15:22 26.09.2021
6143 Clouds 25 1014 73 10000 7.2 360 13:59 26.09.2021
6144 Clouds 25 1014 73 10000 7.2 360 13:31 26.09.2021
6145 Clouds 25 1014 78 10000 7.72 360 12:26 26.09.2021
6146 Clouds 26 1014 73 10000 7.72 360 11:52 26.09.2021
6147 Clouds 27 1013 69 10000 7.72 360 10:52 26.09.2021
6148 Clouds 28 1013 65 10000 7.72 350 09:37 26.09.2021
6149 Clouds 28 1014 65 10000 6.69 330 08:20 26.09.2021
6150 Clear 22 1017 88 10000 1.03 130 00:28 26.09.2021
6151 Clear 21 1017 94 10000 1.54 90 23:41 25.09.2021
6152 Clouds 23 1017 73 10000 2.66 39 22:39 25.09.2021
6153 Clouds 23 1017 73 10000 2.57 45 22:18 25.09.2021
6154 Clouds 23 1017 73 10000 2.57 45 21:33 25.09.2021
6155 Clouds 23 1017 73 10000 2.57 45 21:33 25.09.2021
6156 Clouds 23 1017 73 10000 2.51 41 20:51 25.09.2021
6157 Clouds 23 1018 73 10000 2.27 56 19:32 25.09.2021
6158 Clouds 23 1019 73 10000 2.29 49 18:26 25.09.2021
6159 Clouds 23 1018 73 10000 1.85 57 16:51 25.09.2021
6160 Clear 23 1018 73 10000 2.57 60 14:24 25.09.2021
6161 Clear 24 1018 69 10000 3.6 20 13:46 25.09.2021
6162 Clear 26 1018 65 10000 4.63 30 12:29 25.09.2021
6163 Clouds 28 1017 51 10000 4.63 360 10:36 25.09.2021
6164 Clouds 28 1017 57 10000 2.06 340 09:47 25.09.2021
6165 Clouds 29 1017 54 10000 2.06 300 08:45 25.09.2021
6166 Clouds 28 1017 57 10000 2.06 290 07:27 25.09.2021
6167 Clear 21 1019 88 10000 1.54 120 00:49 25.09.2021
6168 Clear 21 1018 84 10000 2.68 48 21:57 24.09.2021
6169 Clear 21 1018 84 10000 2.49 53 20:50 24.09.2021
6170 Clear 21 1019 84 10000 3.01 54 20:19 24.09.2021
6171 Clear 21 1019 84 10000 2.64 44 18:35 24.09.2021
6172 Clear 21 1019 83 10000 2.67 44 17:56 24.09.2021
6173 Clear 21 1019 83 10000 2.67 44 17:37 24.09.2021
6174 Clear 21 1019 83 10000 3.18 50 17:18 24.09.2021
6175 Clouds 24 1018 64 10000 3.6 60 14:48 24.09.2021
6176 Clear 24 1018 69 10000 5.66 60 13:19 24.09.2021
6177 Clouds 25 1018 57 10000 3.6 30 12:41 24.09.2021
6178 Clouds 25 1018 57 10000 3.6 30 12:23 24.09.2021
6179 Clouds 27 1017 50 10000 6.17 10 10:28 24.09.2021
6180 Clouds 27 1017 47 10000 6.17 10 08:57 24.09.2021
6181 Clouds 27 1018 50 10000 7.2 10 07:39 24.09.2021
6182 Clouds 28 1018 47 10000 5.14 360 06:50 24.09.2021
6183 Clouds 27 1019 47 10000 2.06 0 05:21 24.09.2021
6184 Clear 19 1019 94 10000 2.57 130 00:44 24.09.2021
6185 Clouds 20 1019 70 10000 2.57 33 22:35 23.09.2021
6186 Clear 20 1018 70 10000 2.25 52 21:56 23.09.2021
6187 Clear 20 1019 71 10000 2.39 22 20:36 23.09.2021
6188 Clouds 21 1018 72 10000 2.2 18 20:18 23.09.2021
6189 Clouds 21 1018 72 10000 2.43 8 18:22 23.09.2021
6190 Clouds 19 1018 73 10000 2.65 352 15:36 23.09.2021
6191 Clear 23 1017 73 10000 4.63 340 14:59 23.09.2021
6192 Clouds 23 1017 73 10000 4.63 320 13:48 23.09.2021
6193 Clouds 23 1017 73 10000 4.63 320 13:21 23.09.2021
6194 Clouds 24 1016 64 10000 4.12 310 12:53 23.09.2021
6195 Clouds 24 1016 64 10000 4.12 310 12:22 23.09.2021
6196 Clouds 26 1016 61 10000 4.12 320 11:47 23.09.2021
6197 Clouds 27 1015 69 10000 5.14 320 10:27 23.09.2021
6198 Clouds 28 1015 69 10000 5.66 330 09:52 23.09.2021
6199 Clouds 29 1015 70 10000 5.14 340 08:25 23.09.2021
6200 Clouds 29 1016 70 10000 4.12 230 04:27 23.09.2021
6201 Clouds 24 1015 94 8000 2.57 130 23:27 22.09.2021
6202 Clear 23 1016 89 10000 1.62 267 22:37 22.09.2021
6203 Clear 23 1015 89 10000 1.82 262 21:56 22.09.2021
6204 Clear 23 1015 89 10000 1.82 262 21:34 22.09.2021
6205 Clear 24 1014 90 10000 1.97 241 20:54 22.09.2021
6206 Clear 23 1014 88 10000 1.32 256 19:32 22.09.2021
6207 Clear 23 1014 87 10000 1.27 267 18:39 22.09.2021
6208 Clear 23 1015 86 10000 1.24 268 17:47 22.09.2021
6209 Clear 23 1014 84 10000 1.02 255 16:38 22.09.2021
6210 Clear 23 1014 80 10000 0.59 228 15:19 22.09.2021
6211 Clouds 25 1013 83 10000 4.63 200 13:48 22.09.2021
6212 Clouds 27 1011 69 10000 2.06 220 11:59 22.09.2021
6213 Clouds 28 1011 61 10000 5.14 340 10:52 22.09.2021
6214 Clouds 28 1010 57 10000 1.54 310 09:25 22.09.2021
6215 Clouds 28 1010 61 10000 1.54 350 08:29 22.09.2021
6216 Clouds 29 1010 61 10000 2.06 320 07:19 22.09.2021
6217 Clouds 27 1011 74 10000 1.54 320 05:56 22.09.2021
6218 Clouds 27 1011 74 10000 1.54 320 05:34 22.09.2021
6219 Clouds 26 1012 78 10000 2.06 350 03:50 22.09.2021
6220 Clouds 24 1010 94 10000 4.12 310 00:22 22.09.2021
6221 Clouds 23 1010 85 10000 2.52 301 22:54 21.09.2021
6222 Clouds 24 1009 85 10000 2.58 295 21:36 21.09.2021
6223 Clouds 24 1009 90 10000 3.78 248 20:26 21.09.2021
6224 Clouds 24 1010 91 8104 4.31 223 19:20 21.09.2021
6225 Clouds 25 1010 90 8206 5.35 211 17:35 21.09.2021
6226 Rain 25 1010 89 8611 5.29 207 16:34 21.09.2021
6227 Rain 26 1010 89 7320 4.99 202 15:38 21.09.2021
6228 Thunderstorm 26 1009 83 10000 4.12 170 14:57 21.09.2021
6229 Thunderstorm 27 1008 78 10000 5.14 180 13:56 21.09.2021
6230 Thunderstorm 27 1008 78 10000 5.14 180 13:56 21.09.2021
6231 Thunderstorm 27 1008 78 10000 5.14 180 13:36 21.09.2021
6232 Clouds 27 1007 78 10000 2.57 160 11:45 21.09.2021
6233 Clouds 30 1007 62 10000 7.2 220 09:58 21.09.2021
6234 Clouds 30 1007 62 10000 7.72 220 08:27 21.09.2021
6235 Clouds 30 1009 66 10000 4.12 160 06:41 21.09.2021
6236 Clouds 24 1010 88 10000 4.12 130 23:58 20.09.2021
6237 Clear 24 1011 88 10000 3.12 154 22:24 20.09.2021
6238 Clear 24 1011 88 10000 3.12 154 21:37 20.09.2021
6239 Clear 24 1011 88 10000 2.93 152 20:31 20.09.2021
6240 Clouds 24 1011 86 10000 2.5 136 19:30 20.09.2021
6241 Clouds 24 1012 88 10000 2.5 163 17:46 20.09.2021
6242 Clouds 25 1013 89 10000 2.56 205 16:43 20.09.2021
6243 Clear 26 1013 87 10000 2.66 197 15:49 20.09.2021
6244 Clouds 26 1013 86 10000 2.6 187 15:24 20.09.2021
6245 Clouds 25 1012 83 10000 2.06 140 14:24 20.09.2021
6246 Clouds 26 1011 73 10000 5.66 220 12:35 20.09.2021
6247 Clear 27 1010 74 10000 5.66 240 11:25 20.09.2021
6248 Clouds 28 1010 69 10000 5.14 250 10:18 20.09.2021
6249 Clouds 28 1010 69 10000 6.17 250 09:36 20.09.2021
6250 Clouds 28 1010 69 10000 6.17 250 09:18 20.09.2021
6251 Clouds 30 1011 54 10000 3.6 260 07:45 20.09.2021
6252 Clouds 22 1012 88 10000 2.57 140 23:49 19.09.2021
6253 Clouds 23 1012 85 10000 1.14 63 22:26 19.09.2021
6254 Clouds 23 1012 85 10000 1.14 63 21:43 19.09.2021
6255 Clouds 23 1012 85 10000 1.18 81 20:43 19.09.2021
6256 Clear 22 1013 85 10000 1.58 64 19:31 19.09.2021
6257 Clear 23 1013 82 10000 1.17 81 18:29 19.09.2021
6258 Clear 23 1013 82 10000 1.09 77 17:23 19.09.2021
6259 Clear 21 1013 82 10000 1.09 75 15:55 19.09.2021
6260 Clear 21 1014 82 10000 1.09 43 15:29 19.09.2021
6261 Clouds 25 1012 73 10000 5.66 10 14:46 19.09.2021
6262 Clouds 24 1012 83 10000 7.2 350 13:21 19.09.2021
6263 Clouds 25 1011 78 10000 7.2 360 12:50 19.09.2021
6264 Clouds 26 1011 73 10000 7.2 10 11:27 19.09.2021
6265 Clouds 28 1010 65 10000 7.2 340 10:47 19.09.2021
6266 Clouds 30 1010 51 10000 3.6 20 09:39 19.09.2021
6267 Clouds 30 1010 51 10000 4.12 50 08:31 19.09.2021
6268 Clouds 28 1011 54 10000 4.63 30 06:41 19.09.2021
6269 Clouds 23 1013 78 10000 6.17 360 23:37 18.09.2021
6270 Clear 21 1013 86 10000 3.05 20 21:59 18.09.2021
6271 Clear 21 1013 85 10000 3.08 16 20:51 18.09.2021
6272 Clear 21 1013 85 10000 3.2 12 20:31 18.09.2021
6273 Clear 21 1013 84 10000 3.43 9 19:39 18.09.2021
6274 Clear 21 1013 83 10000 3.34 13 19:20 18.09.2021
6275 Clear 21 1013 83 10000 3.34 13 18:32 18.09.2021
6276 Clear 22 1014 84 10000 4.01 33 17:29 18.09.2021
6277 Clear 22 1014 84 10000 4.1 31 15:50 18.09.2021
6278 Clouds 23 1013 78 10000 7.2 10 13:46 18.09.2021
6279 Clouds 23 1013 78 10000 7.2 10 13:27 18.09.2021
6280 Clouds 24 1012 73 10000 6.69 10 12:49 18.09.2021
6281 Clouds 24 1012 73 10000 6.69 10 12:49 18.09.2021
6282 Clouds 25 1012 69 10000 7.72 360 11:40 18.09.2021
6283 Clouds 27 1011 61 10000 7.2 10 10:31 18.09.2021
6284 Clouds 28 1011 61 10000 7.2 340 09:27 18.09.2021
6285 Clouds 28 1010 61 10000 6.69 350 08:55 18.09.2021
6286 Clouds 26 1012 76 10000 1.7 51 02:50 18.09.2021
6287 Clouds 24 1011 85 10000 3.08 32 00:41 18.09.2021
6288 Clouds 23 1010 89 10000 3.5 14 23:47 17.09.2021
6289 Clouds 22 1010 89 10000 3.47 10 22:33 17.09.2021
6290 Clouds 22 1010 90 10000 3.31 9 21:55 17.09.2021
6291 Clouds 22 1009 90 10000 3.42 359 20:45 17.09.2021
6292 Clouds 23 1008 90 10000 7.01 325 18:54 17.09.2021
6293 Clouds 24 1007 92 10000 8.15 309 16:51 17.09.2021
6294 Clouds 24 1007 92 10000 8.09 306 16:18 17.09.2021
6295 Clouds 25 1001 88 9000 14.92 290 12:36 17.09.2021
6296 Mist 25 996 94 5000 18.01 240 10:41 17.09.2021
6297 Clouds 26 996 89 8000 19.03 200 08:19 17.09.2021
6298 Rain 26 998 89 3000 14.92 180 06:49 17.09.2021
6299 Rain 26 1005 89 10000 7.2 130 00:49 17.09.2021
6300 Rain 25 1006 88 9964 8.09 148 22:50 16.09.2021
6301 Clouds 25 1006 89 10000 7.54 148 22:24 16.09.2021
6302 Clouds 25 1006 89 10000 7.54 148 21:39 16.09.2021
6303 Clouds 25 1006 89 10000 7.42 143 20:43 16.09.2021
6304 Rain 25 1007 87 10000 5.57 130 19:36 16.09.2021
6305 Rain 25 1008 87 10000 4.3 120 18:19 16.09.2021
6306 Rain 25 1008 88 10000 3.9 122 17:22 16.09.2021
6307 Rain 28 1007 69 10000 6.69 110 14:53 16.09.2021
6308 Clouds 28 1007 69 10000 3.09 160 13:48 16.09.2021
6309 Clouds 29 1006 70 10000 5.66 100 12:47 16.09.2021
6310 Rain 29 1006 70 10000 5.66 100 12:26 16.09.2021
6311 Rain 30 1006 66 10000 5.14 100 11:24 16.09.2021
6312 Clouds 31 1006 62 10000 5.66 110 10:30 16.09.2021
6313 Clouds 31 1006 62 10000 5.14 110 09:39 16.09.2021
6314 Clouds 32 1006 58 10000 6.17 110 08:28 16.09.2021
6315 Clouds 32 1008 62 10000 4.63 160 06:58 16.09.2021
6316 Clouds 32 1008 62 10000 4.63 160 06:38 16.09.2021
6317 Clouds 28 1010 74 10000 3.09 320 03:54 16.09.2021
6318 Clouds 25 1010 88 10000 1.54 160 00:58 16.09.2021
6319 Clouds 24 1009 88 10000 1.54 150 23:31 15.09.2021
6320 Clouds 23 1010 85 10000 3.2 59 22:44 15.09.2021
6321 Clouds 24 1010 84 10000 3.64 51 21:31 15.09.2021
6322 Clouds 23 1010 85 10000 3.38 53 20:51 15.09.2021
6323 Clouds 23 1009 85 10000 3.42 56 19:33 15.09.2021
6324 Clouds 23 1010 85 10000 3.71 53 18:53 15.09.2021
6325 Clouds 24 1010 86 10000 3.51 47 17:42 15.09.2021
6326 Clouds 24 1010 86 10000 3.43 47 16:43 15.09.2021
6327 Clouds 24 1010 86 10000 3.43 47 16:43 15.09.2021
6328 Clouds 24 1010 87 10000 3.51 46 15:22 15.09.2021
6329 Clouds 27 1010 69 10000 3.6 60 14:42 15.09.2021
6330 Clouds 27 1010 69 10000 3.6 80 13:47 15.09.2021
6331 Clouds 27 1010 69 10000 3.6 80 13:28 15.09.2021
6332 Clouds 27 1009 69 10000 4.63 70 12:33 15.09.2021
6333 Clouds 28 1009 69 10000 7.2 50 11:51 15.09.2021
6334 Clouds 29 1008 65 10000 6.17 60 10:57 15.09.2021
6335 Clouds 29 1008 65 10000 6.17 60 10:33 15.09.2021
6336 Clouds 31 1008 62 10000 3.6 70 08:50 15.09.2021
6337 Clouds 30 1009 66 10000 3.09 210 07:26 15.09.2021
6338 Clouds 23 1010 94 10000 2.57 130 00:55 15.09.2021
6339 Clouds 23 1009 90 10000 3.56 57 22:24 14.09.2021
6340 Clouds 23 1010 91 10000 2.75 60 21:21 14.09.2021
6341 Clouds 23 1010 90 10000 3.59 58 20:18 14.09.2021
6342 Rain 24 1010 90 10000 3.71 54 18:57 14.09.2021
6343 Clouds 24 1010 90 10000 3.64 60 17:33 14.09.2021
6344 Clouds 22 1011 89 10000 3.56 71 16:37 14.09.2021
6345 Clouds 25 1010 83 10000 2.06 160 14:32 14.09.2021
6346 Rain 25 1010 88 10000 2.06 130 13:53 14.09.2021
6347 Rain 24 1009 94 10000 4.12 150 11:41 14.09.2021
6348 Rain 25 1010 88 10000 4.12 120 10:20 14.09.2021
6349 Rain 24 1010 88 10000 4.63 140 09:45 14.09.2021
6350 Rain 25 1010 88 10000 3.09 110 07:28 14.09.2021
6351 Rain 24 1012 88 10000 4.12 140 00:57 14.09.2021
6352 Rain 24 1012 88 10000 4.63 150 23:27 13.09.2021
6353 Rain 23 1012 93 10000 5.39 71 22:27 13.09.2021
6354 Rain 23 1012 93 10000 5.39 71 21:55 13.09.2021
6355 Rain 23 1013 93 10000 5.66 74 21:23 13.09.2021
6356 Clouds 23 1013 94 6533 5.22 78 19:34 13.09.2021
6357 Rain 23 1014 92 10000 4.62 77 18:44 13.09.2021
6358 Rain 23 1015 93 10000 4.09 72 17:21 13.09.2021
6359 Rain 24 1015 88 10000 3.72 70 15:55 13.09.2021
6360 Rain 24 1014 94 10000 0 0 14:30 13.09.2021
6361 Rain 24 1014 94 10000 0.51 0 11:21 13.09.2021
6362 Rain 26 1013 73 10000 3.09 10 09:54 13.09.2021
6363 Rain 26 1014 83 10000 3.09 10 07:46 13.09.2021
6364 Rain 25 1013 88 10000 2.06 150 23:50 12.09.2021
6365 Rain 23 1013 94 10000 2.31 65 22:27 12.09.2021
6366 Rain 23 1013 94 10000 2.31 65 21:51 12.09.2021
6367 Rain 24 1014 95 10000 1.98 72 20:41 12.09.2021
6368 Rain 23 1015 92 10000 2.19 75 19:54 12.09.2021
6369 Rain 23 1015 92 10000 1.73 77 19:28 12.09.2021
6370 Clouds 23 1015 92 10000 1.73 77 18:32 12.09.2021
6371 Clouds 24 1015 92 10000 2.34 81 16:42 12.09.2021
6372 Clouds 24 1015 91 10000 1.46 142 15:29 12.09.2021
6373 Rain 26 1013 89 10000 3.09 130 13:55 12.09.2021
6374 Clouds 27 1012 78 10000 1.03 0 11:47 12.09.2021
6375 Clouds 27 1011 78 10000 1.03 0 10:18 12.09.2021
6376 Rain 28 1010 69 10000 1.54 330 08:38 12.09.2021
6377 Rain 24 1011 94 10000 1.03 0 02:56 12.09.2021
6378 Rain 23 1011 94 8000 1.03 70 23:52 11.09.2021
6379 Rain 23 1010 94 8951 3.35 109 22:25 11.09.2021
6380 Rain 23 1010 94 8951 3.35 109 21:37 11.09.2021
6381 Rain 22 1011 96 2500 1.85 102 19:32 11.09.2021
6382 Rain 24 1012 89 10000 1.89 135 17:52 11.09.2021
6383 Clouds 23 1012 87 10000 2.19 34 15:52 11.09.2021
6384 Clouds 25 1010 88 10000 2.57 90 13:52 11.09.2021
6385 Clouds 25 1010 88 10000 2.57 90 13:18 11.09.2021
6386 Clouds 26 1011 83 10000 3.09 140 11:34 11.09.2021
6387 Rain 26 1010 83 10000 3.09 60 09:40 11.09.2021
6388 Rain 26 1011 83 10000 2.06 170 07:45 11.09.2021
6389 Rain 26 1011 73 10000 1.03 0 06:52 11.09.2021
6390 Clouds 24 1013 73 10000 2.06 90 23:38 10.09.2021
6391 Clouds 24 1013 78 10000 0.91 111 22:25 10.09.2021
6392 Clouds 24 1013 78 10000 0.91 111 21:54 10.09.2021
6393 Clouds 25 1013 75 10000 1.23 157 20:25 10.09.2021
6394 Clouds 24 1014 81 10000 0.94 70 18:28 10.09.2021
6395 Clouds 23 1014 82 10000 1.17 66 16:54 10.09.2021
6396 Clear 25 1013 69 10000 1.54 40 14:49 10.09.2021
6397 Clear 26 1012 73 10000 3.09 150 12:22 10.09.2021
6398 Rain 27 1014 74 10000 2.57 290 08:48 10.09.2021
6399 Rain 27 1014 65 10000 5.14 310 07:50 10.09.2021
6400 Clouds 26 1013 83 10000 0.51 0 02:27 10.09.2021
6401 Clouds 24 1014 80 10000 0.77 265 22:31 09.09.2021
6402 Clouds 24 1013 79 10000 1.54 230 21:45 09.09.2021
6403 Clouds 24 1013 79 10000 1.54 230 21:45 09.09.2021
6404 Clouds 24 1013 80 10000 1.94 211 20:46 09.09.2021
6405 Clouds 24 1013 81 10000 2.11 190 19:33 09.09.2021
6406 Clouds 24 1013 81 10000 1.52 169 18:26 09.09.2021
6407 Clouds 23 1013 81 10000 1.33 150 16:40 09.09.2021
6408 Clouds 24 1013 79 10000 1.24 108 15:27 09.09.2021
6409 Clouds 26 1012 78 10000 5.14 360 12:48 09.09.2021
6410 Clouds 28 1011 69 10000 4.63 360 11:33 09.09.2021
6411 Clouds 30 1011 54 10000 3.09 330 09:50 09.09.2021
6412 Clouds 29 1011 54 10000 2.57 280 08:32 09.09.2021
6413 Clouds 29 1011 61 10000 3.09 260 06:24 09.09.2021
6414 Clouds 24 1013 78 10000 1.03 0 02:18 09.09.2021
6415 Clouds 22 1012 83 10000 1.31 28 22:39 08.09.2021
6416 Clouds 22 1012 82 10000 1.62 358 21:22 08.09.2021
6417 Clouds 22 1012 82 10000 1.6 354 19:56 08.09.2021
6418 Clouds 22 1012 83 10000 1.74 4 18:50 08.09.2021
6419 Clouds 22 1012 83 10000 1.9 354 18:28 08.09.2021
6420 Clouds 22 1012 83 10000 1.9 354 17:55 08.09.2021
6421 Clouds 22 1012 82 10000 2.25 340 16:28 08.09.2021
6422 Clouds 25 1010 73 10000 5.66 300 13:56 08.09.2021
6423 Clouds 25 1010 73 10000 4.63 310 12:42 08.09.2021
6424 Clouds 25 1010 73 10000 4.63 310 12:42 08.09.2021
6425 Clouds 25 1010 73 10000 4.63 310 12:24 08.09.2021
6426 Clouds 26 1009 65 10000 4.63 300 11:28 08.09.2021
6427 Clouds 27 1009 61 10000 5.14 300 10:32 08.09.2021
6428 Clouds 28 1009 61 10000 5.14 320 09:58 08.09.2021
6429 Clouds 29 1009 61 10000 5.66 330 07:55 08.09.2021
6430 Clouds 29 1009 61 10000 5.66 330 07:55 08.09.2021
6431 Clouds 29 1009 61 10000 5.66 330 07:55 08.09.2021
6432 Clouds 29 1009 61 10000 5.66 330 07:55 08.09.2021
6433 Clouds 29 1009 61 10000 5.66 330 07:55 08.09.2021
6434 Clouds 29 1009 61 10000 5.66 330 07:30 08.09.2021
6435 Clouds 25 1010 88 10000 2.57 330 00:33 08.09.2021
6436 Clouds 25 1009 92 10000 2.26 278 22:30 07.09.2021
6437 Clouds 25 1009 90 7759 3.19 247 21:38 07.09.2021
6438 Rain 26 1010 88 7410 5.18 211 19:40 07.09.2021
6439 Rain 26 1010 88 7586 5.51 209 18:39 07.09.2021
6440 Clouds 26 1011 88 8924 5.66 212 17:41 07.09.2021
6441 Clouds 27 1011 87 10000 5.61 207 15:57 07.09.2021
6442 Clouds 27 1011 87 10000 5.61 207 15:33 07.09.2021
6443 Clouds 27 1009 83 10000 4.12 200 13:54 07.09.2021
6444 Clouds 27 1009 83 10000 4.12 200 12:28 07.09.2021
6445 Clouds 28 1009 78 10000 3.09 180 11:26 07.09.2021
6446 Clouds 27 1010 83 10000 3.09 220 10:37 07.09.2021
6447 Clouds 30 1010 70 10000 6.17 220 07:51 07.09.2021
6448 Clouds 30 1010 70 10000 3.6 140 06:42 07.09.2021
6449 Clouds 28 1012 78 10000 3.6 130 02:43 07.09.2021
6450 Clouds 28 1012 78 10000 3.6 130 02:23 07.09.2021
6451 Clouds 25 1012 88 10000 3.09 140 00:21 07.09.2021
6452 Clouds 25 1012 83 10000 3.09 150 23:31 06.09.2021
6453 Clouds 24 1012 83 10000 1.23 125 22:53 06.09.2021
6454 Clouds 24 1012 82 10000 1.28 120 22:24 06.09.2021
6455 Clouds 24 1012 81 10000 1.18 129 20:37 06.09.2021
6456 Clouds 24 1012 76 10000 1.42 56 19:20 06.09.2021
6457 Clouds 24 1012 76 10000 1.42 56 18:36 06.09.2021
6458 Clouds 25 1012 76 10000 1.7 98 17:54 06.09.2021
6459 Clouds 25 1013 77 10000 2.05 102 16:34 06.09.2021
6460 Clouds 25 1013 79 10000 2.06 61 15:25 06.09.2021
6461 Clouds 27 1012 74 10000 1.03 0 13:45 06.09.2021
6462 Clouds 28 1012 69 10000 4.12 350 12:45 06.09.2021
6463 Clouds 31 1012 45 10000 1.54 260 10:37 06.09.2021
6464 Clouds 30 1012 48 10000 2.06 270 07:48 06.09.2021
6465 Clouds 27 1015 69 10000 2.57 240 04:36 06.09.2021
6466 Clouds 24 1015 78 10000 1.54 190 23:23 05.09.2021
6467 Clouds 23 1015 79 10000 3.13 41 22:33 05.09.2021
6468 Rain 23 1015 80 10000 3.18 43 21:56 05.09.2021
6469 Clouds 23 1015 79 10000 2.97 49 21:21 05.09.2021
6470 Rain 23 1015 80 10000 3.38 42 19:45 05.09.2021
6471 Clouds 24 1015 82 10000 3.26 40 17:52 05.09.2021
6472 Clouds 23 1016 82 10000 3.71 39 16:33 05.09.2021
6473 Clouds 24 1016 80 10000 3.2 23 15:20 05.09.2021
6474 Rain 26 1014 78 10000 3.6 360 12:44 05.09.2021
6475 Clouds 26 1014 78 10000 5.14 10 11:35 05.09.2021
6476 Clouds 27 1014 74 10000 5.66 360 10:40 05.09.2021
6477 Clouds 27 1014 74 10000 4.12 350 09:35 05.09.2021
6478 Clouds 27 1014 74 10000 1.03 0 08:34 05.09.2021
6479 Rain 27 1015 74 10000 1.54 180 05:47 05.09.2021
6480 Clouds 24 1014 83 10000 2.57 150 00:39 05.09.2021
6481 Clouds 24 1014 83 10000 2.06 140 23:56 04.09.2021
6482 Clouds 24 1014 83 10000 2.06 140 23:24 04.09.2021
6483 Clouds 24 1014 81 10000 2.83 40 22:35 04.09.2021
6484 Clouds 24 1013 81 10000 2.86 50 20:58 04.09.2021
6485 Clouds 23 1013 82 10000 3.22 61 19:33 04.09.2021
6486 Clouds 24 1014 83 10000 3.63 34 17:25 04.09.2021
6487 Clouds 25 1013 78 10000 6.69 350 14:37 04.09.2021
6488 Clouds 28 1012 69 10000 7.2 10 11:26 04.09.2021
6489 Clouds 29 1011 61 10000 6.17 10 10:38 04.09.2021
6490 Clouds 30 1010 66 10000 3.6 340 07:43 04.09.2021
6491 Clouds 25 1010 83 10000 4.63 10 00:50 04.09.2021
6492 Clouds 24 1010 94 10000 4.12 10 23:49 03.09.2021
6493 Clouds 24 1010 91 10000 0.97 3 23:20 03.09.2021
6494 Clouds 24 1009 90 10000 0.61 347 21:43 03.09.2021
6495 Clear 25 1009 89 10000 0.96 301 20:54 03.09.2021
6496 Clouds 25 1009 88 10000 0.73 230 20:24 03.09.2021
6497 Clouds 25 1009 89 10000 1 283 19:33 03.09.2021
6498 Clouds 25 1009 88 10000 0.9 222 18:21 03.09.2021
6499 Clouds 24 1009 88 10000 0.79 267 16:47 03.09.2021
6500 Clouds 25 1009 88 10000 1.09 266 15:38 03.09.2021
6501 Clouds 27 1006 83 10000 6.69 210 13:48 03.09.2021
6502 Clouds 28 1006 69 10000 6.69 200 10:45 03.09.2021
6503 Clouds 29 1005 70 10000 7.2 210 09:21 03.09.2021
6504 Clouds 29 1006 74 10000 7.72 220 07:54 03.09.2021
6505 Rain 27 1006 78 10000 3.09 230 06:48 03.09.2021
6506 Clouds 28 1006 78 10000 8.75 220 23:56 02.09.2021
6507 Clouds 26 1007 87 9511 4.54 239 21:49 02.09.2021
6508 Clouds 25 1007 90 5696 3.62 236 20:40 02.09.2021
6509 Clouds 25 1008 87 10000 2.06 233 17:41 02.09.2021
6510 Clouds 25 1008 85 10000 1.36 234 16:20 02.09.2021
6511 Clouds 25 1008 86 10000 1.32 144 15:29 02.09.2021
6512 Clouds 26 1008 94 10000 2.06 180 13:23 02.09.2021
6513 Clouds 27 1007 83 10000 2.57 190 11:41 02.09.2021
6514 Clouds 27 1007 83 10000 5.66 210 10:53 02.09.2021
6515 Thunderstorm 28 1007 83 10000 4.63 250 08:57 02.09.2021
6516 Clouds 27 1008 89 10000 6.69 240 07:22 02.09.2021
6517 Clouds 28 1008 78 10000 10.29 220 05:31 02.09.2021
6518 Clouds 28 1008 78 10000 10.29 220 05:31 02.09.2021
6519 Clouds 27 1009 89 10000 5.66 240 02:35 02.09.2021
6520 Clouds 26 1009 89 10000 2.57 80 01:36 02.09.2021
6521 Clouds 28 1009 83 9000 8.23 220 23:40 01.09.2021
6522 Clouds 26 1010 87 10000 4 237 22:42 01.09.2021
6523 Clouds 26 1010 86 10000 4.16 228 21:41 01.09.2021
6524 Clouds 26 1010 86 10000 4.2 229 20:54 01.09.2021
6525 Clouds 26 1010 85 10000 3.34 231 19:23 01.09.2021
6526 Clouds 26 1011 85 10000 3.56 227 17:50 01.09.2021
6527 Clouds 27 1011 85 10000 3.8 222 16:48 01.09.2021
6528 Clouds 27 1011 84 10000 3.83 221 16:21 01.09.2021
6529 Clouds 28 1010 78 10000 6.69 220 13:57 01.09.2021
6530 Clouds 28 1010 74 10000 7.72 220 11:47 01.09.2021
6531 Clouds 30 1010 66 10000 7.2 220 09:35 01.09.2021
6532 Clouds 30 1011 66 10000 6.17 220 07:57 01.09.2021
6533 Clouds 30 1012 66 10000 5.14 230 06:42 01.09.2021
6534 Clouds 26 1013 89 10000 1.03 0 23:20 31.08.2021
6535 Clouds 25 1012 83 10000 2.52 226 21:41 31.08.2021
6536 Clouds 25 1013 86 10000 1.09 222 19:49 31.08.2021
6537 Clouds 25 1013 86 10000 1.02 277 18:44 31.08.2021
6538 Clouds 25 1014 86 10000 0.91 275 17:39 31.08.2021
6539 Clouds 26 1014 86 10000 0.9 273 17:20 31.08.2021
6540 Clear 27 1014 86 10000 1.11 293 16:24 31.08.2021
6541 Clouds 28 1014 78 10000 3.6 240 13:46 31.08.2021
6542 Clouds 30 1013 66 10000 4.63 220 11:36 31.08.2021
6543 Clouds 30 1013 66 10000 6.69 230 10:55 31.08.2021
6544 Clouds 32 1013 62 10000 5.66 230 09:45 31.08.2021
6545 Clouds 32 1013 62 10000 5.14 240 08:40 31.08.2021
6546 Clouds 32 1013 62 10000 2.57 260 07:38 31.08.2021
6547 Clouds 32 1014 62 10000 2.06 290 05:55 31.08.2021
6548 Clouds 25 1015 94 10000 1.54 110 23:35 30.08.2021
6549 Clouds 25 1015 91 10000 1.63 18 21:53 30.08.2021
6550 Clouds 25 1015 91 10000 1.63 18 21:32 30.08.2021
6551 Clouds 25 1015 91 10000 1.59 7 20:32 30.08.2021
6552 Clouds 26 1015 91 10000 1.38 353 19:29 30.08.2021
6553 Clouds 26 1015 91 10000 1.38 353 18:44 30.08.2021
6554 Clouds 26 1015 91 10000 1.5 343 17:46 30.08.2021
6555 Clouds 26 1016 90 10000 1.66 338 16:24 30.08.2021
6556 Clouds 27 1016 90 10000 1.66 338 15:39 30.08.2021
6557 Clouds 27 1015 89 10000 4.63 320 13:43 30.08.2021
6558 Clouds 28 1015 78 10000 5.14 320 12:29 30.08.2021
6559 Clouds 31 1014 66 10000 4.12 330 10:33 30.08.2021
6560 Clouds 25 1015 89 10000 0.38 354 22:30 29.08.2021
6561 Clouds 25 1015 89 10000 0.65 344 21:33 29.08.2021
6562 Clear 25 1015 89 10000 1.21 322 20:22 29.08.2021
6563 Clear 25 1015 90 10000 1.36 329 19:19 29.08.2021
6564 Clear 25 1015 89 10000 1.57 329 17:50 29.08.2021
6565 Clear 26 1015 88 10000 1.55 337 15:48 29.08.2021
6566 Clouds 27 1014 83 10000 5.14 220 14:19 29.08.2021
6567 Clouds 27 1014 83 10000 5.66 220 13:43 29.08.2021
6568 Clouds 28 1014 78 10000 6.69 230 12:32 29.08.2021
6569 Clouds 29 1013 74 10000 6.17 240 11:50 29.08.2021
6570 Clouds 29 1013 74 10000 6.17 240 11:22 29.08.2021
6571 Clouds 30 1013 74 10000 6.17 240 10:42 29.08.2021
6572 Clouds 30 1013 74 10000 6.17 240 10:23 29.08.2021
6573 Clouds 31 1014 62 10000 1.03 0 07:47 29.08.2021
6574 Clouds 26 1014 94 10000 2.06 130 00:21 29.08.2021
6575 Clouds 25 1014 90 10000 1.14 321 21:50 28.08.2021
6576 Clear 25 1014 91 10000 1.53 315 19:54 28.08.2021
6577 Clear 25 1015 91 10000 1.28 293 18:28 28.08.2021
6578 Clear 25 1015 91 10000 1.28 293 17:48 28.08.2021
6579 Clear 26 1015 90 10000 0.73 290 16:58 28.08.2021
6580 Clear 26 1015 90 10000 0.73 315 15:32 28.08.2021
6581 Clouds 27 1014 89 10000 3.09 240 14:19 28.08.2021
6582 Clouds 27 1014 89 10000 3.6 230 13:43 28.08.2021
6583 Clouds 28 1014 78 10000 2.06 300 12:41 28.08.2021
6584 Clouds 28 1014 83 10000 4.63 300 11:51 28.08.2021
6585 Clouds 29 1014 74 10000 6.17 240 10:29 28.08.2021
6586 Clouds 30 1013 66 10000 6.69 230 08:38 28.08.2021
6587 Clouds 31 1014 66 10000 4.12 230 06:23 28.08.2021
6588 Clouds 25 1015 87 10000 2.08 229 22:26 27.08.2021
6589 Clouds 25 1015 88 10000 1.98 241 20:56 27.08.2021
6590 Clouds 25 1015 89 10000 1.93 233 20:19 27.08.2021
6591 Clouds 25 1015 89 10000 1.61 247 18:46 27.08.2021
6592 Clouds 26 1016 89 10000 1.8 250 18:28 27.08.2021
6593 Clouds 27 1016 90 10000 1.75 241 16:49 27.08.2021
6594 Clear 27 1016 91 10000 1.67 260 15:21 27.08.2021
6595 Clouds 27 1015 89 10000 4.12 200 14:37 27.08.2021
6596 Clouds 28 1014 78 10000 6.17 220 12:28 27.08.2021
6597 Clouds 29 1014 74 10000 5.14 230 11:23 27.08.2021
6598 Clouds 30 1013 66 10000 6.17 220 10:41 27.08.2021
6599 Clouds 31 1013 70 10000 6.17 220 09:19 27.08.2021
6600 Clouds 31 1014 62 10000 6.69 220 08:38 27.08.2021
6601 Clouds 31 1014 66 10000 6.17 240 05:51 27.08.2021
6602 Clouds 27 1015 94 10000 1.54 140 00:49 27.08.2021
6603 Clouds 27 1015 94 10000 1.54 140 00:28 27.08.2021
6604 Clouds 26 1015 92 10000 1.84 226 22:28 26.08.2021
6605 Clouds 26 1015 92 10000 1.84 226 21:49 26.08.2021
6606 Clouds 26 1015 92 10000 1.71 234 19:53 26.08.2021
6607 Clouds 26 1015 92 10000 2 221 18:36 26.08.2021
6608 Clouds 26 1016 91 10000 1.37 211 17:26 26.08.2021
6609 Clouds 27 1016 91 10000 1.37 211 16:30 26.08.2021
6610 Clouds 28 1015 89 10000 4.12 220 14:47 26.08.2021
6611 Clouds 28 1015 89 10000 5.14 240 13:21 26.08.2021
6612 Clouds 28 1014 89 10000 4.12 230 12:34 26.08.2021
6613 Clouds 28 1013 89 10000 5.66 230 11:38 26.08.2021
6614 Clouds 30 1013 84 10000 3.6 230 09:25 26.08.2021
6615 Clouds 29 1014 84 10000 3.6 260 08:19 26.08.2021
6616 Clouds 28 1013 83 10000 9.77 210 23:44 25.08.2021
6617 Clouds 26 1014 92 10000 5.58 206 22:41 25.08.2021
6618 Clouds 26 1014 92 10000 5.83 206 22:23 25.08.2021
6619 Clouds 26 1013 92 10000 6.15 206 20:57 25.08.2021
6620 Clouds 26 1013 92 10000 6.15 206 20:30 25.08.2021
6621 Clouds 26 1013 92 8791 6.19 202 19:24 25.08.2021
6622 Clouds 26 1013 92 5870 6.26 201 17:53 25.08.2021
6623 Clouds 27 1013 91 7051 6.39 200 15:59 25.08.2021
6624 Clouds 27 1013 91 7051 6.39 200 15:32 25.08.2021
6625 Clouds 28 1012 83 10000 10.8 190 14:46 25.08.2021
6626 Clouds 28 1011 83 10000 7.2 200 13:53 25.08.2021
6627 Clouds 29 1010 79 10000 9.26 200 11:42 25.08.2021
6628 Clouds 29 1010 79 10000 9.26 200 11:18 25.08.2021
6629 Clouds 30 1010 74 10000 8.75 200 09:59 25.08.2021
6630 Clouds 30 1010 74 10000 8.75 200 09:31 25.08.2021
6631 Clouds 30 1010 74 10000 10.29 210 08:34 25.08.2021
6632 Clouds 31 1010 70 10000 10.8 210 06:23 25.08.2021
6633 Clouds 29 1009 79 10000 10.29 210 01:20 25.08.2021
6634 Clouds 27 1010 92 6182 7.27 208 23:19 24.08.2021
6635 Clouds 26 1009 93 9049 7.64 205 20:57 24.08.2021
6636 Clouds 26 1009 93 8208 7.27 201 19:55 24.08.2021
6637 Clouds 26 1009 93 10000 7.44 202 19:23 24.08.2021
6638 Clouds 27 1009 92 10000 7.67 204 17:53 24.08.2021
6639